<?xml version='1.0' encoding='UTF-8'?><gpx version="1.1" creator="JPX - https://github.com/jenetics/jpx" xmlns="http://www.topografix.com/GPX/1/1"><trk><trkseg><trkpt lat="44.8227671" lon="7.8964881"><ele>343.0</ele><time>2026-04-25T05:24:11.947Z</time></trkpt><trkpt lat="44.8226684" lon="7.8964714"><ele>343.0</ele><time>2026-04-25T05:24:23.279Z</time></trkpt><trkpt lat="44.8226998" lon="7.8963921"><ele>343.0</ele><time>2026-04-25T05:24:28.279Z</time></trkpt><trkpt lat="44.8226836" lon="7.8962692"><ele>343.0</ele><time>2026-04-25T05:24:31.276Z</time></trkpt><trkpt lat="44.8226598" lon="7.8961672"><ele>343.0</ele><time>2026-04-25T05:24:33.279Z</time></trkpt><trkpt lat="44.8226333" lon="7.8960523"><ele>343.0</ele><time>2026-04-25T05:24:35.278Z</time></trkpt><trkpt lat="44.8226025" lon="7.8959296"><ele>342.0</ele><time>2026-04-25T05:24:37.277Z</time></trkpt><trkpt lat="44.8225869" lon="7.8957963"><ele>341.0</ele><time>2026-04-25T05:24:39.28Z</time></trkpt><trkpt lat="44.8226118" lon="7.8956439"><ele>340.0</ele><time>2026-04-25T05:24:41.279Z</time></trkpt><trkpt lat="44.8226891" lon="7.8955191"><ele>339.0</ele><time>2026-04-25T05:24:43.279Z</time></trkpt><trkpt lat="44.822832" lon="7.8954724"><ele>339.0</ele><time>2026-04-25T05:24:45.279Z</time></trkpt><trkpt lat="44.8229024" lon="7.8954434"><ele>339.0</ele><time>2026-04-25T05:24:46.278Z</time></trkpt><trkpt lat="44.8229745" lon="7.8954071"><ele>339.0</ele><time>2026-04-25T05:24:47.279Z</time></trkpt><trkpt lat="44.8230467" lon="7.8953659"><ele>339.0</ele><time>2026-04-25T05:24:48.28Z</time></trkpt><trkpt lat="44.8231193" lon="7.8953225"><ele>339.0</ele><time>2026-04-25T05:24:49.278Z</time></trkpt><trkpt lat="44.8231889" lon="7.895271"><ele>339.0</ele><time>2026-04-25T05:24:50.277Z</time></trkpt><trkpt lat="44.8232405" lon="7.895185"><ele>338.1666666666667</ele><time>2026-04-25T05:24:51.279Z</time></trkpt><trkpt lat="44.8232784" lon="7.8950831"><ele>337.3333333333333</ele><time>2026-04-25T05:24:52.279Z</time></trkpt><trkpt lat="44.8232932" lon="7.894972"><ele>336.5</ele><time>2026-04-25T05:24:53.278Z</time></trkpt><trkpt lat="44.8232999" lon="7.8948606"><ele>335.66666666666663</ele><time>2026-04-25T05:24:54.276Z</time></trkpt><trkpt lat="44.8232862" lon="7.8947424"><ele>334.8333333333333</ele><time>2026-04-25T05:24:55.277Z</time></trkpt><trkpt lat="44.8232838" lon="7.8946228"><ele>334.0</ele><time>2026-04-25T05:24:56.277Z</time></trkpt><trkpt lat="44.8232722" lon="7.8945084"><ele>334.0</ele><time>2026-04-25T05:24:57.279Z</time></trkpt><trkpt lat="44.8232598" lon="7.8943902"><ele>334.0</ele><time>2026-04-25T05:24:58.279Z</time></trkpt><trkpt lat="44.8232502" lon="7.8942734"><ele>334.0</ele><time>2026-04-25T05:24:59.276Z</time></trkpt><trkpt lat="44.8232419" lon="7.8941527"><ele>334.0</ele><time>2026-04-25T05:25:00.279Z</time></trkpt><trkpt lat="44.8232308" lon="7.8940328"><ele>334.0</ele><time>2026-04-25T05:25:01.28Z</time></trkpt><trkpt lat="44.8232205" lon="7.8939142"><ele>334.0</ele><time>2026-04-25T05:25:02.277Z</time></trkpt><trkpt lat="44.8232057" lon="7.8938022"><ele>333.16666666666663</ele><time>2026-04-25T05:25:03.277Z</time></trkpt><trkpt lat="44.8231932" lon="7.8936862"><ele>332.3333333333333</ele><time>2026-04-25T05:25:04.28Z</time></trkpt><trkpt lat="44.8231807" lon="7.8935701"><ele>331.5</ele><time>2026-04-25T05:25:05.279Z</time></trkpt><trkpt lat="44.8231695" lon="7.8934514"><ele>330.6666666666667</ele><time>2026-04-25T05:25:06.278Z</time></trkpt><trkpt lat="44.8231614" lon="7.8933284"><ele>329.83333333333337</ele><time>2026-04-25T05:25:07.278Z</time></trkpt><trkpt lat="44.823157" lon="7.8932092"><ele>329.0</ele><time>2026-04-25T05:25:08.279Z</time></trkpt><trkpt lat="44.8231561" lon="7.8930945"><ele>328.5</ele><time>2026-04-25T05:25:09.279Z</time></trkpt><trkpt lat="44.8231586" lon="7.8929837"><ele>328.0</ele><time>2026-04-25T05:25:10.277Z</time></trkpt><trkpt lat="44.8231572" lon="7.8928817"><ele>327.5</ele><time>2026-04-25T05:25:11.276Z</time></trkpt><trkpt lat="44.8231441" lon="7.89272"><ele>327.0</ele><time>2026-04-25T05:25:13.277Z</time></trkpt><trkpt lat="44.8231094" lon="7.8926233"><ele>326.5</ele><time>2026-04-25T05:25:15.28Z</time></trkpt><trkpt lat="44.8230725" lon="7.8925069"><ele>326.0</ele><time>2026-04-25T05:25:17.277Z</time></trkpt><trkpt lat="44.8230092" lon="7.8924963"><ele>326.0</ele><time>2026-04-25T05:25:19.279Z</time></trkpt><trkpt lat="44.8229539" lon="7.8925701"><ele>326.0</ele><time>2026-04-25T05:25:21.277Z</time></trkpt><trkpt lat="44.8229334" lon="7.8927274"><ele>326.0</ele><time>2026-04-25T05:25:23.278Z</time></trkpt><trkpt lat="44.8229429" lon="7.8928762"><ele>326.0</ele><time>2026-04-25T05:25:25.279Z</time></trkpt><trkpt lat="44.8229548" lon="7.8930335"><ele>326.0</ele><time>2026-04-25T05:25:27.278Z</time></trkpt><trkpt lat="44.8229643" lon="7.8932009"><ele>325.75</ele><time>2026-04-25T05:25:29.28Z</time></trkpt><trkpt lat="44.8229753" lon="7.8933675"><ele>325.5</ele><time>2026-04-25T05:25:31.28Z</time></trkpt><trkpt lat="44.8229949" lon="7.8935346"><ele>325.25</ele><time>2026-04-25T05:25:33.279Z</time></trkpt><trkpt lat="44.8230049" lon="7.8936948"><ele>325.0</ele><time>2026-04-25T05:25:35.278Z</time></trkpt><trkpt lat="44.822963" lon="7.893824"><ele>325.8</ele><time>2026-04-25T05:25:37.277Z</time></trkpt><trkpt lat="44.8228671" lon="7.8938815"><ele>326.6</ele><time>2026-04-25T05:25:39.278Z</time></trkpt><trkpt lat="44.8227789" lon="7.8937986"><ele>327.4</ele><time>2026-04-25T05:25:41.278Z</time></trkpt><trkpt lat="44.8227655" lon="7.8936433"><ele>328.2</ele><time>2026-04-25T05:25:43.277Z</time></trkpt><trkpt lat="44.8227711" lon="7.8935512"><ele>329.0</ele><time>2026-04-25T05:25:44.277Z</time></trkpt><trkpt lat="44.8227737" lon="7.8934581"><ele>328.33333333333337</ele><time>2026-04-25T05:25:45.279Z</time></trkpt><trkpt lat="44.8227755" lon="7.8933608"><ele>327.6666666666667</ele><time>2026-04-25T05:25:46.28Z</time></trkpt><trkpt lat="44.8227743" lon="7.8932555"><ele>327.0</ele><time>2026-04-25T05:25:47.276Z</time></trkpt><trkpt lat="44.8227727" lon="7.8931446"><ele>326.3333333333333</ele><time>2026-04-25T05:25:48.28Z</time></trkpt><trkpt lat="44.8227627" lon="7.8930285"><ele>325.66666666666663</ele><time>2026-04-25T05:25:49.277Z</time></trkpt><trkpt lat="44.8227258" lon="7.8929147"><ele>325.0</ele><time>2026-04-25T05:25:50.279Z</time></trkpt><trkpt lat="44.8226496" lon="7.8928511"><ele>324.0</ele><time>2026-04-25T05:25:51.277Z</time></trkpt><trkpt lat="44.8225803" lon="7.8927748"><ele>323.0</ele><time>2026-04-25T05:25:52.276Z</time></trkpt><trkpt lat="44.8225052" lon="7.892711"><ele>322.0</ele><time>2026-04-25T05:25:53.383Z</time></trkpt><trkpt lat="44.8223451" lon="7.8925988"><ele>321.0</ele><time>2026-04-25T05:25:55.276Z</time></trkpt><trkpt lat="44.8222655" lon="7.8925338"><ele>320.0</ele><time>2026-04-25T05:25:56.275Z</time></trkpt><trkpt lat="44.8221877" lon="7.8924797"><ele>318.6666666666667</ele><time>2026-04-25T05:25:57.28Z</time></trkpt><trkpt lat="44.8221096" lon="7.892424"><ele>317.33333333333337</ele><time>2026-04-25T05:25:58.278Z</time></trkpt><trkpt lat="44.8220322" lon="7.8923662"><ele>316.0</ele><time>2026-04-25T05:25:59.279Z</time></trkpt><trkpt lat="44.8219562" lon="7.8923018"><ele>314.6666666666667</ele><time>2026-04-25T05:26:00.279Z</time></trkpt><trkpt lat="44.8218773" lon="7.8922437"><ele>313.3333333333333</ele><time>2026-04-25T05:26:01.277Z</time></trkpt><trkpt lat="44.8218001" lon="7.8922037"><ele>312.0</ele><time>2026-04-25T05:26:02.278Z</time></trkpt><trkpt lat="44.8217245" lon="7.8921568"><ele>311.3333333333333</ele><time>2026-04-25T05:26:03.279Z</time></trkpt><trkpt lat="44.8216471" lon="7.8921081"><ele>310.6666666666667</ele><time>2026-04-25T05:26:04.277Z</time></trkpt><trkpt lat="44.821568" lon="7.8920548"><ele>310.0</ele><time>2026-04-25T05:26:05.28Z</time></trkpt><trkpt lat="44.8214898" lon="7.8919978"><ele>309.33333333333337</ele><time>2026-04-25T05:26:06.279Z</time></trkpt><trkpt lat="44.8214138" lon="7.8919461"><ele>308.6666666666667</ele><time>2026-04-25T05:26:07.277Z</time></trkpt><trkpt lat="44.8213354" lon="7.8918862"><ele>308.0</ele><time>2026-04-25T05:26:08.275Z</time></trkpt><trkpt lat="44.8212628" lon="7.8918311"><ele>308.0</ele><time>2026-04-25T05:26:09.28Z</time></trkpt><trkpt lat="44.8211922" lon="7.8917805"><ele>308.0</ele><time>2026-04-25T05:26:10.279Z</time></trkpt><trkpt lat="44.8211238" lon="7.8917341"><ele>308.0</ele><time>2026-04-25T05:26:11.278Z</time></trkpt><trkpt lat="44.8210605" lon="7.8916941"><ele>308.0</ele><time>2026-04-25T05:26:12.279Z</time></trkpt><trkpt lat="44.8209618" lon="7.8916327"><ele>308.0</ele><time>2026-04-25T05:26:14.28Z</time></trkpt><trkpt lat="44.8208971" lon="7.8915766"><ele>308.0</ele><time>2026-04-25T05:26:16.28Z</time></trkpt><trkpt lat="44.8208669" lon="7.8914785"><ele>307.0</ele><time>2026-04-25T05:26:26.277Z</time></trkpt><trkpt lat="44.8208754" lon="7.8913651"><ele>306.0</ele><time>2026-04-25T05:26:29.276Z</time></trkpt><trkpt lat="44.8208847" lon="7.8912601"><ele>305.0</ele><time>2026-04-25T05:26:31.277Z</time></trkpt><trkpt lat="44.8209195" lon="7.8911395"><ele>304.0</ele><time>2026-04-25T05:26:33.278Z</time></trkpt><trkpt lat="44.8209584" lon="7.8909975"><ele>303.0</ele><time>2026-04-25T05:26:35.276Z</time></trkpt><trkpt lat="44.8210048" lon="7.8908596"><ele>303.0</ele><time>2026-04-25T05:26:37.279Z</time></trkpt><trkpt lat="44.8210618" lon="7.8907175"><ele>303.0</ele><time>2026-04-25T05:26:39.278Z</time></trkpt><trkpt lat="44.8211016" lon="7.8906254"><ele>303.0</ele><time>2026-04-25T05:26:40.278Z</time></trkpt><trkpt lat="44.8211462" lon="7.8905403"><ele>303.0</ele><time>2026-04-25T05:26:41.279Z</time></trkpt><trkpt lat="44.821196" lon="7.8904576"><ele>303.0</ele><time>2026-04-25T05:26:42.278Z</time></trkpt><trkpt lat="44.8212482" lon="7.8903709"><ele>303.0</ele><time>2026-04-25T05:26:43.278Z</time></trkpt><trkpt lat="44.8213036" lon="7.8902781"><ele>303.0</ele><time>2026-04-25T05:26:44.279Z</time></trkpt><trkpt lat="44.821365" lon="7.890204"><ele>303.0</ele><time>2026-04-25T05:26:45.279Z</time></trkpt><trkpt lat="44.8214288" lon="7.8901333"><ele>303.0</ele><time>2026-04-25T05:26:46.28Z</time></trkpt><trkpt lat="44.821496" lon="7.8900613"><ele>303.0</ele><time>2026-04-25T05:26:47.28Z</time></trkpt><trkpt lat="44.8215431" lon="7.8900003"><ele>303.0</ele><time>2026-04-25T05:26:48.278Z</time></trkpt><trkpt lat="44.8216052" lon="7.889936"><ele>303.0</ele><time>2026-04-25T05:26:49.279Z</time></trkpt><trkpt lat="44.8216621" lon="7.8898667"><ele>301.8333333333333</ele><time>2026-04-25T05:26:50.28Z</time></trkpt><trkpt lat="44.8217215" lon="7.8897887"><ele>300.6666666666667</ele><time>2026-04-25T05:26:51.28Z</time></trkpt><trkpt lat="44.8217696" lon="7.8897061"><ele>299.5</ele><time>2026-04-25T05:26:52.28Z</time></trkpt><trkpt lat="44.8218254" lon="7.8896256"><ele>298.33333333333337</ele><time>2026-04-25T05:26:53.278Z</time></trkpt><trkpt lat="44.8218895" lon="7.8895409"><ele>297.1666666666667</ele><time>2026-04-25T05:26:54.278Z</time></trkpt><trkpt lat="44.8219406" lon="7.8894602"><ele>296.0</ele><time>2026-04-25T05:26:55.276Z</time></trkpt><trkpt lat="44.8219923" lon="7.8893808"><ele>297.0</ele><time>2026-04-25T05:26:56.276Z</time></trkpt><trkpt lat="44.8220463" lon="7.8893006"><ele>298.0</ele><time>2026-04-25T05:26:57.278Z</time></trkpt><trkpt lat="44.8221096" lon="7.8892177"><ele>299.0</ele><time>2026-04-25T05:26:58.279Z</time></trkpt><trkpt lat="44.8221764" lon="7.8891357"><ele>300.0</ele><time>2026-04-25T05:26:59.28Z</time></trkpt><trkpt lat="44.8222448" lon="7.8890483"><ele>301.0</ele><time>2026-04-25T05:27:00.28Z</time></trkpt><trkpt lat="44.8223138" lon="7.8889548"><ele>302.0</ele><time>2026-04-25T05:27:01.277Z</time></trkpt><trkpt lat="44.822383" lon="7.8888697"><ele>302.0</ele><time>2026-04-25T05:27:02.278Z</time></trkpt><trkpt lat="44.8224567" lon="7.8887903"><ele>302.0</ele><time>2026-04-25T05:27:03.276Z</time></trkpt><trkpt lat="44.8225362" lon="7.8887054"><ele>302.0</ele><time>2026-04-25T05:27:04.278Z</time></trkpt><trkpt lat="44.8226127" lon="7.8886105"><ele>302.0</ele><time>2026-04-25T05:27:05.277Z</time></trkpt><trkpt lat="44.8226803" lon="7.8885206"><ele>302.0</ele><time>2026-04-25T05:27:06.279Z</time></trkpt><trkpt lat="44.8227606" lon="7.8884219"><ele>302.4</ele><time>2026-04-25T05:27:07.278Z</time></trkpt><trkpt lat="44.8228332" lon="7.8883271"><ele>302.79999999999995</ele><time>2026-04-25T05:27:08.277Z</time></trkpt><trkpt lat="44.8229038" lon="7.8882324"><ele>303.2</ele><time>2026-04-25T05:27:09.277Z</time></trkpt><trkpt lat="44.8229794" lon="7.8881375"><ele>303.59999999999997</ele><time>2026-04-25T05:27:10.278Z</time></trkpt><trkpt lat="44.8230515" lon="7.8880451"><ele>304.0</ele><time>2026-04-25T05:27:11.277Z</time></trkpt><trkpt lat="44.8231228" lon="7.8879544"><ele>304.0</ele><time>2026-04-25T05:27:12.277Z</time></trkpt><trkpt lat="44.8231953" lon="7.8878663"><ele>304.0</ele><time>2026-04-25T05:27:13.277Z</time></trkpt><trkpt lat="44.8232629" lon="7.8877786"><ele>304.0</ele><time>2026-04-25T05:27:14.275Z</time></trkpt><trkpt lat="44.823339" lon="7.8876925"><ele>304.0</ele><time>2026-04-25T05:27:15.278Z</time></trkpt><trkpt lat="44.8234061" lon="7.8876064"><ele>304.0</ele><time>2026-04-25T05:27:16.278Z</time></trkpt><trkpt lat="44.8234765" lon="7.8875237"><ele>305.0</ele><time>2026-04-25T05:27:17.277Z</time></trkpt><trkpt lat="44.8235439" lon="7.8874382"><ele>306.0</ele><time>2026-04-25T05:27:18.277Z</time></trkpt><trkpt lat="44.8236138" lon="7.8873534"><ele>307.0</ele><time>2026-04-25T05:27:19.28Z</time></trkpt><trkpt lat="44.823677" lon="7.8872708"><ele>308.0</ele><time>2026-04-25T05:27:20.28Z</time></trkpt><trkpt lat="44.8237415" lon="7.8871917"><ele>309.0</ele><time>2026-04-25T05:27:21.28Z</time></trkpt><trkpt lat="44.8237996" lon="7.8871085"><ele>310.0</ele><time>2026-04-25T05:27:22.276Z</time></trkpt><trkpt lat="44.8238601" lon="7.8870242"><ele>310.0</ele><time>2026-04-25T05:27:23.28Z</time></trkpt><trkpt lat="44.8239227" lon="7.8869432"><ele>310.0</ele><time>2026-04-25T05:27:24.282Z</time></trkpt><trkpt lat="44.8239838" lon="7.8868607"><ele>310.0</ele><time>2026-04-25T05:27:25.279Z</time></trkpt><trkpt lat="44.8240544" lon="7.8867802"><ele>310.0</ele><time>2026-04-25T05:27:26.282Z</time></trkpt><trkpt lat="44.8241229" lon="7.8867019"><ele>310.0</ele><time>2026-04-25T05:27:27.277Z</time></trkpt><trkpt lat="44.8241939" lon="7.8866221"><ele>310.0</ele><time>2026-04-25T05:27:28.281Z</time></trkpt><trkpt lat="44.8242655" lon="7.8865441"><ele>309.4</ele><time>2026-04-25T05:27:29.28Z</time></trkpt><trkpt lat="44.8243402" lon="7.8864645"><ele>308.8</ele><time>2026-04-25T05:27:30.28Z</time></trkpt><trkpt lat="44.8244128" lon="7.8863914"><ele>308.2</ele><time>2026-04-25T05:27:31.277Z</time></trkpt><trkpt lat="44.8244911" lon="7.886324"><ele>307.6</ele><time>2026-04-25T05:27:32.279Z</time></trkpt><trkpt lat="44.8245728" lon="7.8862642"><ele>307.0</ele><time>2026-04-25T05:27:33.28Z</time></trkpt><trkpt lat="44.8246586" lon="7.8862034"><ele>307.0</ele><time>2026-04-25T05:27:34.278Z</time></trkpt><trkpt lat="44.8247479" lon="7.8861528"><ele>307.0</ele><time>2026-04-25T05:27:35.276Z</time></trkpt><trkpt lat="44.8248365" lon="7.8861022"><ele>307.0</ele><time>2026-04-25T05:27:36.279Z</time></trkpt><trkpt lat="44.8249338" lon="7.8860617"><ele>307.0</ele><time>2026-04-25T05:27:37.281Z</time></trkpt><trkpt lat="44.8250283" lon="7.8860221"><ele>307.0</ele><time>2026-04-25T05:27:38.281Z</time></trkpt><trkpt lat="44.8251213" lon="7.8859814"><ele>305.8</ele><time>2026-04-25T05:27:39.278Z</time></trkpt><trkpt lat="44.8252111" lon="7.8859397"><ele>304.6</ele><time>2026-04-25T05:27:40.278Z</time></trkpt><trkpt lat="44.8252989" lon="7.8858935"><ele>303.40000000000003</ele><time>2026-04-25T05:27:41.279Z</time></trkpt><trkpt lat="44.8253834" lon="7.8858463"><ele>302.2</ele><time>2026-04-25T05:27:42.277Z</time></trkpt><trkpt lat="44.8254775" lon="7.8857986"><ele>301.0</ele><time>2026-04-25T05:27:43.28Z</time></trkpt><trkpt lat="44.8255691" lon="7.8857447"><ele>301.0</ele><time>2026-04-25T05:27:44.279Z</time></trkpt><trkpt lat="44.8256666" lon="7.8856855"><ele>301.0</ele><time>2026-04-25T05:27:45.28Z</time></trkpt><trkpt lat="44.8257558" lon="7.8856277"><ele>301.0</ele><time>2026-04-25T05:27:46.277Z</time></trkpt><trkpt lat="44.8258467" lon="7.885556"><ele>301.0</ele><time>2026-04-25T05:27:47.275Z</time></trkpt><trkpt lat="44.8259266" lon="7.8854713"><ele>301.0</ele><time>2026-04-25T05:27:48.278Z</time></trkpt><trkpt lat="44.8260023" lon="7.8853807"><ele>302.0</ele><time>2026-04-25T05:27:49.278Z</time></trkpt><trkpt lat="44.8260739" lon="7.8852855"><ele>303.0</ele><time>2026-04-25T05:27:50.277Z</time></trkpt><trkpt lat="44.826144" lon="7.8851844"><ele>304.0</ele><time>2026-04-25T05:27:51.279Z</time></trkpt><trkpt lat="44.8262158" lon="7.8850731"><ele>305.0</ele><time>2026-04-25T05:27:52.276Z</time></trkpt><trkpt lat="44.8262881" lon="7.8849641"><ele>306.0</ele><time>2026-04-25T05:27:53.28Z</time></trkpt><trkpt lat="44.8263627" lon="7.8848535"><ele>306.0</ele><time>2026-04-25T05:27:54.277Z</time></trkpt><trkpt lat="44.8264378" lon="7.8847439"><ele>306.0</ele><time>2026-04-25T05:27:55.277Z</time></trkpt><trkpt lat="44.8265102" lon="7.8846371"><ele>306.0</ele><time>2026-04-25T05:27:56.281Z</time></trkpt><trkpt lat="44.8265812" lon="7.8845424"><ele>306.0</ele><time>2026-04-25T05:27:57.281Z</time></trkpt><trkpt lat="44.8266522" lon="7.8844458"><ele>306.0</ele><time>2026-04-25T05:27:58.279Z</time></trkpt><trkpt lat="44.8267246" lon="7.8843507"><ele>307.0</ele><time>2026-04-25T05:27:59.278Z</time></trkpt><trkpt lat="44.8267938" lon="7.8842414"><ele>308.0</ele><time>2026-04-25T05:28:00.28Z</time></trkpt><trkpt lat="44.8268641" lon="7.8841302"><ele>309.0</ele><time>2026-04-25T05:28:01.277Z</time></trkpt><trkpt lat="44.8269345" lon="7.884024"><ele>310.0</ele><time>2026-04-25T05:28:02.281Z</time></trkpt><trkpt lat="44.827005" lon="7.8839135"><ele>311.0</ele><time>2026-04-25T05:28:03.278Z</time></trkpt><trkpt lat="44.8270783" lon="7.8838074"><ele>311.0</ele><time>2026-04-25T05:28:04.28Z</time></trkpt><trkpt lat="44.8271513" lon="7.8836979"><ele>311.0</ele><time>2026-04-25T05:28:05.279Z</time></trkpt><trkpt lat="44.827225" lon="7.8835851"><ele>311.0</ele><time>2026-04-25T05:28:06.28Z</time></trkpt><trkpt lat="44.8272976" lon="7.8834701"><ele>311.0</ele><time>2026-04-25T05:28:07.28Z</time></trkpt><trkpt lat="44.8273626" lon="7.88335"><ele>311.0</ele><time>2026-04-25T05:28:08.28Z</time></trkpt><trkpt lat="44.8274228" lon="7.8832229"><ele>311.2</ele><time>2026-04-25T05:28:09.279Z</time></trkpt><trkpt lat="44.8274809" lon="7.8830909"><ele>311.40000000000003</ele><time>2026-04-25T05:28:10.279Z</time></trkpt><trkpt lat="44.8275376" lon="7.8829538"><ele>311.6</ele><time>2026-04-25T05:28:11.279Z</time></trkpt><trkpt lat="44.8275884" lon="7.8828163"><ele>311.8</ele><time>2026-04-25T05:28:12.277Z</time></trkpt><trkpt lat="44.8276367" lon="7.8826711"><ele>312.0</ele><time>2026-04-25T05:28:13.279Z</time></trkpt><trkpt lat="44.8276793" lon="7.8825178"><ele>312.0</ele><time>2026-04-25T05:28:14.278Z</time></trkpt><trkpt lat="44.8277197" lon="7.8823634"><ele>312.0</ele><time>2026-04-25T05:28:15.277Z</time></trkpt><trkpt lat="44.827756" lon="7.8822069"><ele>312.0</ele><time>2026-04-25T05:28:16.277Z</time></trkpt><trkpt lat="44.8277934" lon="7.8820417"><ele>312.0</ele><time>2026-04-25T05:28:17.276Z</time></trkpt><trkpt lat="44.8278295" lon="7.8818742"><ele>311.25</ele><time>2026-04-25T05:28:18.277Z</time></trkpt><trkpt lat="44.8278552" lon="7.8817084"><ele>310.5</ele><time>2026-04-25T05:28:19.279Z</time></trkpt><trkpt lat="44.8278805" lon="7.8815411"><ele>309.75</ele><time>2026-04-25T05:28:20.28Z</time></trkpt><trkpt lat="44.827896" lon="7.8813721"><ele>309.0</ele><time>2026-04-25T05:28:21.277Z</time></trkpt><trkpt lat="44.8279047" lon="7.8812016"><ele>309.0</ele><time>2026-04-25T05:28:22.278Z</time></trkpt><trkpt lat="44.8279152" lon="7.8810202"><ele>309.0</ele><time>2026-04-25T05:28:23.28Z</time></trkpt><trkpt lat="44.8279224" lon="7.8808435"><ele>309.0</ele><time>2026-04-25T05:28:24.276Z</time></trkpt><trkpt lat="44.8279266" lon="7.8806669"><ele>309.0</ele><time>2026-04-25T05:28:25.278Z</time></trkpt><trkpt lat="44.8279319" lon="7.8804846"><ele>308.25</ele><time>2026-04-25T05:28:26.275Z</time></trkpt><trkpt lat="44.8279373" lon="7.8803086"><ele>307.5</ele><time>2026-04-25T05:28:27.276Z</time></trkpt><trkpt lat="44.827955" lon="7.880133"><ele>306.75</ele><time>2026-04-25T05:28:28.277Z</time></trkpt><trkpt lat="44.8279875" lon="7.8799642"><ele>306.0</ele><time>2026-04-25T05:28:29.28Z</time></trkpt><trkpt lat="44.8280305" lon="7.8798023"><ele>305.0</ele><time>2026-04-25T05:28:30.279Z</time></trkpt><trkpt lat="44.8280963" lon="7.87964"><ele>304.0</ele><time>2026-04-25T05:28:31.282Z</time></trkpt><trkpt lat="44.8281666" lon="7.879492"><ele>303.0</ele><time>2026-04-25T05:28:32.28Z</time></trkpt><trkpt lat="44.8282448" lon="7.8793461"><ele>302.0</ele><time>2026-04-25T05:28:33.277Z</time></trkpt><trkpt lat="44.8283256" lon="7.8792068"><ele>302.25</ele><time>2026-04-25T05:28:34.277Z</time></trkpt><trkpt lat="44.8284063" lon="7.8790675"><ele>302.5</ele><time>2026-04-25T05:28:35.28Z</time></trkpt><trkpt lat="44.8284917" lon="7.8789333"><ele>302.75</ele><time>2026-04-25T05:28:36.279Z</time></trkpt><trkpt lat="44.8285728" lon="7.8788009"><ele>303.0</ele><time>2026-04-25T05:28:37.278Z</time></trkpt><trkpt lat="44.8286531" lon="7.878663"><ele>303.0</ele><time>2026-04-25T05:28:38.279Z</time></trkpt><trkpt lat="44.82873" lon="7.8785245"><ele>303.0</ele><time>2026-04-25T05:28:39.278Z</time></trkpt><trkpt lat="44.8288087" lon="7.878384"><ele>303.0</ele><time>2026-04-25T05:28:40.278Z</time></trkpt><trkpt lat="44.8288944" lon="7.8782387"><ele>303.0</ele><time>2026-04-25T05:28:41.275Z</time></trkpt><trkpt lat="44.8289761" lon="7.8780947"><ele>300.0</ele><time>2026-04-25T05:28:42.277Z</time></trkpt><trkpt lat="44.8290552" lon="7.8779505"><ele>297.0</ele><time>2026-04-25T05:28:43.278Z</time></trkpt><trkpt lat="44.82913" lon="7.8778008"><ele>294.0</ele><time>2026-04-25T05:28:44.28Z</time></trkpt><trkpt lat="44.8291939" lon="7.8776406"><ele>291.0</ele><time>2026-04-25T05:28:45.277Z</time></trkpt><trkpt lat="44.8292459" lon="7.8774722"><ele>291.75</ele><time>2026-04-25T05:28:46.277Z</time></trkpt><trkpt lat="44.829285" lon="7.8773001"><ele>292.5</ele><time>2026-04-25T05:28:47.279Z</time></trkpt><trkpt lat="44.8293141" lon="7.8771253"><ele>293.25</ele><time>2026-04-25T05:28:48.28Z</time></trkpt><trkpt lat="44.8293251" lon="7.8769463"><ele>294.0</ele><time>2026-04-25T05:28:49.279Z</time></trkpt><trkpt lat="44.8293192" lon="7.8767684"><ele>291.5</ele><time>2026-04-25T05:28:50.278Z</time></trkpt><trkpt lat="44.8292984" lon="7.8765955"><ele>289.0</ele><time>2026-04-25T05:28:51.279Z</time></trkpt><trkpt lat="44.8292768" lon="7.8764173"><ele>286.5</ele><time>2026-04-25T05:28:52.279Z</time></trkpt><trkpt lat="44.8292481" lon="7.8762416"><ele>284.0</ele><time>2026-04-25T05:28:53.278Z</time></trkpt><trkpt lat="44.8292215" lon="7.8760647"><ele>284.25</ele><time>2026-04-25T05:28:54.28Z</time></trkpt><trkpt lat="44.829199" lon="7.8758885"><ele>284.5</ele><time>2026-04-25T05:28:55.279Z</time></trkpt><trkpt lat="44.8291794" lon="7.8757114"><ele>284.75</ele><time>2026-04-25T05:28:56.28Z</time></trkpt><trkpt lat="44.8291577" lon="7.8755362"><ele>285.0</ele><time>2026-04-25T05:28:57.28Z</time></trkpt><trkpt lat="44.8291337" lon="7.87536"><ele>285.0</ele><time>2026-04-25T05:28:58.28Z</time></trkpt><trkpt lat="44.829107" lon="7.8751857"><ele>285.0</ele><time>2026-04-25T05:28:59.279Z</time></trkpt><trkpt lat="44.8290831" lon="7.8750139"><ele>285.0</ele><time>2026-04-25T05:29:00.278Z</time></trkpt><trkpt lat="44.8290586" lon="7.8748435"><ele>285.0</ele><time>2026-04-25T05:29:01.28Z</time></trkpt><trkpt lat="44.8290359" lon="7.8746768"><ele>285.25</ele><time>2026-04-25T05:29:02.278Z</time></trkpt><trkpt lat="44.8290168" lon="7.8745108"><ele>285.5</ele><time>2026-04-25T05:29:03.277Z</time></trkpt><trkpt lat="44.8290146" lon="7.8743432"><ele>285.75</ele><time>2026-04-25T05:29:04.279Z</time></trkpt><trkpt lat="44.8290394" lon="7.8741765"><ele>286.0</ele><time>2026-04-25T05:29:05.277Z</time></trkpt><trkpt lat="44.8290868" lon="7.8740257"><ele>286.5</ele><time>2026-04-25T05:29:06.277Z</time></trkpt><trkpt lat="44.8291529" lon="7.8738956"><ele>287.0</ele><time>2026-04-25T05:29:07.279Z</time></trkpt><trkpt lat="44.8292316" lon="7.8737731"><ele>287.5</ele><time>2026-04-25T05:29:08.279Z</time></trkpt><trkpt lat="44.8293074" lon="7.87365"><ele>288.0</ele><time>2026-04-25T05:29:09.278Z</time></trkpt><trkpt lat="44.8293841" lon="7.8735251"><ele>288.3333333333333</ele><time>2026-04-25T05:29:10.277Z</time></trkpt><trkpt lat="44.8294584" lon="7.8734054"><ele>288.6666666666667</ele><time>2026-04-25T05:29:11.276Z</time></trkpt><trkpt lat="44.8295218" lon="7.8733005"><ele>289.0</ele><time>2026-04-25T05:29:12.277Z</time></trkpt><trkpt lat="44.8295767" lon="7.8732093"><ele>289.33333333333337</ele><time>2026-04-25T05:29:13.28Z</time></trkpt><trkpt lat="44.8296283" lon="7.8731264"><ele>289.6666666666667</ele><time>2026-04-25T05:29:14.278Z</time></trkpt><trkpt lat="44.8296751" lon="7.8730511"><ele>290.0</ele><time>2026-04-25T05:29:15.277Z</time></trkpt><trkpt lat="44.8297266" lon="7.8729799"><ele>290.0</ele><time>2026-04-25T05:29:16.279Z</time></trkpt><trkpt lat="44.8297834" lon="7.872921"><ele>290.0</ele><time>2026-04-25T05:29:17.28Z</time></trkpt><trkpt lat="44.8298424" lon="7.8728859"><ele>290.0</ele><time>2026-04-25T05:29:18.276Z</time></trkpt><trkpt lat="44.8299042" lon="7.8728603"><ele>290.0</ele><time>2026-04-25T05:29:19.278Z</time></trkpt><trkpt lat="44.8299694" lon="7.8728325"><ele>290.0</ele><time>2026-04-25T05:29:20.279Z</time></trkpt><trkpt lat="44.8300336" lon="7.8727961"><ele>290.0</ele><time>2026-04-25T05:29:21.279Z</time></trkpt><trkpt lat="44.8301042" lon="7.8727552"><ele>290.0</ele><time>2026-04-25T05:29:22.279Z</time></trkpt><trkpt lat="44.8301817" lon="7.8727117"><ele>290.0</ele><time>2026-04-25T05:29:23.281Z</time></trkpt><trkpt lat="44.8302604" lon="7.8726647"><ele>290.0</ele><time>2026-04-25T05:29:24.28Z</time></trkpt><trkpt lat="44.8303371" lon="7.8726095"><ele>290.0</ele><time>2026-04-25T05:29:25.279Z</time></trkpt><trkpt lat="44.8304186" lon="7.8725415"><ele>290.0</ele><time>2026-04-25T05:29:26.28Z</time></trkpt><trkpt lat="44.8305026" lon="7.8724643"><ele>290.0</ele><time>2026-04-25T05:29:27.281Z</time></trkpt><trkpt lat="44.8305788" lon="7.8723753"><ele>290.0</ele><time>2026-04-25T05:29:28.278Z</time></trkpt><trkpt lat="44.8306557" lon="7.8722785"><ele>290.0</ele><time>2026-04-25T05:29:29.279Z</time></trkpt><trkpt lat="44.8307321" lon="7.8721689"><ele>290.0</ele><time>2026-04-25T05:29:30.276Z</time></trkpt><trkpt lat="44.8308047" lon="7.8720553"><ele>290.0</ele><time>2026-04-25T05:29:31.28Z</time></trkpt><trkpt lat="44.8308755" lon="7.871935"><ele>290.0</ele><time>2026-04-25T05:29:32.28Z</time></trkpt><trkpt lat="44.830953" lon="7.8718145"><ele>289.5</ele><time>2026-04-25T05:29:33.279Z</time></trkpt><trkpt lat="44.8310287" lon="7.871695"><ele>289.0</ele><time>2026-04-25T05:29:34.279Z</time></trkpt><trkpt lat="44.8311008" lon="7.871573"><ele>288.5</ele><time>2026-04-25T05:29:35.279Z</time></trkpt><trkpt lat="44.8311759" lon="7.8714489"><ele>288.0</ele><time>2026-04-25T05:29:36.279Z</time></trkpt><trkpt lat="44.8312581" lon="7.8713286"><ele>288.0</ele><time>2026-04-25T05:29:37.279Z</time></trkpt><trkpt lat="44.8313412" lon="7.8712126"><ele>288.0</ele><time>2026-04-25T05:29:38.28Z</time></trkpt><trkpt lat="44.8314264" lon="7.8711046"><ele>288.0</ele><time>2026-04-25T05:29:39.279Z</time></trkpt><trkpt lat="44.8315176" lon="7.8710049"><ele>288.0</ele><time>2026-04-25T05:29:40.28Z</time></trkpt><trkpt lat="44.8316096" lon="7.8709102"><ele>288.5</ele><time>2026-04-25T05:29:41.277Z</time></trkpt><trkpt lat="44.8317014" lon="7.8708176"><ele>289.0</ele><time>2026-04-25T05:29:42.278Z</time></trkpt><trkpt lat="44.8318008" lon="7.8707262"><ele>289.5</ele><time>2026-04-25T05:29:43.28Z</time></trkpt><trkpt lat="44.8318998" lon="7.8706359"><ele>290.0</ele><time>2026-04-25T05:29:44.28Z</time></trkpt><trkpt lat="44.8320032" lon="7.8705438"><ele>290.0</ele><time>2026-04-25T05:29:45.28Z</time></trkpt><trkpt lat="44.8321162" lon="7.8704515"><ele>290.0</ele><time>2026-04-25T05:29:46.281Z</time></trkpt><trkpt lat="44.8322118" lon="7.8703596"><ele>290.0</ele><time>2026-04-25T05:29:47.28Z</time></trkpt><trkpt lat="44.8323049" lon="7.8702707"><ele>290.0</ele><time>2026-04-25T05:29:48.279Z</time></trkpt><trkpt lat="44.8324026" lon="7.870185"><ele>290.0</ele><time>2026-04-25T05:29:49.28Z</time></trkpt><trkpt lat="44.8325053" lon="7.8701108"><ele>290.0</ele><time>2026-04-25T05:29:50.28Z</time></trkpt><trkpt lat="44.8326085" lon="7.8700438"><ele>290.0</ele><time>2026-04-25T05:29:51.281Z</time></trkpt><trkpt lat="44.8327054" lon="7.8699743"><ele>290.0</ele><time>2026-04-25T05:29:52.279Z</time></trkpt><trkpt lat="44.832796" lon="7.8698894"><ele>290.0</ele><time>2026-04-25T05:29:53.28Z</time></trkpt><trkpt lat="44.8328731" lon="7.8697777"><ele>290.75</ele><time>2026-04-25T05:29:54.28Z</time></trkpt><trkpt lat="44.8329355" lon="7.8696444"><ele>291.5</ele><time>2026-04-25T05:29:55.278Z</time></trkpt><trkpt lat="44.8329851" lon="7.8694962"><ele>292.25</ele><time>2026-04-25T05:29:56.277Z</time></trkpt><trkpt lat="44.8330225" lon="7.8693403"><ele>293.0</ele><time>2026-04-25T05:29:57.281Z</time></trkpt><trkpt lat="44.833054" lon="7.8691786"><ele>293.5</ele><time>2026-04-25T05:29:58.278Z</time></trkpt><trkpt lat="44.8330801" lon="7.8690137"><ele>294.0</ele><time>2026-04-25T05:29:59.275Z</time></trkpt><trkpt lat="44.8331063" lon="7.8688496"><ele>294.5</ele><time>2026-04-25T05:30:00.279Z</time></trkpt><trkpt lat="44.8331392" lon="7.8686882"><ele>295.0</ele><time>2026-04-25T05:30:01.28Z</time></trkpt><trkpt lat="44.8331854" lon="7.8685324"><ele>295.75</ele><time>2026-04-25T05:30:02.277Z</time></trkpt><trkpt lat="44.8332415" lon="7.8683825"><ele>296.5</ele><time>2026-04-25T05:30:03.279Z</time></trkpt><trkpt lat="44.833297" lon="7.8682334"><ele>297.25</ele><time>2026-04-25T05:30:04.279Z</time></trkpt><trkpt lat="44.8333524" lon="7.8680823"><ele>298.0</ele><time>2026-04-25T05:30:05.282Z</time></trkpt><trkpt lat="44.8334111" lon="7.8679329"><ele>297.5</ele><time>2026-04-25T05:30:06.279Z</time></trkpt><trkpt lat="44.8334749" lon="7.8677819"><ele>297.0</ele><time>2026-04-25T05:30:07.277Z</time></trkpt><trkpt lat="44.8335368" lon="7.8676269"><ele>296.5</ele><time>2026-04-25T05:30:08.279Z</time></trkpt><trkpt lat="44.8336003" lon="7.8674701"><ele>296.0</ele><time>2026-04-25T05:30:09.28Z</time></trkpt><trkpt lat="44.8336644" lon="7.8673105"><ele>296.0</ele><time>2026-04-25T05:30:10.278Z</time></trkpt><trkpt lat="44.8337289" lon="7.8671495"><ele>296.0</ele><time>2026-04-25T05:30:11.28Z</time></trkpt><trkpt lat="44.8337917" lon="7.8669838"><ele>296.0</ele><time>2026-04-25T05:30:12.28Z</time></trkpt><trkpt lat="44.8338527" lon="7.8668191"><ele>296.0</ele><time>2026-04-25T05:30:13.277Z</time></trkpt><trkpt lat="44.8339114" lon="7.8666615"><ele>296.25</ele><time>2026-04-25T05:30:14.278Z</time></trkpt><trkpt lat="44.8339689" lon="7.8665085"><ele>296.5</ele><time>2026-04-25T05:30:15.277Z</time></trkpt><trkpt lat="44.8340297" lon="7.866358"><ele>296.75</ele><time>2026-04-25T05:30:16.281Z</time></trkpt><trkpt lat="44.8340963" lon="7.8662123"><ele>297.0</ele><time>2026-04-25T05:30:17.276Z</time></trkpt><trkpt lat="44.8341679" lon="7.8660711"><ele>297.0</ele><time>2026-04-25T05:30:18.279Z</time></trkpt><trkpt lat="44.8343222" lon="7.8657977"><ele>297.0</ele><time>2026-04-25T05:30:20.281Z</time></trkpt><trkpt lat="44.8343992" lon="7.8656637"><ele>297.0</ele><time>2026-04-25T05:30:21.281Z</time></trkpt><trkpt lat="44.8344761" lon="7.8655266"><ele>297.0</ele><time>2026-04-25T05:30:22.276Z</time></trkpt><trkpt lat="44.8345553" lon="7.8653891"><ele>297.0</ele><time>2026-04-25T05:30:23.277Z</time></trkpt><trkpt lat="44.8346298" lon="7.8652537"><ele>297.0</ele><time>2026-04-25T05:30:24.278Z</time></trkpt><trkpt lat="44.8347049" lon="7.8651199"><ele>297.0</ele><time>2026-04-25T05:30:25.277Z</time></trkpt><trkpt lat="44.8347813" lon="7.8649894"><ele>297.25</ele><time>2026-04-25T05:30:26.278Z</time></trkpt><trkpt lat="44.834854" lon="7.8648563"><ele>297.5</ele><time>2026-04-25T05:30:27.281Z</time></trkpt><trkpt lat="44.8349243" lon="7.8647232"><ele>297.75</ele><time>2026-04-25T05:30:28.281Z</time></trkpt><trkpt lat="44.8349926" lon="7.8645913"><ele>298.0</ele><time>2026-04-25T05:30:29.281Z</time></trkpt><trkpt lat="44.8350634" lon="7.8644607"><ele>298.0</ele><time>2026-04-25T05:30:30.28Z</time></trkpt><trkpt lat="44.8351334" lon="7.8643335"><ele>298.0</ele><time>2026-04-25T05:30:31.279Z</time></trkpt><trkpt lat="44.8352039" lon="7.8642148"><ele>298.0</ele><time>2026-04-25T05:30:32.278Z</time></trkpt><trkpt lat="44.8352694" lon="7.864103"><ele>298.0</ele><time>2026-04-25T05:30:33.281Z</time></trkpt><trkpt lat="44.8353331" lon="7.8639981"><ele>298.0</ele><time>2026-04-25T05:30:34.279Z</time></trkpt><trkpt lat="44.83539" lon="7.8638999"><ele>298.0</ele><time>2026-04-25T05:30:35.281Z</time></trkpt><trkpt lat="44.8354424" lon="7.8638135"><ele>298.0</ele><time>2026-04-25T05:30:36.278Z</time></trkpt><trkpt lat="44.8354874" lon="7.8637414"><ele>298.0</ele><time>2026-04-25T05:30:37.277Z</time></trkpt><trkpt lat="44.8355412" lon="7.8636137"><ele>298.0</ele><time>2026-04-25T05:30:39.28Z</time></trkpt><trkpt lat="44.8355073" lon="7.8634935"><ele>298.0</ele><time>2026-04-25T05:30:41.278Z</time></trkpt><trkpt lat="44.8354176" lon="7.8633911"><ele>298.0</ele><time>2026-04-25T05:30:43.278Z</time></trkpt><trkpt lat="44.8353632" lon="7.86334"><ele>298.0</ele><time>2026-04-25T05:30:44.279Z</time></trkpt><trkpt lat="44.8353062" lon="7.8632839"><ele>298.0</ele><time>2026-04-25T05:30:45.276Z</time></trkpt><trkpt lat="44.8352429" lon="7.8632241"><ele>298.0</ele><time>2026-04-25T05:30:46.276Z</time></trkpt><trkpt lat="44.8351744" lon="7.8631586"><ele>298.0</ele><time>2026-04-25T05:30:47.276Z</time></trkpt><trkpt lat="44.8350995" lon="7.8630904"><ele>298.0</ele><time>2026-04-25T05:30:48.277Z</time></trkpt><trkpt lat="44.8350191" lon="7.8630153"><ele>298.4</ele><time>2026-04-25T05:30:49.275Z</time></trkpt><trkpt lat="44.8349363" lon="7.8629402"><ele>298.8</ele><time>2026-04-25T05:30:50.276Z</time></trkpt><trkpt lat="44.8348531" lon="7.8628683"><ele>299.2</ele><time>2026-04-25T05:30:51.275Z</time></trkpt><trkpt lat="44.8347682" lon="7.8627958"><ele>299.6</ele><time>2026-04-25T05:30:52.275Z</time></trkpt><trkpt lat="44.834682" lon="7.8627269"><ele>300.0</ele><time>2026-04-25T05:30:53.275Z</time></trkpt><trkpt lat="44.8345992" lon="7.8626594"><ele>300.4</ele><time>2026-04-25T05:30:54.277Z</time></trkpt><trkpt lat="44.8345157" lon="7.8625889"><ele>300.8</ele><time>2026-04-25T05:30:55.279Z</time></trkpt><trkpt lat="44.8344299" lon="7.8625189"><ele>301.2</ele><time>2026-04-25T05:30:56.279Z</time></trkpt><trkpt lat="44.8343415" lon="7.8624431"><ele>301.6</ele><time>2026-04-25T05:30:57.278Z</time></trkpt><trkpt lat="44.8342493" lon="7.8623543"><ele>302.0</ele><time>2026-04-25T05:30:58.277Z</time></trkpt><trkpt lat="44.8341544" lon="7.8622636"><ele>302.25</ele><time>2026-04-25T05:30:59.276Z</time></trkpt><trkpt lat="44.8340601" lon="7.862175"><ele>302.5</ele><time>2026-04-25T05:31:00.277Z</time></trkpt><trkpt lat="44.8339637" lon="7.8620891"><ele>302.75</ele><time>2026-04-25T05:31:01.277Z</time></trkpt><trkpt lat="44.833866" lon="7.8620014"><ele>303.0</ele><time>2026-04-25T05:31:02.276Z</time></trkpt><trkpt lat="44.833766" lon="7.8619136"><ele>303.0</ele><time>2026-04-25T05:31:03.277Z</time></trkpt><trkpt lat="44.833668" lon="7.8618266"><ele>303.0</ele><time>2026-04-25T05:31:04.28Z</time></trkpt><trkpt lat="44.83357" lon="7.8617383"><ele>303.0</ele><time>2026-04-25T05:31:05.275Z</time></trkpt><trkpt lat="44.8334752" lon="7.8616573"><ele>303.0</ele><time>2026-04-25T05:31:06.279Z</time></trkpt><trkpt lat="44.8333808" lon="7.861576"><ele>303.0</ele><time>2026-04-25T05:31:07.277Z</time></trkpt><trkpt lat="44.8332831" lon="7.8614849"><ele>303.0</ele><time>2026-04-25T05:31:08.278Z</time></trkpt><trkpt lat="44.8331831" lon="7.8613933"><ele>303.0</ele><time>2026-04-25T05:31:09.279Z</time></trkpt><trkpt lat="44.8330862" lon="7.8613054"><ele>303.0</ele><time>2026-04-25T05:31:10.28Z</time></trkpt><trkpt lat="44.8329866" lon="7.8612123"><ele>303.0</ele><time>2026-04-25T05:31:11.276Z</time></trkpt><trkpt lat="44.8328898" lon="7.861127"><ele>303.0</ele><time>2026-04-25T05:31:12.275Z</time></trkpt><trkpt lat="44.8327842" lon="7.8610298"><ele>303.0</ele><time>2026-04-25T05:31:13.277Z</time></trkpt><trkpt lat="44.8326816" lon="7.8609429"><ele>303.0</ele><time>2026-04-25T05:31:14.278Z</time></trkpt><trkpt lat="44.8325771" lon="7.8608556"><ele>302.75</ele><time>2026-04-25T05:31:15.279Z</time></trkpt><trkpt lat="44.8324649" lon="7.8607667"><ele>302.5</ele><time>2026-04-25T05:31:16.278Z</time></trkpt><trkpt lat="44.8323496" lon="7.8606734"><ele>302.25</ele><time>2026-04-25T05:31:17.28Z</time></trkpt><trkpt lat="44.8322334" lon="7.86058"><ele>302.0</ele><time>2026-04-25T05:31:18.279Z</time></trkpt><trkpt lat="44.832114" lon="7.8604701"><ele>302.0</ele><time>2026-04-25T05:31:19.276Z</time></trkpt><trkpt lat="44.8320004" lon="7.8603708"><ele>302.0</ele><time>2026-04-25T05:31:20.277Z</time></trkpt><trkpt lat="44.8318891" lon="7.8602805"><ele>302.0</ele><time>2026-04-25T05:31:21.275Z</time></trkpt><trkpt lat="44.8317745" lon="7.8601833"><ele>302.0</ele><time>2026-04-25T05:31:22.276Z</time></trkpt><trkpt lat="44.8316604" lon="7.8600864"><ele>301.0</ele><time>2026-04-25T05:31:23.276Z</time></trkpt><trkpt lat="44.8315465" lon="7.8599817"><ele>300.0</ele><time>2026-04-25T05:31:24.278Z</time></trkpt><trkpt lat="44.8314325" lon="7.8598798"><ele>299.0</ele><time>2026-04-25T05:31:25.279Z</time></trkpt><trkpt lat="44.8313207" lon="7.8597732"><ele>298.0</ele><time>2026-04-25T05:31:26.279Z</time></trkpt><trkpt lat="44.8312131" lon="7.8596487"><ele>298.0</ele><time>2026-04-25T05:31:27.275Z</time></trkpt><trkpt lat="44.8311189" lon="7.8595095"><ele>298.0</ele><time>2026-04-25T05:31:28.276Z</time></trkpt><trkpt lat="44.8310417" lon="7.8593628"><ele>298.0</ele><time>2026-04-25T05:31:29.277Z</time></trkpt><trkpt lat="44.830983" lon="7.8591872"><ele>298.0</ele><time>2026-04-25T05:31:30.277Z</time></trkpt><trkpt lat="44.8309362" lon="7.8590191"><ele>298.25</ele><time>2026-04-25T05:31:31.277Z</time></trkpt><trkpt lat="44.8308938" lon="7.8588656"><ele>298.5</ele><time>2026-04-25T05:31:32.277Z</time></trkpt><trkpt lat="44.8308541" lon="7.8587104"><ele>298.75</ele><time>2026-04-25T05:31:33.278Z</time></trkpt><trkpt lat="44.8308187" lon="7.8585533"><ele>299.0</ele><time>2026-04-25T05:31:34.277Z</time></trkpt><trkpt lat="44.8307891" lon="7.8584006"><ele>299.2</ele><time>2026-04-25T05:31:35.276Z</time></trkpt><trkpt lat="44.8307668" lon="7.8582525"><ele>299.4</ele><time>2026-04-25T05:31:36.277Z</time></trkpt><trkpt lat="44.8307511" lon="7.8581004"><ele>299.6</ele><time>2026-04-25T05:31:37.279Z</time></trkpt><trkpt lat="44.8307431" lon="7.8579466"><ele>299.8</ele><time>2026-04-25T05:31:38.277Z</time></trkpt><trkpt lat="44.8307372" lon="7.857796"><ele>300.0</ele><time>2026-04-25T05:31:39.276Z</time></trkpt><trkpt lat="44.8307356" lon="7.8576438"><ele>301.0</ele><time>2026-04-25T05:31:40.277Z</time></trkpt><trkpt lat="44.8307376" lon="7.8574885"><ele>302.0</ele><time>2026-04-25T05:31:41.276Z</time></trkpt><trkpt lat="44.8307396" lon="7.8573297"><ele>303.0</ele><time>2026-04-25T05:31:42.276Z</time></trkpt><trkpt lat="44.8307392" lon="7.8571722"><ele>304.0</ele><time>2026-04-25T05:31:43.276Z</time></trkpt><trkpt lat="44.8307409" lon="7.8570115"><ele>305.0</ele><time>2026-04-25T05:31:44.279Z</time></trkpt><trkpt lat="44.8307426" lon="7.8568521"><ele>305.75</ele><time>2026-04-25T05:31:45.28Z</time></trkpt><trkpt lat="44.8307428" lon="7.8566902"><ele>306.5</ele><time>2026-04-25T05:31:46.276Z</time></trkpt><trkpt lat="44.8307418" lon="7.8565278"><ele>307.25</ele><time>2026-04-25T05:31:47.276Z</time></trkpt><trkpt lat="44.8307408" lon="7.8563628"><ele>308.0</ele><time>2026-04-25T05:31:48.279Z</time></trkpt><trkpt lat="44.8307395" lon="7.856199"><ele>308.0</ele><time>2026-04-25T05:31:49.279Z</time></trkpt><trkpt lat="44.830734" lon="7.8560348"><ele>308.0</ele><time>2026-04-25T05:31:50.278Z</time></trkpt><trkpt lat="44.8307312" lon="7.8558624"><ele>308.0</ele><time>2026-04-25T05:31:51.279Z</time></trkpt><trkpt lat="44.8307256" lon="7.8556899"><ele>308.0</ele><time>2026-04-25T05:31:52.279Z</time></trkpt><trkpt lat="44.8307125" lon="7.8555169"><ele>308.0</ele><time>2026-04-25T05:31:53.275Z</time></trkpt><trkpt lat="44.8306883" lon="7.8553462"><ele>308.0</ele><time>2026-04-25T05:31:54.276Z</time></trkpt><trkpt lat="44.8306514" lon="7.8551794"><ele>308.0</ele><time>2026-04-25T05:31:55.277Z</time></trkpt><trkpt lat="44.8306081" lon="7.8550147"><ele>308.0</ele><time>2026-04-25T05:31:56.278Z</time></trkpt><trkpt lat="44.8305504" lon="7.8548571"><ele>308.5</ele><time>2026-04-25T05:31:57.278Z</time></trkpt><trkpt lat="44.8304851" lon="7.8547055"><ele>309.0</ele><time>2026-04-25T05:31:58.278Z</time></trkpt><trkpt lat="44.8304107" lon="7.8545625"><ele>309.5</ele><time>2026-04-25T05:31:59.28Z</time></trkpt><trkpt lat="44.8303247" lon="7.8544316"><ele>310.0</ele><time>2026-04-25T05:32:00.278Z</time></trkpt><trkpt lat="44.8302313" lon="7.8543124"><ele>311.25</ele><time>2026-04-25T05:32:01.276Z</time></trkpt><trkpt lat="44.8301281" lon="7.8542057"><ele>312.5</ele><time>2026-04-25T05:32:02.277Z</time></trkpt><trkpt lat="44.8300154" lon="7.8541092"><ele>313.75</ele><time>2026-04-25T05:32:03.278Z</time></trkpt><trkpt lat="44.829897" lon="7.8540212"><ele>315.0</ele><time>2026-04-25T05:32:04.279Z</time></trkpt><trkpt lat="44.8297791" lon="7.853938"><ele>315.0</ele><time>2026-04-25T05:32:05.278Z</time></trkpt><trkpt lat="44.8296619" lon="7.8538467"><ele>315.0</ele><time>2026-04-25T05:32:06.278Z</time></trkpt><trkpt lat="44.8295503" lon="7.8537458"><ele>315.0</ele><time>2026-04-25T05:32:07.277Z</time></trkpt><trkpt lat="44.8294466" lon="7.8536323"><ele>315.0</ele><time>2026-04-25T05:32:08.278Z</time></trkpt><trkpt lat="44.8293444" lon="7.8535047"><ele>314.5</ele><time>2026-04-25T05:32:09.276Z</time></trkpt><trkpt lat="44.8292505" lon="7.8533687"><ele>314.0</ele><time>2026-04-25T05:32:10.277Z</time></trkpt><trkpt lat="44.8291603" lon="7.8532238"><ele>313.5</ele><time>2026-04-25T05:32:11.276Z</time></trkpt><trkpt lat="44.8290783" lon="7.8530629"><ele>313.0</ele><time>2026-04-25T05:32:12.276Z</time></trkpt><trkpt lat="44.829005" lon="7.8528936"><ele>313.0</ele><time>2026-04-25T05:32:13.277Z</time></trkpt><trkpt lat="44.828945" lon="7.8527218"><ele>313.0</ele><time>2026-04-25T05:32:14.276Z</time></trkpt><trkpt lat="44.8288964" lon="7.852545"><ele>313.0</ele><time>2026-04-25T05:32:15.277Z</time></trkpt><trkpt lat="44.8288588" lon="7.8523721"><ele>313.0</ele><time>2026-04-25T05:32:16.278Z</time></trkpt><trkpt lat="44.8288326" lon="7.8521924"><ele>312.5</ele><time>2026-04-25T05:32:17.277Z</time></trkpt><trkpt lat="44.8288116" lon="7.852003"><ele>312.0</ele><time>2026-04-25T05:32:18.275Z</time></trkpt><trkpt lat="44.8287993" lon="7.8518064"><ele>311.5</ele><time>2026-04-25T05:32:19.279Z</time></trkpt><trkpt lat="44.8287996" lon="7.8516199"><ele>311.0</ele><time>2026-04-25T05:32:20.278Z</time></trkpt><trkpt lat="44.8288072" lon="7.8514412"><ele>310.5</ele><time>2026-04-25T05:32:21.28Z</time></trkpt><trkpt lat="44.8288182" lon="7.8512671"><ele>310.0</ele><time>2026-04-25T05:32:22.277Z</time></trkpt><trkpt lat="44.8288279" lon="7.8510896"><ele>309.5</ele><time>2026-04-25T05:32:23.275Z</time></trkpt><trkpt lat="44.8288383" lon="7.8509094"><ele>309.0</ele><time>2026-04-25T05:32:24.278Z</time></trkpt><trkpt lat="44.8288489" lon="7.8507285"><ele>309.0</ele><time>2026-04-25T05:32:25.277Z</time></trkpt><trkpt lat="44.8288598" lon="7.8505469"><ele>309.0</ele><time>2026-04-25T05:32:26.279Z</time></trkpt><trkpt lat="44.8288732" lon="7.850364"><ele>309.0</ele><time>2026-04-25T05:32:27.279Z</time></trkpt><trkpt lat="44.8288852" lon="7.8501817"><ele>309.0</ele><time>2026-04-25T05:32:28.276Z</time></trkpt><trkpt lat="44.8288978" lon="7.8499998"><ele>309.0</ele><time>2026-04-25T05:32:29.279Z</time></trkpt><trkpt lat="44.8289124" lon="7.8498148"><ele>309.0</ele><time>2026-04-25T05:32:30.278Z</time></trkpt><trkpt lat="44.8289249" lon="7.8496291"><ele>309.0</ele><time>2026-04-25T05:32:31.278Z</time></trkpt><trkpt lat="44.8289401" lon="7.8494396"><ele>309.0</ele><time>2026-04-25T05:32:32.279Z</time></trkpt><trkpt lat="44.8289533" lon="7.8492503"><ele>308.75</ele><time>2026-04-25T05:32:33.279Z</time></trkpt><trkpt lat="44.8289703" lon="7.8490606"><ele>308.5</ele><time>2026-04-25T05:32:34.276Z</time></trkpt><trkpt lat="44.8289884" lon="7.8488718"><ele>308.25</ele><time>2026-04-25T05:32:35.276Z</time></trkpt><trkpt lat="44.8289899" lon="7.8486888"><ele>308.0</ele><time>2026-04-25T05:32:36.279Z</time></trkpt><trkpt lat="44.8289892" lon="7.8485026"><ele>307.75</ele><time>2026-04-25T05:32:37.276Z</time></trkpt><trkpt lat="44.8289789" lon="7.8483195"><ele>307.5</ele><time>2026-04-25T05:32:38.28Z</time></trkpt><trkpt lat="44.8289661" lon="7.8481349"><ele>307.25</ele><time>2026-04-25T05:32:39.276Z</time></trkpt><trkpt lat="44.8289418" lon="7.8479514"><ele>307.0</ele><time>2026-04-25T05:32:40.279Z</time></trkpt><trkpt lat="44.8289081" lon="7.8477691"><ele>306.5</ele><time>2026-04-25T05:32:41.28Z</time></trkpt><trkpt lat="44.8288689" lon="7.8475964"><ele>306.0</ele><time>2026-04-25T05:32:42.279Z</time></trkpt><trkpt lat="44.8288253" lon="7.8474236"><ele>305.5</ele><time>2026-04-25T05:32:43.28Z</time></trkpt><trkpt lat="44.8287711" lon="7.8472488"><ele>305.0</ele><time>2026-04-25T05:32:44.279Z</time></trkpt><trkpt lat="44.8287158" lon="7.8470785"><ele>305.0</ele><time>2026-04-25T05:32:45.279Z</time></trkpt><trkpt lat="44.8286605" lon="7.8469132"><ele>305.0</ele><time>2026-04-25T05:32:46.28Z</time></trkpt><trkpt lat="44.828599" lon="7.8467503"><ele>305.0</ele><time>2026-04-25T05:32:47.28Z</time></trkpt><trkpt lat="44.8285281" lon="7.846585"><ele>305.0</ele><time>2026-04-25T05:32:48.279Z</time></trkpt><trkpt lat="44.82846" lon="7.8464185"><ele>305.0</ele><time>2026-04-25T05:32:49.277Z</time></trkpt><trkpt lat="44.828402" lon="7.8462384"><ele>305.0</ele><time>2026-04-25T05:32:50.277Z</time></trkpt><trkpt lat="44.8283396" lon="7.8460728"><ele>305.0</ele><time>2026-04-25T05:32:51.276Z</time></trkpt><trkpt lat="44.8282762" lon="7.8459061"><ele>305.0</ele><time>2026-04-25T05:32:52.28Z</time></trkpt><trkpt lat="44.8282108" lon="7.8457303"><ele>303.75</ele><time>2026-04-25T05:32:53.28Z</time></trkpt><trkpt lat="44.8281449" lon="7.8455566"><ele>302.5</ele><time>2026-04-25T05:32:54.28Z</time></trkpt><trkpt lat="44.8280756" lon="7.8453829"><ele>301.25</ele><time>2026-04-25T05:32:55.278Z</time></trkpt><trkpt lat="44.828005" lon="7.8452104"><ele>300.0</ele><time>2026-04-25T05:32:56.276Z</time></trkpt><trkpt lat="44.8279352" lon="7.8450267"><ele>299.5</ele><time>2026-04-25T05:32:57.279Z</time></trkpt><trkpt lat="44.8278651" lon="7.8448464"><ele>299.0</ele><time>2026-04-25T05:32:58.279Z</time></trkpt><trkpt lat="44.8277981" lon="7.8446698"><ele>298.5</ele><time>2026-04-25T05:32:59.278Z</time></trkpt><trkpt lat="44.8277308" lon="7.8444945"><ele>298.0</ele><time>2026-04-25T05:33:00.281Z</time></trkpt><trkpt lat="44.8276642" lon="7.8443192"><ele>297.25</ele><time>2026-04-25T05:33:01.277Z</time></trkpt><trkpt lat="44.8276008" lon="7.8441405"><ele>296.5</ele><time>2026-04-25T05:33:02.277Z</time></trkpt><trkpt lat="44.8275372" lon="7.8439635"><ele>295.75</ele><time>2026-04-25T05:33:03.278Z</time></trkpt><trkpt lat="44.8274689" lon="7.8437965"><ele>295.0</ele><time>2026-04-25T05:33:04.277Z</time></trkpt><trkpt lat="44.8274078" lon="7.8436128"><ele>295.66666666666663</ele><time>2026-04-25T05:33:05.278Z</time></trkpt><trkpt lat="44.8273378" lon="7.843428"><ele>296.3333333333333</ele><time>2026-04-25T05:33:06.279Z</time></trkpt><trkpt lat="44.8272602" lon="7.8432435"><ele>297.0</ele><time>2026-04-25T05:33:07.276Z</time></trkpt><trkpt lat="44.8271752" lon="7.8430671"><ele>297.0</ele><time>2026-04-25T05:33:08.275Z</time></trkpt><trkpt lat="44.8270814" lon="7.8428871"><ele>297.0</ele><time>2026-04-25T05:33:09.279Z</time></trkpt><trkpt lat="44.8269881" lon="7.8427371"><ele>297.0</ele><time>2026-04-25T05:33:10.28Z</time></trkpt><trkpt lat="44.8268807" lon="7.8426037"><ele>297.0</ele><time>2026-04-25T05:33:11.279Z</time></trkpt><trkpt lat="44.8267579" lon="7.8424927"><ele>295.5</ele><time>2026-04-25T05:33:12.28Z</time></trkpt><trkpt lat="44.8266253" lon="7.842396"><ele>294.0</ele><time>2026-04-25T05:33:13.28Z</time></trkpt><trkpt lat="44.8264885" lon="7.8423322"><ele>292.5</ele><time>2026-04-25T05:33:14.28Z</time></trkpt><trkpt lat="44.8263469" lon="7.8422917"><ele>291.0</ele><time>2026-04-25T05:33:15.28Z</time></trkpt><trkpt lat="44.8262083" lon="7.8422844"><ele>291.0</ele><time>2026-04-25T05:33:16.277Z</time></trkpt><trkpt lat="44.8260707" lon="7.8422993"><ele>291.0</ele><time>2026-04-25T05:33:17.275Z</time></trkpt><trkpt lat="44.8259349" lon="7.8423441"><ele>291.0</ele><time>2026-04-25T05:33:18.279Z</time></trkpt><trkpt lat="44.8258034" lon="7.8424023"><ele>291.0</ele><time>2026-04-25T05:33:19.28Z</time></trkpt><trkpt lat="44.825676" lon="7.8424786"><ele>291.0</ele><time>2026-04-25T05:33:20.28Z</time></trkpt><trkpt lat="44.8255595" lon="7.8425723"><ele>291.0</ele><time>2026-04-25T05:33:21.279Z</time></trkpt><trkpt lat="44.8254458" lon="7.8426735"><ele>291.0</ele><time>2026-04-25T05:33:22.282Z</time></trkpt><trkpt lat="44.8253358" lon="7.8427743"><ele>291.0</ele><time>2026-04-25T05:33:23.276Z</time></trkpt><trkpt lat="44.8252277" lon="7.8428758"><ele>290.5</ele><time>2026-04-25T05:33:24.279Z</time></trkpt><trkpt lat="44.8251207" lon="7.8429785"><ele>290.0</ele><time>2026-04-25T05:33:25.279Z</time></trkpt><trkpt lat="44.8250125" lon="7.8430793"><ele>289.5</ele><time>2026-04-25T05:33:26.278Z</time></trkpt><trkpt lat="44.8249059" lon="7.8431801"><ele>289.0</ele><time>2026-04-25T05:33:27.276Z</time></trkpt><trkpt lat="44.8247989" lon="7.8432768"><ele>289.0</ele><time>2026-04-25T05:33:28.279Z</time></trkpt><trkpt lat="44.8246939" lon="7.8433685"><ele>289.0</ele><time>2026-04-25T05:33:29.276Z</time></trkpt><trkpt lat="44.8245886" lon="7.8434489"><ele>289.0</ele><time>2026-04-25T05:33:30.279Z</time></trkpt><trkpt lat="44.8244894" lon="7.8435193"><ele>289.0</ele><time>2026-04-25T05:33:31.277Z</time></trkpt><trkpt lat="44.8243927" lon="7.8435742"><ele>289.0</ele><time>2026-04-25T05:33:32.278Z</time></trkpt><trkpt lat="44.8242962" lon="7.8436111"><ele>289.0</ele><time>2026-04-25T05:33:33.279Z</time></trkpt><trkpt lat="44.8241993" lon="7.8436319"><ele>289.0</ele><time>2026-04-25T05:33:34.278Z</time></trkpt><trkpt lat="44.8241007" lon="7.8436346"><ele>289.0</ele><time>2026-04-25T05:33:35.277Z</time></trkpt><trkpt lat="44.8240038" lon="7.8436224"><ele>289.0</ele><time>2026-04-25T05:33:36.28Z</time></trkpt><trkpt lat="44.8239089" lon="7.8435938"><ele>289.0</ele><time>2026-04-25T05:33:37.28Z</time></trkpt><trkpt lat="44.8238218" lon="7.8435523"><ele>289.0</ele><time>2026-04-25T05:33:38.279Z</time></trkpt><trkpt lat="44.8237377" lon="7.8435"><ele>289.0</ele><time>2026-04-25T05:33:39.279Z</time></trkpt><trkpt lat="44.8236618" lon="7.8434417"><ele>289.0</ele><time>2026-04-25T05:33:40.279Z</time></trkpt><trkpt lat="44.8235898" lon="7.8433744"><ele>289.0</ele><time>2026-04-25T05:33:41.279Z</time></trkpt><trkpt lat="44.823521" lon="7.8433019"><ele>289.0</ele><time>2026-04-25T05:33:42.28Z</time></trkpt><trkpt lat="44.8234508" lon="7.8432229"><ele>288.8</ele><time>2026-04-25T05:33:43.28Z</time></trkpt><trkpt lat="44.8233761" lon="7.8431227"><ele>288.59999999999997</ele><time>2026-04-25T05:33:44.277Z</time></trkpt><trkpt lat="44.8232976" lon="7.8430155"><ele>288.4</ele><time>2026-04-25T05:33:45.28Z</time></trkpt><trkpt lat="44.8232171" lon="7.842912"><ele>288.2</ele><time>2026-04-25T05:33:46.279Z</time></trkpt><trkpt lat="44.82313" lon="7.8428119"><ele>288.0</ele><time>2026-04-25T05:33:47.277Z</time></trkpt><trkpt lat="44.8230348" lon="7.8427199"><ele>288.0</ele><time>2026-04-25T05:33:48.279Z</time></trkpt><trkpt lat="44.8229333" lon="7.8426347"><ele>288.0</ele><time>2026-04-25T05:33:49.277Z</time></trkpt><trkpt lat="44.8228287" lon="7.8425642"><ele>288.0</ele><time>2026-04-25T05:33:50.279Z</time></trkpt><trkpt lat="44.8227218" lon="7.8425046"><ele>288.0</ele><time>2026-04-25T05:33:51.28Z</time></trkpt><trkpt lat="44.8226082" lon="7.842451"><ele>288.0</ele><time>2026-04-25T05:33:52.277Z</time></trkpt><trkpt lat="44.8224926" lon="7.8424034"><ele>288.0</ele><time>2026-04-25T05:33:53.276Z</time></trkpt><trkpt lat="44.8223739" lon="7.8423615"><ele>288.0</ele><time>2026-04-25T05:33:54.276Z</time></trkpt><trkpt lat="44.8222592" lon="7.8423283"><ele>288.0</ele><time>2026-04-25T05:33:55.279Z</time></trkpt><trkpt lat="44.8221484" lon="7.8422893"><ele>288.0</ele><time>2026-04-25T05:33:56.281Z</time></trkpt><trkpt lat="44.8220395" lon="7.8422342"><ele>288.0</ele><time>2026-04-25T05:33:57.281Z</time></trkpt><trkpt lat="44.8219373" lon="7.8421592"><ele>288.0</ele><time>2026-04-25T05:33:58.279Z</time></trkpt><trkpt lat="44.8218439" lon="7.8420698"><ele>288.0</ele><time>2026-04-25T05:33:59.277Z</time></trkpt><trkpt lat="44.8217582" lon="7.8419678"><ele>288.2</ele><time>2026-04-25T05:34:00.281Z</time></trkpt><trkpt lat="44.8216811" lon="7.841852"><ele>288.4</ele><time>2026-04-25T05:34:01.279Z</time></trkpt><trkpt lat="44.8216119" lon="7.8417305"><ele>288.59999999999997</ele><time>2026-04-25T05:34:02.279Z</time></trkpt><trkpt lat="44.8215469" lon="7.8416058"><ele>288.8</ele><time>2026-04-25T05:34:03.279Z</time></trkpt><trkpt lat="44.8214844" lon="7.8414739"><ele>289.0</ele><time>2026-04-25T05:34:04.279Z</time></trkpt><trkpt lat="44.8214268" lon="7.8413369"><ele>289.59999999999997</ele><time>2026-04-25T05:34:05.279Z</time></trkpt><trkpt lat="44.8213738" lon="7.8411982"><ele>290.2</ele><time>2026-04-25T05:34:06.278Z</time></trkpt><trkpt lat="44.821318" lon="7.8410638"><ele>290.79999999999995</ele><time>2026-04-25T05:34:07.281Z</time></trkpt><trkpt lat="44.8212585" lon="7.8409322"><ele>291.4</ele><time>2026-04-25T05:34:08.279Z</time></trkpt><trkpt lat="44.8211897" lon="7.8408093"><ele>292.0</ele><time>2026-04-25T05:34:09.28Z</time></trkpt><trkpt lat="44.8211107" lon="7.8406878"><ele>292.25</ele><time>2026-04-25T05:34:10.278Z</time></trkpt><trkpt lat="44.8210251" lon="7.8405781"><ele>292.5</ele><time>2026-04-25T05:34:11.278Z</time></trkpt><trkpt lat="44.8209345" lon="7.8404715"><ele>292.75</ele><time>2026-04-25T05:34:12.28Z</time></trkpt><trkpt lat="44.8208399" lon="7.8403671"><ele>293.0</ele><time>2026-04-25T05:34:13.279Z</time></trkpt><trkpt lat="44.8207454" lon="7.84027"><ele>293.5</ele><time>2026-04-25T05:34:14.279Z</time></trkpt><trkpt lat="44.8206505" lon="7.8401738"><ele>294.0</ele><time>2026-04-25T05:34:15.281Z</time></trkpt><trkpt lat="44.820555" lon="7.84008"><ele>294.5</ele><time>2026-04-25T05:34:16.279Z</time></trkpt><trkpt lat="44.8204593" lon="7.8399914"><ele>295.0</ele><time>2026-04-25T05:34:17.279Z</time></trkpt><trkpt lat="44.8203646" lon="7.839904"><ele>295.0</ele><time>2026-04-25T05:34:18.28Z</time></trkpt><trkpt lat="44.8202708" lon="7.8398157"><ele>295.0</ele><time>2026-04-25T05:34:19.281Z</time></trkpt><trkpt lat="44.8201772" lon="7.8397281"><ele>295.0</ele><time>2026-04-25T05:34:20.281Z</time></trkpt><trkpt lat="44.8200832" lon="7.8396391"><ele>295.0</ele><time>2026-04-25T05:34:21.281Z</time></trkpt><trkpt lat="44.8199892" lon="7.8395507"><ele>295.75</ele><time>2026-04-25T05:34:22.278Z</time></trkpt><trkpt lat="44.8198977" lon="7.8394654"><ele>296.5</ele><time>2026-04-25T05:34:23.279Z</time></trkpt><trkpt lat="44.8198077" lon="7.8393651"><ele>297.25</ele><time>2026-04-25T05:34:24.278Z</time></trkpt><trkpt lat="44.819728" lon="7.8392566"><ele>298.0</ele><time>2026-04-25T05:34:25.279Z</time></trkpt><trkpt lat="44.8196598" lon="7.8391267"><ele>298.5</ele><time>2026-04-25T05:34:26.279Z</time></trkpt><trkpt lat="44.8196108" lon="7.8389804"><ele>299.0</ele><time>2026-04-25T05:34:27.28Z</time></trkpt><trkpt lat="44.8195743" lon="7.8388182"><ele>299.5</ele><time>2026-04-25T05:34:28.279Z</time></trkpt><trkpt lat="44.819543" lon="7.8386573"><ele>300.0</ele><time>2026-04-25T05:34:29.279Z</time></trkpt><trkpt lat="44.8195147" lon="7.8384957"><ele>300.0</ele><time>2026-04-25T05:34:30.279Z</time></trkpt><trkpt lat="44.8194906" lon="7.8383315"><ele>300.0</ele><time>2026-04-25T05:34:31.28Z</time></trkpt><trkpt lat="44.8194688" lon="7.8381628"><ele>300.0</ele><time>2026-04-25T05:34:32.279Z</time></trkpt><trkpt lat="44.8194444" lon="7.837994"><ele>300.0</ele><time>2026-04-25T05:34:33.28Z</time></trkpt><trkpt lat="44.8194156" lon="7.8378257"><ele>300.0</ele><time>2026-04-25T05:34:34.279Z</time></trkpt><trkpt lat="44.8193835" lon="7.8376534"><ele>300.0</ele><time>2026-04-25T05:34:35.282Z</time></trkpt><trkpt lat="44.8193463" lon="7.8374819"><ele>300.0</ele><time>2026-04-25T05:34:36.279Z</time></trkpt><trkpt lat="44.8192991" lon="7.8373133"><ele>300.0</ele><time>2026-04-25T05:34:37.279Z</time></trkpt><trkpt lat="44.8192413" lon="7.8371518"><ele>300.5</ele><time>2026-04-25T05:34:38.278Z</time></trkpt><trkpt lat="44.8191716" lon="7.8369973"><ele>301.0</ele><time>2026-04-25T05:34:39.277Z</time></trkpt><trkpt lat="44.8190951" lon="7.8368504"><ele>301.5</ele><time>2026-04-25T05:34:40.277Z</time></trkpt><trkpt lat="44.8190105" lon="7.8367094"><ele>302.0</ele><time>2026-04-25T05:34:41.279Z</time></trkpt><trkpt lat="44.8189171" lon="7.8365903"><ele>302.0</ele><time>2026-04-25T05:34:42.277Z</time></trkpt><trkpt lat="44.8188152" lon="7.8364794"><ele>302.0</ele><time>2026-04-25T05:34:43.277Z</time></trkpt><trkpt lat="44.8187086" lon="7.8363796"><ele>302.0</ele><time>2026-04-25T05:34:44.279Z</time></trkpt><trkpt lat="44.8186016" lon="7.836288"><ele>302.0</ele><time>2026-04-25T05:34:45.281Z</time></trkpt><trkpt lat="44.8184946" lon="7.8361937"><ele>301.75</ele><time>2026-04-25T05:34:46.277Z</time></trkpt><trkpt lat="44.8183882" lon="7.8361042"><ele>301.5</ele><time>2026-04-25T05:34:47.279Z</time></trkpt><trkpt lat="44.8182801" lon="7.836009"><ele>301.25</ele><time>2026-04-25T05:34:48.28Z</time></trkpt><trkpt lat="44.8181722" lon="7.8359146"><ele>301.0</ele><time>2026-04-25T05:34:49.278Z</time></trkpt><trkpt lat="44.8180659" lon="7.8358228"><ele>301.0</ele><time>2026-04-25T05:34:50.281Z</time></trkpt><trkpt lat="44.8179613" lon="7.8357365"><ele>301.0</ele><time>2026-04-25T05:34:51.279Z</time></trkpt><trkpt lat="44.8178555" lon="7.835643"><ele>301.0</ele><time>2026-04-25T05:34:52.279Z</time></trkpt><trkpt lat="44.8177503" lon="7.8355459"><ele>301.0</ele><time>2026-04-25T05:34:53.279Z</time></trkpt><trkpt lat="44.8176435" lon="7.8354505"><ele>301.25</ele><time>2026-04-25T05:34:54.28Z</time></trkpt><trkpt lat="44.8175371" lon="7.8353532"><ele>301.5</ele><time>2026-04-25T05:34:55.276Z</time></trkpt><trkpt lat="44.8174343" lon="7.8352584"><ele>301.75</ele><time>2026-04-25T05:34:56.28Z</time></trkpt><trkpt lat="44.8173357" lon="7.835166"><ele>302.0</ele><time>2026-04-25T05:34:57.279Z</time></trkpt><trkpt lat="44.8172384" lon="7.8350492"><ele>302.5</ele><time>2026-04-25T05:34:58.28Z</time></trkpt><trkpt lat="44.8171439" lon="7.8349296"><ele>303.0</ele><time>2026-04-25T05:34:59.279Z</time></trkpt><trkpt lat="44.8170544" lon="7.8347991"><ele>303.5</ele><time>2026-04-25T05:35:00.278Z</time></trkpt><trkpt lat="44.8169701" lon="7.8346658"><ele>304.0</ele><time>2026-04-25T05:35:01.278Z</time></trkpt><trkpt lat="44.8168902" lon="7.8345245"><ele>304.0</ele><time>2026-04-25T05:35:02.278Z</time></trkpt><trkpt lat="44.8168157" lon="7.83438"><ele>304.0</ele><time>2026-04-25T05:35:03.279Z</time></trkpt><trkpt lat="44.8167462" lon="7.8342352"><ele>304.0</ele><time>2026-04-25T05:35:04.28Z</time></trkpt><trkpt lat="44.8166809" lon="7.8340865"><ele>304.0</ele><time>2026-04-25T05:35:05.28Z</time></trkpt><trkpt lat="44.8166218" lon="7.8339331"><ele>304.0</ele><time>2026-04-25T05:35:06.28Z</time></trkpt><trkpt lat="44.8165655" lon="7.8337744"><ele>304.0</ele><time>2026-04-25T05:35:07.279Z</time></trkpt><trkpt lat="44.8165087" lon="7.8336145"><ele>304.0</ele><time>2026-04-25T05:35:08.277Z</time></trkpt><trkpt lat="44.8164506" lon="7.8334524"><ele>304.0</ele><time>2026-04-25T05:35:09.281Z</time></trkpt><trkpt lat="44.8163923" lon="7.8332884"><ele>303.75</ele><time>2026-04-25T05:35:10.279Z</time></trkpt><trkpt lat="44.8163384" lon="7.8331252"><ele>303.5</ele><time>2026-04-25T05:35:11.28Z</time></trkpt><trkpt lat="44.8162819" lon="7.8329736"><ele>303.25</ele><time>2026-04-25T05:35:12.28Z</time></trkpt><trkpt lat="44.8162237" lon="7.8328274"><ele>303.0</ele><time>2026-04-25T05:35:13.28Z</time></trkpt><trkpt lat="44.8161639" lon="7.832687"><ele>303.25</ele><time>2026-04-25T05:35:14.281Z</time></trkpt><trkpt lat="44.8161036" lon="7.8325506"><ele>303.5</ele><time>2026-04-25T05:35:15.279Z</time></trkpt><trkpt lat="44.8160394" lon="7.8324186"><ele>303.75</ele><time>2026-04-25T05:35:16.276Z</time></trkpt><trkpt lat="44.8159723" lon="7.8322881"><ele>304.0</ele><time>2026-04-25T05:35:17.279Z</time></trkpt><trkpt lat="44.8159019" lon="7.8321631"><ele>303.5</ele><time>2026-04-25T05:35:18.281Z</time></trkpt><trkpt lat="44.8158295" lon="7.8320385"><ele>303.0</ele><time>2026-04-25T05:35:19.278Z</time></trkpt><trkpt lat="44.8157549" lon="7.8319117"><ele>302.5</ele><time>2026-04-25T05:35:20.279Z</time></trkpt><trkpt lat="44.8156823" lon="7.8317785"><ele>302.0</ele><time>2026-04-25T05:35:21.28Z</time></trkpt><trkpt lat="44.8156117" lon="7.8316445"><ele>301.25</ele><time>2026-04-25T05:35:22.281Z</time></trkpt><trkpt lat="44.8155423" lon="7.8315107"><ele>300.5</ele><time>2026-04-25T05:35:23.277Z</time></trkpt><trkpt lat="44.8154725" lon="7.831374"><ele>299.75</ele><time>2026-04-25T05:35:24.281Z</time></trkpt><trkpt lat="44.8154011" lon="7.8312335"><ele>299.0</ele><time>2026-04-25T05:35:25.281Z</time></trkpt><trkpt lat="44.8153285" lon="7.8310962"><ele>298.75</ele><time>2026-04-25T05:35:26.279Z</time></trkpt><trkpt lat="44.8152544" lon="7.8309596"><ele>298.5</ele><time>2026-04-25T05:35:27.28Z</time></trkpt><trkpt lat="44.8151739" lon="7.8308268"><ele>298.25</ele><time>2026-04-25T05:35:28.281Z</time></trkpt><trkpt lat="44.8150884" lon="7.8306989"><ele>298.0</ele><time>2026-04-25T05:35:29.28Z</time></trkpt><trkpt lat="44.8149996" lon="7.8305711"><ele>297.25</ele><time>2026-04-25T05:35:30.278Z</time></trkpt><trkpt lat="44.8149099" lon="7.8304462"><ele>296.5</ele><time>2026-04-25T05:35:31.279Z</time></trkpt><trkpt lat="44.8148205" lon="7.8303204"><ele>295.75</ele><time>2026-04-25T05:35:32.28Z</time></trkpt><trkpt lat="44.8147304" lon="7.8301924"><ele>295.0</ele><time>2026-04-25T05:35:33.28Z</time></trkpt><trkpt lat="44.8146409" lon="7.8300591"><ele>295.0</ele><time>2026-04-25T05:35:34.278Z</time></trkpt><trkpt lat="44.8145532" lon="7.8299224"><ele>295.0</ele><time>2026-04-25T05:35:35.278Z</time></trkpt><trkpt lat="44.8144715" lon="7.8297757"><ele>295.0</ele><time>2026-04-25T05:35:36.281Z</time></trkpt><trkpt lat="44.8143947" lon="7.8296299"><ele>295.0</ele><time>2026-04-25T05:35:37.279Z</time></trkpt><trkpt lat="44.8143262" lon="7.8294697"><ele>294.0</ele><time>2026-04-25T05:35:38.277Z</time></trkpt><trkpt lat="44.8142684" lon="7.829304"><ele>293.0</ele><time>2026-04-25T05:35:39.28Z</time></trkpt><trkpt lat="44.8142231" lon="7.8291322"><ele>292.0</ele><time>2026-04-25T05:35:40.28Z</time></trkpt><trkpt lat="44.8141891" lon="7.8289606"><ele>291.0</ele><time>2026-04-25T05:35:41.28Z</time></trkpt><trkpt lat="44.8141652" lon="7.8287791"><ele>291.0</ele><time>2026-04-25T05:35:42.278Z</time></trkpt><trkpt lat="44.8141505" lon="7.8286061"><ele>291.0</ele><time>2026-04-25T05:35:43.277Z</time></trkpt><trkpt lat="44.8141442" lon="7.8284318"><ele>291.0</ele><time>2026-04-25T05:35:44.277Z</time></trkpt><trkpt lat="44.8141397" lon="7.8282595"><ele>291.0</ele><time>2026-04-25T05:35:45.279Z</time></trkpt><trkpt lat="44.8141395" lon="7.828092"><ele>291.0</ele><time>2026-04-25T05:35:46.279Z</time></trkpt><trkpt lat="44.8141402" lon="7.8279293"><ele>291.0</ele><time>2026-04-25T05:35:47.279Z</time></trkpt><trkpt lat="44.8141376" lon="7.8277707"><ele>291.0</ele><time>2026-04-25T05:35:48.28Z</time></trkpt><trkpt lat="44.8141297" lon="7.8276092"><ele>291.0</ele><time>2026-04-25T05:35:49.28Z</time></trkpt><trkpt lat="44.8141093" lon="7.8274448"><ele>291.0</ele><time>2026-04-25T05:35:50.28Z</time></trkpt><trkpt lat="44.8140758" lon="7.8272799"><ele>291.0</ele><time>2026-04-25T05:35:51.282Z</time></trkpt><trkpt lat="44.8140237" lon="7.8271223"><ele>291.0</ele><time>2026-04-25T05:35:52.279Z</time></trkpt><trkpt lat="44.8139532" lon="7.826977"><ele>291.0</ele><time>2026-04-25T05:35:53.279Z</time></trkpt><trkpt lat="44.8138686" lon="7.8268562"><ele>291.6</ele><time>2026-04-25T05:35:54.278Z</time></trkpt><trkpt lat="44.813777" lon="7.8267529"><ele>292.20000000000005</ele><time>2026-04-25T05:35:55.28Z</time></trkpt><trkpt lat="44.8136837" lon="7.8266714"><ele>292.79999999999995</ele><time>2026-04-25T05:35:56.28Z</time></trkpt><trkpt lat="44.813586" lon="7.8266106"><ele>293.4</ele><time>2026-04-25T05:35:57.279Z</time></trkpt><trkpt lat="44.8134855" lon="7.826567"><ele>294.0</ele><time>2026-04-25T05:35:58.28Z</time></trkpt><trkpt lat="44.8133825" lon="7.8265319"><ele>294.0</ele><time>2026-04-25T05:35:59.279Z</time></trkpt><trkpt lat="44.8132786" lon="7.8264982"><ele>294.0</ele><time>2026-04-25T05:36:00.28Z</time></trkpt><trkpt lat="44.8131736" lon="7.8264622"><ele>294.0</ele><time>2026-04-25T05:36:01.278Z</time></trkpt><trkpt lat="44.8130699" lon="7.8264225"><ele>294.0</ele><time>2026-04-25T05:36:02.28Z</time></trkpt><trkpt lat="44.8129673" lon="7.8263843"><ele>294.0</ele><time>2026-04-25T05:36:03.279Z</time></trkpt><trkpt lat="44.8128663" lon="7.8263452"><ele>294.0</ele><time>2026-04-25T05:36:04.28Z</time></trkpt><trkpt lat="44.8127646" lon="7.8263097"><ele>294.0</ele><time>2026-04-25T05:36:05.278Z</time></trkpt><trkpt lat="44.8126622" lon="7.8262742"><ele>294.0</ele><time>2026-04-25T05:36:06.277Z</time></trkpt><trkpt lat="44.8125579" lon="7.8262427"><ele>294.0</ele><time>2026-04-25T05:36:07.281Z</time></trkpt><trkpt lat="44.8124482" lon="7.826215"><ele>294.0</ele><time>2026-04-25T05:36:08.279Z</time></trkpt><trkpt lat="44.8123389" lon="7.8261978"><ele>294.25</ele><time>2026-04-25T05:36:09.28Z</time></trkpt><trkpt lat="44.8122288" lon="7.8261843"><ele>294.5</ele><time>2026-04-25T05:36:10.277Z</time></trkpt><trkpt lat="44.8121159" lon="7.8261744"><ele>294.75</ele><time>2026-04-25T05:36:11.278Z</time></trkpt><trkpt lat="44.8120032" lon="7.8261709"><ele>295.0</ele><time>2026-04-25T05:36:12.28Z</time></trkpt><trkpt lat="44.8118892" lon="7.8261693"><ele>295.5</ele><time>2026-04-25T05:36:13.279Z</time></trkpt><trkpt lat="44.8117764" lon="7.82617"><ele>296.0</ele><time>2026-04-25T05:36:14.28Z</time></trkpt><trkpt lat="44.8116619" lon="7.8261722"><ele>296.5</ele><time>2026-04-25T05:36:15.28Z</time></trkpt><trkpt lat="44.8115453" lon="7.8261747"><ele>297.0</ele><time>2026-04-25T05:36:16.279Z</time></trkpt><trkpt lat="44.8114278" lon="7.8261793"><ele>297.0</ele><time>2026-04-25T05:36:17.278Z</time></trkpt><trkpt lat="44.8113096" lon="7.8261883"><ele>297.0</ele><time>2026-04-25T05:36:18.28Z</time></trkpt><trkpt lat="44.8111928" lon="7.8262027"><ele>297.0</ele><time>2026-04-25T05:36:19.276Z</time></trkpt><trkpt lat="44.8110752" lon="7.8262169"><ele>297.0</ele><time>2026-04-25T05:36:20.279Z</time></trkpt><trkpt lat="44.8109555" lon="7.8262302"><ele>297.5</ele><time>2026-04-25T05:36:21.279Z</time></trkpt><trkpt lat="44.810835" lon="7.8262438"><ele>298.0</ele><time>2026-04-25T05:36:22.279Z</time></trkpt><trkpt lat="44.8107126" lon="7.8262598"><ele>298.5</ele><time>2026-04-25T05:36:23.278Z</time></trkpt><trkpt lat="44.8105892" lon="7.8262793"><ele>299.0</ele><time>2026-04-25T05:36:24.279Z</time></trkpt><trkpt lat="44.8104618" lon="7.8262931"><ele>299.0</ele><time>2026-04-25T05:36:25.278Z</time></trkpt><trkpt lat="44.8103345" lon="7.8263062"><ele>299.0</ele><time>2026-04-25T05:36:26.28Z</time></trkpt><trkpt lat="44.81021" lon="7.8263191"><ele>299.0</ele><time>2026-04-25T05:36:27.28Z</time></trkpt><trkpt lat="44.8100882" lon="7.826324"><ele>299.0</ele><time>2026-04-25T05:36:28.28Z</time></trkpt><trkpt lat="44.8099678" lon="7.8263264"><ele>299.75</ele><time>2026-04-25T05:36:29.279Z</time></trkpt><trkpt lat="44.809847" lon="7.8263167"><ele>300.5</ele><time>2026-04-25T05:36:30.28Z</time></trkpt><trkpt lat="44.8097259" lon="7.8263047"><ele>301.25</ele><time>2026-04-25T05:36:31.279Z</time></trkpt><trkpt lat="44.809605" lon="7.8262893"><ele>302.0</ele><time>2026-04-25T05:36:32.279Z</time></trkpt><trkpt lat="44.8094854" lon="7.8262751"><ele>302.0</ele><time>2026-04-25T05:36:33.279Z</time></trkpt><trkpt lat="44.8093647" lon="7.8262576"><ele>302.0</ele><time>2026-04-25T05:36:34.277Z</time></trkpt><trkpt lat="44.8092469" lon="7.8262401"><ele>302.0</ele><time>2026-04-25T05:36:35.279Z</time></trkpt><trkpt lat="44.8091274" lon="7.8262188"><ele>302.0</ele><time>2026-04-25T05:36:36.28Z</time></trkpt><trkpt lat="44.8090091" lon="7.8261943"><ele>301.75</ele><time>2026-04-25T05:36:37.279Z</time></trkpt><trkpt lat="44.8088897" lon="7.8261623"><ele>301.5</ele><time>2026-04-25T05:36:38.278Z</time></trkpt><trkpt lat="44.8087712" lon="7.82612"><ele>301.25</ele><time>2026-04-25T05:36:39.279Z</time></trkpt><trkpt lat="44.8086546" lon="7.8260681"><ele>301.0</ele><time>2026-04-25T05:36:40.278Z</time></trkpt><trkpt lat="44.8085389" lon="7.8260016"><ele>301.25</ele><time>2026-04-25T05:36:41.28Z</time></trkpt><trkpt lat="44.8084246" lon="7.8259294"><ele>301.5</ele><time>2026-04-25T05:36:42.278Z</time></trkpt><trkpt lat="44.8083099" lon="7.8258526"><ele>301.75</ele><time>2026-04-25T05:36:43.28Z</time></trkpt><trkpt lat="44.8081944" lon="7.8257717"><ele>302.0</ele><time>2026-04-25T05:36:44.28Z</time></trkpt><trkpt lat="44.8080815" lon="7.8256879"><ele>302.0</ele><time>2026-04-25T05:36:45.278Z</time></trkpt><trkpt lat="44.8079674" lon="7.8255948"><ele>302.0</ele><time>2026-04-25T05:36:46.277Z</time></trkpt><trkpt lat="44.8078552" lon="7.8254979"><ele>302.0</ele><time>2026-04-25T05:36:47.28Z</time></trkpt><trkpt lat="44.8077474" lon="7.8253962"><ele>302.0</ele><time>2026-04-25T05:36:48.28Z</time></trkpt><trkpt lat="44.8076445" lon="7.825283"><ele>302.25</ele><time>2026-04-25T05:36:49.279Z</time></trkpt><trkpt lat="44.8075463" lon="7.8251626"><ele>302.5</ele><time>2026-04-25T05:36:50.28Z</time></trkpt><trkpt lat="44.8074537" lon="7.8250309"><ele>302.75</ele><time>2026-04-25T05:36:51.279Z</time></trkpt><trkpt lat="44.8073672" lon="7.8248894"><ele>303.0</ele><time>2026-04-25T05:36:52.277Z</time></trkpt><trkpt lat="44.8072847" lon="7.8247462"><ele>302.75</ele><time>2026-04-25T05:36:53.279Z</time></trkpt><trkpt lat="44.8072063" lon="7.8246006"><ele>302.5</ele><time>2026-04-25T05:36:54.279Z</time></trkpt><trkpt lat="44.807129" lon="7.8244537"><ele>302.25</ele><time>2026-04-25T05:36:55.281Z</time></trkpt><trkpt lat="44.8070514" lon="7.8243094"><ele>302.0</ele><time>2026-04-25T05:36:56.279Z</time></trkpt><trkpt lat="44.8069739" lon="7.824174"><ele>302.0</ele><time>2026-04-25T05:36:57.28Z</time></trkpt><trkpt lat="44.806894" lon="7.824053"><ele>302.0</ele><time>2026-04-25T05:36:58.28Z</time></trkpt><trkpt lat="44.8068086" lon="7.823944"><ele>302.0</ele><time>2026-04-25T05:36:59.279Z</time></trkpt><trkpt lat="44.8067205" lon="7.8238526"><ele>302.0</ele><time>2026-04-25T05:37:00.277Z</time></trkpt><trkpt lat="44.8066383" lon="7.8237644"><ele>302.0</ele><time>2026-04-25T05:37:01.279Z</time></trkpt><trkpt lat="44.8065599" lon="7.8236728"><ele>301.83333333333337</ele><time>2026-04-25T05:37:02.277Z</time></trkpt><trkpt lat="44.8064886" lon="7.8235802"><ele>301.6666666666667</ele><time>2026-04-25T05:37:03.277Z</time></trkpt><trkpt lat="44.8064296" lon="7.8234709"><ele>301.5</ele><time>2026-04-25T05:37:04.279Z</time></trkpt><trkpt lat="44.8063871" lon="7.8233712"><ele>301.3333333333333</ele><time>2026-04-25T05:37:05.278Z</time></trkpt><trkpt lat="44.8063571" lon="7.8232822"><ele>301.16666666666663</ele><time>2026-04-25T05:37:06.278Z</time></trkpt><trkpt lat="44.8063247" lon="7.8231904"><ele>301.0</ele><time>2026-04-25T05:37:08.279Z</time></trkpt><trkpt lat="44.8062733" lon="7.8231219"><ele>301.0</ele><time>2026-04-25T05:37:10.279Z</time></trkpt><trkpt lat="44.8061526" lon="7.8231353"><ele>301.0</ele><time>2026-04-25T05:37:12.279Z</time></trkpt><trkpt lat="44.8060777" lon="7.8231564"><ele>301.0</ele><time>2026-04-25T05:37:13.28Z</time></trkpt><trkpt lat="44.8059957" lon="7.8231798"><ele>301.0</ele><time>2026-04-25T05:37:14.277Z</time></trkpt><trkpt lat="44.8059122" lon="7.8232038"><ele>301.0</ele><time>2026-04-25T05:37:15.279Z</time></trkpt><trkpt lat="44.8058253" lon="7.8232289"><ele>301.0</ele><time>2026-04-25T05:37:16.279Z</time></trkpt><trkpt lat="44.8057341" lon="7.8232497"><ele>301.0</ele><time>2026-04-25T05:37:17.276Z</time></trkpt><trkpt lat="44.8056396" lon="7.8232741"><ele>301.0</ele><time>2026-04-25T05:37:18.279Z</time></trkpt><trkpt lat="44.8055388" lon="7.8232974"><ele>301.0</ele><time>2026-04-25T05:37:19.279Z</time></trkpt><trkpt lat="44.8054359" lon="7.823321"><ele>301.0</ele><time>2026-04-25T05:37:20.28Z</time></trkpt><trkpt lat="44.8053281" lon="7.8233408"><ele>301.0</ele><time>2026-04-25T05:37:21.281Z</time></trkpt><trkpt lat="44.8052194" lon="7.8233614"><ele>301.0</ele><time>2026-04-25T05:37:22.28Z</time></trkpt><trkpt lat="44.8051125" lon="7.8233837"><ele>301.0</ele><time>2026-04-25T05:37:23.279Z</time></trkpt><trkpt lat="44.8050064" lon="7.8234034"><ele>301.0</ele><time>2026-04-25T05:37:24.278Z</time></trkpt><trkpt lat="44.8049027" lon="7.8234262"><ele>301.0</ele><time>2026-04-25T05:37:25.279Z</time></trkpt><trkpt lat="44.8047964" lon="7.8234489"><ele>300.8</ele><time>2026-04-25T05:37:26.278Z</time></trkpt><trkpt lat="44.8046916" lon="7.8234739"><ele>300.6</ele><time>2026-04-25T05:37:27.28Z</time></trkpt><trkpt lat="44.8045864" lon="7.8234974"><ele>300.4</ele><time>2026-04-25T05:37:28.28Z</time></trkpt><trkpt lat="44.8044794" lon="7.8235164"><ele>300.2</ele><time>2026-04-25T05:37:29.279Z</time></trkpt><trkpt lat="44.8043756" lon="7.8235309"><ele>300.0</ele><time>2026-04-25T05:37:30.278Z</time></trkpt><trkpt lat="44.8042757" lon="7.8235512"><ele>300.0</ele><time>2026-04-25T05:37:31.277Z</time></trkpt><trkpt lat="44.8041717" lon="7.8235605"><ele>300.0</ele><time>2026-04-25T05:37:32.279Z</time></trkpt><trkpt lat="44.8040653" lon="7.8235656"><ele>300.0</ele><time>2026-04-25T05:37:33.278Z</time></trkpt><trkpt lat="44.8039589" lon="7.8235656"><ele>300.0</ele><time>2026-04-25T05:37:34.278Z</time></trkpt><trkpt lat="44.8038511" lon="7.8235567"><ele>300.0</ele><time>2026-04-25T05:37:35.28Z</time></trkpt><trkpt lat="44.8037442" lon="7.8235387"><ele>300.0</ele><time>2026-04-25T05:37:36.28Z</time></trkpt><trkpt lat="44.8036364" lon="7.8235097"><ele>300.0</ele><time>2026-04-25T05:37:37.278Z</time></trkpt><trkpt lat="44.8035287" lon="7.8234767"><ele>300.0</ele><time>2026-04-25T05:37:38.279Z</time></trkpt><trkpt lat="44.8034233" lon="7.8234411"><ele>300.0</ele><time>2026-04-25T05:37:39.277Z</time></trkpt><trkpt lat="44.8033187" lon="7.8233955"><ele>300.0</ele><time>2026-04-25T05:37:40.277Z</time></trkpt><trkpt lat="44.8032156" lon="7.823341"><ele>300.6</ele><time>2026-04-25T05:37:41.278Z</time></trkpt><trkpt lat="44.8031153" lon="7.8232811"><ele>301.2</ele><time>2026-04-25T05:37:42.279Z</time></trkpt><trkpt lat="44.8030192" lon="7.8232173"><ele>301.8</ele><time>2026-04-25T05:37:43.277Z</time></trkpt><trkpt lat="44.8029228" lon="7.8231456"><ele>302.4</ele><time>2026-04-25T05:37:44.279Z</time></trkpt><trkpt lat="44.8028298" lon="7.8230649"><ele>303.0</ele><time>2026-04-25T05:37:45.281Z</time></trkpt><trkpt lat="44.8027376" lon="7.8229712"><ele>303.0</ele><time>2026-04-25T05:37:46.278Z</time></trkpt><trkpt lat="44.802652" lon="7.8228702"><ele>303.0</ele><time>2026-04-25T05:37:47.278Z</time></trkpt><trkpt lat="44.8025716" lon="7.8227643"><ele>303.0</ele><time>2026-04-25T05:37:48.28Z</time></trkpt><trkpt lat="44.8024894" lon="7.8226535"><ele>303.0</ele><time>2026-04-25T05:37:49.28Z</time></trkpt><trkpt lat="44.8024087" lon="7.8225429"><ele>303.0</ele><time>2026-04-25T05:37:50.279Z</time></trkpt><trkpt lat="44.8023314" lon="7.8224241"><ele>302.5</ele><time>2026-04-25T05:37:51.278Z</time></trkpt><trkpt lat="44.8022607" lon="7.8222986"><ele>302.0</ele><time>2026-04-25T05:37:52.277Z</time></trkpt><trkpt lat="44.8021931" lon="7.8221643"><ele>301.5</ele><time>2026-04-25T05:37:53.277Z</time></trkpt><trkpt lat="44.8021296" lon="7.8220283"><ele>301.0</ele><time>2026-04-25T05:37:54.278Z</time></trkpt><trkpt lat="44.8020696" lon="7.8218853"><ele>300.75</ele><time>2026-04-25T05:37:55.276Z</time></trkpt><trkpt lat="44.8020161" lon="7.821738"><ele>300.5</ele><time>2026-04-25T05:37:56.279Z</time></trkpt><trkpt lat="44.8019657" lon="7.8215892"><ele>300.25</ele><time>2026-04-25T05:37:57.279Z</time></trkpt><trkpt lat="44.8019208" lon="7.8214375"><ele>300.0</ele><time>2026-04-25T05:37:58.278Z</time></trkpt><trkpt lat="44.8018773" lon="7.8212821"><ele>300.0</ele><time>2026-04-25T05:37:59.277Z</time></trkpt><trkpt lat="44.8018341" lon="7.8211215"><ele>300.0</ele><time>2026-04-25T05:38:00.28Z</time></trkpt><trkpt lat="44.8017863" lon="7.8209637"><ele>300.0</ele><time>2026-04-25T05:38:01.278Z</time></trkpt><trkpt lat="44.8017343" lon="7.820808"><ele>300.0</ele><time>2026-04-25T05:38:02.278Z</time></trkpt><trkpt lat="44.8016738" lon="7.8206512"><ele>300.25</ele><time>2026-04-25T05:38:03.277Z</time></trkpt><trkpt lat="44.8016025" lon="7.8204995"><ele>300.5</ele><time>2026-04-25T05:38:04.28Z</time></trkpt><trkpt lat="44.8015266" lon="7.8203443"><ele>300.75</ele><time>2026-04-25T05:38:05.276Z</time></trkpt><trkpt lat="44.8014477" lon="7.8201876"><ele>301.0</ele><time>2026-04-25T05:38:06.28Z</time></trkpt><trkpt lat="44.8013675" lon="7.8200289"><ele>300.0</ele><time>2026-04-25T05:38:07.28Z</time></trkpt><trkpt lat="44.8012865" lon="7.8198695"><ele>299.0</ele><time>2026-04-25T05:38:08.279Z</time></trkpt><trkpt lat="44.801207" lon="7.8197105"><ele>298.0</ele><time>2026-04-25T05:38:09.277Z</time></trkpt><trkpt lat="44.8011324" lon="7.8195533"><ele>297.0</ele><time>2026-04-25T05:38:10.279Z</time></trkpt><trkpt lat="44.8010562" lon="7.8194015"><ele>296.5</ele><time>2026-04-25T05:38:11.275Z</time></trkpt><trkpt lat="44.8009799" lon="7.8192536"><ele>296.0</ele><time>2026-04-25T05:38:12.278Z</time></trkpt><trkpt lat="44.8009035" lon="7.8191145"><ele>295.5</ele><time>2026-04-25T05:38:13.277Z</time></trkpt><trkpt lat="44.8008238" lon="7.8189868"><ele>295.0</ele><time>2026-04-25T05:38:14.28Z</time></trkpt><trkpt lat="44.8007371" lon="7.8188691"><ele>295.0</ele><time>2026-04-25T05:38:15.278Z</time></trkpt><trkpt lat="44.8006441" lon="7.8187642"><ele>295.0</ele><time>2026-04-25T05:38:16.277Z</time></trkpt><trkpt lat="44.800548" lon="7.8186774"><ele>295.0</ele><time>2026-04-25T05:38:17.28Z</time></trkpt><trkpt lat="44.8004502" lon="7.8186128"><ele>295.0</ele><time>2026-04-25T05:38:18.279Z</time></trkpt><trkpt lat="44.8003571" lon="7.8185591"><ele>295.0</ele><time>2026-04-25T05:38:19.279Z</time></trkpt><trkpt lat="44.8002699" lon="7.8185122"><ele>295.16666666666663</ele><time>2026-04-25T05:38:20.278Z</time></trkpt><trkpt lat="44.8001876" lon="7.8184711"><ele>295.3333333333333</ele><time>2026-04-25T05:38:21.28Z</time></trkpt><trkpt lat="44.8001148" lon="7.8184371"><ele>295.5</ele><time>2026-04-25T05:38:22.277Z</time></trkpt><trkpt lat="44.8000181" lon="7.8183897"><ele>295.6666666666667</ele><time>2026-04-25T05:38:24.277Z</time></trkpt><trkpt lat="44.7999464" lon="7.8183519"><ele>295.83333333333337</ele><time>2026-04-25T05:38:27.279Z</time></trkpt><trkpt lat="44.799878" lon="7.8183421"><ele>296.0</ele><time>2026-04-25T05:38:29.277Z</time></trkpt><trkpt lat="44.7997839" lon="7.8183834"><ele>296.2</ele><time>2026-04-25T05:38:31.279Z</time></trkpt><trkpt lat="44.7996642" lon="7.8184719"><ele>296.40000000000003</ele><time>2026-04-25T05:38:33.278Z</time></trkpt><trkpt lat="44.7995926" lon="7.8185284"><ele>296.6</ele><time>2026-04-25T05:38:34.28Z</time></trkpt><trkpt lat="44.7995148" lon="7.8185922"><ele>296.8</ele><time>2026-04-25T05:38:35.28Z</time></trkpt><trkpt lat="44.7994346" lon="7.8186562"><ele>297.0</ele><time>2026-04-25T05:38:36.277Z</time></trkpt><trkpt lat="44.7993544" lon="7.8187224"><ele>296.6</ele><time>2026-04-25T05:38:37.278Z</time></trkpt><trkpt lat="44.799273" lon="7.8187901"><ele>296.2</ele><time>2026-04-25T05:38:38.278Z</time></trkpt><trkpt lat="44.7991885" lon="7.8188578"><ele>295.8</ele><time>2026-04-25T05:38:39.278Z</time></trkpt><trkpt lat="44.7991025" lon="7.818925"><ele>295.4</ele><time>2026-04-25T05:38:40.277Z</time></trkpt><trkpt lat="44.7990132" lon="7.8189918"><ele>295.0</ele><time>2026-04-25T05:38:41.276Z</time></trkpt><trkpt lat="44.7989207" lon="7.8190687"><ele>295.0</ele><time>2026-04-25T05:38:42.279Z</time></trkpt><trkpt lat="44.79883" lon="7.8191527"><ele>295.0</ele><time>2026-04-25T05:38:43.277Z</time></trkpt><trkpt lat="44.7987439" lon="7.8192458"><ele>295.0</ele><time>2026-04-25T05:38:44.278Z</time></trkpt><trkpt lat="44.7986645" lon="7.8193524"><ele>295.0</ele><time>2026-04-25T05:38:45.279Z</time></trkpt><trkpt lat="44.7985924" lon="7.8194734"><ele>295.0</ele><time>2026-04-25T05:38:46.28Z</time></trkpt><trkpt lat="44.7985345" lon="7.819612"><ele>294.25</ele><time>2026-04-25T05:38:47.279Z</time></trkpt><trkpt lat="44.798481" lon="7.8197524"><ele>293.5</ele><time>2026-04-25T05:38:48.278Z</time></trkpt><trkpt lat="44.7984308" lon="7.8198969"><ele>292.75</ele><time>2026-04-25T05:38:49.279Z</time></trkpt><trkpt lat="44.7983808" lon="7.8200387"><ele>292.0</ele><time>2026-04-25T05:38:50.277Z</time></trkpt><trkpt lat="44.7983306" lon="7.8201808"><ele>292.0</ele><time>2026-04-25T05:38:51.28Z</time></trkpt><trkpt lat="44.7982786" lon="7.8203242"><ele>292.0</ele><time>2026-04-25T05:38:52.279Z</time></trkpt><trkpt lat="44.7982207" lon="7.8204687"><ele>292.0</ele><time>2026-04-25T05:38:53.278Z</time></trkpt><trkpt lat="44.7981608" lon="7.8206136"><ele>292.0</ele><time>2026-04-25T05:38:54.276Z</time></trkpt><trkpt lat="44.7980951" lon="7.8207629"><ele>292.0</ele><time>2026-04-25T05:38:55.277Z</time></trkpt><trkpt lat="44.798028" lon="7.8209112"><ele>292.0</ele><time>2026-04-25T05:38:56.279Z</time></trkpt><trkpt lat="44.7979607" lon="7.8210609"><ele>292.0</ele><time>2026-04-25T05:38:57.277Z</time></trkpt><trkpt lat="44.7978908" lon="7.8212136"><ele>292.0</ele><time>2026-04-25T05:38:58.279Z</time></trkpt><trkpt lat="44.7978164" lon="7.8213697"><ele>291.75</ele><time>2026-04-25T05:38:59.276Z</time></trkpt><trkpt lat="44.7977417" lon="7.8215228"><ele>291.5</ele><time>2026-04-25T05:39:00.278Z</time></trkpt><trkpt lat="44.7976676" lon="7.8216776"><ele>291.25</ele><time>2026-04-25T05:39:01.28Z</time></trkpt><trkpt lat="44.7975941" lon="7.821833"><ele>291.0</ele><time>2026-04-25T05:39:02.28Z</time></trkpt><trkpt lat="44.7975205" lon="7.8219857"><ele>291.0</ele><time>2026-04-25T05:39:03.279Z</time></trkpt><trkpt lat="44.7974453" lon="7.8221346"><ele>291.0</ele><time>2026-04-25T05:39:04.276Z</time></trkpt><trkpt lat="44.7973632" lon="7.8222787"><ele>291.0</ele><time>2026-04-25T05:39:05.277Z</time></trkpt><trkpt lat="44.7972753" lon="7.822412"><ele>291.0</ele><time>2026-04-25T05:39:06.276Z</time></trkpt><trkpt lat="44.7971889" lon="7.8225446"><ele>291.25</ele><time>2026-04-25T05:39:07.278Z</time></trkpt><trkpt lat="44.7970968" lon="7.8226704"><ele>291.5</ele><time>2026-04-25T05:39:08.28Z</time></trkpt><trkpt lat="44.7969966" lon="7.8227957"><ele>291.75</ele><time>2026-04-25T05:39:09.28Z</time></trkpt><trkpt lat="44.7969009" lon="7.8229191"><ele>292.0</ele><time>2026-04-25T05:39:10.279Z</time></trkpt><trkpt lat="44.7968108" lon="7.8230407"><ele>292.0</ele><time>2026-04-25T05:39:11.279Z</time></trkpt><trkpt lat="44.7967169" lon="7.8231616"><ele>292.0</ele><time>2026-04-25T05:39:12.281Z</time></trkpt><trkpt lat="44.7966201" lon="7.8232868"><ele>292.0</ele><time>2026-04-25T05:39:13.28Z</time></trkpt><trkpt lat="44.7965271" lon="7.8234082"><ele>292.0</ele><time>2026-04-25T05:39:14.279Z</time></trkpt><trkpt lat="44.7964322" lon="7.8235332"><ele>292.75</ele><time>2026-04-25T05:39:15.279Z</time></trkpt><trkpt lat="44.7963327" lon="7.8236586"><ele>293.5</ele><time>2026-04-25T05:39:16.281Z</time></trkpt><trkpt lat="44.7962304" lon="7.823779"><ele>294.25</ele><time>2026-04-25T05:39:17.279Z</time></trkpt><trkpt lat="44.7961307" lon="7.8239014"><ele>295.0</ele><time>2026-04-25T05:39:18.279Z</time></trkpt><trkpt lat="44.7960278" lon="7.8240248"><ele>293.75</ele><time>2026-04-25T05:39:19.28Z</time></trkpt><trkpt lat="44.7959318" lon="7.8241497"><ele>292.5</ele><time>2026-04-25T05:39:20.279Z</time></trkpt><trkpt lat="44.7958306" lon="7.82427"><ele>291.25</ele><time>2026-04-25T05:39:21.279Z</time></trkpt><trkpt lat="44.7957299" lon="7.8243891"><ele>290.0</ele><time>2026-04-25T05:39:22.278Z</time></trkpt><trkpt lat="44.7956301" lon="7.8245097"><ele>290.0</ele><time>2026-04-25T05:39:23.278Z</time></trkpt><trkpt lat="44.795527" lon="7.8246278"><ele>290.0</ele><time>2026-04-25T05:39:24.279Z</time></trkpt><trkpt lat="44.7954239" lon="7.824745"><ele>290.0</ele><time>2026-04-25T05:39:25.279Z</time></trkpt><trkpt lat="44.7953246" lon="7.8248643"><ele>290.0</ele><time>2026-04-25T05:39:26.28Z</time></trkpt><trkpt lat="44.7952263" lon="7.8249818"><ele>289.75</ele><time>2026-04-25T05:39:27.279Z</time></trkpt><trkpt lat="44.7951264" lon="7.8250993"><ele>289.5</ele><time>2026-04-25T05:39:28.278Z</time></trkpt><trkpt lat="44.7950249" lon="7.8252161"><ele>289.25</ele><time>2026-04-25T05:39:29.278Z</time></trkpt><trkpt lat="44.7949251" lon="7.8253342"><ele>289.0</ele><time>2026-04-25T05:39:30.28Z</time></trkpt><trkpt lat="44.794826" lon="7.825455"><ele>289.5</ele><time>2026-04-25T05:39:31.277Z</time></trkpt><trkpt lat="44.7947285" lon="7.825576"><ele>290.0</ele><time>2026-04-25T05:39:32.279Z</time></trkpt><trkpt lat="44.7946315" lon="7.8256958"><ele>290.5</ele><time>2026-04-25T05:39:33.279Z</time></trkpt><trkpt lat="44.7945299" lon="7.8258129"><ele>291.0</ele><time>2026-04-25T05:39:34.279Z</time></trkpt><trkpt lat="44.7944288" lon="7.8259285"><ele>291.0</ele><time>2026-04-25T05:39:35.279Z</time></trkpt><trkpt lat="44.7943289" lon="7.8260456"><ele>291.0</ele><time>2026-04-25T05:39:36.279Z</time></trkpt><trkpt lat="44.7942307" lon="7.826165"><ele>291.0</ele><time>2026-04-25T05:39:37.28Z</time></trkpt><trkpt lat="44.7941319" lon="7.8262848"><ele>291.0</ele><time>2026-04-25T05:39:38.278Z</time></trkpt><trkpt lat="44.7940317" lon="7.8264041"><ele>291.0</ele><time>2026-04-25T05:39:39.279Z</time></trkpt><trkpt lat="44.7939361" lon="7.8265248"><ele>291.0</ele><time>2026-04-25T05:39:40.278Z</time></trkpt><trkpt lat="44.7938386" lon="7.8266447"><ele>291.0</ele><time>2026-04-25T05:39:41.28Z</time></trkpt><trkpt lat="44.7937394" lon="7.8267667"><ele>291.0</ele><time>2026-04-25T05:39:42.279Z</time></trkpt><trkpt lat="44.7936402" lon="7.8268876"><ele>291.0</ele><time>2026-04-25T05:39:43.279Z</time></trkpt><trkpt lat="44.7935428" lon="7.8270056"><ele>291.0</ele><time>2026-04-25T05:39:44.279Z</time></trkpt><trkpt lat="44.7934451" lon="7.8271217"><ele>291.0</ele><time>2026-04-25T05:39:45.279Z</time></trkpt><trkpt lat="44.7933483" lon="7.8272276"><ele>291.0</ele><time>2026-04-25T05:39:46.277Z</time></trkpt><trkpt lat="44.7932501" lon="7.8273385"><ele>291.0</ele><time>2026-04-25T05:39:47.277Z</time></trkpt><trkpt lat="44.7931534" lon="7.8274487"><ele>291.0</ele><time>2026-04-25T05:39:48.276Z</time></trkpt><trkpt lat="44.7930601" lon="7.8275583"><ele>291.0</ele><time>2026-04-25T05:39:49.279Z</time></trkpt><trkpt lat="44.792963" lon="7.8276676"><ele>291.0</ele><time>2026-04-25T05:39:50.28Z</time></trkpt><trkpt lat="44.7928639" lon="7.8277755"><ele>291.0</ele><time>2026-04-25T05:39:51.278Z</time></trkpt><trkpt lat="44.792769" lon="7.8278828"><ele>291.0</ele><time>2026-04-25T05:39:52.278Z</time></trkpt><trkpt lat="44.7926759" lon="7.827987"><ele>291.0</ele><time>2026-04-25T05:39:53.279Z</time></trkpt><trkpt lat="44.7925846" lon="7.8280889"><ele>291.0</ele><time>2026-04-25T05:39:54.278Z</time></trkpt><trkpt lat="44.7924893" lon="7.8281962"><ele>291.0</ele><time>2026-04-25T05:39:55.279Z</time></trkpt><trkpt lat="44.7923884" lon="7.8283116"><ele>291.0</ele><time>2026-04-25T05:39:56.28Z</time></trkpt><trkpt lat="44.7922816" lon="7.8284395"><ele>291.0</ele><time>2026-04-25T05:39:57.279Z</time></trkpt><trkpt lat="44.7921664" lon="7.8285736"><ele>291.0</ele><time>2026-04-25T05:39:58.279Z</time></trkpt><trkpt lat="44.7920542" lon="7.8287142"><ele>291.0</ele><time>2026-04-25T05:39:59.276Z</time></trkpt><trkpt lat="44.7919338" lon="7.8288689"><ele>291.0</ele><time>2026-04-25T05:40:00.278Z</time></trkpt><trkpt lat="44.7918101" lon="7.8290289"><ele>291.0</ele><time>2026-04-25T05:40:01.277Z</time></trkpt><trkpt lat="44.7916767" lon="7.8291913"><ele>293.6666666666667</ele><time>2026-04-25T05:40:02.277Z</time></trkpt><trkpt lat="44.7915413" lon="7.8293554"><ele>296.33333333333337</ele><time>2026-04-25T05:40:03.278Z</time></trkpt><trkpt lat="44.7914078" lon="7.8295157"><ele>299.0</ele><time>2026-04-25T05:40:04.277Z</time></trkpt><trkpt lat="44.7912768" lon="7.8296758"><ele>299.0</ele><time>2026-04-25T05:40:05.277Z</time></trkpt><trkpt lat="44.7911497" lon="7.829838"><ele>299.0</ele><time>2026-04-25T05:40:06.276Z</time></trkpt><trkpt lat="44.7910233" lon="7.8300039"><ele>299.0</ele><time>2026-04-25T05:40:07.278Z</time></trkpt><trkpt lat="44.7909035" lon="7.8301735"><ele>298.6666666666667</ele><time>2026-04-25T05:40:08.281Z</time></trkpt><trkpt lat="44.7907871" lon="7.8303483"><ele>298.3333333333333</ele><time>2026-04-25T05:40:09.278Z</time></trkpt><trkpt lat="44.7906779" lon="7.8305299"><ele>298.0</ele><time>2026-04-25T05:40:10.276Z</time></trkpt><trkpt lat="44.7905764" lon="7.8307121"><ele>298.0</ele><time>2026-04-25T05:40:11.279Z</time></trkpt><trkpt lat="44.7904759" lon="7.8308886"><ele>298.0</ele><time>2026-04-25T05:40:12.279Z</time></trkpt><trkpt lat="44.7903796" lon="7.8310617"><ele>298.0</ele><time>2026-04-25T05:40:13.278Z</time></trkpt><trkpt lat="44.7902845" lon="7.8312268"><ele>299.0</ele><time>2026-04-25T05:40:14.28Z</time></trkpt><trkpt lat="44.7901951" lon="7.8313852"><ele>300.0</ele><time>2026-04-25T05:40:15.277Z</time></trkpt><trkpt lat="44.7901097" lon="7.8315368"><ele>301.0</ele><time>2026-04-25T05:40:16.278Z</time></trkpt><trkpt lat="44.7900293" lon="7.831676"><ele>302.0</ele><time>2026-04-25T05:40:17.28Z</time></trkpt><trkpt lat="44.7899565" lon="7.8318107"><ele>302.0</ele><time>2026-04-25T05:40:18.278Z</time></trkpt><trkpt lat="44.7898865" lon="7.8319448"><ele>302.0</ele><time>2026-04-25T05:40:19.279Z</time></trkpt><trkpt lat="44.7898199" lon="7.8320695"><ele>302.0</ele><time>2026-04-25T05:40:20.277Z</time></trkpt><trkpt lat="44.7897545" lon="7.8321845"><ele>302.0</ele><time>2026-04-25T05:40:21.279Z</time></trkpt><trkpt lat="44.7896896" lon="7.8322943"><ele>302.0</ele><time>2026-04-25T05:40:22.279Z</time></trkpt><trkpt lat="44.7896275" lon="7.8324027"><ele>302.0</ele><time>2026-04-25T05:40:23.278Z</time></trkpt><trkpt lat="44.7895639" lon="7.8325054"><ele>302.0</ele><time>2026-04-25T05:40:24.28Z</time></trkpt><trkpt lat="44.7894969" lon="7.832604"><ele>302.0</ele><time>2026-04-25T05:40:25.278Z</time></trkpt><trkpt lat="44.7894249" lon="7.8326923"><ele>302.0</ele><time>2026-04-25T05:40:26.278Z</time></trkpt><trkpt lat="44.7893434" lon="7.8327579"><ele>302.0</ele><time>2026-04-25T05:40:27.276Z</time></trkpt><trkpt lat="44.789254" lon="7.8327976"><ele>299.6</ele><time>2026-04-25T05:40:28.277Z</time></trkpt><trkpt lat="44.7891589" lon="7.8328119"><ele>297.2</ele><time>2026-04-25T05:40:29.277Z</time></trkpt><trkpt lat="44.7890622" lon="7.8327902"><ele>294.8</ele><time>2026-04-25T05:40:30.278Z</time></trkpt><trkpt lat="44.7889737" lon="7.8327308"><ele>292.4</ele><time>2026-04-25T05:40:31.279Z</time></trkpt><trkpt lat="44.7888932" lon="7.8326427"><ele>290.0</ele><time>2026-04-25T05:40:32.278Z</time></trkpt><trkpt lat="44.7888147" lon="7.8325359"><ele>289.5</ele><time>2026-04-25T05:40:33.278Z</time></trkpt><trkpt lat="44.7887351" lon="7.8324286"><ele>289.0</ele><time>2026-04-25T05:40:34.28Z</time></trkpt><trkpt lat="44.7886553" lon="7.8323146"><ele>288.5</ele><time>2026-04-25T05:40:35.278Z</time></trkpt><trkpt lat="44.7885749" lon="7.8321939"><ele>288.0</ele><time>2026-04-25T05:40:36.279Z</time></trkpt><trkpt lat="44.7884969" lon="7.8320625"><ele>288.0</ele><time>2026-04-25T05:40:37.278Z</time></trkpt><trkpt lat="44.7884293" lon="7.8319148"><ele>288.0</ele><time>2026-04-25T05:40:38.279Z</time></trkpt><trkpt lat="44.7883705" lon="7.8317472"><ele>288.0</ele><time>2026-04-25T05:40:39.277Z</time></trkpt><trkpt lat="44.7883266" lon="7.8315602"><ele>288.0</ele><time>2026-04-25T05:40:40.278Z</time></trkpt><trkpt lat="44.7882912" lon="7.8313681"><ele>288.0</ele><time>2026-04-25T05:40:41.277Z</time></trkpt><trkpt lat="44.78826" lon="7.8311718"><ele>288.0</ele><time>2026-04-25T05:40:42.28Z</time></trkpt><trkpt lat="44.7882297" lon="7.830975"><ele>288.0</ele><time>2026-04-25T05:40:43.276Z</time></trkpt><trkpt lat="44.7882002" lon="7.8307776"><ele>288.0</ele><time>2026-04-25T05:40:44.278Z</time></trkpt><trkpt lat="44.7881699" lon="7.8305819"><ele>288.0</ele><time>2026-04-25T05:40:45.277Z</time></trkpt><trkpt lat="44.7881367" lon="7.8303878"><ele>288.0</ele><time>2026-04-25T05:40:46.277Z</time></trkpt><trkpt lat="44.7881068" lon="7.8301889"><ele>288.0</ele><time>2026-04-25T05:40:47.275Z</time></trkpt><trkpt lat="44.7880782" lon="7.8299908"><ele>288.0</ele><time>2026-04-25T05:40:48.276Z</time></trkpt><trkpt lat="44.788047" lon="7.829794"><ele>288.0</ele><time>2026-04-25T05:40:49.278Z</time></trkpt><trkpt lat="44.7880134" lon="7.8295963"><ele>288.0</ele><time>2026-04-25T05:40:50.276Z</time></trkpt><trkpt lat="44.7879704" lon="7.8294042"><ele>288.0</ele><time>2026-04-25T05:40:51.279Z</time></trkpt><trkpt lat="44.7879221" lon="7.8292135"><ele>288.0</ele><time>2026-04-25T05:40:52.28Z</time></trkpt><trkpt lat="44.7878683" lon="7.8290241"><ele>288.0</ele><time>2026-04-25T05:40:53.28Z</time></trkpt><trkpt lat="44.7878113" lon="7.8288362"><ele>288.0</ele><time>2026-04-25T05:40:54.276Z</time></trkpt><trkpt lat="44.787755" lon="7.82865"><ele>288.0</ele><time>2026-04-25T05:40:55.278Z</time></trkpt><trkpt lat="44.7876974" lon="7.8284659"><ele>288.0</ele><time>2026-04-25T05:40:56.279Z</time></trkpt><trkpt lat="44.7876385" lon="7.8282778"><ele>289.0</ele><time>2026-04-25T05:40:57.279Z</time></trkpt><trkpt lat="44.7875782" lon="7.8280978"><ele>290.0</ele><time>2026-04-25T05:40:58.279Z</time></trkpt><trkpt lat="44.7875191" lon="7.8279148"><ele>291.0</ele><time>2026-04-25T05:40:59.278Z</time></trkpt><trkpt lat="44.7874589" lon="7.8277281"><ele>292.0</ele><time>2026-04-25T05:41:00.279Z</time></trkpt><trkpt lat="44.7874001" lon="7.8275417"><ele>292.0</ele><time>2026-04-25T05:41:01.278Z</time></trkpt><trkpt lat="44.787346" lon="7.8273589"><ele>292.0</ele><time>2026-04-25T05:41:02.279Z</time></trkpt><trkpt lat="44.7872998" lon="7.8271733"><ele>292.0</ele><time>2026-04-25T05:41:03.28Z</time></trkpt><trkpt lat="44.7872499" lon="7.8269909"><ele>292.0</ele><time>2026-04-25T05:41:04.275Z</time></trkpt><trkpt lat="44.7871995" lon="7.8268207"><ele>292.5</ele><time>2026-04-25T05:41:05.278Z</time></trkpt><trkpt lat="44.78715" lon="7.8266446"><ele>293.0</ele><time>2026-04-25T05:41:06.279Z</time></trkpt><trkpt lat="44.7871041" lon="7.8264624"><ele>293.5</ele><time>2026-04-25T05:41:07.276Z</time></trkpt><trkpt lat="44.7870597" lon="7.8262769"><ele>294.0</ele><time>2026-04-25T05:41:08.28Z</time></trkpt><trkpt lat="44.7870194" lon="7.8260896"><ele>294.5</ele><time>2026-04-25T05:41:09.278Z</time></trkpt><trkpt lat="44.7869875" lon="7.8258982"><ele>295.0</ele><time>2026-04-25T05:41:10.278Z</time></trkpt><trkpt lat="44.7869536" lon="7.8257053"><ele>295.5</ele><time>2026-04-25T05:41:11.277Z</time></trkpt><trkpt lat="44.7869192" lon="7.8255132"><ele>296.0</ele><time>2026-04-25T05:41:12.279Z</time></trkpt><trkpt lat="44.7868881" lon="7.8253189"><ele>296.0</ele><time>2026-04-25T05:41:13.278Z</time></trkpt><trkpt lat="44.7868569" lon="7.8251248"><ele>296.0</ele><time>2026-04-25T05:41:14.278Z</time></trkpt><trkpt lat="44.7868252" lon="7.824931"><ele>296.0</ele><time>2026-04-25T05:41:15.279Z</time></trkpt><trkpt lat="44.7867935" lon="7.8247394"><ele>296.0</ele><time>2026-04-25T05:41:16.277Z</time></trkpt><trkpt lat="44.7867575" lon="7.8245506"><ele>296.0</ele><time>2026-04-25T05:41:17.279Z</time></trkpt><trkpt lat="44.7867218" lon="7.8243639"><ele>296.0</ele><time>2026-04-25T05:41:18.278Z</time></trkpt><trkpt lat="44.7866904" lon="7.8241777"><ele>296.0</ele><time>2026-04-25T05:41:19.28Z</time></trkpt><trkpt lat="44.7866652" lon="7.8239902"><ele>296.0</ele><time>2026-04-25T05:41:20.277Z</time></trkpt><trkpt lat="44.7866504" lon="7.8237997"><ele>296.0</ele><time>2026-04-25T05:41:21.279Z</time></trkpt><trkpt lat="44.7866442" lon="7.8236081"><ele>296.0</ele><time>2026-04-25T05:41:22.278Z</time></trkpt><trkpt lat="44.7866523" lon="7.8234146"><ele>296.0</ele><time>2026-04-25T05:41:23.277Z</time></trkpt><trkpt lat="44.7866729" lon="7.8232234"><ele>296.0</ele><time>2026-04-25T05:41:24.279Z</time></trkpt><trkpt lat="44.786701" lon="7.8230333"><ele>296.25</ele><time>2026-04-25T05:41:25.276Z</time></trkpt><trkpt lat="44.7867401" lon="7.8228474"><ele>296.5</ele><time>2026-04-25T05:41:26.278Z</time></trkpt><trkpt lat="44.7867815" lon="7.8226638"><ele>296.75</ele><time>2026-04-25T05:41:27.279Z</time></trkpt><trkpt lat="44.7868207" lon="7.8224777"><ele>297.0</ele><time>2026-04-25T05:41:28.278Z</time></trkpt><trkpt lat="44.7868537" lon="7.8222849"><ele>296.75</ele><time>2026-04-25T05:41:29.275Z</time></trkpt><trkpt lat="44.7868704" lon="7.8220877"><ele>296.5</ele><time>2026-04-25T05:41:30.279Z</time></trkpt><trkpt lat="44.7868652" lon="7.821891"><ele>296.25</ele><time>2026-04-25T05:41:31.28Z</time></trkpt><trkpt lat="44.7868413" lon="7.8216981"><ele>296.0</ele><time>2026-04-25T05:41:32.279Z</time></trkpt><trkpt lat="44.7868006" lon="7.8215089"><ele>296.0</ele><time>2026-04-25T05:41:33.278Z</time></trkpt><trkpt lat="44.7867532" lon="7.8213213"><ele>296.0</ele><time>2026-04-25T05:41:34.277Z</time></trkpt><trkpt lat="44.7867096" lon="7.8211316"><ele>296.0</ele><time>2026-04-25T05:41:35.28Z</time></trkpt><trkpt lat="44.7866658" lon="7.8209407"><ele>296.0</ele><time>2026-04-25T05:41:36.279Z</time></trkpt><trkpt lat="44.7866192" lon="7.8207478"><ele>296.0</ele><time>2026-04-25T05:41:37.277Z</time></trkpt><trkpt lat="44.7865682" lon="7.8205508"><ele>296.0</ele><time>2026-04-25T05:41:38.278Z</time></trkpt><trkpt lat="44.786518" lon="7.8203486"><ele>296.0</ele><time>2026-04-25T05:41:39.28Z</time></trkpt><trkpt lat="44.7864662" lon="7.820143"><ele>295.33333333333337</ele><time>2026-04-25T05:41:40.277Z</time></trkpt><trkpt lat="44.7864115" lon="7.8199333"><ele>294.6666666666667</ele><time>2026-04-25T05:41:41.278Z</time></trkpt><trkpt lat="44.7863551" lon="7.8197227"><ele>294.0</ele><time>2026-04-25T05:41:42.277Z</time></trkpt><trkpt lat="44.7862957" lon="7.8195179"><ele>294.0</ele><time>2026-04-25T05:41:43.277Z</time></trkpt><trkpt lat="44.7862402" lon="7.8192945"><ele>294.0</ele><time>2026-04-25T05:41:44.279Z</time></trkpt><trkpt lat="44.786185" lon="7.8190702"><ele>294.0</ele><time>2026-04-25T05:41:45.277Z</time></trkpt><trkpt lat="44.7861293" lon="7.8188365"><ele>294.0</ele><time>2026-04-25T05:41:46.275Z</time></trkpt><trkpt lat="44.7860718" lon="7.8186029"><ele>294.0</ele><time>2026-04-25T05:41:47.276Z</time></trkpt><trkpt lat="44.7860151" lon="7.8183662"><ele>294.0</ele><time>2026-04-25T05:41:48.277Z</time></trkpt><trkpt lat="44.7859602" lon="7.8181297"><ele>294.3333333333333</ele><time>2026-04-25T05:41:49.277Z</time></trkpt><trkpt lat="44.7859024" lon="7.8178933"><ele>294.66666666666663</ele><time>2026-04-25T05:41:50.28Z</time></trkpt><trkpt lat="44.785839" lon="7.8176575"><ele>295.0</ele><time>2026-04-25T05:41:51.279Z</time></trkpt><trkpt lat="44.7857692" lon="7.8174269"><ele>295.3333333333333</ele><time>2026-04-25T05:41:52.277Z</time></trkpt><trkpt lat="44.7856917" lon="7.8172078"><ele>295.6666666666667</ele><time>2026-04-25T05:41:53.28Z</time></trkpt><trkpt lat="44.7856092" lon="7.8170008"><ele>296.0</ele><time>2026-04-25T05:41:54.277Z</time></trkpt><trkpt lat="44.7855252" lon="7.8168002"><ele>296.33333333333337</ele><time>2026-04-25T05:41:55.277Z</time></trkpt><trkpt lat="44.7854394" lon="7.8166022"><ele>296.6666666666667</ele><time>2026-04-25T05:41:56.278Z</time></trkpt><trkpt lat="44.7853474" lon="7.8164129"><ele>297.0</ele><time>2026-04-25T05:41:57.278Z</time></trkpt><trkpt lat="44.7852529" lon="7.8162323"><ele>296.3333333333333</ele><time>2026-04-25T05:41:58.277Z</time></trkpt><trkpt lat="44.7851572" lon="7.816051"><ele>295.66666666666663</ele><time>2026-04-25T05:41:59.276Z</time></trkpt><trkpt lat="44.7850639" lon="7.8158784"><ele>295.0</ele><time>2026-04-25T05:42:00.278Z</time></trkpt><trkpt lat="44.7849716" lon="7.815705"><ele>295.0</ele><time>2026-04-25T05:42:01.278Z</time></trkpt><trkpt lat="44.7848823" lon="7.8155315"><ele>295.0</ele><time>2026-04-25T05:42:02.279Z</time></trkpt><trkpt lat="44.7847951" lon="7.8153588"><ele>295.0</ele><time>2026-04-25T05:42:03.278Z</time></trkpt><trkpt lat="44.7847082" lon="7.8151882"><ele>295.3333333333333</ele><time>2026-04-25T05:42:04.278Z</time></trkpt><trkpt lat="44.7846209" lon="7.8150098"><ele>295.6666666666667</ele><time>2026-04-25T05:42:05.278Z</time></trkpt><trkpt lat="44.7845359" lon="7.814835"><ele>296.0</ele><time>2026-04-25T05:42:06.28Z</time></trkpt><trkpt lat="44.7844617" lon="7.8146505"><ele>296.0</ele><time>2026-04-25T05:42:07.279Z</time></trkpt><trkpt lat="44.7844006" lon="7.8144606"><ele>296.0</ele><time>2026-04-25T05:42:08.277Z</time></trkpt><trkpt lat="44.7843507" lon="7.8142686"><ele>296.0</ele><time>2026-04-25T05:42:09.277Z</time></trkpt><trkpt lat="44.7843083" lon="7.8140707"><ele>296.0</ele><time>2026-04-25T05:42:10.28Z</time></trkpt><trkpt lat="44.7842659" lon="7.8138752"><ele>296.0</ele><time>2026-04-25T05:42:11.276Z</time></trkpt><trkpt lat="44.7842224" lon="7.8136853"><ele>296.0</ele><time>2026-04-25T05:42:12.276Z</time></trkpt><trkpt lat="44.7841822" lon="7.8135006"><ele>296.0</ele><time>2026-04-25T05:42:13.278Z</time></trkpt><trkpt lat="44.7841422" lon="7.8133224"><ele>296.0</ele><time>2026-04-25T05:42:14.279Z</time></trkpt><trkpt lat="44.7840985" lon="7.8131451"><ele>296.0</ele><time>2026-04-25T05:42:15.279Z</time></trkpt><trkpt lat="44.7840533" lon="7.812964"><ele>296.0</ele><time>2026-04-25T05:42:16.276Z</time></trkpt><trkpt lat="44.7840045" lon="7.8127901"><ele>296.0</ele><time>2026-04-25T05:42:17.274Z</time></trkpt><trkpt lat="44.7839539" lon="7.8126181"><ele>296.0</ele><time>2026-04-25T05:42:18.275Z</time></trkpt><trkpt lat="44.7839027" lon="7.812448"><ele>296.0</ele><time>2026-04-25T05:42:19.278Z</time></trkpt><trkpt lat="44.7838505" lon="7.8122785"><ele>296.0</ele><time>2026-04-25T05:42:20.278Z</time></trkpt><trkpt lat="44.7837981" lon="7.8121151"><ele>296.0</ele><time>2026-04-25T05:42:21.276Z</time></trkpt><trkpt lat="44.7837483" lon="7.8119442"><ele>296.0</ele><time>2026-04-25T05:42:22.276Z</time></trkpt><trkpt lat="44.7836973" lon="7.8117746"><ele>296.0</ele><time>2026-04-25T05:42:23.277Z</time></trkpt><trkpt lat="44.7836463" lon="7.8116084"><ele>296.0</ele><time>2026-04-25T05:42:24.275Z</time></trkpt><trkpt lat="44.783594" lon="7.8114419"><ele>296.0</ele><time>2026-04-25T05:42:25.276Z</time></trkpt><trkpt lat="44.7835438" lon="7.8112736"><ele>296.0</ele><time>2026-04-25T05:42:26.278Z</time></trkpt><trkpt lat="44.7834927" lon="7.8111057"><ele>297.0</ele><time>2026-04-25T05:42:27.278Z</time></trkpt><trkpt lat="44.7834416" lon="7.8109393"><ele>298.0</ele><time>2026-04-25T05:42:28.276Z</time></trkpt><trkpt lat="44.7833898" lon="7.8107733"><ele>299.0</ele><time>2026-04-25T05:42:29.276Z</time></trkpt><trkpt lat="44.7833374" lon="7.8106055"><ele>300.0</ele><time>2026-04-25T05:42:30.277Z</time></trkpt><trkpt lat="44.7832859" lon="7.8104439"><ele>300.0</ele><time>2026-04-25T05:42:31.277Z</time></trkpt><trkpt lat="44.783235" lon="7.8102762"><ele>300.0</ele><time>2026-04-25T05:42:32.276Z</time></trkpt><trkpt lat="44.7831874" lon="7.8101116"><ele>300.0</ele><time>2026-04-25T05:42:33.278Z</time></trkpt><trkpt lat="44.7831358" lon="7.8099446"><ele>300.0</ele><time>2026-04-25T05:42:34.276Z</time></trkpt><trkpt lat="44.7830853" lon="7.8097809"><ele>299.75</ele><time>2026-04-25T05:42:35.278Z</time></trkpt><trkpt lat="44.7830268" lon="7.8096297"><ele>299.5</ele><time>2026-04-25T05:42:36.276Z</time></trkpt><trkpt lat="44.7829623" lon="7.8094895"><ele>299.25</ele><time>2026-04-25T05:42:37.277Z</time></trkpt><trkpt lat="44.7828763" lon="7.8093603"><ele>299.0</ele><time>2026-04-25T05:42:38.278Z</time></trkpt><trkpt lat="44.7827827" lon="7.8092505"><ele>298.75</ele><time>2026-04-25T05:42:39.276Z</time></trkpt><trkpt lat="44.7826853" lon="7.8091471"><ele>298.5</ele><time>2026-04-25T05:42:40.277Z</time></trkpt><trkpt lat="44.7825842" lon="7.809042"><ele>298.25</ele><time>2026-04-25T05:42:41.277Z</time></trkpt><trkpt lat="44.7824841" lon="7.8089442"><ele>298.0</ele><time>2026-04-25T05:42:42.28Z</time></trkpt><trkpt lat="44.7823837" lon="7.8088443"><ele>298.75</ele><time>2026-04-25T05:42:43.277Z</time></trkpt><trkpt lat="44.7822855" lon="7.80874"><ele>299.5</ele><time>2026-04-25T05:42:44.277Z</time></trkpt><trkpt lat="44.7821884" lon="7.808633"><ele>300.25</ele><time>2026-04-25T05:42:45.279Z</time></trkpt><trkpt lat="44.7820888" lon="7.808534"><ele>301.0</ele><time>2026-04-25T05:42:46.279Z</time></trkpt><trkpt lat="44.7819901" lon="7.8084388"><ele>301.0</ele><time>2026-04-25T05:42:47.276Z</time></trkpt><trkpt lat="44.7818948" lon="7.8083259"><ele>301.0</ele><time>2026-04-25T05:42:48.279Z</time></trkpt><trkpt lat="44.7817996" lon="7.8081954"><ele>301.0</ele><time>2026-04-25T05:42:49.279Z</time></trkpt><trkpt lat="44.7817099" lon="7.8080694"><ele>301.0</ele><time>2026-04-25T05:42:50.275Z</time></trkpt><trkpt lat="44.7816187" lon="7.8079257"><ele>301.25</ele><time>2026-04-25T05:42:51.279Z</time></trkpt><trkpt lat="44.781529" lon="7.8077867"><ele>301.5</ele><time>2026-04-25T05:42:52.278Z</time></trkpt><trkpt lat="44.7814386" lon="7.807645"><ele>301.75</ele><time>2026-04-25T05:42:53.279Z</time></trkpt><trkpt lat="44.7813468" lon="7.8075004"><ele>302.0</ele><time>2026-04-25T05:42:54.277Z</time></trkpt><trkpt lat="44.7812526" lon="7.8073561"><ele>301.5</ele><time>2026-04-25T05:42:55.276Z</time></trkpt><trkpt lat="44.7811577" lon="7.8072155"><ele>301.0</ele><time>2026-04-25T05:42:56.279Z</time></trkpt><trkpt lat="44.7810621" lon="7.8070738"><ele>300.5</ele><time>2026-04-25T05:42:57.276Z</time></trkpt><trkpt lat="44.7809677" lon="7.8069376"><ele>300.0</ele><time>2026-04-25T05:42:58.28Z</time></trkpt><trkpt lat="44.780873" lon="7.806811"><ele>299.25</ele><time>2026-04-25T05:42:59.278Z</time></trkpt><trkpt lat="44.780769" lon="7.8067017"><ele>298.5</ele><time>2026-04-25T05:43:00.278Z</time></trkpt><trkpt lat="44.7806608" lon="7.8066018"><ele>297.75</ele><time>2026-04-25T05:43:01.278Z</time></trkpt><trkpt lat="44.7805497" lon="7.8065103"><ele>297.0</ele><time>2026-04-25T05:43:02.279Z</time></trkpt><trkpt lat="44.7804374" lon="7.8064278"><ele>297.0</ele><time>2026-04-25T05:43:03.279Z</time></trkpt><trkpt lat="44.7803242" lon="7.8063474"><ele>297.0</ele><time>2026-04-25T05:43:04.278Z</time></trkpt><trkpt lat="44.7802097" lon="7.8062706"><ele>297.0</ele><time>2026-04-25T05:43:05.279Z</time></trkpt><trkpt lat="44.7800951" lon="7.8061978"><ele>297.0</ele><time>2026-04-25T05:43:06.278Z</time></trkpt><trkpt lat="44.7799821" lon="7.8061301"><ele>297.25</ele><time>2026-04-25T05:43:07.278Z</time></trkpt><trkpt lat="44.7798721" lon="7.8060525"><ele>297.5</ele><time>2026-04-25T05:43:08.277Z</time></trkpt><trkpt lat="44.7797647" lon="7.8059827"><ele>297.75</ele><time>2026-04-25T05:43:09.281Z</time></trkpt><trkpt lat="44.7796584" lon="7.8059009"><ele>298.0</ele><time>2026-04-25T05:43:10.279Z</time></trkpt><trkpt lat="44.7795491" lon="7.8058221"><ele>298.25</ele><time>2026-04-25T05:43:11.279Z</time></trkpt><trkpt lat="44.7794461" lon="7.8057389"><ele>298.5</ele><time>2026-04-25T05:43:12.278Z</time></trkpt><trkpt lat="44.779347" lon="7.8056426"><ele>298.75</ele><time>2026-04-25T05:43:13.276Z</time></trkpt><trkpt lat="44.7792557" lon="7.8055275"><ele>299.0</ele><time>2026-04-25T05:43:14.279Z</time></trkpt><trkpt lat="44.7791715" lon="7.8053857"><ele>299.5</ele><time>2026-04-25T05:43:15.28Z</time></trkpt><trkpt lat="44.7790943" lon="7.8052426"><ele>300.0</ele><time>2026-04-25T05:43:16.278Z</time></trkpt><trkpt lat="44.779028" lon="7.805101"><ele>300.5</ele><time>2026-04-25T05:43:17.277Z</time></trkpt><trkpt lat="44.7789648" lon="7.8049566"><ele>301.0</ele><time>2026-04-25T05:43:18.278Z</time></trkpt><trkpt lat="44.7789217" lon="7.8048019"><ele>301.0</ele><time>2026-04-25T05:43:19.279Z</time></trkpt><trkpt lat="44.7788718" lon="7.8046569"><ele>301.0</ele><time>2026-04-25T05:43:20.278Z</time></trkpt><trkpt lat="44.7788111" lon="7.8045072"><ele>301.0</ele><time>2026-04-25T05:43:21.279Z</time></trkpt><trkpt lat="44.7787394" lon="7.8043798"><ele>301.0</ele><time>2026-04-25T05:43:22.277Z</time></trkpt><trkpt lat="44.7786568" lon="7.8042627"><ele>301.0</ele><time>2026-04-25T05:43:23.278Z</time></trkpt><trkpt lat="44.7785671" lon="7.8041599"><ele>301.0</ele><time>2026-04-25T05:43:24.279Z</time></trkpt><trkpt lat="44.7784718" lon="7.8040712"><ele>301.0</ele><time>2026-04-25T05:43:25.277Z</time></trkpt><trkpt lat="44.7783691" lon="7.8039943"><ele>301.0</ele><time>2026-04-25T05:43:26.279Z</time></trkpt><trkpt lat="44.7782628" lon="7.8039179"><ele>301.25</ele><time>2026-04-25T05:43:27.277Z</time></trkpt><trkpt lat="44.7781558" lon="7.8038413"><ele>301.5</ele><time>2026-04-25T05:43:28.275Z</time></trkpt><trkpt lat="44.7780482" lon="7.8037589"><ele>301.75</ele><time>2026-04-25T05:43:29.279Z</time></trkpt><trkpt lat="44.7779419" lon="7.8036615"><ele>302.0</ele><time>2026-04-25T05:43:30.278Z</time></trkpt><trkpt lat="44.7778387" lon="7.8035746"><ele>301.5</ele><time>2026-04-25T05:43:31.278Z</time></trkpt><trkpt lat="44.7777377" lon="7.8034838"><ele>301.0</ele><time>2026-04-25T05:43:32.279Z</time></trkpt><trkpt lat="44.77764" lon="7.803383"><ele>300.5</ele><time>2026-04-25T05:43:33.279Z</time></trkpt><trkpt lat="44.7775454" lon="7.8032766"><ele>300.0</ele><time>2026-04-25T05:43:34.277Z</time></trkpt><trkpt lat="44.7774529" lon="7.8031606"><ele>300.0</ele><time>2026-04-25T05:43:35.277Z</time></trkpt><trkpt lat="44.7773663" lon="7.8030339"><ele>300.0</ele><time>2026-04-25T05:43:36.279Z</time></trkpt><trkpt lat="44.7772841" lon="7.8028985"><ele>300.0</ele><time>2026-04-25T05:43:37.278Z</time></trkpt><trkpt lat="44.7772052" lon="7.8027623"><ele>300.0</ele><time>2026-04-25T05:43:38.279Z</time></trkpt><trkpt lat="44.777131" lon="7.8026244"><ele>300.5</ele><time>2026-04-25T05:43:39.279Z</time></trkpt><trkpt lat="44.7770578" lon="7.8024858"><ele>301.0</ele><time>2026-04-25T05:43:40.276Z</time></trkpt><trkpt lat="44.776987" lon="7.8023433"><ele>301.5</ele><time>2026-04-25T05:43:41.275Z</time></trkpt><trkpt lat="44.7769205" lon="7.8021963"><ele>302.0</ele><time>2026-04-25T05:43:42.279Z</time></trkpt><trkpt lat="44.7768627" lon="7.8020409"><ele>302.0</ele><time>2026-04-25T05:43:43.276Z</time></trkpt><trkpt lat="44.776814" lon="7.8018763"><ele>302.0</ele><time>2026-04-25T05:43:44.279Z</time></trkpt><trkpt lat="44.7767735" lon="7.8017053"><ele>302.0</ele><time>2026-04-25T05:43:45.28Z</time></trkpt><trkpt lat="44.7767386" lon="7.8015306"><ele>302.0</ele><time>2026-04-25T05:43:46.278Z</time></trkpt><trkpt lat="44.7767076" lon="7.8013503"><ele>302.0</ele><time>2026-04-25T05:43:47.276Z</time></trkpt><trkpt lat="44.7766793" lon="7.8011658"><ele>302.0</ele><time>2026-04-25T05:43:48.277Z</time></trkpt><trkpt lat="44.7766524" lon="7.8009783"><ele>302.0</ele><time>2026-04-25T05:43:49.278Z</time></trkpt><trkpt lat="44.7766276" lon="7.800788"><ele>302.0</ele><time>2026-04-25T05:43:50.279Z</time></trkpt><trkpt lat="44.776602" lon="7.8005977"><ele>301.75</ele><time>2026-04-25T05:43:51.278Z</time></trkpt><trkpt lat="44.7765776" lon="7.8004093"><ele>301.5</ele><time>2026-04-25T05:43:52.277Z</time></trkpt><trkpt lat="44.7765528" lon="7.8002241"><ele>301.25</ele><time>2026-04-25T05:43:53.28Z</time></trkpt><trkpt lat="44.7765274" lon="7.8000395"><ele>301.0</ele><time>2026-04-25T05:43:54.279Z</time></trkpt><trkpt lat="44.7765007" lon="7.7998576"><ele>301.0</ele><time>2026-04-25T05:43:55.281Z</time></trkpt><trkpt lat="44.7764731" lon="7.7996771"><ele>301.0</ele><time>2026-04-25T05:43:56.278Z</time></trkpt><trkpt lat="44.7764427" lon="7.7994971"><ele>301.0</ele><time>2026-04-25T05:43:57.28Z</time></trkpt><trkpt lat="44.7764073" lon="7.7993213"><ele>301.0</ele><time>2026-04-25T05:43:58.279Z</time></trkpt><trkpt lat="44.7763674" lon="7.7991472"><ele>301.0</ele><time>2026-04-25T05:43:59.278Z</time></trkpt><trkpt lat="44.7763261" lon="7.7989794"><ele>301.0</ele><time>2026-04-25T05:44:00.278Z</time></trkpt><trkpt lat="44.7762806" lon="7.7988119"><ele>301.0</ele><time>2026-04-25T05:44:01.28Z</time></trkpt><trkpt lat="44.7762371" lon="7.7986506"><ele>301.0</ele><time>2026-04-25T05:44:02.277Z</time></trkpt><trkpt lat="44.7761929" lon="7.7984884"><ele>301.0</ele><time>2026-04-25T05:44:03.281Z</time></trkpt><trkpt lat="44.7761457" lon="7.7983319"><ele>301.0</ele><time>2026-04-25T05:44:04.281Z</time></trkpt><trkpt lat="44.776101" lon="7.798182"><ele>301.0</ele><time>2026-04-25T05:44:05.278Z</time></trkpt><trkpt lat="44.7760646" lon="7.7980383"><ele>301.0</ele><time>2026-04-25T05:44:06.28Z</time></trkpt><trkpt lat="44.7760343" lon="7.7979017"><ele>301.0</ele><time>2026-04-25T05:44:07.278Z</time></trkpt><trkpt lat="44.7760104" lon="7.7977699"><ele>301.0</ele><time>2026-04-25T05:44:08.277Z</time></trkpt><trkpt lat="44.775988" lon="7.7976407"><ele>301.0</ele><time>2026-04-25T05:44:09.28Z</time></trkpt><trkpt lat="44.7759647" lon="7.7975204"><ele>301.0</ele><time>2026-04-25T05:44:10.279Z</time></trkpt><trkpt lat="44.7759454" lon="7.7974045"><ele>301.0</ele><time>2026-04-25T05:44:11.278Z</time></trkpt><trkpt lat="44.7759321" lon="7.7972929"><ele>301.0</ele><time>2026-04-25T05:44:12.28Z</time></trkpt><trkpt lat="44.7759154" lon="7.7971912"><ele>301.0</ele><time>2026-04-25T05:44:13.28Z</time></trkpt><trkpt lat="44.7758883" lon="7.7971034"><ele>301.0</ele><time>2026-04-25T05:44:14.279Z</time></trkpt><trkpt lat="44.7758476" lon="7.7970346"><ele>301.0</ele><time>2026-04-25T05:44:15.275Z</time></trkpt><trkpt lat="44.7757878" lon="7.7969845"><ele>301.0</ele><time>2026-04-25T05:44:16.278Z</time></trkpt><trkpt lat="44.7757119" lon="7.7969315"><ele>301.0</ele><time>2026-04-25T05:44:17.28Z</time></trkpt><trkpt lat="44.7756307" lon="7.7968689"><ele>301.0</ele><time>2026-04-25T05:44:18.277Z</time></trkpt><trkpt lat="44.7755518" lon="7.7968003"><ele>301.0</ele><time>2026-04-25T05:44:19.28Z</time></trkpt><trkpt lat="44.7754673" lon="7.7967217"><ele>301.0</ele><time>2026-04-25T05:44:20.28Z</time></trkpt><trkpt lat="44.7753841" lon="7.7966452"><ele>301.0</ele><time>2026-04-25T05:44:21.278Z</time></trkpt><trkpt lat="44.775301" lon="7.7965686"><ele>301.0</ele><time>2026-04-25T05:44:22.279Z</time></trkpt><trkpt lat="44.7752087" lon="7.7964815"><ele>301.0</ele><time>2026-04-25T05:44:23.276Z</time></trkpt><trkpt lat="44.7751099" lon="7.7964023"><ele>301.0</ele><time>2026-04-25T05:44:24.276Z</time></trkpt><trkpt lat="44.7750174" lon="7.796316"><ele>301.0</ele><time>2026-04-25T05:44:25.281Z</time></trkpt><trkpt lat="44.7749267" lon="7.7962274"><ele>301.0</ele><time>2026-04-25T05:44:26.279Z</time></trkpt><trkpt lat="44.7748326" lon="7.7961554"><ele>301.0</ele><time>2026-04-25T05:44:27.278Z</time></trkpt><trkpt lat="44.7747307" lon="7.7960644"><ele>301.0</ele><time>2026-04-25T05:44:28.279Z</time></trkpt><trkpt lat="44.7746291" lon="7.7959805"><ele>301.0</ele><time>2026-04-25T05:44:29.28Z</time></trkpt><trkpt lat="44.7745306" lon="7.7959077"><ele>301.0</ele><time>2026-04-25T05:44:30.278Z</time></trkpt><trkpt lat="44.7744237" lon="7.7958272"><ele>301.0</ele><time>2026-04-25T05:44:31.279Z</time></trkpt><trkpt lat="44.7743398" lon="7.795739"><ele>301.0</ele><time>2026-04-25T05:44:32.279Z</time></trkpt><trkpt lat="44.7742347" lon="7.7956465"><ele>298.5</ele><time>2026-04-25T05:44:33.277Z</time></trkpt><trkpt lat="44.7741319" lon="7.7955525"><ele>296.0</ele><time>2026-04-25T05:44:34.278Z</time></trkpt><trkpt lat="44.7740311" lon="7.7954556"><ele>293.5</ele><time>2026-04-25T05:44:35.28Z</time></trkpt><trkpt lat="44.7739346" lon="7.795351"><ele>291.0</ele><time>2026-04-25T05:44:36.281Z</time></trkpt><trkpt lat="44.7738435" lon="7.795248"><ele>292.2</ele><time>2026-04-25T05:44:37.277Z</time></trkpt><trkpt lat="44.7737569" lon="7.7951434"><ele>293.40000000000003</ele><time>2026-04-25T05:44:38.277Z</time></trkpt><trkpt lat="44.7736733" lon="7.7950466"><ele>294.6</ele><time>2026-04-25T05:44:39.277Z</time></trkpt><trkpt lat="44.7735886" lon="7.7949439"><ele>295.8</ele><time>2026-04-25T05:44:40.28Z</time></trkpt><trkpt lat="44.7735062" lon="7.7948373"><ele>297.0</ele><time>2026-04-25T05:44:41.28Z</time></trkpt><trkpt lat="44.7734238" lon="7.7947432"><ele>293.25</ele><time>2026-04-25T05:44:42.279Z</time></trkpt><trkpt lat="44.7733348" lon="7.7946436"><ele>289.5</ele><time>2026-04-25T05:44:43.279Z</time></trkpt><trkpt lat="44.7732436" lon="7.7945481"><ele>285.75</ele><time>2026-04-25T05:44:44.279Z</time></trkpt><trkpt lat="44.7731437" lon="7.7944488"><ele>282.0</ele><time>2026-04-25T05:44:45.28Z</time></trkpt><trkpt lat="44.7730479" lon="7.7943405"><ele>281.0</ele><time>2026-04-25T05:44:46.278Z</time></trkpt><trkpt lat="44.7729543" lon="7.7942301"><ele>280.0</ele><time>2026-04-25T05:44:47.279Z</time></trkpt><trkpt lat="44.77286" lon="7.7941247"><ele>279.0</ele><time>2026-04-25T05:44:48.275Z</time></trkpt><trkpt lat="44.7727679" lon="7.7940241"><ele>278.0</ele><time>2026-04-25T05:44:49.279Z</time></trkpt><trkpt lat="44.7726761" lon="7.7939124"><ele>278.0</ele><time>2026-04-25T05:44:50.28Z</time></trkpt><trkpt lat="44.7725867" lon="7.7938077"><ele>278.0</ele><time>2026-04-25T05:44:51.282Z</time></trkpt><trkpt lat="44.7724909" lon="7.7936957"><ele>278.0</ele><time>2026-04-25T05:44:52.277Z</time></trkpt><trkpt lat="44.7724008" lon="7.7935812"><ele>278.0</ele><time>2026-04-25T05:44:53.28Z</time></trkpt><trkpt lat="44.7723177" lon="7.7934669"><ele>278.75</ele><time>2026-04-25T05:44:54.28Z</time></trkpt><trkpt lat="44.7722359" lon="7.7933463"><ele>279.5</ele><time>2026-04-25T05:44:55.28Z</time></trkpt><trkpt lat="44.7721529" lon="7.793226"><ele>280.25</ele><time>2026-04-25T05:44:56.279Z</time></trkpt><trkpt lat="44.7720759" lon="7.7931028"><ele>281.0</ele><time>2026-04-25T05:44:57.28Z</time></trkpt><trkpt lat="44.7719973" lon="7.7929741"><ele>281.0</ele><time>2026-04-25T05:44:58.277Z</time></trkpt><trkpt lat="44.77192" lon="7.7928424"><ele>281.0</ele><time>2026-04-25T05:44:59.279Z</time></trkpt><trkpt lat="44.7718416" lon="7.7927132"><ele>281.0</ele><time>2026-04-25T05:45:00.279Z</time></trkpt><trkpt lat="44.7717628" lon="7.7925797"><ele>281.0</ele><time>2026-04-25T05:45:01.277Z</time></trkpt><trkpt lat="44.7716852" lon="7.7924524"><ele>280.0</ele><time>2026-04-25T05:45:02.277Z</time></trkpt><trkpt lat="44.7716052" lon="7.7923197"><ele>279.0</ele><time>2026-04-25T05:45:03.277Z</time></trkpt><trkpt lat="44.7715207" lon="7.7921876"><ele>278.0</ele><time>2026-04-25T05:45:04.278Z</time></trkpt><trkpt lat="44.7714412" lon="7.7920565"><ele>277.0</ele><time>2026-04-25T05:45:05.279Z</time></trkpt><trkpt lat="44.7713647" lon="7.7919327"><ele>278.0</ele><time>2026-04-25T05:45:06.28Z</time></trkpt><trkpt lat="44.7712863" lon="7.791808"><ele>279.0</ele><time>2026-04-25T05:45:07.279Z</time></trkpt><trkpt lat="44.7712046" lon="7.7916783"><ele>280.0</ele><time>2026-04-25T05:45:08.279Z</time></trkpt><trkpt lat="44.7711241" lon="7.7915529"><ele>281.0</ele><time>2026-04-25T05:45:09.279Z</time></trkpt><trkpt lat="44.7710458" lon="7.7914276"><ele>279.5</ele><time>2026-04-25T05:45:10.278Z</time></trkpt><trkpt lat="44.7709713" lon="7.7913068"><ele>278.0</ele><time>2026-04-25T05:45:11.278Z</time></trkpt><trkpt lat="44.7708973" lon="7.7911816"><ele>276.5</ele><time>2026-04-25T05:45:12.279Z</time></trkpt><trkpt lat="44.7708167" lon="7.7910528"><ele>275.0</ele><time>2026-04-25T05:45:13.279Z</time></trkpt><trkpt lat="44.7707384" lon="7.7909247"><ele>275.0</ele><time>2026-04-25T05:45:14.279Z</time></trkpt><trkpt lat="44.7706666" lon="7.7907984"><ele>275.0</ele><time>2026-04-25T05:45:15.278Z</time></trkpt><trkpt lat="44.7705888" lon="7.7906752"><ele>275.0</ele><time>2026-04-25T05:45:16.279Z</time></trkpt><trkpt lat="44.7705126" lon="7.7905502"><ele>275.0</ele><time>2026-04-25T05:45:17.277Z</time></trkpt><trkpt lat="44.7704426" lon="7.7904239"><ele>275.0</ele><time>2026-04-25T05:45:18.279Z</time></trkpt><trkpt lat="44.7703707" lon="7.7903051"><ele>275.0</ele><time>2026-04-25T05:45:19.279Z</time></trkpt><trkpt lat="44.7703036" lon="7.7901854"><ele>275.0</ele><time>2026-04-25T05:45:20.279Z</time></trkpt><trkpt lat="44.7702372" lon="7.7900665"><ele>275.0</ele><time>2026-04-25T05:45:21.279Z</time></trkpt><trkpt lat="44.7701789" lon="7.7899411"><ele>275.0</ele><time>2026-04-25T05:45:22.279Z</time></trkpt><trkpt lat="44.7701164" lon="7.7898204"><ele>274.6</ele><time>2026-04-25T05:45:23.278Z</time></trkpt><trkpt lat="44.7700551" lon="7.7896928"><ele>274.2</ele><time>2026-04-25T05:45:24.279Z</time></trkpt><trkpt lat="44.7699955" lon="7.7895647"><ele>273.8</ele><time>2026-04-25T05:45:25.277Z</time></trkpt><trkpt lat="44.7699393" lon="7.7894363"><ele>273.4</ele><time>2026-04-25T05:45:26.279Z</time></trkpt><trkpt lat="44.7698863" lon="7.7893126"><ele>273.0</ele><time>2026-04-25T05:45:27.277Z</time></trkpt><trkpt lat="44.769834" lon="7.7891972"><ele>273.0</ele><time>2026-04-25T05:45:28.279Z</time></trkpt><trkpt lat="44.7697873" lon="7.7890797"><ele>273.0</ele><time>2026-04-25T05:45:29.278Z</time></trkpt><trkpt lat="44.7697455" lon="7.7889676"><ele>273.0</ele><time>2026-04-25T05:45:30.28Z</time></trkpt><trkpt lat="44.7697092" lon="7.7888429"><ele>273.0</ele><time>2026-04-25T05:45:31.278Z</time></trkpt><trkpt lat="44.769674" lon="7.7887192"><ele>273.0</ele><time>2026-04-25T05:45:32.28Z</time></trkpt><trkpt lat="44.7696466" lon="7.7886072"><ele>273.3333333333333</ele><time>2026-04-25T05:45:33.28Z</time></trkpt><trkpt lat="44.7696242" lon="7.7884916"><ele>273.6666666666667</ele><time>2026-04-25T05:45:34.28Z</time></trkpt><trkpt lat="44.7695992" lon="7.7883804"><ele>274.0</ele><time>2026-04-25T05:45:35.278Z</time></trkpt><trkpt lat="44.7695725" lon="7.7882772"><ele>274.33333333333337</ele><time>2026-04-25T05:45:36.279Z</time></trkpt><trkpt lat="44.7695504" lon="7.788188"><ele>274.6666666666667</ele><time>2026-04-25T05:45:37.28Z</time></trkpt><trkpt lat="44.7695161" lon="7.7880519"><ele>275.0</ele><time>2026-04-25T05:45:39.279Z</time></trkpt><trkpt lat="44.7694621" lon="7.7879963"><ele>275.0</ele><time>2026-04-25T05:45:41.28Z</time></trkpt><trkpt lat="44.7693801" lon="7.7880337"><ele>275.0</ele><time>2026-04-25T05:45:43.279Z</time></trkpt><trkpt lat="44.7692698" lon="7.788098"><ele>275.0</ele><time>2026-04-25T05:45:45.278Z</time></trkpt><trkpt lat="44.7691507" lon="7.7881765"><ele>275.0</ele><time>2026-04-25T05:45:47.28Z</time></trkpt><trkpt lat="44.7690901" lon="7.7882173"><ele>275.0</ele><time>2026-04-25T05:45:48.278Z</time></trkpt><trkpt lat="44.7690326" lon="7.7882594"><ele>274.6666666666667</ele><time>2026-04-25T05:45:49.276Z</time></trkpt><trkpt lat="44.768919" lon="7.7883416"><ele>274.33333333333337</ele><time>2026-04-25T05:45:51.278Z</time></trkpt><trkpt lat="44.7688564" lon="7.7883744"><ele>274.0</ele><time>2026-04-25T05:45:52.28Z</time></trkpt><trkpt lat="44.7687964" lon="7.788407"><ele>273.6666666666667</ele><time>2026-04-25T05:45:53.277Z</time></trkpt><trkpt lat="44.7687326" lon="7.7884198"><ele>273.3333333333333</ele><time>2026-04-25T05:45:54.278Z</time></trkpt><trkpt lat="44.768615" lon="7.7883713"><ele>273.0</ele><time>2026-04-25T05:45:56.28Z</time></trkpt><trkpt lat="44.7685124" lon="7.7883004"><ele>273.0</ele><time>2026-04-25T05:45:58.277Z</time></trkpt><trkpt lat="44.7684146" lon="7.7882166"><ele>273.0</ele><time>2026-04-25T05:46:00.277Z</time></trkpt><trkpt lat="44.7683185" lon="7.7881234"><ele>273.0</ele><time>2026-04-25T05:46:02.279Z</time></trkpt><trkpt lat="44.7682144" lon="7.7880444"><ele>273.0</ele><time>2026-04-25T05:46:04.281Z</time></trkpt><trkpt lat="44.7681469" lon="7.7880073"><ele>273.0</ele><time>2026-04-25T05:46:05.279Z</time></trkpt><trkpt lat="44.768078" lon="7.7879724"><ele>273.0</ele><time>2026-04-25T05:46:06.28Z</time></trkpt><trkpt lat="44.7680093" lon="7.7879415"><ele>273.0</ele><time>2026-04-25T05:46:07.276Z</time></trkpt><trkpt lat="44.767935" lon="7.787915"><ele>273.0</ele><time>2026-04-25T05:46:08.279Z</time></trkpt><trkpt lat="44.7678532" lon="7.7878796"><ele>273.0</ele><time>2026-04-25T05:46:09.279Z</time></trkpt><trkpt lat="44.7677623" lon="7.7878354"><ele>273.0</ele><time>2026-04-25T05:46:10.277Z</time></trkpt><trkpt lat="44.7676723" lon="7.7877947"><ele>273.0</ele><time>2026-04-25T05:46:11.278Z</time></trkpt><trkpt lat="44.7675775" lon="7.7877521"><ele>272.8</ele><time>2026-04-25T05:46:12.276Z</time></trkpt><trkpt lat="44.7674892" lon="7.7877041"><ele>272.6</ele><time>2026-04-25T05:46:13.277Z</time></trkpt><trkpt lat="44.7673939" lon="7.7876396"><ele>272.4</ele><time>2026-04-25T05:46:14.28Z</time></trkpt><trkpt lat="44.7672977" lon="7.7875591"><ele>272.2</ele><time>2026-04-25T05:46:15.276Z</time></trkpt><trkpt lat="44.7671973" lon="7.7874726"><ele>272.0</ele><time>2026-04-25T05:46:16.276Z</time></trkpt><trkpt lat="44.7670957" lon="7.7873877"><ele>271.5</ele><time>2026-04-25T05:46:17.277Z</time></trkpt><trkpt lat="44.7669987" lon="7.7873017"><ele>271.0</ele><time>2026-04-25T05:46:18.276Z</time></trkpt><trkpt lat="44.7668973" lon="7.7872092"><ele>270.5</ele><time>2026-04-25T05:46:19.278Z</time></trkpt><trkpt lat="44.7668012" lon="7.7871237"><ele>270.0</ele><time>2026-04-25T05:46:20.28Z</time></trkpt><trkpt lat="44.7667038" lon="7.7870359"><ele>270.0</ele><time>2026-04-25T05:46:21.279Z</time></trkpt><trkpt lat="44.7666101" lon="7.7869424"><ele>270.0</ele><time>2026-04-25T05:46:22.277Z</time></trkpt><trkpt lat="44.7665171" lon="7.7868491"><ele>270.0</ele><time>2026-04-25T05:46:23.275Z</time></trkpt><trkpt lat="44.7664295" lon="7.7867567"><ele>270.0</ele><time>2026-04-25T05:46:24.278Z</time></trkpt><trkpt lat="44.7663468" lon="7.7866657"><ele>270.0</ele><time>2026-04-25T05:46:25.276Z</time></trkpt><trkpt lat="44.7662754" lon="7.7865836"><ele>270.0</ele><time>2026-04-25T05:46:26.277Z</time></trkpt><trkpt lat="44.766212" lon="7.7865065"><ele>270.0</ele><time>2026-04-25T05:46:27.277Z</time></trkpt><trkpt lat="44.7661555" lon="7.7864459"><ele>270.0</ele><time>2026-04-25T05:46:28.277Z</time></trkpt><trkpt lat="44.766106" lon="7.7863883"><ele>270.0</ele><time>2026-04-25T05:46:29.276Z</time></trkpt><trkpt lat="44.7660235" lon="7.7862972"><ele>270.0</ele><time>2026-04-25T05:46:31.278Z</time></trkpt><trkpt lat="44.7659671" lon="7.7862481"><ele>270.0</ele><time>2026-04-25T05:46:34.277Z</time></trkpt><trkpt lat="44.765913" lon="7.7861827"><ele>269.8</ele><time>2026-04-25T05:46:36.278Z</time></trkpt><trkpt lat="44.7658201" lon="7.7861611"><ele>269.6</ele><time>2026-04-25T05:46:38.28Z</time></trkpt><trkpt lat="44.7657022" lon="7.7862524"><ele>269.4</ele><time>2026-04-25T05:46:40.276Z</time></trkpt><trkpt lat="44.7656367" lon="7.7863135"><ele>269.2</ele><time>2026-04-25T05:46:41.277Z</time></trkpt><trkpt lat="44.7655635" lon="7.7863749"><ele>269.0</ele><time>2026-04-25T05:46:42.277Z</time></trkpt><trkpt lat="44.7654839" lon="7.786434"><ele>269.0</ele><time>2026-04-25T05:46:43.279Z</time></trkpt><trkpt lat="44.765397" lon="7.786499"><ele>269.0</ele><time>2026-04-25T05:46:44.279Z</time></trkpt><trkpt lat="44.7653042" lon="7.7865688"><ele>269.0</ele><time>2026-04-25T05:46:45.28Z</time></trkpt><trkpt lat="44.7652105" lon="7.7866374"><ele>269.0</ele><time>2026-04-25T05:46:46.276Z</time></trkpt><trkpt lat="44.7651167" lon="7.7867069"><ele>269.0</ele><time>2026-04-25T05:46:47.277Z</time></trkpt><trkpt lat="44.7650226" lon="7.7867777"><ele>268.75</ele><time>2026-04-25T05:46:48.279Z</time></trkpt><trkpt lat="44.7649263" lon="7.7868516"><ele>268.5</ele><time>2026-04-25T05:46:49.279Z</time></trkpt><trkpt lat="44.7648277" lon="7.7869297"><ele>268.25</ele><time>2026-04-25T05:46:50.281Z</time></trkpt><trkpt lat="44.7647275" lon="7.787008"><ele>268.0</ele><time>2026-04-25T05:46:51.279Z</time></trkpt><trkpt lat="44.7646268" lon="7.7870872"><ele>268.0</ele><time>2026-04-25T05:46:52.278Z</time></trkpt><trkpt lat="44.7645255" lon="7.787168"><ele>268.0</ele><time>2026-04-25T05:46:53.275Z</time></trkpt><trkpt lat="44.7644262" lon="7.7872483"><ele>268.0</ele><time>2026-04-25T05:46:54.277Z</time></trkpt><trkpt lat="44.7643264" lon="7.7873278"><ele>268.0</ele><time>2026-04-25T05:46:55.278Z</time></trkpt><trkpt lat="44.7642258" lon="7.7874083"><ele>268.0</ele><time>2026-04-25T05:46:56.279Z</time></trkpt><trkpt lat="44.7641219" lon="7.7874882"><ele>268.0</ele><time>2026-04-25T05:46:57.28Z</time></trkpt><trkpt lat="44.7640188" lon="7.7875659"><ele>268.0</ele><time>2026-04-25T05:46:58.279Z</time></trkpt><trkpt lat="44.763915" lon="7.7876459"><ele>268.0</ele><time>2026-04-25T05:46:59.276Z</time></trkpt><trkpt lat="44.7638126" lon="7.7877254"><ele>268.0</ele><time>2026-04-25T05:47:00.276Z</time></trkpt><trkpt lat="44.7637103" lon="7.7878056"><ele>268.0</ele><time>2026-04-25T05:47:01.277Z</time></trkpt><trkpt lat="44.7636084" lon="7.7878851"><ele>268.0</ele><time>2026-04-25T05:47:02.279Z</time></trkpt><trkpt lat="44.7635108" lon="7.7879633"><ele>268.0</ele><time>2026-04-25T05:47:03.28Z</time></trkpt><trkpt lat="44.7634195" lon="7.7880354"><ele>267.5</ele><time>2026-04-25T05:47:04.28Z</time></trkpt><trkpt lat="44.7633217" lon="7.7881159"><ele>267.0</ele><time>2026-04-25T05:47:05.279Z</time></trkpt><trkpt lat="44.7632276" lon="7.7881994"><ele>266.5</ele><time>2026-04-25T05:47:06.279Z</time></trkpt><trkpt lat="44.7631215" lon="7.7882824"><ele>266.0</ele><time>2026-04-25T05:47:07.279Z</time></trkpt><trkpt lat="44.7630202" lon="7.7883688"><ele>266.0</ele><time>2026-04-25T05:47:08.276Z</time></trkpt><trkpt lat="44.7629126" lon="7.7884507"><ele>266.0</ele><time>2026-04-25T05:47:09.279Z</time></trkpt><trkpt lat="44.7628098" lon="7.7885308"><ele>266.0</ele><time>2026-04-25T05:47:10.277Z</time></trkpt><trkpt lat="44.7627016" lon="7.7886145"><ele>266.0</ele><time>2026-04-25T05:47:11.278Z</time></trkpt><trkpt lat="44.7625998" lon="7.7886958"><ele>266.25</ele><time>2026-04-25T05:47:12.279Z</time></trkpt><trkpt lat="44.7625007" lon="7.7887732"><ele>266.5</ele><time>2026-04-25T05:47:13.279Z</time></trkpt><trkpt lat="44.7624056" lon="7.7888507"><ele>266.75</ele><time>2026-04-25T05:47:14.275Z</time></trkpt><trkpt lat="44.7623038" lon="7.7889361"><ele>267.0</ele><time>2026-04-25T05:47:15.279Z</time></trkpt><trkpt lat="44.7622024" lon="7.7890197"><ele>267.0</ele><time>2026-04-25T05:47:16.28Z</time></trkpt><trkpt lat="44.7620994" lon="7.7890967"><ele>267.0</ele><time>2026-04-25T05:47:17.277Z</time></trkpt><trkpt lat="44.7619994" lon="7.7891726"><ele>267.0</ele><time>2026-04-25T05:47:18.279Z</time></trkpt><trkpt lat="44.7618912" lon="7.7892535"><ele>267.0</ele><time>2026-04-25T05:47:19.279Z</time></trkpt><trkpt lat="44.7617859" lon="7.7893376"><ele>267.5</ele><time>2026-04-25T05:47:20.277Z</time></trkpt><trkpt lat="44.7616821" lon="7.7894161"><ele>268.0</ele><time>2026-04-25T05:47:21.28Z</time></trkpt><trkpt lat="44.761578" lon="7.7894959"><ele>268.5</ele><time>2026-04-25T05:47:22.28Z</time></trkpt><trkpt lat="44.7614731" lon="7.7895766"><ele>269.0</ele><time>2026-04-25T05:47:23.28Z</time></trkpt><trkpt lat="44.7613673" lon="7.7896559"><ele>269.0</ele><time>2026-04-25T05:47:24.279Z</time></trkpt><trkpt lat="44.76126" lon="7.7897372"><ele>269.0</ele><time>2026-04-25T05:47:25.279Z</time></trkpt><trkpt lat="44.76115" lon="7.7898162"><ele>269.0</ele><time>2026-04-25T05:47:26.28Z</time></trkpt><trkpt lat="44.7610362" lon="7.7898845"><ele>269.0</ele><time>2026-04-25T05:47:27.28Z</time></trkpt><trkpt lat="44.7609324" lon="7.7899393"><ele>268.59999999999997</ele><time>2026-04-25T05:47:28.278Z</time></trkpt><trkpt lat="44.7608318" lon="7.7899771"><ele>268.2</ele><time>2026-04-25T05:47:29.278Z</time></trkpt><trkpt lat="44.7607396" lon="7.7900051"><ele>267.79999999999995</ele><time>2026-04-25T05:47:30.279Z</time></trkpt><trkpt lat="44.7606503" lon="7.7900171"><ele>267.4</ele><time>2026-04-25T05:47:31.279Z</time></trkpt><trkpt lat="44.7605607" lon="7.7900103"><ele>267.0</ele><time>2026-04-25T05:47:32.279Z</time></trkpt><trkpt lat="44.7604743" lon="7.7899829"><ele>267.0</ele><time>2026-04-25T05:47:33.278Z</time></trkpt><trkpt lat="44.7603911" lon="7.7899499"><ele>267.0</ele><time>2026-04-25T05:47:34.277Z</time></trkpt><trkpt lat="44.7603165" lon="7.7899409"><ele>267.0</ele><time>2026-04-25T05:47:35.276Z</time></trkpt><trkpt lat="44.7602523" lon="7.7899509"><ele>267.0</ele><time>2026-04-25T05:47:36.277Z</time></trkpt><trkpt lat="44.7601783" lon="7.7901003"><ele>267.0</ele><time>2026-04-25T05:47:38.279Z</time></trkpt><trkpt lat="44.7601543" lon="7.7902029"><ele>267.0</ele><time>2026-04-25T05:47:39.277Z</time></trkpt><trkpt lat="44.7601283" lon="7.7903109"><ele>267.3333333333333</ele><time>2026-04-25T05:47:40.276Z</time></trkpt><trkpt lat="44.7601004" lon="7.7904127"><ele>267.6666666666667</ele><time>2026-04-25T05:47:41.279Z</time></trkpt><trkpt lat="44.7600598" lon="7.790509"><ele>268.0</ele><time>2026-04-25T05:47:42.277Z</time></trkpt><trkpt lat="44.7600092" lon="7.7906035"><ele>268.33333333333337</ele><time>2026-04-25T05:47:43.279Z</time></trkpt><trkpt lat="44.7599433" lon="7.7907057"><ele>268.6666666666667</ele><time>2026-04-25T05:47:44.28Z</time></trkpt><trkpt lat="44.7598704" lon="7.7908086"><ele>269.0</ele><time>2026-04-25T05:47:45.279Z</time></trkpt><trkpt lat="44.7597902" lon="7.7909072"><ele>269.0</ele><time>2026-04-25T05:47:46.279Z</time></trkpt><trkpt lat="44.7597043" lon="7.7909994"><ele>269.0</ele><time>2026-04-25T05:47:47.28Z</time></trkpt><trkpt lat="44.7596069" lon="7.7910905"><ele>269.0</ele><time>2026-04-25T05:47:48.279Z</time></trkpt><trkpt lat="44.7595115" lon="7.7911716"><ele>269.0</ele><time>2026-04-25T05:47:49.277Z</time></trkpt><trkpt lat="44.7594132" lon="7.7912532"><ele>269.25</ele><time>2026-04-25T05:47:50.278Z</time></trkpt><trkpt lat="44.7593145" lon="7.7913342"><ele>269.5</ele><time>2026-04-25T05:47:51.279Z</time></trkpt><trkpt lat="44.759214" lon="7.7914147"><ele>269.75</ele><time>2026-04-25T05:47:52.279Z</time></trkpt><trkpt lat="44.7591123" lon="7.7914935"><ele>270.0</ele><time>2026-04-25T05:47:53.279Z</time></trkpt><trkpt lat="44.7590091" lon="7.7915716"><ele>270.0</ele><time>2026-04-25T05:47:54.277Z</time></trkpt><trkpt lat="44.7589053" lon="7.7916494"><ele>270.0</ele><time>2026-04-25T05:47:55.277Z</time></trkpt><trkpt lat="44.7587981" lon="7.7917289"><ele>270.0</ele><time>2026-04-25T05:47:56.279Z</time></trkpt><trkpt lat="44.7586906" lon="7.7918112"><ele>270.0</ele><time>2026-04-25T05:47:57.279Z</time></trkpt><trkpt lat="44.7585826" lon="7.7918943"><ele>271.0</ele><time>2026-04-25T05:47:58.277Z</time></trkpt><trkpt lat="44.758474" lon="7.7919775"><ele>272.0</ele><time>2026-04-25T05:47:59.279Z</time></trkpt><trkpt lat="44.7583663" lon="7.7920609"><ele>273.0</ele><time>2026-04-25T05:48:00.279Z</time></trkpt><trkpt lat="44.7582587" lon="7.7921466"><ele>274.0</ele><time>2026-04-25T05:48:01.277Z</time></trkpt><trkpt lat="44.7581498" lon="7.7922329"><ele>274.0</ele><time>2026-04-25T05:48:02.279Z</time></trkpt><trkpt lat="44.7580387" lon="7.7923219"><ele>274.0</ele><time>2026-04-25T05:48:03.277Z</time></trkpt><trkpt lat="44.7579277" lon="7.7924136"><ele>274.0</ele><time>2026-04-25T05:48:04.28Z</time></trkpt><trkpt lat="44.7578179" lon="7.792512"><ele>274.0</ele><time>2026-04-25T05:48:05.278Z</time></trkpt><trkpt lat="44.7577105" lon="7.7926177"><ele>273.0</ele><time>2026-04-25T05:48:06.278Z</time></trkpt><trkpt lat="44.7576072" lon="7.7927326"><ele>272.0</ele><time>2026-04-25T05:48:07.277Z</time></trkpt><trkpt lat="44.7575073" lon="7.7928553"><ele>271.0</ele><time>2026-04-25T05:48:08.279Z</time></trkpt><trkpt lat="44.7574116" lon="7.7929822"><ele>270.0</ele><time>2026-04-25T05:48:09.278Z</time></trkpt><trkpt lat="44.7573207" lon="7.7931127"><ele>270.0</ele><time>2026-04-25T05:48:10.276Z</time></trkpt><trkpt lat="44.7572323" lon="7.7932411"><ele>270.0</ele><time>2026-04-25T05:48:11.276Z</time></trkpt><trkpt lat="44.7571449" lon="7.793367"><ele>270.0</ele><time>2026-04-25T05:48:12.277Z</time></trkpt><trkpt lat="44.7570587" lon="7.7934919"><ele>270.0</ele><time>2026-04-25T05:48:13.279Z</time></trkpt><trkpt lat="44.7569728" lon="7.7936201"><ele>269.75</ele><time>2026-04-25T05:48:14.28Z</time></trkpt><trkpt lat="44.7568863" lon="7.7937501"><ele>269.5</ele><time>2026-04-25T05:48:15.277Z</time></trkpt><trkpt lat="44.7568016" lon="7.7938779"><ele>269.25</ele><time>2026-04-25T05:48:16.279Z</time></trkpt><trkpt lat="44.7567163" lon="7.7940078"><ele>269.0</ele><time>2026-04-25T05:48:17.28Z</time></trkpt><trkpt lat="44.7566322" lon="7.7941398"><ele>269.0</ele><time>2026-04-25T05:48:18.279Z</time></trkpt><trkpt lat="44.7565451" lon="7.7942706"><ele>269.0</ele><time>2026-04-25T05:48:19.277Z</time></trkpt><trkpt lat="44.756457" lon="7.7944031"><ele>269.0</ele><time>2026-04-25T05:48:20.279Z</time></trkpt><trkpt lat="44.7563691" lon="7.7945377"><ele>269.0</ele><time>2026-04-25T05:48:21.277Z</time></trkpt><trkpt lat="44.7562823" lon="7.7946728"><ele>268.75</ele><time>2026-04-25T05:48:22.279Z</time></trkpt><trkpt lat="44.7561934" lon="7.7948072"><ele>268.5</ele><time>2026-04-25T05:48:23.275Z</time></trkpt><trkpt lat="44.7561062" lon="7.7949414"><ele>268.25</ele><time>2026-04-25T05:48:24.275Z</time></trkpt><trkpt lat="44.7560186" lon="7.7950748"><ele>268.0</ele><time>2026-04-25T05:48:25.278Z</time></trkpt><trkpt lat="44.7559324" lon="7.7952075"><ele>268.5</ele><time>2026-04-25T05:48:26.28Z</time></trkpt><trkpt lat="44.7558476" lon="7.7953395"><ele>269.0</ele><time>2026-04-25T05:48:27.276Z</time></trkpt><trkpt lat="44.75576" lon="7.7954713"><ele>269.5</ele><time>2026-04-25T05:48:28.278Z</time></trkpt><trkpt lat="44.755679" lon="7.7955947"><ele>270.0</ele><time>2026-04-25T05:48:29.278Z</time></trkpt><trkpt lat="44.7555985" lon="7.7957075"><ele>270.0</ele><time>2026-04-25T05:48:30.277Z</time></trkpt><trkpt lat="44.7555048" lon="7.7958166"><ele>270.0</ele><time>2026-04-25T05:48:31.277Z</time></trkpt><trkpt lat="44.7554272" lon="7.7959322"><ele>270.0</ele><time>2026-04-25T05:48:32.278Z</time></trkpt><trkpt lat="44.7553475" lon="7.7960718"><ele>270.0</ele><time>2026-04-25T05:48:33.279Z</time></trkpt><trkpt lat="44.7552596" lon="7.7962166"><ele>270.25</ele><time>2026-04-25T05:48:34.279Z</time></trkpt><trkpt lat="44.7551695" lon="7.7963555"><ele>270.5</ele><time>2026-04-25T05:48:35.278Z</time></trkpt><trkpt lat="44.7550778" lon="7.7964865"><ele>270.75</ele><time>2026-04-25T05:48:36.278Z</time></trkpt><trkpt lat="44.7549872" lon="7.7966202"><ele>271.0</ele><time>2026-04-25T05:48:37.277Z</time></trkpt><trkpt lat="44.7549018" lon="7.7967493"><ele>270.75</ele><time>2026-04-25T05:48:38.279Z</time></trkpt><trkpt lat="44.7548103" lon="7.79688"><ele>270.5</ele><time>2026-04-25T05:48:39.278Z</time></trkpt><trkpt lat="44.7547199" lon="7.7970134"><ele>270.25</ele><time>2026-04-25T05:48:40.278Z</time></trkpt><trkpt lat="44.7546277" lon="7.7971491"><ele>270.0</ele><time>2026-04-25T05:48:41.279Z</time></trkpt><trkpt lat="44.7545388" lon="7.7972836"><ele>270.0</ele><time>2026-04-25T05:48:42.278Z</time></trkpt><trkpt lat="44.7544499" lon="7.7974186"><ele>270.0</ele><time>2026-04-25T05:48:43.278Z</time></trkpt><trkpt lat="44.7543599" lon="7.7975507"><ele>270.0</ele><time>2026-04-25T05:48:44.275Z</time></trkpt><trkpt lat="44.7542674" lon="7.7976847"><ele>270.0</ele><time>2026-04-25T05:48:45.278Z</time></trkpt><trkpt lat="44.7541787" lon="7.7978173"><ele>270.0</ele><time>2026-04-25T05:48:46.28Z</time></trkpt><trkpt lat="44.7540936" lon="7.7979491"><ele>270.0</ele><time>2026-04-25T05:48:47.277Z</time></trkpt><trkpt lat="44.7539965" lon="7.7980848"><ele>270.0</ele><time>2026-04-25T05:48:48.279Z</time></trkpt><trkpt lat="44.7539009" lon="7.7982192"><ele>270.0</ele><time>2026-04-25T05:48:49.276Z</time></trkpt><trkpt lat="44.7538065" lon="7.7983584"><ele>270.0</ele><time>2026-04-25T05:48:50.279Z</time></trkpt><trkpt lat="44.7537128" lon="7.7984982"><ele>270.0</ele><time>2026-04-25T05:48:51.279Z</time></trkpt><trkpt lat="44.7536244" lon="7.7986347"><ele>270.0</ele><time>2026-04-25T05:48:52.279Z</time></trkpt><trkpt lat="44.7535291" lon="7.7987649"><ele>270.0</ele><time>2026-04-25T05:48:53.28Z</time></trkpt><trkpt lat="44.753435" lon="7.7988933"><ele>270.0</ele><time>2026-04-25T05:48:54.279Z</time></trkpt><trkpt lat="44.7533338" lon="7.7990205"><ele>270.0</ele><time>2026-04-25T05:48:55.278Z</time></trkpt><trkpt lat="44.7532372" lon="7.7991439"><ele>270.0</ele><time>2026-04-25T05:48:56.278Z</time></trkpt><trkpt lat="44.7531284" lon="7.7992613"><ele>270.0</ele><time>2026-04-25T05:48:57.278Z</time></trkpt><trkpt lat="44.7530187" lon="7.7993729"><ele>270.0</ele><time>2026-04-25T05:48:58.279Z</time></trkpt><trkpt lat="44.7529083" lon="7.7994812"><ele>270.0</ele><time>2026-04-25T05:48:59.275Z</time></trkpt><trkpt lat="44.7527963" lon="7.7995804"><ele>270.0</ele><time>2026-04-25T05:49:00.28Z</time></trkpt><trkpt lat="44.7526814" lon="7.7996754"><ele>270.0</ele><time>2026-04-25T05:49:01.279Z</time></trkpt><trkpt lat="44.7525648" lon="7.7997597"><ele>270.5</ele><time>2026-04-25T05:49:02.279Z</time></trkpt><trkpt lat="44.7524421" lon="7.7998408"><ele>271.0</ele><time>2026-04-25T05:49:03.279Z</time></trkpt><trkpt lat="44.7523179" lon="7.7999153"><ele>271.5</ele><time>2026-04-25T05:49:04.279Z</time></trkpt><trkpt lat="44.752186" lon="7.7999843"><ele>272.0</ele><time>2026-04-25T05:49:05.278Z</time></trkpt><trkpt lat="44.7520558" lon="7.800046"><ele>272.0</ele><time>2026-04-25T05:49:06.277Z</time></trkpt><trkpt lat="44.7519178" lon="7.8001066"><ele>272.0</ele><time>2026-04-25T05:49:07.277Z</time></trkpt><trkpt lat="44.7517826" lon="7.8001623"><ele>272.0</ele><time>2026-04-25T05:49:08.278Z</time></trkpt><trkpt lat="44.7516452" lon="7.8002243"><ele>272.0</ele><time>2026-04-25T05:49:09.279Z</time></trkpt><trkpt lat="44.7515123" lon="7.8002874"><ele>272.0</ele><time>2026-04-25T05:49:10.279Z</time></trkpt><trkpt lat="44.7513791" lon="7.8003531"><ele>272.0</ele><time>2026-04-25T05:49:11.279Z</time></trkpt><trkpt lat="44.7512399" lon="7.8004191"><ele>272.0</ele><time>2026-04-25T05:49:12.277Z</time></trkpt><trkpt lat="44.7511043" lon="7.8004885"><ele>272.0</ele><time>2026-04-25T05:49:13.28Z</time></trkpt><trkpt lat="44.7509653" lon="7.80056"><ele>272.0</ele><time>2026-04-25T05:49:14.279Z</time></trkpt><trkpt lat="44.750836" lon="7.8006437"><ele>272.0</ele><time>2026-04-25T05:49:15.28Z</time></trkpt><trkpt lat="44.7507174" lon="7.8007359"><ele>272.0</ele><time>2026-04-25T05:49:16.279Z</time></trkpt><trkpt lat="44.7506027" lon="7.8008217"><ele>272.0</ele><time>2026-04-25T05:49:17.278Z</time></trkpt><trkpt lat="44.7505024" lon="7.8009117"><ele>272.2</ele><time>2026-04-25T05:49:18.277Z</time></trkpt><trkpt lat="44.750415" lon="7.8010114"><ele>272.4</ele><time>2026-04-25T05:49:19.275Z</time></trkpt><trkpt lat="44.7503286" lon="7.8011071"><ele>272.6</ele><time>2026-04-25T05:49:20.277Z</time></trkpt><trkpt lat="44.7502631" lon="7.8011943"><ele>272.8</ele><time>2026-04-25T05:49:21.278Z</time></trkpt><trkpt lat="44.7502065" lon="7.8012731"><ele>273.0</ele><time>2026-04-25T05:49:22.276Z</time></trkpt><trkpt lat="44.750149" lon="7.8013521"><ele>273.0</ele><time>2026-04-25T05:49:23.28Z</time></trkpt><trkpt lat="44.7500935" lon="7.8014286"><ele>273.0</ele><time>2026-04-25T05:49:24.279Z</time></trkpt><trkpt lat="44.7500506" lon="7.8014939"><ele>273.0</ele><time>2026-04-25T05:49:25.28Z</time></trkpt><trkpt lat="44.7500057" lon="7.8015925"><ele>273.0</ele><time>2026-04-25T05:49:27.28Z</time></trkpt><trkpt lat="44.7499494" lon="7.8016844"><ele>273.0</ele><time>2026-04-25T05:49:50.279Z</time></trkpt><trkpt lat="44.749888" lon="7.8017884"><ele>273.0</ele><time>2026-04-25T05:49:52.277Z</time></trkpt><trkpt lat="44.7498076" lon="7.8019272"><ele>273.0</ele><time>2026-04-25T05:49:54.278Z</time></trkpt><trkpt lat="44.7497578" lon="7.8020081"><ele>273.0</ele><time>2026-04-25T05:49:55.277Z</time></trkpt><trkpt lat="44.7497052" lon="7.8020978"><ele>273.0</ele><time>2026-04-25T05:49:56.28Z</time></trkpt><trkpt lat="44.7496516" lon="7.8021902"><ele>273.0</ele><time>2026-04-25T05:49:57.278Z</time></trkpt><trkpt lat="44.7495964" lon="7.8022839"><ele>273.0</ele><time>2026-04-25T05:49:58.278Z</time></trkpt><trkpt lat="44.7495396" lon="7.8023845"><ele>273.0</ele><time>2026-04-25T05:49:59.28Z</time></trkpt><trkpt lat="44.7494792" lon="7.8024873"><ele>273.0</ele><time>2026-04-25T05:50:00.277Z</time></trkpt><trkpt lat="44.7494146" lon="7.8025944"><ele>273.0</ele><time>2026-04-25T05:50:01.279Z</time></trkpt><trkpt lat="44.7493462" lon="7.8027067"><ele>273.0</ele><time>2026-04-25T05:50:02.277Z</time></trkpt><trkpt lat="44.7492714" lon="7.8028214"><ele>273.0</ele><time>2026-04-25T05:50:03.278Z</time></trkpt><trkpt lat="44.7491977" lon="7.8029368"><ele>273.0</ele><time>2026-04-25T05:50:04.279Z</time></trkpt><trkpt lat="44.749123" lon="7.8030556"><ele>273.0</ele><time>2026-04-25T05:50:05.279Z</time></trkpt><trkpt lat="44.7490492" lon="7.8031738"><ele>273.0</ele><time>2026-04-25T05:50:06.279Z</time></trkpt><trkpt lat="44.748974" lon="7.8032925"><ele>273.0</ele><time>2026-04-25T05:50:07.279Z</time></trkpt><trkpt lat="44.7488966" lon="7.803412"><ele>273.0</ele><time>2026-04-25T05:50:08.279Z</time></trkpt><trkpt lat="44.748819" lon="7.8035335"><ele>273.25</ele><time>2026-04-25T05:50:09.278Z</time></trkpt><trkpt lat="44.7487416" lon="7.8036561"><ele>273.5</ele><time>2026-04-25T05:50:10.277Z</time></trkpt><trkpt lat="44.7486639" lon="7.8037797"><ele>273.75</ele><time>2026-04-25T05:50:11.275Z</time></trkpt><trkpt lat="44.7485875" lon="7.8039044"><ele>274.0</ele><time>2026-04-25T05:50:12.279Z</time></trkpt><trkpt lat="44.7485075" lon="7.8040266"><ele>274.0</ele><time>2026-04-25T05:50:13.278Z</time></trkpt><trkpt lat="44.7484283" lon="7.8041517"><ele>274.0</ele><time>2026-04-25T05:50:14.278Z</time></trkpt><trkpt lat="44.7483492" lon="7.8042801"><ele>274.0</ele><time>2026-04-25T05:50:15.277Z</time></trkpt><trkpt lat="44.7482692" lon="7.8044111"><ele>274.0</ele><time>2026-04-25T05:50:16.277Z</time></trkpt><trkpt lat="44.7481827" lon="7.8045442"><ele>274.25</ele><time>2026-04-25T05:50:17.28Z</time></trkpt><trkpt lat="44.7480963" lon="7.8046799"><ele>274.5</ele><time>2026-04-25T05:50:18.279Z</time></trkpt><trkpt lat="44.7480065" lon="7.8048161"><ele>274.75</ele><time>2026-04-25T05:50:19.277Z</time></trkpt><trkpt lat="44.7479179" lon="7.8049593"><ele>275.0</ele><time>2026-04-25T05:50:20.279Z</time></trkpt><trkpt lat="44.7478292" lon="7.8051019"><ele>275.0</ele><time>2026-04-25T05:50:21.278Z</time></trkpt><trkpt lat="44.7477388" lon="7.8052494"><ele>275.0</ele><time>2026-04-25T05:50:22.275Z</time></trkpt><trkpt lat="44.7476509" lon="7.8053899"><ele>275.0</ele><time>2026-04-25T05:50:23.278Z</time></trkpt><trkpt lat="44.7475648" lon="7.805526"><ele>275.0</ele><time>2026-04-25T05:50:24.277Z</time></trkpt><trkpt lat="44.747471" lon="7.8056697"><ele>275.0</ele><time>2026-04-25T05:50:25.279Z</time></trkpt><trkpt lat="44.7473793" lon="7.8058097"><ele>275.0</ele><time>2026-04-25T05:50:26.279Z</time></trkpt><trkpt lat="44.7472901" lon="7.8059483"><ele>275.0</ele><time>2026-04-25T05:50:27.277Z</time></trkpt><trkpt lat="44.7471924" lon="7.806081"><ele>275.0</ele><time>2026-04-25T05:50:28.278Z</time></trkpt><trkpt lat="44.7470898" lon="7.8062105"><ele>275.25</ele><time>2026-04-25T05:50:29.279Z</time></trkpt><trkpt lat="44.74698" lon="7.8063375"><ele>275.5</ele><time>2026-04-25T05:50:30.28Z</time></trkpt><trkpt lat="44.7468754" lon="7.8064546"><ele>275.75</ele><time>2026-04-25T05:50:31.276Z</time></trkpt><trkpt lat="44.7467626" lon="7.806567"><ele>276.0</ele><time>2026-04-25T05:50:32.277Z</time></trkpt><trkpt lat="44.7466531" lon="7.8066736"><ele>275.75</ele><time>2026-04-25T05:50:33.279Z</time></trkpt><trkpt lat="44.7465415" lon="7.8067794"><ele>275.5</ele><time>2026-04-25T05:50:34.278Z</time></trkpt><trkpt lat="44.7464325" lon="7.8068805"><ele>275.25</ele><time>2026-04-25T05:50:35.275Z</time></trkpt><trkpt lat="44.7463292" lon="7.8069774"><ele>275.0</ele><time>2026-04-25T05:50:36.28Z</time></trkpt><trkpt lat="44.7462318" lon="7.8070668"><ele>275.0</ele><time>2026-04-25T05:50:37.279Z</time></trkpt><trkpt lat="44.7461383" lon="7.8071513"><ele>275.0</ele><time>2026-04-25T05:50:38.278Z</time></trkpt><trkpt lat="44.7460506" lon="7.8072295"><ele>275.0</ele><time>2026-04-25T05:50:39.277Z</time></trkpt><trkpt lat="44.7459698" lon="7.807303"><ele>275.0</ele><time>2026-04-25T05:50:40.276Z</time></trkpt><trkpt lat="44.7458933" lon="7.8073875"><ele>275.0</ele><time>2026-04-25T05:50:41.276Z</time></trkpt><trkpt lat="44.7458228" lon="7.8074841"><ele>275.25</ele><time>2026-04-25T05:50:42.279Z</time></trkpt><trkpt lat="44.7457399" lon="7.8075849"><ele>275.5</ele><time>2026-04-25T05:50:43.279Z</time></trkpt><trkpt lat="44.7456431" lon="7.8076724"><ele>275.75</ele><time>2026-04-25T05:50:44.277Z</time></trkpt><trkpt lat="44.7455319" lon="7.807733"><ele>276.0</ele><time>2026-04-25T05:50:45.279Z</time></trkpt><trkpt lat="44.7454103" lon="7.8077786"><ele>276.0</ele><time>2026-04-25T05:50:46.279Z</time></trkpt><trkpt lat="44.7452857" lon="7.8078261"><ele>276.0</ele><time>2026-04-25T05:50:47.275Z</time></trkpt><trkpt lat="44.745147" lon="7.807869"><ele>276.0</ele><time>2026-04-25T05:50:48.278Z</time></trkpt><trkpt lat="44.7450069" lon="7.8079107"><ele>276.0</ele><time>2026-04-25T05:50:49.277Z</time></trkpt><trkpt lat="44.7448689" lon="7.8079535"><ele>276.0</ele><time>2026-04-25T05:50:50.279Z</time></trkpt><trkpt lat="44.7447367" lon="7.8080018"><ele>276.0</ele><time>2026-04-25T05:50:51.28Z</time></trkpt><trkpt lat="44.7445964" lon="7.8080494"><ele>276.0</ele><time>2026-04-25T05:50:52.278Z</time></trkpt><trkpt lat="44.7444566" lon="7.8081013"><ele>276.0</ele><time>2026-04-25T05:50:53.279Z</time></trkpt><trkpt lat="44.7443149" lon="7.808155"><ele>276.3333333333333</ele><time>2026-04-25T05:50:54.275Z</time></trkpt><trkpt lat="44.7441733" lon="7.8082092"><ele>276.66666666666663</ele><time>2026-04-25T05:50:55.276Z</time></trkpt><trkpt lat="44.7440287" lon="7.8082633"><ele>277.0</ele><time>2026-04-25T05:50:56.275Z</time></trkpt><trkpt lat="44.7438768" lon="7.8083132"><ele>277.0</ele><time>2026-04-25T05:50:57.276Z</time></trkpt><trkpt lat="44.7437283" lon="7.8083581"><ele>277.0</ele><time>2026-04-25T05:50:58.278Z</time></trkpt><trkpt lat="44.7435733" lon="7.8084078"><ele>277.0</ele><time>2026-04-25T05:50:59.278Z</time></trkpt><trkpt lat="44.7434231" lon="7.8084528"><ele>277.66666666666663</ele><time>2026-04-25T05:51:00.28Z</time></trkpt><trkpt lat="44.7432728" lon="7.8085084"><ele>278.3333333333333</ele><time>2026-04-25T05:51:01.28Z</time></trkpt><trkpt lat="44.7431224" lon="7.8085545"><ele>279.0</ele><time>2026-04-25T05:51:02.279Z</time></trkpt><trkpt lat="44.7429724" lon="7.8086034"><ele>279.0</ele><time>2026-04-25T05:51:03.279Z</time></trkpt><trkpt lat="44.7428239" lon="7.8086529"><ele>279.0</ele><time>2026-04-25T05:51:04.277Z</time></trkpt><trkpt lat="44.7426778" lon="7.8087029"><ele>279.0</ele><time>2026-04-25T05:51:05.275Z</time></trkpt><trkpt lat="44.7425278" lon="7.8087474"><ele>278.6666666666667</ele><time>2026-04-25T05:51:06.276Z</time></trkpt><trkpt lat="44.7423795" lon="7.8087933"><ele>278.33333333333337</ele><time>2026-04-25T05:51:07.276Z</time></trkpt><trkpt lat="44.7422327" lon="7.8088401"><ele>278.0</ele><time>2026-04-25T05:51:08.276Z</time></trkpt><trkpt lat="44.7420864" lon="7.8088904"><ele>278.0</ele><time>2026-04-25T05:51:09.276Z</time></trkpt><trkpt lat="44.7419393" lon="7.8089372"><ele>278.0</ele><time>2026-04-25T05:51:10.277Z</time></trkpt><trkpt lat="44.7417916" lon="7.8089867"><ele>278.0</ele><time>2026-04-25T05:51:11.277Z</time></trkpt><trkpt lat="44.7416443" lon="7.8090359"><ele>277.6666666666667</ele><time>2026-04-25T05:51:12.276Z</time></trkpt><trkpt lat="44.7414965" lon="7.8090816"><ele>277.3333333333333</ele><time>2026-04-25T05:51:13.277Z</time></trkpt><trkpt lat="44.7413512" lon="7.8091281"><ele>277.0</ele><time>2026-04-25T05:51:14.276Z</time></trkpt><trkpt lat="44.7412054" lon="7.8091744"><ele>277.0</ele><time>2026-04-25T05:51:15.278Z</time></trkpt><trkpt lat="44.7410618" lon="7.8092235"><ele>277.0</ele><time>2026-04-25T05:51:16.279Z</time></trkpt><trkpt lat="44.7409189" lon="7.8092752"><ele>277.0</ele><time>2026-04-25T05:51:17.276Z</time></trkpt><trkpt lat="44.7407768" lon="7.8093269"><ele>277.0</ele><time>2026-04-25T05:51:18.276Z</time></trkpt><trkpt lat="44.7406356" lon="7.8093792"><ele>276.75</ele><time>2026-04-25T05:51:19.278Z</time></trkpt><trkpt lat="44.7404941" lon="7.8094299"><ele>276.5</ele><time>2026-04-25T05:51:20.276Z</time></trkpt><trkpt lat="44.7403521" lon="7.8094813"><ele>276.25</ele><time>2026-04-25T05:51:21.277Z</time></trkpt><trkpt lat="44.7402096" lon="7.809529"><ele>276.0</ele><time>2026-04-25T05:51:22.276Z</time></trkpt><trkpt lat="44.7400654" lon="7.8095775"><ele>276.0</ele><time>2026-04-25T05:51:23.278Z</time></trkpt><trkpt lat="44.7399222" lon="7.809629"><ele>276.0</ele><time>2026-04-25T05:51:24.278Z</time></trkpt><trkpt lat="44.7397792" lon="7.8096797"><ele>276.0</ele><time>2026-04-25T05:51:25.278Z</time></trkpt><trkpt lat="44.7396317" lon="7.8097238"><ele>276.0</ele><time>2026-04-25T05:51:26.279Z</time></trkpt><trkpt lat="44.7394832" lon="7.809771"><ele>275.0</ele><time>2026-04-25T05:51:27.279Z</time></trkpt><trkpt lat="44.7393335" lon="7.8098191"><ele>274.0</ele><time>2026-04-25T05:51:28.278Z</time></trkpt><trkpt lat="44.7391827" lon="7.8098698"><ele>273.0</ele><time>2026-04-25T05:51:29.278Z</time></trkpt><trkpt lat="44.7390312" lon="7.8099224"><ele>273.0</ele><time>2026-04-25T05:51:30.277Z</time></trkpt><trkpt lat="44.7388799" lon="7.809977"><ele>273.0</ele><time>2026-04-25T05:51:31.278Z</time></trkpt><trkpt lat="44.7387259" lon="7.810032"><ele>273.0</ele><time>2026-04-25T05:51:32.277Z</time></trkpt><trkpt lat="44.7385708" lon="7.8100868"><ele>272.6666666666667</ele><time>2026-04-25T05:51:33.278Z</time></trkpt><trkpt lat="44.7384147" lon="7.8101417"><ele>272.33333333333337</ele><time>2026-04-25T05:51:34.277Z</time></trkpt><trkpt lat="44.7382551" lon="7.8101928"><ele>272.0</ele><time>2026-04-25T05:51:35.278Z</time></trkpt><trkpt lat="44.7380953" lon="7.810244"><ele>272.0</ele><time>2026-04-25T05:51:36.279Z</time></trkpt><trkpt lat="44.7379359" lon="7.8102949"><ele>272.0</ele><time>2026-04-25T05:51:37.279Z</time></trkpt><trkpt lat="44.7377767" lon="7.810349"><ele>272.0</ele><time>2026-04-25T05:51:38.28Z</time></trkpt><trkpt lat="44.7376168" lon="7.810404"><ele>272.0</ele><time>2026-04-25T05:51:39.278Z</time></trkpt><trkpt lat="44.737461" lon="7.8104647"><ele>272.0</ele><time>2026-04-25T05:51:40.276Z</time></trkpt><trkpt lat="44.7372979" lon="7.8105197"><ele>272.0</ele><time>2026-04-25T05:51:41.28Z</time></trkpt><trkpt lat="44.7371336" lon="7.8105729"><ele>272.0</ele><time>2026-04-25T05:51:42.278Z</time></trkpt><trkpt lat="44.7369725" lon="7.8106265"><ele>272.0</ele><time>2026-04-25T05:51:43.277Z</time></trkpt><trkpt lat="44.7368148" lon="7.8106793"><ele>272.0</ele><time>2026-04-25T05:51:44.277Z</time></trkpt><trkpt lat="44.7366486" lon="7.8107351"><ele>271.6666666666667</ele><time>2026-04-25T05:51:45.28Z</time></trkpt><trkpt lat="44.7364818" lon="7.8107864"><ele>271.3333333333333</ele><time>2026-04-25T05:51:46.278Z</time></trkpt><trkpt lat="44.7363157" lon="7.8108409"><ele>271.0</ele><time>2026-04-25T05:51:47.279Z</time></trkpt><trkpt lat="44.7361528" lon="7.8108976"><ele>270.66666666666663</ele><time>2026-04-25T05:51:48.277Z</time></trkpt><trkpt lat="44.7359913" lon="7.810956"><ele>270.3333333333333</ele><time>2026-04-25T05:51:49.277Z</time></trkpt><trkpt lat="44.7358289" lon="7.8110134"><ele>270.0</ele><time>2026-04-25T05:51:50.278Z</time></trkpt><trkpt lat="44.7356697" lon="7.8110782"><ele>270.0</ele><time>2026-04-25T05:51:51.28Z</time></trkpt><trkpt lat="44.7355119" lon="7.811146"><ele>270.0</ele><time>2026-04-25T05:51:52.277Z</time></trkpt><trkpt lat="44.7353505" lon="7.8112124"><ele>270.0</ele><time>2026-04-25T05:51:53.275Z</time></trkpt><trkpt lat="44.7351881" lon="7.8112819"><ele>270.3333333333333</ele><time>2026-04-25T05:51:54.279Z</time></trkpt><trkpt lat="44.7350247" lon="7.8113509"><ele>270.66666666666663</ele><time>2026-04-25T05:51:55.278Z</time></trkpt><trkpt lat="44.7348623" lon="7.8114197"><ele>271.0</ele><time>2026-04-25T05:51:56.279Z</time></trkpt><trkpt lat="44.7346982" lon="7.8114885"><ele>271.0</ele><time>2026-04-25T05:51:57.278Z</time></trkpt><trkpt lat="44.734533" lon="7.8115561"><ele>271.0</ele><time>2026-04-25T05:51:58.279Z</time></trkpt><trkpt lat="44.7343653" lon="7.8116226"><ele>271.0</ele><time>2026-04-25T05:51:59.28Z</time></trkpt><trkpt lat="44.7341954" lon="7.8116911"><ele>270.66666666666663</ele><time>2026-04-25T05:52:00.277Z</time></trkpt><trkpt lat="44.7340215" lon="7.8117586"><ele>270.3333333333333</ele><time>2026-04-25T05:52:01.276Z</time></trkpt><trkpt lat="44.7338516" lon="7.8118266"><ele>270.0</ele><time>2026-04-25T05:52:02.277Z</time></trkpt><trkpt lat="44.7336863" lon="7.8118944"><ele>271.3333333333333</ele><time>2026-04-25T05:52:03.277Z</time></trkpt><trkpt lat="44.7335185" lon="7.8119602"><ele>272.66666666666663</ele><time>2026-04-25T05:52:04.277Z</time></trkpt><trkpt lat="44.7333514" lon="7.8120237"><ele>274.0</ele><time>2026-04-25T05:52:05.279Z</time></trkpt><trkpt lat="44.7331875" lon="7.812089"><ele>274.0</ele><time>2026-04-25T05:52:06.276Z</time></trkpt><trkpt lat="44.7330247" lon="7.8121561"><ele>274.0</ele><time>2026-04-25T05:52:07.277Z</time></trkpt><trkpt lat="44.7328637" lon="7.8122188"><ele>274.0</ele><time>2026-04-25T05:52:08.279Z</time></trkpt><trkpt lat="44.7327046" lon="7.8122831"><ele>272.66666666666663</ele><time>2026-04-25T05:52:09.279Z</time></trkpt><trkpt lat="44.732547" lon="7.8123474"><ele>271.3333333333333</ele><time>2026-04-25T05:52:10.275Z</time></trkpt><trkpt lat="44.7323871" lon="7.812405"><ele>270.0</ele><time>2026-04-25T05:52:11.277Z</time></trkpt><trkpt lat="44.7322328" lon="7.8124677"><ele>270.0</ele><time>2026-04-25T05:52:12.279Z</time></trkpt><trkpt lat="44.7320801" lon="7.812528"><ele>270.0</ele><time>2026-04-25T05:52:13.277Z</time></trkpt><trkpt lat="44.7319295" lon="7.8125846"><ele>270.0</ele><time>2026-04-25T05:52:14.276Z</time></trkpt><trkpt lat="44.7317758" lon="7.8126382"><ele>270.0</ele><time>2026-04-25T05:52:15.28Z</time></trkpt><trkpt lat="44.7316331" lon="7.8126997"><ele>270.0</ele><time>2026-04-25T05:52:16.279Z</time></trkpt><trkpt lat="44.7314899" lon="7.8127687"><ele>270.0</ele><time>2026-04-25T05:52:17.276Z</time></trkpt><trkpt lat="44.7313524" lon="7.8128489"><ele>270.0</ele><time>2026-04-25T05:52:18.281Z</time></trkpt><trkpt lat="44.7312246" lon="7.8129467"><ele>270.0</ele><time>2026-04-25T05:52:19.279Z</time></trkpt><trkpt lat="44.7311057" lon="7.8130589"><ele>270.0</ele><time>2026-04-25T05:52:20.278Z</time></trkpt><trkpt lat="44.7309953" lon="7.8131871"><ele>270.0</ele><time>2026-04-25T05:52:21.278Z</time></trkpt><trkpt lat="44.7308874" lon="7.8133096"><ele>270.0</ele><time>2026-04-25T05:52:22.278Z</time></trkpt><trkpt lat="44.7307787" lon="7.813419"><ele>269.8</ele><time>2026-04-25T05:52:23.278Z</time></trkpt><trkpt lat="44.7306728" lon="7.8135073"><ele>269.6</ele><time>2026-04-25T05:52:24.278Z</time></trkpt><trkpt lat="44.730565" lon="7.81357"><ele>269.4</ele><time>2026-04-25T05:52:25.277Z</time></trkpt><trkpt lat="44.7304673" lon="7.8136152"><ele>269.2</ele><time>2026-04-25T05:52:26.279Z</time></trkpt><trkpt lat="44.730393" lon="7.8136776"><ele>269.0</ele><time>2026-04-25T05:52:27.28Z</time></trkpt><trkpt lat="44.7303325" lon="7.8137558"><ele>269.0</ele><time>2026-04-25T05:52:28.277Z</time></trkpt><trkpt lat="44.7302935" lon="7.8138667"><ele>269.0</ele><time>2026-04-25T05:52:29.278Z</time></trkpt><trkpt lat="44.730252" lon="7.8139817"><ele>269.0</ele><time>2026-04-25T05:52:30.278Z</time></trkpt><trkpt lat="44.7301917" lon="7.8140898"><ele>269.0</ele><time>2026-04-25T05:52:31.28Z</time></trkpt><trkpt lat="44.7301069" lon="7.8141793"><ele>269.0</ele><time>2026-04-25T05:52:32.277Z</time></trkpt><trkpt lat="44.7299989" lon="7.8142567"><ele>268.75</ele><time>2026-04-25T05:52:33.28Z</time></trkpt><trkpt lat="44.7298827" lon="7.8143227"><ele>268.5</ele><time>2026-04-25T05:52:34.281Z</time></trkpt><trkpt lat="44.7297687" lon="7.8143894"><ele>268.25</ele><time>2026-04-25T05:52:35.278Z</time></trkpt><trkpt lat="44.7296491" lon="7.8144631"><ele>268.0</ele><time>2026-04-25T05:52:36.278Z</time></trkpt><trkpt lat="44.7295272" lon="7.8145473"><ele>268.0</ele><time>2026-04-25T05:52:37.277Z</time></trkpt><trkpt lat="44.7294063" lon="7.8146491"><ele>268.0</ele><time>2026-04-25T05:52:38.278Z</time></trkpt><trkpt lat="44.7292932" lon="7.8147699"><ele>268.0</ele><time>2026-04-25T05:52:39.277Z</time></trkpt><trkpt lat="44.7291835" lon="7.8149065"><ele>268.0</ele><time>2026-04-25T05:52:40.281Z</time></trkpt><trkpt lat="44.7290805" lon="7.8150583"><ele>268.5</ele><time>2026-04-25T05:52:41.276Z</time></trkpt><trkpt lat="44.7289839" lon="7.8152109"><ele>269.0</ele><time>2026-04-25T05:52:42.281Z</time></trkpt><trkpt lat="44.7288898" lon="7.8153623"><ele>269.5</ele><time>2026-04-25T05:52:43.278Z</time></trkpt><trkpt lat="44.7287933" lon="7.8155202"><ele>270.0</ele><time>2026-04-25T05:52:44.281Z</time></trkpt><trkpt lat="44.7287" lon="7.815676"><ele>270.0</ele><time>2026-04-25T05:52:45.28Z</time></trkpt><trkpt lat="44.7286092" lon="7.8158334"><ele>270.0</ele><time>2026-04-25T05:52:46.276Z</time></trkpt><trkpt lat="44.728521" lon="7.8159914"><ele>270.0</ele><time>2026-04-25T05:52:47.279Z</time></trkpt><trkpt lat="44.7284321" lon="7.8161464"><ele>270.0</ele><time>2026-04-25T05:52:48.279Z</time></trkpt><trkpt lat="44.7283444" lon="7.8162984"><ele>271.0</ele><time>2026-04-25T05:52:49.279Z</time></trkpt><trkpt lat="44.7282542" lon="7.816453"><ele>272.0</ele><time>2026-04-25T05:52:50.279Z</time></trkpt><trkpt lat="44.7281634" lon="7.8166075"><ele>273.0</ele><time>2026-04-25T05:52:51.278Z</time></trkpt><trkpt lat="44.7280738" lon="7.8167603"><ele>274.0</ele><time>2026-04-25T05:52:52.277Z</time></trkpt><trkpt lat="44.7279908" lon="7.8169018"><ele>274.0</ele><time>2026-04-25T05:52:53.279Z</time></trkpt><trkpt lat="44.7278964" lon="7.8170642"><ele>274.0</ele><time>2026-04-25T05:52:54.277Z</time></trkpt><trkpt lat="44.7278018" lon="7.8172262"><ele>274.0</ele><time>2026-04-25T05:52:55.275Z</time></trkpt><trkpt lat="44.7277112" lon="7.8173857"><ele>274.0</ele><time>2026-04-25T05:52:56.28Z</time></trkpt><trkpt lat="44.7276118" lon="7.81756"><ele>274.66666666666663</ele><time>2026-04-25T05:52:57.279Z</time></trkpt><trkpt lat="44.7275114" lon="7.8177292"><ele>275.3333333333333</ele><time>2026-04-25T05:52:58.279Z</time></trkpt><trkpt lat="44.7274044" lon="7.8179105"><ele>276.0</ele><time>2026-04-25T05:52:59.28Z</time></trkpt><trkpt lat="44.7272907" lon="7.8180863"><ele>276.0</ele><time>2026-04-25T05:53:00.281Z</time></trkpt><trkpt lat="44.7271818" lon="7.8182662"><ele>276.0</ele><time>2026-04-25T05:53:01.279Z</time></trkpt><trkpt lat="44.7270712" lon="7.8184497"><ele>276.0</ele><time>2026-04-25T05:53:02.28Z</time></trkpt><trkpt lat="44.7269575" lon="7.8186425"><ele>276.3333333333333</ele><time>2026-04-25T05:53:03.279Z</time></trkpt><trkpt lat="44.7268467" lon="7.8188335"><ele>276.66666666666663</ele><time>2026-04-25T05:53:04.28Z</time></trkpt><trkpt lat="44.7267317" lon="7.8190306"><ele>277.0</ele><time>2026-04-25T05:53:05.278Z</time></trkpt><trkpt lat="44.7266144" lon="7.8192258"><ele>277.66666666666663</ele><time>2026-04-25T05:53:06.278Z</time></trkpt><trkpt lat="44.7264981" lon="7.8194226"><ele>278.3333333333333</ele><time>2026-04-25T05:53:07.28Z</time></trkpt><trkpt lat="44.7263796" lon="7.8196236"><ele>279.0</ele><time>2026-04-25T05:53:08.281Z</time></trkpt><trkpt lat="44.7262647" lon="7.8198243"><ele>279.0</ele><time>2026-04-25T05:53:09.281Z</time></trkpt><trkpt lat="44.7261478" lon="7.8200235"><ele>279.0</ele><time>2026-04-25T05:53:10.277Z</time></trkpt><trkpt lat="44.7260326" lon="7.8202216"><ele>279.0</ele><time>2026-04-25T05:53:11.277Z</time></trkpt><trkpt lat="44.7259145" lon="7.8204239"><ele>279.3333333333333</ele><time>2026-04-25T05:53:12.278Z</time></trkpt><trkpt lat="44.7257967" lon="7.8206196"><ele>279.66666666666663</ele><time>2026-04-25T05:53:13.278Z</time></trkpt><trkpt lat="44.7256807" lon="7.8208133"><ele>280.0</ele><time>2026-04-25T05:53:14.279Z</time></trkpt><trkpt lat="44.7255632" lon="7.8210084"><ele>281.66666666666663</ele><time>2026-04-25T05:53:15.28Z</time></trkpt><trkpt lat="44.7254564" lon="7.8211952"><ele>283.3333333333333</ele><time>2026-04-25T05:53:16.278Z</time></trkpt><trkpt lat="44.7253478" lon="7.8213783"><ele>285.0</ele><time>2026-04-25T05:53:17.279Z</time></trkpt><trkpt lat="44.7252428" lon="7.8215594"><ele>284.3333333333333</ele><time>2026-04-25T05:53:18.281Z</time></trkpt><trkpt lat="44.7251356" lon="7.8217357"><ele>283.66666666666663</ele><time>2026-04-25T05:53:19.278Z</time></trkpt><trkpt lat="44.7250333" lon="7.8219098"><ele>283.0</ele><time>2026-04-25T05:53:20.279Z</time></trkpt><trkpt lat="44.7249381" lon="7.822075"><ele>283.0</ele><time>2026-04-25T05:53:21.28Z</time></trkpt><trkpt lat="44.7248388" lon="7.822242"><ele>283.0</ele><time>2026-04-25T05:53:22.281Z</time></trkpt><trkpt lat="44.7247421" lon="7.8224"><ele>283.0</ele><time>2026-04-25T05:53:23.28Z</time></trkpt><trkpt lat="44.7246453" lon="7.8225541"><ele>283.0</ele><time>2026-04-25T05:53:24.277Z</time></trkpt><trkpt lat="44.7245425" lon="7.8227243"><ele>284.3333333333333</ele><time>2026-04-25T05:53:25.28Z</time></trkpt><trkpt lat="44.7244373" lon="7.8228974"><ele>285.6666666666667</ele><time>2026-04-25T05:53:26.28Z</time></trkpt><trkpt lat="44.7243249" lon="7.8230737"><ele>287.0</ele><time>2026-04-25T05:53:27.28Z</time></trkpt><trkpt lat="44.7242088" lon="7.8232477"><ele>287.0</ele><time>2026-04-25T05:53:28.28Z</time></trkpt><trkpt lat="44.724089" lon="7.8234237"><ele>287.0</ele><time>2026-04-25T05:53:29.279Z</time></trkpt><trkpt lat="44.7239614" lon="7.8236158"><ele>287.0</ele><time>2026-04-25T05:53:30.279Z</time></trkpt><trkpt lat="44.7238283" lon="7.8237959"><ele>287.0</ele><time>2026-04-25T05:53:31.28Z</time></trkpt><trkpt lat="44.7236855" lon="7.8239789"><ele>287.0</ele><time>2026-04-25T05:53:32.279Z</time></trkpt><trkpt lat="44.723535" lon="7.824145"><ele>287.0</ele><time>2026-04-25T05:53:33.28Z</time></trkpt><trkpt lat="44.7233794" lon="7.8243058"><ele>290.6666666666667</ele><time>2026-04-25T05:53:34.279Z</time></trkpt><trkpt lat="44.7232198" lon="7.8244619"><ele>294.3333333333333</ele><time>2026-04-25T05:53:35.275Z</time></trkpt><trkpt lat="44.7230625" lon="7.824617"><ele>298.0</ele><time>2026-04-25T05:53:36.277Z</time></trkpt><trkpt lat="44.7228981" lon="7.824765"><ele>298.0</ele><time>2026-04-25T05:53:37.279Z</time></trkpt><trkpt lat="44.7227357" lon="7.8249019"><ele>298.0</ele><time>2026-04-25T05:53:38.278Z</time></trkpt><trkpt lat="44.7225563" lon="7.8250336"><ele>298.0</ele><time>2026-04-25T05:53:39.279Z</time></trkpt><trkpt lat="44.7223776" lon="7.825157"><ele>299.0</ele><time>2026-04-25T05:53:40.279Z</time></trkpt><trkpt lat="44.7221941" lon="7.8252746"><ele>300.0</ele><time>2026-04-25T05:53:41.279Z</time></trkpt><trkpt lat="44.7220061" lon="7.8253866"><ele>301.0</ele><time>2026-04-25T05:53:42.279Z</time></trkpt><trkpt lat="44.7218115" lon="7.8254931"><ele>298.3333333333333</ele><time>2026-04-25T05:53:43.279Z</time></trkpt><trkpt lat="44.7216091" lon="7.8255896"><ele>295.6666666666667</ele><time>2026-04-25T05:53:44.279Z</time></trkpt><trkpt lat="44.7214016" lon="7.8256825"><ele>293.0</ele><time>2026-04-25T05:53:45.279Z</time></trkpt><trkpt lat="44.7211893" lon="7.8257658"><ele>292.6666666666667</ele><time>2026-04-25T05:53:46.277Z</time></trkpt><trkpt lat="44.7209763" lon="7.8258492"><ele>292.3333333333333</ele><time>2026-04-25T05:53:47.279Z</time></trkpt><trkpt lat="44.7207656" lon="7.8259315"><ele>292.0</ele><time>2026-04-25T05:53:48.28Z</time></trkpt><trkpt lat="44.7205591" lon="7.8260142"><ele>292.0</ele><time>2026-04-25T05:53:49.279Z</time></trkpt><trkpt lat="44.7203586" lon="7.8261008"><ele>292.0</ele><time>2026-04-25T05:53:50.28Z</time></trkpt><trkpt lat="44.7201631" lon="7.8261897"><ele>292.0</ele><time>2026-04-25T05:53:51.279Z</time></trkpt><trkpt lat="44.7199579" lon="7.8262749"><ele>290.3333333333333</ele><time>2026-04-25T05:53:52.278Z</time></trkpt><trkpt lat="44.7197566" lon="7.8263581"><ele>288.6666666666667</ele><time>2026-04-25T05:53:53.279Z</time></trkpt><trkpt lat="44.7195617" lon="7.8264443"><ele>287.0</ele><time>2026-04-25T05:53:54.278Z</time></trkpt><trkpt lat="44.7193757" lon="7.8265213"><ele>285.6666666666667</ele><time>2026-04-25T05:53:55.276Z</time></trkpt><trkpt lat="44.7192055" lon="7.8265959"><ele>284.3333333333333</ele><time>2026-04-25T05:53:56.28Z</time></trkpt><trkpt lat="44.719043" lon="7.8266635"><ele>283.0</ele><time>2026-04-25T05:53:57.278Z</time></trkpt><trkpt lat="44.7188839" lon="7.8267314"><ele>283.0</ele><time>2026-04-25T05:53:58.279Z</time></trkpt><trkpt lat="44.7187235" lon="7.8267951"><ele>283.0</ele><time>2026-04-25T05:53:59.279Z</time></trkpt><trkpt lat="44.718564" lon="7.8268622"><ele>283.0</ele><time>2026-04-25T05:54:00.279Z</time></trkpt><trkpt lat="44.7184058" lon="7.8269265"><ele>282.5</ele><time>2026-04-25T05:54:01.28Z</time></trkpt><trkpt lat="44.7182532" lon="7.8269905"><ele>282.0</ele><time>2026-04-25T05:54:02.277Z</time></trkpt><trkpt lat="44.7181125" lon="7.8270585"><ele>281.5</ele><time>2026-04-25T05:54:03.281Z</time></trkpt><trkpt lat="44.7179807" lon="7.8271226"><ele>281.0</ele><time>2026-04-25T05:54:04.279Z</time></trkpt><trkpt lat="44.7178581" lon="7.8271838"><ele>281.0</ele><time>2026-04-25T05:54:05.28Z</time></trkpt><trkpt lat="44.7177464" lon="7.8272366"><ele>281.0</ele><time>2026-04-25T05:54:06.278Z</time></trkpt><trkpt lat="44.7176623" lon="7.8272919"><ele>281.0</ele><time>2026-04-25T05:54:07.281Z</time></trkpt><trkpt lat="44.7175879" lon="7.8273377"><ele>281.0</ele><time>2026-04-25T05:54:08.279Z</time></trkpt><trkpt lat="44.7175237" lon="7.8273797"><ele>281.0</ele><time>2026-04-25T05:54:09.28Z</time></trkpt><trkpt lat="44.7174414" lon="7.827421"><ele>280.0</ele><time>2026-04-25T05:54:12.279Z</time></trkpt><trkpt lat="44.7173383" lon="7.8274879"><ele>279.0</ele><time>2026-04-25T05:54:14.28Z</time></trkpt><trkpt lat="44.7172328" lon="7.8275478"><ele>278.0</ele><time>2026-04-25T05:54:15.279Z</time></trkpt><trkpt lat="44.7171151" lon="7.8276191"><ele>277.0</ele><time>2026-04-25T05:54:16.28Z</time></trkpt><trkpt lat="44.7169897" lon="7.8277013"><ele>277.0</ele><time>2026-04-25T05:54:17.279Z</time></trkpt><trkpt lat="44.7168593" lon="7.8277976"><ele>277.0</ele><time>2026-04-25T05:54:18.279Z</time></trkpt><trkpt lat="44.7167262" lon="7.8278964"><ele>277.0</ele><time>2026-04-25T05:54:19.279Z</time></trkpt><trkpt lat="44.7165863" lon="7.8280051"><ele>277.0</ele><time>2026-04-25T05:54:20.279Z</time></trkpt><trkpt lat="44.716463" lon="7.8281193"><ele>277.0</ele><time>2026-04-25T05:54:21.28Z</time></trkpt><trkpt lat="44.7163399" lon="7.8282312"><ele>277.0</ele><time>2026-04-25T05:54:22.278Z</time></trkpt><trkpt lat="44.7162317" lon="7.8283358"><ele>277.0</ele><time>2026-04-25T05:54:23.279Z</time></trkpt><trkpt lat="44.71613" lon="7.8284354"><ele>276.75</ele><time>2026-04-25T05:54:24.279Z</time></trkpt><trkpt lat="44.7160264" lon="7.8285253"><ele>276.5</ele><time>2026-04-25T05:54:25.277Z</time></trkpt><trkpt lat="44.715911" lon="7.8286013"><ele>276.25</ele><time>2026-04-25T05:54:26.28Z</time></trkpt><trkpt lat="44.7157924" lon="7.8286528"><ele>276.0</ele><time>2026-04-25T05:54:27.28Z</time></trkpt><trkpt lat="44.7157088" lon="7.8286942"><ele>276.0</ele><time>2026-04-25T05:54:28.281Z</time></trkpt><trkpt lat="44.7156217" lon="7.8287611"><ele>276.0</ele><time>2026-04-25T05:54:29.28Z</time></trkpt><trkpt lat="44.7155554" lon="7.8288612"><ele>276.0</ele><time>2026-04-25T05:54:30.279Z</time></trkpt><trkpt lat="44.7154907" lon="7.829002"><ele>276.0</ele><time>2026-04-25T05:54:31.279Z</time></trkpt><trkpt lat="44.7154206" lon="7.8291674"><ele>276.3333333333333</ele><time>2026-04-25T05:54:32.278Z</time></trkpt><trkpt lat="44.7153437" lon="7.8293332"><ele>276.66666666666663</ele><time>2026-04-25T05:54:33.278Z</time></trkpt><trkpt lat="44.7152453" lon="7.8294982"><ele>277.0</ele><time>2026-04-25T05:54:34.28Z</time></trkpt><trkpt lat="44.7151455" lon="7.8296841"><ele>277.0</ele><time>2026-04-25T05:54:35.275Z</time></trkpt><trkpt lat="44.7150619" lon="7.8298879"><ele>277.0</ele><time>2026-04-25T05:54:36.28Z</time></trkpt><trkpt lat="44.7149879" lon="7.8301008"><ele>277.0</ele><time>2026-04-25T05:54:37.279Z</time></trkpt><trkpt lat="44.7149206" lon="7.8303119"><ele>278.0</ele><time>2026-04-25T05:54:38.279Z</time></trkpt><trkpt lat="44.7148205" lon="7.8305384"><ele>279.0</ele><time>2026-04-25T05:54:39.28Z</time></trkpt><trkpt lat="44.7147142" lon="7.8307553"><ele>280.0</ele><time>2026-04-25T05:54:40.276Z</time></trkpt><trkpt lat="44.7145861" lon="7.8309683"><ele>280.0</ele><time>2026-04-25T05:54:41.279Z</time></trkpt><trkpt lat="44.7144464" lon="7.8311702"><ele>280.0</ele><time>2026-04-25T05:54:42.28Z</time></trkpt><trkpt lat="44.7143043" lon="7.8313627"><ele>280.0</ele><time>2026-04-25T05:54:43.28Z</time></trkpt><trkpt lat="44.714152" lon="7.831545"><ele>280.0</ele><time>2026-04-25T05:54:44.279Z</time></trkpt><trkpt lat="44.7139934" lon="7.8317194"><ele>280.0</ele><time>2026-04-25T05:54:45.279Z</time></trkpt><trkpt lat="44.7138305" lon="7.8318856"><ele>280.0</ele><time>2026-04-25T05:54:46.28Z</time></trkpt><trkpt lat="44.7136546" lon="7.8320412"><ele>279.66666666666663</ele><time>2026-04-25T05:54:47.276Z</time></trkpt><trkpt lat="44.7134763" lon="7.8321902"><ele>279.3333333333333</ele><time>2026-04-25T05:54:48.279Z</time></trkpt><trkpt lat="44.7132932" lon="7.8323298"><ele>279.0</ele><time>2026-04-25T05:54:49.277Z</time></trkpt><trkpt lat="44.7131001" lon="7.8324552"><ele>279.0</ele><time>2026-04-25T05:54:50.279Z</time></trkpt><trkpt lat="44.7129073" lon="7.832573"><ele>279.0</ele><time>2026-04-25T05:54:51.279Z</time></trkpt><trkpt lat="44.7127123" lon="7.8326786"><ele>279.0</ele><time>2026-04-25T05:54:52.277Z</time></trkpt><trkpt lat="44.7125117" lon="7.8327755"><ele>279.0</ele><time>2026-04-25T05:54:53.28Z</time></trkpt><trkpt lat="44.7123079" lon="7.8328609"><ele>279.0</ele><time>2026-04-25T05:54:54.279Z</time></trkpt><trkpt lat="44.7120994" lon="7.8329306"><ele>279.0</ele><time>2026-04-25T05:54:55.277Z</time></trkpt><trkpt lat="44.7118941" lon="7.8329898"><ele>280.0</ele><time>2026-04-25T05:54:56.279Z</time></trkpt><trkpt lat="44.7116823" lon="7.8330262"><ele>281.0</ele><time>2026-04-25T05:54:57.28Z</time></trkpt><trkpt lat="44.7114697" lon="7.8330496"><ele>282.0</ele><time>2026-04-25T05:54:58.28Z</time></trkpt><trkpt lat="44.7112578" lon="7.8330574"><ele>282.3333333333333</ele><time>2026-04-25T05:54:59.279Z</time></trkpt><trkpt lat="44.711047" lon="7.8330577"><ele>282.66666666666663</ele><time>2026-04-25T05:55:00.28Z</time></trkpt><trkpt lat="44.7108388" lon="7.8330449"><ele>283.0</ele><time>2026-04-25T05:55:01.28Z</time></trkpt><trkpt lat="44.710634" lon="7.8330219"><ele>283.0</ele><time>2026-04-25T05:55:02.28Z</time></trkpt><trkpt lat="44.7104304" lon="7.8329811"><ele>283.0</ele><time>2026-04-25T05:55:03.276Z</time></trkpt><trkpt lat="44.7102313" lon="7.8329251"><ele>283.0</ele><time>2026-04-25T05:55:04.28Z</time></trkpt><trkpt lat="44.71003" lon="7.8328611"><ele>282.0</ele><time>2026-04-25T05:55:05.279Z</time></trkpt><trkpt lat="44.7098384" lon="7.8327921"><ele>281.0</ele><time>2026-04-25T05:55:06.279Z</time></trkpt><trkpt lat="44.709647" lon="7.8327153"><ele>280.0</ele><time>2026-04-25T05:55:07.278Z</time></trkpt><trkpt lat="44.7094587" lon="7.8326215"><ele>280.66666666666663</ele><time>2026-04-25T05:55:08.278Z</time></trkpt><trkpt lat="44.7092718" lon="7.8325164"><ele>281.3333333333333</ele><time>2026-04-25T05:55:09.279Z</time></trkpt><trkpt lat="44.709084" lon="7.8323871"><ele>282.0</ele><time>2026-04-25T05:55:10.281Z</time></trkpt><trkpt lat="44.708901" lon="7.8322562"><ele>282.0</ele><time>2026-04-25T05:55:11.279Z</time></trkpt><trkpt lat="44.7087202" lon="7.8321095"><ele>282.0</ele><time>2026-04-25T05:55:12.28Z</time></trkpt><trkpt lat="44.7085412" lon="7.8319506"><ele>282.0</ele><time>2026-04-25T05:55:13.277Z</time></trkpt><trkpt lat="44.7083657" lon="7.8317783"><ele>281.3333333333333</ele><time>2026-04-25T05:55:14.28Z</time></trkpt><trkpt lat="44.7081934" lon="7.8315914"><ele>280.66666666666663</ele><time>2026-04-25T05:55:15.278Z</time></trkpt><trkpt lat="44.708028" lon="7.8313977"><ele>280.0</ele><time>2026-04-25T05:55:16.28Z</time></trkpt><trkpt lat="44.7078681" lon="7.831193"><ele>279.3333333333333</ele><time>2026-04-25T05:55:17.278Z</time></trkpt><trkpt lat="44.7077154" lon="7.8309794"><ele>278.6666666666667</ele><time>2026-04-25T05:55:18.278Z</time></trkpt><trkpt lat="44.7075678" lon="7.8307533"><ele>278.0</ele><time>2026-04-25T05:55:19.279Z</time></trkpt><trkpt lat="44.7074254" lon="7.8305162"><ele>278.0</ele><time>2026-04-25T05:55:20.278Z</time></trkpt><trkpt lat="44.7072887" lon="7.8302641"><ele>278.0</ele><time>2026-04-25T05:55:21.278Z</time></trkpt><trkpt lat="44.7071586" lon="7.8300061"><ele>278.0</ele><time>2026-04-25T05:55:22.279Z</time></trkpt><trkpt lat="44.7070328" lon="7.829741"><ele>278.0</ele><time>2026-04-25T05:55:23.279Z</time></trkpt><trkpt lat="44.7069082" lon="7.8294771"><ele>278.0</ele><time>2026-04-25T05:55:24.28Z</time></trkpt><trkpt lat="44.706785" lon="7.8292152"><ele>278.0</ele><time>2026-04-25T05:55:25.277Z</time></trkpt><trkpt lat="44.7066603" lon="7.8289559"><ele>278.0</ele><time>2026-04-25T05:55:26.279Z</time></trkpt><trkpt lat="44.706533" lon="7.8287046"><ele>276.6666666666667</ele><time>2026-04-25T05:55:27.278Z</time></trkpt><trkpt lat="44.7064156" lon="7.8284379"><ele>275.3333333333333</ele><time>2026-04-25T05:55:28.28Z</time></trkpt><trkpt lat="44.7062895" lon="7.8281785"><ele>274.0</ele><time>2026-04-25T05:55:29.279Z</time></trkpt><trkpt lat="44.7061628" lon="7.8279189"><ele>274.0</ele><time>2026-04-25T05:55:30.28Z</time></trkpt><trkpt lat="44.7060423" lon="7.8276749"><ele>274.0</ele><time>2026-04-25T05:55:31.278Z</time></trkpt><trkpt lat="44.7059249" lon="7.8274172"><ele>274.0</ele><time>2026-04-25T05:55:32.28Z</time></trkpt><trkpt lat="44.7058051" lon="7.8271573"><ele>274.0</ele><time>2026-04-25T05:55:33.279Z</time></trkpt><trkpt lat="44.705676" lon="7.8268927"><ele>274.0</ele><time>2026-04-25T05:55:34.277Z</time></trkpt><trkpt lat="44.7055499" lon="7.8266389"><ele>274.0</ele><time>2026-04-25T05:55:35.278Z</time></trkpt><trkpt lat="44.7054265" lon="7.8263863"><ele>273.66666666666663</ele><time>2026-04-25T05:55:36.28Z</time></trkpt><trkpt lat="44.7053038" lon="7.8261356"><ele>273.3333333333333</ele><time>2026-04-25T05:55:37.278Z</time></trkpt><trkpt lat="44.7051821" lon="7.8258947"><ele>273.0</ele><time>2026-04-25T05:55:38.279Z</time></trkpt><trkpt lat="44.7050536" lon="7.8256431"><ele>273.0</ele><time>2026-04-25T05:55:39.281Z</time></trkpt><trkpt lat="44.704919" lon="7.8254003"><ele>273.0</ele><time>2026-04-25T05:55:40.279Z</time></trkpt><trkpt lat="44.7047776" lon="7.8251771"><ele>273.0</ele><time>2026-04-25T05:55:41.279Z</time></trkpt><trkpt lat="44.7046309" lon="7.8249669"><ele>273.0</ele><time>2026-04-25T05:55:42.279Z</time></trkpt><trkpt lat="44.7044763" lon="7.8247663"><ele>273.0</ele><time>2026-04-25T05:55:43.279Z</time></trkpt><trkpt lat="44.7043142" lon="7.8245756"><ele>273.0</ele><time>2026-04-25T05:55:44.279Z</time></trkpt><trkpt lat="44.7041481" lon="7.8243937"><ele>273.0</ele><time>2026-04-25T05:55:45.28Z</time></trkpt><trkpt lat="44.703978" lon="7.82423"><ele>273.0</ele><time>2026-04-25T05:55:46.28Z</time></trkpt><trkpt lat="44.7038072" lon="7.8240846"><ele>273.0</ele><time>2026-04-25T05:55:47.28Z</time></trkpt><trkpt lat="44.7036201" lon="7.8239449"><ele>272.3333333333333</ele><time>2026-04-25T05:55:48.28Z</time></trkpt><trkpt lat="44.7034258" lon="7.8238056"><ele>271.66666666666663</ele><time>2026-04-25T05:55:49.277Z</time></trkpt><trkpt lat="44.7032357" lon="7.8236829"><ele>271.0</ele><time>2026-04-25T05:55:50.28Z</time></trkpt><trkpt lat="44.7030444" lon="7.823575"><ele>271.66666666666663</ele><time>2026-04-25T05:55:51.277Z</time></trkpt><trkpt lat="44.7028493" lon="7.8234785"><ele>272.3333333333333</ele><time>2026-04-25T05:55:52.279Z</time></trkpt><trkpt lat="44.7026528" lon="7.8233989"><ele>273.0</ele><time>2026-04-25T05:55:53.279Z</time></trkpt><trkpt lat="44.7024549" lon="7.8233358"><ele>273.6666666666667</ele><time>2026-04-25T05:55:54.277Z</time></trkpt><trkpt lat="44.7022582" lon="7.8232905"><ele>274.33333333333337</ele><time>2026-04-25T05:55:55.278Z</time></trkpt><trkpt lat="44.7020649" lon="7.8232468"><ele>275.0</ele><time>2026-04-25T05:55:56.278Z</time></trkpt><trkpt lat="44.7018834" lon="7.8232081"><ele>275.6666666666667</ele><time>2026-04-25T05:55:57.278Z</time></trkpt><trkpt lat="44.7017033" lon="7.8231575"><ele>276.3333333333333</ele><time>2026-04-25T05:55:58.28Z</time></trkpt><trkpt lat="44.7015409" lon="7.8231116"><ele>277.0</ele><time>2026-04-25T05:55:59.279Z</time></trkpt><trkpt lat="44.7013922" lon="7.8230747"><ele>277.0</ele><time>2026-04-25T05:56:00.279Z</time></trkpt><trkpt lat="44.7012547" lon="7.8230393"><ele>277.0</ele><time>2026-04-25T05:56:01.28Z</time></trkpt><trkpt lat="44.7011268" lon="7.8230092"><ele>277.0</ele><time>2026-04-25T05:56:02.279Z</time></trkpt><trkpt lat="44.7010107" lon="7.8229821"><ele>277.0</ele><time>2026-04-25T05:56:03.279Z</time></trkpt><trkpt lat="44.7008937" lon="7.8229495"><ele>276.8</ele><time>2026-04-25T05:56:04.277Z</time></trkpt><trkpt lat="44.7007884" lon="7.8229276"><ele>276.6</ele><time>2026-04-25T05:56:05.28Z</time></trkpt><trkpt lat="44.7006812" lon="7.8229074"><ele>276.40000000000003</ele><time>2026-04-25T05:56:06.279Z</time></trkpt><trkpt lat="44.7005826" lon="7.8228837"><ele>276.2</ele><time>2026-04-25T05:56:07.277Z</time></trkpt><trkpt lat="44.7004939" lon="7.8228582"><ele>276.0</ele><time>2026-04-25T05:56:08.28Z</time></trkpt><trkpt lat="44.7004124" lon="7.8228371"><ele>276.0</ele><time>2026-04-25T05:56:09.279Z</time></trkpt><trkpt lat="44.7003438" lon="7.8228185"><ele>276.0</ele><time>2026-04-25T05:56:10.278Z</time></trkpt><trkpt lat="44.7002607" lon="7.8228236"><ele>276.0</ele><time>2026-04-25T05:56:12.278Z</time></trkpt><trkpt lat="44.7001876" lon="7.8228577"><ele>276.0</ele><time>2026-04-25T05:56:14.275Z</time></trkpt><trkpt lat="44.7001264" lon="7.8229247"><ele>276.0</ele><time>2026-04-25T05:56:15.28Z</time></trkpt><trkpt lat="44.7000728" lon="7.8230242"><ele>276.0</ele><time>2026-04-25T05:56:16.279Z</time></trkpt><trkpt lat="44.7000174" lon="7.8231505"><ele>275.75</ele><time>2026-04-25T05:56:17.279Z</time></trkpt><trkpt lat="44.6999548" lon="7.8232971"><ele>275.5</ele><time>2026-04-25T05:56:18.276Z</time></trkpt><trkpt lat="44.6998801" lon="7.8234616"><ele>275.25</ele><time>2026-04-25T05:56:19.277Z</time></trkpt><trkpt lat="44.6998069" lon="7.8236446"><ele>275.0</ele><time>2026-04-25T05:56:20.277Z</time></trkpt><trkpt lat="44.6997282" lon="7.8238404"><ele>275.0</ele><time>2026-04-25T05:56:21.279Z</time></trkpt><trkpt lat="44.6996567" lon="7.8240336"><ele>275.0</ele><time>2026-04-25T05:56:22.277Z</time></trkpt><trkpt lat="44.699573" lon="7.824215"><ele>275.0</ele><time>2026-04-25T05:56:23.279Z</time></trkpt><trkpt lat="44.699501" lon="7.8244284"><ele>275.0</ele><time>2026-04-25T05:56:24.28Z</time></trkpt><trkpt lat="44.6994231" lon="7.8246396"><ele>275.0</ele><time>2026-04-25T05:56:25.279Z</time></trkpt><trkpt lat="44.6993515" lon="7.8248632"><ele>275.0</ele><time>2026-04-25T05:56:26.277Z</time></trkpt><trkpt lat="44.6992857" lon="7.8250902"><ele>275.0</ele><time>2026-04-25T05:56:27.278Z</time></trkpt><trkpt lat="44.6992227" lon="7.8253246"><ele>275.0</ele><time>2026-04-25T05:56:28.279Z</time></trkpt><trkpt lat="44.6991624" lon="7.8255607"><ele>275.0</ele><time>2026-04-25T05:56:29.279Z</time></trkpt><trkpt lat="44.6991074" lon="7.8257941"><ele>274.6666666666667</ele><time>2026-04-25T05:56:30.279Z</time></trkpt><trkpt lat="44.6990556" lon="7.8260241"><ele>274.3333333333333</ele><time>2026-04-25T05:56:31.277Z</time></trkpt><trkpt lat="44.6990095" lon="7.8262592"><ele>274.0</ele><time>2026-04-25T05:56:32.279Z</time></trkpt><trkpt lat="44.6989721" lon="7.8264909"><ele>274.0</ele><time>2026-04-25T05:56:33.28Z</time></trkpt><trkpt lat="44.698934" lon="7.8267364"><ele>274.0</ele><time>2026-04-25T05:56:34.279Z</time></trkpt><trkpt lat="44.6989075" lon="7.8269681"><ele>274.0</ele><time>2026-04-25T05:56:35.277Z</time></trkpt><trkpt lat="44.6988952" lon="7.8272077"><ele>274.0</ele><time>2026-04-25T05:56:36.278Z</time></trkpt><trkpt lat="44.6988931" lon="7.8274406"><ele>274.0</ele><time>2026-04-25T05:56:37.279Z</time></trkpt><trkpt lat="44.698893" lon="7.8276803"><ele>274.0</ele><time>2026-04-25T05:56:38.276Z</time></trkpt><trkpt lat="44.6989026" lon="7.8279113"><ele>274.0</ele><time>2026-04-25T05:56:39.28Z</time></trkpt><trkpt lat="44.6989117" lon="7.8281427"><ele>274.0</ele><time>2026-04-25T05:56:40.277Z</time></trkpt><trkpt lat="44.698919" lon="7.8283753"><ele>274.0</ele><time>2026-04-25T05:56:41.278Z</time></trkpt><trkpt lat="44.6989261" lon="7.8286079"><ele>274.66666666666663</ele><time>2026-04-25T05:56:42.279Z</time></trkpt><trkpt lat="44.6989327" lon="7.8288359"><ele>275.3333333333333</ele><time>2026-04-25T05:56:43.279Z</time></trkpt><trkpt lat="44.6989343" lon="7.8290599"><ele>276.0</ele><time>2026-04-25T05:56:44.279Z</time></trkpt><trkpt lat="44.6989251" lon="7.8292776"><ele>276.25</ele><time>2026-04-25T05:56:45.279Z</time></trkpt><trkpt lat="44.6989129" lon="7.8294775"><ele>276.5</ele><time>2026-04-25T05:56:46.28Z</time></trkpt><trkpt lat="44.6988911" lon="7.8296718"><ele>276.75</ele><time>2026-04-25T05:56:47.28Z</time></trkpt><trkpt lat="44.6988643" lon="7.8298527"><ele>277.0</ele><time>2026-04-25T05:56:48.278Z</time></trkpt><trkpt lat="44.6988403" lon="7.8300347"><ele>277.0</ele><time>2026-04-25T05:56:49.279Z</time></trkpt><trkpt lat="44.6988273" lon="7.8302221"><ele>277.0</ele><time>2026-04-25T05:56:50.278Z</time></trkpt><trkpt lat="44.6988288" lon="7.8304134"><ele>277.0</ele><time>2026-04-25T05:56:51.278Z</time></trkpt><trkpt lat="44.6988482" lon="7.8305927"><ele>277.0</ele><time>2026-04-25T05:56:52.279Z</time></trkpt><trkpt lat="44.6988825" lon="7.8307646"><ele>277.0</ele><time>2026-04-25T05:56:53.279Z</time></trkpt><trkpt lat="44.6989307" lon="7.8309047"><ele>277.0</ele><time>2026-04-25T05:56:54.276Z</time></trkpt><trkpt lat="44.6989817" lon="7.8310424"><ele>277.0</ele><time>2026-04-25T05:56:55.276Z</time></trkpt><trkpt lat="44.6990319" lon="7.8311867"><ele>277.0</ele><time>2026-04-25T05:56:56.279Z</time></trkpt><trkpt lat="44.6990792" lon="7.8313323"><ele>277.0</ele><time>2026-04-25T05:56:57.28Z</time></trkpt><trkpt lat="44.6991262" lon="7.831462"><ele>277.0</ele><time>2026-04-25T05:56:58.276Z</time></trkpt><trkpt lat="44.6991735" lon="7.8315682"><ele>277.0</ele><time>2026-04-25T05:56:59.279Z</time></trkpt><trkpt lat="44.6992181" lon="7.8316549"><ele>277.0</ele><time>2026-04-25T05:57:00.28Z</time></trkpt><trkpt lat="44.6992539" lon="7.8317298"><ele>277.0</ele><time>2026-04-25T05:57:01.28Z</time></trkpt><trkpt lat="44.6993005" lon="7.8318438"><ele>277.0</ele><time>2026-04-25T05:57:03.279Z</time></trkpt><trkpt lat="44.6993413" lon="7.8319464"><ele>277.0</ele><time>2026-04-25T05:57:06.28Z</time></trkpt><trkpt lat="44.6993545" lon="7.8320343"><ele>276.66666666666663</ele><time>2026-04-25T05:57:10.279Z</time></trkpt><trkpt lat="44.699345" lon="7.8321969"><ele>276.3333333333333</ele><time>2026-04-25T05:58:50.277Z</time></trkpt><trkpt lat="44.6993346" lon="7.8322945"><ele>276.0</ele><time>2026-04-25T05:58:56.28Z</time></trkpt><trkpt lat="44.6992925" lon="7.8323689"><ele>275.6666666666667</ele><time>2026-04-25T06:00:04.278Z</time></trkpt><trkpt lat="44.6993308" lon="7.8324508"><ele>275.33333333333337</ele><time>2026-04-25T06:00:07.277Z</time></trkpt><trkpt lat="44.6993296" lon="7.8323566"><ele>275.0</ele><time>2026-04-25T06:04:39.279Z</time></trkpt><trkpt lat="44.6993265" lon="7.832236"><ele>275.0</ele><time>2026-04-25T06:04:46.277Z</time></trkpt><trkpt lat="44.6993349" lon="7.8321342"><ele>275.0</ele><time>2026-04-25T06:04:51.28Z</time></trkpt><trkpt lat="44.6993394" lon="7.8320359"><ele>275.0</ele><time>2026-04-25T06:04:57.277Z</time></trkpt><trkpt lat="44.6992983" lon="7.8319509"><ele>275.0</ele><time>2026-04-25T06:06:48.274Z</time></trkpt><trkpt lat="44.6992597" lon="7.8317776"><ele>275.0</ele><time>2026-04-25T06:06:50.278Z</time></trkpt><trkpt lat="44.6992348" lon="7.8316791"><ele>275.0</ele><time>2026-04-25T06:06:51.279Z</time></trkpt><trkpt lat="44.6992058" lon="7.8315791"><ele>275.4</ele><time>2026-04-25T06:06:52.277Z</time></trkpt><trkpt lat="44.6991716" lon="7.8314702"><ele>275.8</ele><time>2026-04-25T06:06:53.278Z</time></trkpt><trkpt lat="44.6991368" lon="7.8313515"><ele>276.2</ele><time>2026-04-25T06:06:54.279Z</time></trkpt><trkpt lat="44.6991027" lon="7.8312222"><ele>276.6</ele><time>2026-04-25T06:06:55.275Z</time></trkpt><trkpt lat="44.6990725" lon="7.8310797"><ele>277.0</ele><time>2026-04-25T06:06:56.279Z</time></trkpt><trkpt lat="44.6990468" lon="7.830926"><ele>277.0</ele><time>2026-04-25T06:06:57.277Z</time></trkpt><trkpt lat="44.6990301" lon="7.8307706"><ele>277.0</ele><time>2026-04-25T06:06:58.278Z</time></trkpt><trkpt lat="44.6990191" lon="7.8306141"><ele>277.0</ele><time>2026-04-25T06:06:59.276Z</time></trkpt><trkpt lat="44.6990125" lon="7.8304555"><ele>277.0</ele><time>2026-04-25T06:07:00.276Z</time></trkpt><trkpt lat="44.6990067" lon="7.8302904"><ele>277.0</ele><time>2026-04-25T06:07:01.277Z</time></trkpt><trkpt lat="44.6989989" lon="7.8301188"><ele>277.0</ele><time>2026-04-25T06:07:02.279Z</time></trkpt><trkpt lat="44.6989906" lon="7.829942"><ele>277.0</ele><time>2026-04-25T06:07:03.279Z</time></trkpt><trkpt lat="44.6989802" lon="7.8297616"><ele>277.0</ele><time>2026-04-25T06:07:04.279Z</time></trkpt><trkpt lat="44.6989727" lon="7.8295744"><ele>277.0</ele><time>2026-04-25T06:07:05.28Z</time></trkpt><trkpt lat="44.6989696" lon="7.8293829"><ele>277.0</ele><time>2026-04-25T06:07:06.281Z</time></trkpt><trkpt lat="44.6989675" lon="7.8291874"><ele>277.0</ele><time>2026-04-25T06:07:07.278Z</time></trkpt><trkpt lat="44.6989641" lon="7.828989"><ele>277.0</ele><time>2026-04-25T06:07:08.281Z</time></trkpt><trkpt lat="44.6989579" lon="7.8287896"><ele>276.75</ele><time>2026-04-25T06:07:09.278Z</time></trkpt><trkpt lat="44.698948" lon="7.8285927"><ele>276.5</ele><time>2026-04-25T06:07:10.277Z</time></trkpt><trkpt lat="44.6989398" lon="7.8283988"><ele>276.25</ele><time>2026-04-25T06:07:11.278Z</time></trkpt><trkpt lat="44.6989326" lon="7.8282063"><ele>276.0</ele><time>2026-04-25T06:07:12.281Z</time></trkpt><trkpt lat="44.6989275" lon="7.8280144"><ele>276.0</ele><time>2026-04-25T06:07:13.278Z</time></trkpt><trkpt lat="44.6989251" lon="7.8278212"><ele>276.0</ele><time>2026-04-25T06:07:14.281Z</time></trkpt><trkpt lat="44.6989271" lon="7.8276264"><ele>276.0</ele><time>2026-04-25T06:07:15.282Z</time></trkpt><trkpt lat="44.6989316" lon="7.8274296"><ele>276.0</ele><time>2026-04-25T06:07:16.278Z</time></trkpt><trkpt lat="44.6989475" lon="7.8272285"><ele>276.0</ele><time>2026-04-25T06:07:17.277Z</time></trkpt><trkpt lat="44.6989672" lon="7.8270259"><ele>276.0</ele><time>2026-04-25T06:07:18.277Z</time></trkpt><trkpt lat="44.6989895" lon="7.8268248"><ele>276.0</ele><time>2026-04-25T06:07:19.277Z</time></trkpt><trkpt lat="44.6990143" lon="7.8266227"><ele>276.0</ele><time>2026-04-25T06:07:20.278Z</time></trkpt><trkpt lat="44.6990416" lon="7.8264252"><ele>275.75</ele><time>2026-04-25T06:07:21.281Z</time></trkpt><trkpt lat="44.6990723" lon="7.8262298"><ele>275.5</ele><time>2026-04-25T06:07:22.281Z</time></trkpt><trkpt lat="44.6991073" lon="7.8260403"><ele>275.25</ele><time>2026-04-25T06:07:23.277Z</time></trkpt><trkpt lat="44.6991418" lon="7.8258629"><ele>275.0</ele><time>2026-04-25T06:07:24.277Z</time></trkpt><trkpt lat="44.6991748" lon="7.8256992"><ele>275.0</ele><time>2026-04-25T06:07:25.282Z</time></trkpt><trkpt lat="44.6992069" lon="7.8255453"><ele>275.0</ele><time>2026-04-25T06:07:26.277Z</time></trkpt><trkpt lat="44.6992385" lon="7.8254005"><ele>275.0</ele><time>2026-04-25T06:07:27.278Z</time></trkpt><trkpt lat="44.6992681" lon="7.8252611"><ele>275.0</ele><time>2026-04-25T06:07:28.278Z</time></trkpt><trkpt lat="44.6993016" lon="7.8251202"><ele>275.0</ele><time>2026-04-25T06:07:29.277Z</time></trkpt><trkpt lat="44.6993353" lon="7.8249794"><ele>275.0</ele><time>2026-04-25T06:07:30.281Z</time></trkpt><trkpt lat="44.6993738" lon="7.8248429"><ele>275.0</ele><time>2026-04-25T06:07:31.278Z</time></trkpt><trkpt lat="44.6994108" lon="7.8247128"><ele>275.0</ele><time>2026-04-25T06:07:32.278Z</time></trkpt><trkpt lat="44.699447" lon="7.8245946"><ele>275.0</ele><time>2026-04-25T06:07:33.277Z</time></trkpt><trkpt lat="44.6994804" lon="7.8244821"><ele>275.0</ele><time>2026-04-25T06:07:34.277Z</time></trkpt><trkpt lat="44.6995046" lon="7.8243731"><ele>275.0</ele><time>2026-04-25T06:07:35.28Z</time></trkpt><trkpt lat="44.6995172" lon="7.8242593"><ele>275.0</ele><time>2026-04-25T06:07:36.276Z</time></trkpt><trkpt lat="44.6995242" lon="7.824143"><ele>275.0</ele><time>2026-04-25T06:07:37.277Z</time></trkpt><trkpt lat="44.6995157" lon="7.8240312"><ele>275.0</ele><time>2026-04-25T06:07:38.278Z</time></trkpt><trkpt lat="44.6994881" lon="7.8239224"><ele>275.0</ele><time>2026-04-25T06:07:39.277Z</time></trkpt><trkpt lat="44.699373" lon="7.8238515"><ele>275.2</ele><time>2026-04-25T06:07:40.278Z</time></trkpt><trkpt lat="44.6992684" lon="7.8237986"><ele>275.4</ele><time>2026-04-25T06:07:41.281Z</time></trkpt><trkpt lat="44.6991658" lon="7.8237717"><ele>275.6</ele><time>2026-04-25T06:07:42.277Z</time></trkpt><trkpt lat="44.6990533" lon="7.8237764"><ele>275.8</ele><time>2026-04-25T06:07:43.278Z</time></trkpt><trkpt lat="44.6989407" lon="7.8238112"><ele>276.0</ele><time>2026-04-25T06:07:44.278Z</time></trkpt><trkpt lat="44.6988165" lon="7.8238587"><ele>276.0</ele><time>2026-04-25T06:07:45.278Z</time></trkpt><trkpt lat="44.6986818" lon="7.8239178"><ele>276.0</ele><time>2026-04-25T06:07:46.275Z</time></trkpt><trkpt lat="44.6985297" lon="7.8239742"><ele>276.0</ele><time>2026-04-25T06:07:47.278Z</time></trkpt><trkpt lat="44.6983821" lon="7.8240366"><ele>277.0</ele><time>2026-04-25T06:07:48.278Z</time></trkpt><trkpt lat="44.6982313" lon="7.8240984"><ele>278.0</ele><time>2026-04-25T06:07:49.28Z</time></trkpt><trkpt lat="44.6980751" lon="7.8241653"><ele>279.0</ele><time>2026-04-25T06:07:50.276Z</time></trkpt><trkpt lat="44.697914" lon="7.8242332"><ele>278.0</ele><time>2026-04-25T06:07:51.278Z</time></trkpt><trkpt lat="44.6977518" lon="7.8243013"><ele>277.0</ele><time>2026-04-25T06:07:52.276Z</time></trkpt><trkpt lat="44.6975822" lon="7.8243698"><ele>276.0</ele><time>2026-04-25T06:07:53.277Z</time></trkpt><trkpt lat="44.6974041" lon="7.82444"><ele>276.0</ele><time>2026-04-25T06:07:54.278Z</time></trkpt><trkpt lat="44.697225" lon="7.824509"><ele>276.0</ele><time>2026-04-25T06:07:55.275Z</time></trkpt><trkpt lat="44.6970459" lon="7.8245839"><ele>276.0</ele><time>2026-04-25T06:07:56.275Z</time></trkpt><trkpt lat="44.696872" lon="7.8246499"><ele>275.3333333333333</ele><time>2026-04-25T06:07:57.277Z</time></trkpt><trkpt lat="44.6967009" lon="7.8247166"><ele>274.66666666666663</ele><time>2026-04-25T06:07:58.276Z</time></trkpt><trkpt lat="44.6965318" lon="7.8247847"><ele>274.0</ele><time>2026-04-25T06:07:59.277Z</time></trkpt><trkpt lat="44.6963653" lon="7.8248525"><ele>274.0</ele><time>2026-04-25T06:08:00.278Z</time></trkpt><trkpt lat="44.6961907" lon="7.8249129"><ele>274.0</ele><time>2026-04-25T06:08:01.279Z</time></trkpt><trkpt lat="44.6960149" lon="7.8249695"><ele>274.0</ele><time>2026-04-25T06:08:02.28Z</time></trkpt><trkpt lat="44.6958402" lon="7.8250282"><ele>274.3333333333333</ele><time>2026-04-25T06:08:03.278Z</time></trkpt><trkpt lat="44.6956655" lon="7.8250849"><ele>274.6666666666667</ele><time>2026-04-25T06:08:04.277Z</time></trkpt><trkpt lat="44.6954917" lon="7.8251404"><ele>275.0</ele><time>2026-04-25T06:08:05.28Z</time></trkpt><trkpt lat="44.6953169" lon="7.8251962"><ele>275.33333333333337</ele><time>2026-04-25T06:08:06.277Z</time></trkpt><trkpt lat="44.6951416" lon="7.8252524"><ele>275.6666666666667</ele><time>2026-04-25T06:08:07.275Z</time></trkpt><trkpt lat="44.6949666" lon="7.8253079"><ele>276.0</ele><time>2026-04-25T06:08:08.274Z</time></trkpt><trkpt lat="44.6947919" lon="7.8253617"><ele>276.0</ele><time>2026-04-25T06:08:09.28Z</time></trkpt><trkpt lat="44.6946171" lon="7.825418"><ele>276.0</ele><time>2026-04-25T06:08:10.279Z</time></trkpt><trkpt lat="44.6944453" lon="7.8254776"><ele>276.0</ele><time>2026-04-25T06:08:11.276Z</time></trkpt><trkpt lat="44.6942725" lon="7.8255357"><ele>276.0</ele><time>2026-04-25T06:08:12.281Z</time></trkpt><trkpt lat="44.6940981" lon="7.8255919"><ele>276.0</ele><time>2026-04-25T06:08:13.281Z</time></trkpt><trkpt lat="44.6939235" lon="7.8256469"><ele>276.0</ele><time>2026-04-25T06:08:14.277Z</time></trkpt><trkpt lat="44.6937501" lon="7.8257035"><ele>277.3333333333333</ele><time>2026-04-25T06:08:15.277Z</time></trkpt><trkpt lat="44.6935756" lon="7.8257586"><ele>278.66666666666663</ele><time>2026-04-25T06:08:16.28Z</time></trkpt><trkpt lat="44.6933997" lon="7.8258148"><ele>280.0</ele><time>2026-04-25T06:08:17.279Z</time></trkpt><trkpt lat="44.6932212" lon="7.825872"><ele>280.0</ele><time>2026-04-25T06:08:18.28Z</time></trkpt><trkpt lat="44.6930425" lon="7.8259308"><ele>280.0</ele><time>2026-04-25T06:08:19.278Z</time></trkpt><trkpt lat="44.6928631" lon="7.8259896"><ele>280.0</ele><time>2026-04-25T06:08:20.28Z</time></trkpt><trkpt lat="44.6926801" lon="7.8260469"><ele>279.0</ele><time>2026-04-25T06:08:21.278Z</time></trkpt><trkpt lat="44.6924958" lon="7.8261054"><ele>278.0</ele><time>2026-04-25T06:08:22.278Z</time></trkpt><trkpt lat="44.6923093" lon="7.8261608"><ele>277.0</ele><time>2026-04-25T06:08:23.28Z</time></trkpt><trkpt lat="44.69212" lon="7.8262148"><ele>277.0</ele><time>2026-04-25T06:08:24.28Z</time></trkpt><trkpt lat="44.6919315" lon="7.8262744"><ele>277.0</ele><time>2026-04-25T06:08:25.277Z</time></trkpt><trkpt lat="44.6917435" lon="7.8263351"><ele>277.0</ele><time>2026-04-25T06:08:26.277Z</time></trkpt><trkpt lat="44.6915539" lon="7.8263991"><ele>277.0</ele><time>2026-04-25T06:08:27.28Z</time></trkpt><trkpt lat="44.6913618" lon="7.8264621"><ele>277.0</ele><time>2026-04-25T06:08:28.278Z</time></trkpt><trkpt lat="44.6911708" lon="7.8265221"><ele>277.0</ele><time>2026-04-25T06:08:29.279Z</time></trkpt><trkpt lat="44.6909783" lon="7.8265827"><ele>277.0</ele><time>2026-04-25T06:08:30.281Z</time></trkpt><trkpt lat="44.6907859" lon="7.8266429"><ele>277.0</ele><time>2026-04-25T06:08:31.276Z</time></trkpt><trkpt lat="44.6905914" lon="7.8267041"><ele>277.0</ele><time>2026-04-25T06:08:32.277Z</time></trkpt><trkpt lat="44.6903921" lon="7.8267658"><ele>276.3333333333333</ele><time>2026-04-25T06:08:33.277Z</time></trkpt><trkpt lat="44.6901886" lon="7.8268308"><ele>275.6666666666667</ele><time>2026-04-25T06:08:34.28Z</time></trkpt><trkpt lat="44.6899824" lon="7.8269008"><ele>275.0</ele><time>2026-04-25T06:08:35.28Z</time></trkpt><trkpt lat="44.6897739" lon="7.8269713"><ele>275.0</ele><time>2026-04-25T06:08:36.279Z</time></trkpt><trkpt lat="44.6895652" lon="7.8270411"><ele>275.0</ele><time>2026-04-25T06:08:37.279Z</time></trkpt><trkpt lat="44.6893522" lon="7.8271097"><ele>275.0</ele><time>2026-04-25T06:08:38.28Z</time></trkpt><trkpt lat="44.6891418" lon="7.8271807"><ele>275.0</ele><time>2026-04-25T06:08:39.281Z</time></trkpt><trkpt lat="44.6889275" lon="7.8272445"><ele>275.0</ele><time>2026-04-25T06:08:40.281Z</time></trkpt><trkpt lat="44.6887149" lon="7.8273082"><ele>275.0</ele><time>2026-04-25T06:08:41.279Z</time></trkpt><trkpt lat="44.6885039" lon="7.8273726"><ele>275.0</ele><time>2026-04-25T06:08:42.28Z</time></trkpt><trkpt lat="44.6882964" lon="7.8274379"><ele>275.0</ele><time>2026-04-25T06:08:43.283Z</time></trkpt><trkpt lat="44.6880911" lon="7.8275068"><ele>275.0</ele><time>2026-04-25T06:08:44.28Z</time></trkpt><trkpt lat="44.6878843" lon="7.8275714"><ele>275.6666666666667</ele><time>2026-04-25T06:08:45.277Z</time></trkpt><trkpt lat="44.6876806" lon="7.8276378"><ele>276.3333333333333</ele><time>2026-04-25T06:08:46.277Z</time></trkpt><trkpt lat="44.6874829" lon="7.8277059"><ele>277.0</ele><time>2026-04-25T06:08:47.278Z</time></trkpt><trkpt lat="44.6872833" lon="7.8277693"><ele>277.0</ele><time>2026-04-25T06:08:48.275Z</time></trkpt><trkpt lat="44.6870811" lon="7.8278272"><ele>277.0</ele><time>2026-04-25T06:08:49.276Z</time></trkpt><trkpt lat="44.6868823" lon="7.8278867"><ele>277.0</ele><time>2026-04-25T06:08:50.28Z</time></trkpt><trkpt lat="44.68669" lon="7.8279466"><ele>276.66666666666663</ele><time>2026-04-25T06:08:51.277Z</time></trkpt><trkpt lat="44.6864993" lon="7.8280069"><ele>276.3333333333333</ele><time>2026-04-25T06:08:52.276Z</time></trkpt><trkpt lat="44.686311" lon="7.8280666"><ele>276.0</ele><time>2026-04-25T06:08:53.275Z</time></trkpt><trkpt lat="44.6861261" lon="7.8281266"><ele>276.3333333333333</ele><time>2026-04-25T06:08:54.279Z</time></trkpt><trkpt lat="44.6859416" lon="7.828187"><ele>276.66666666666663</ele><time>2026-04-25T06:08:55.281Z</time></trkpt><trkpt lat="44.6857593" lon="7.8282471"><ele>277.0</ele><time>2026-04-25T06:08:56.28Z</time></trkpt><trkpt lat="44.6855789" lon="7.8283061"><ele>277.0</ele><time>2026-04-25T06:08:57.277Z</time></trkpt><trkpt lat="44.6853999" lon="7.8283636"><ele>277.0</ele><time>2026-04-25T06:08:58.277Z</time></trkpt><trkpt lat="44.6852212" lon="7.8284213"><ele>277.0</ele><time>2026-04-25T06:08:59.276Z</time></trkpt><trkpt lat="44.6850446" lon="7.8284836"><ele>277.0</ele><time>2026-04-25T06:09:00.277Z</time></trkpt><trkpt lat="44.6848675" lon="7.8285394"><ele>277.0</ele><time>2026-04-25T06:09:01.281Z</time></trkpt><trkpt lat="44.6846911" lon="7.8285941"><ele>277.0</ele><time>2026-04-25T06:09:02.28Z</time></trkpt><trkpt lat="44.6845142" lon="7.828649"><ele>276.3333333333333</ele><time>2026-04-25T06:09:03.277Z</time></trkpt><trkpt lat="44.6843377" lon="7.8287028"><ele>275.6666666666667</ele><time>2026-04-25T06:09:04.279Z</time></trkpt><trkpt lat="44.6841602" lon="7.8287562"><ele>275.0</ele><time>2026-04-25T06:09:05.28Z</time></trkpt><trkpt lat="44.683983" lon="7.8288118"><ele>275.0</ele><time>2026-04-25T06:09:06.277Z</time></trkpt><trkpt lat="44.683806" lon="7.8288658"><ele>275.0</ele><time>2026-04-25T06:09:07.278Z</time></trkpt><trkpt lat="44.6836305" lon="7.8289225"><ele>275.0</ele><time>2026-04-25T06:09:08.278Z</time></trkpt><trkpt lat="44.6834548" lon="7.8289792"><ele>275.0</ele><time>2026-04-25T06:09:09.28Z</time></trkpt><trkpt lat="44.6832815" lon="7.8290374"><ele>275.0</ele><time>2026-04-25T06:09:10.281Z</time></trkpt><trkpt lat="44.6831076" lon="7.8290943"><ele>275.0</ele><time>2026-04-25T06:09:11.28Z</time></trkpt><trkpt lat="44.6829339" lon="7.8291511"><ele>276.0</ele><time>2026-04-25T06:09:12.28Z</time></trkpt><trkpt lat="44.6827592" lon="7.8292041"><ele>277.0</ele><time>2026-04-25T06:09:13.277Z</time></trkpt><trkpt lat="44.6825846" lon="7.8292526"><ele>278.0</ele><time>2026-04-25T06:09:14.276Z</time></trkpt><trkpt lat="44.682409" lon="7.8293"><ele>277.6666666666667</ele><time>2026-04-25T06:09:15.278Z</time></trkpt><trkpt lat="44.6822332" lon="7.8293441"><ele>277.3333333333333</ele><time>2026-04-25T06:09:16.277Z</time></trkpt><trkpt lat="44.6820573" lon="7.8293821"><ele>277.0</ele><time>2026-04-25T06:09:17.277Z</time></trkpt><trkpt lat="44.6818779" lon="7.8294126"><ele>277.0</ele><time>2026-04-25T06:09:18.277Z</time></trkpt><trkpt lat="44.6816978" lon="7.8294405"><ele>277.0</ele><time>2026-04-25T06:09:19.278Z</time></trkpt><trkpt lat="44.6815172" lon="7.8294648"><ele>277.0</ele><time>2026-04-25T06:09:20.278Z</time></trkpt><trkpt lat="44.6813376" lon="7.8294878"><ele>277.0</ele><time>2026-04-25T06:09:21.278Z</time></trkpt><trkpt lat="44.6811564" lon="7.8295042"><ele>277.0</ele><time>2026-04-25T06:09:22.278Z</time></trkpt><trkpt lat="44.6809757" lon="7.8295161"><ele>277.0</ele><time>2026-04-25T06:09:23.279Z</time></trkpt><trkpt lat="44.6807964" lon="7.8295278"><ele>277.3333333333333</ele><time>2026-04-25T06:09:24.279Z</time></trkpt><trkpt lat="44.6806164" lon="7.8295354"><ele>277.6666666666667</ele><time>2026-04-25T06:09:25.277Z</time></trkpt><trkpt lat="44.6804362" lon="7.8295337"><ele>278.0</ele><time>2026-04-25T06:09:26.278Z</time></trkpt><trkpt lat="44.6802566" lon="7.8295307"><ele>278.6666666666667</ele><time>2026-04-25T06:09:27.277Z</time></trkpt><trkpt lat="44.6800786" lon="7.8295268"><ele>279.3333333333333</ele><time>2026-04-25T06:09:28.276Z</time></trkpt><trkpt lat="44.6799011" lon="7.8295209"><ele>280.0</ele><time>2026-04-25T06:09:29.275Z</time></trkpt><trkpt lat="44.679723" lon="7.8295068"><ele>280.0</ele><time>2026-04-25T06:09:30.277Z</time></trkpt><trkpt lat="44.6795447" lon="7.8294889"><ele>280.0</ele><time>2026-04-25T06:09:31.281Z</time></trkpt><trkpt lat="44.6793641" lon="7.8294621"><ele>280.0</ele><time>2026-04-25T06:09:32.277Z</time></trkpt><trkpt lat="44.6791838" lon="7.8294371"><ele>280.0</ele><time>2026-04-25T06:09:33.278Z</time></trkpt><trkpt lat="44.6790061" lon="7.8294088"><ele>280.0</ele><time>2026-04-25T06:09:34.281Z</time></trkpt><trkpt lat="44.6788287" lon="7.8293767"><ele>280.0</ele><time>2026-04-25T06:09:35.277Z</time></trkpt><trkpt lat="44.6786523" lon="7.8293338"><ele>279.0</ele><time>2026-04-25T06:09:36.278Z</time></trkpt><trkpt lat="44.6784754" lon="7.8292907"><ele>278.0</ele><time>2026-04-25T06:09:37.278Z</time></trkpt><trkpt lat="44.678299" lon="7.8292439"><ele>277.0</ele><time>2026-04-25T06:09:38.28Z</time></trkpt><trkpt lat="44.678121" lon="7.829189"><ele>277.0</ele><time>2026-04-25T06:09:39.277Z</time></trkpt><trkpt lat="44.6779463" lon="7.8291365"><ele>277.0</ele><time>2026-04-25T06:09:40.279Z</time></trkpt><trkpt lat="44.6777726" lon="7.8290791"><ele>277.0</ele><time>2026-04-25T06:09:41.278Z</time></trkpt><trkpt lat="44.6775997" lon="7.8290194"><ele>276.66666666666663</ele><time>2026-04-25T06:09:42.279Z</time></trkpt><trkpt lat="44.6774281" lon="7.8289515"><ele>276.3333333333333</ele><time>2026-04-25T06:09:43.277Z</time></trkpt><trkpt lat="44.6772539" lon="7.8288793"><ele>276.0</ele><time>2026-04-25T06:09:44.278Z</time></trkpt><trkpt lat="44.6770804" lon="7.8288058"><ele>276.3333333333333</ele><time>2026-04-25T06:09:45.279Z</time></trkpt><trkpt lat="44.676907" lon="7.8287241"><ele>276.66666666666663</ele><time>2026-04-25T06:09:46.278Z</time></trkpt><trkpt lat="44.6767329" lon="7.8286336"><ele>277.0</ele><time>2026-04-25T06:09:47.279Z</time></trkpt><trkpt lat="44.6765606" lon="7.8285413"><ele>277.0</ele><time>2026-04-25T06:09:48.278Z</time></trkpt><trkpt lat="44.6763923" lon="7.8284535"><ele>277.0</ele><time>2026-04-25T06:09:49.276Z</time></trkpt><trkpt lat="44.6762194" lon="7.8283566"><ele>277.0</ele><time>2026-04-25T06:09:50.275Z</time></trkpt><trkpt lat="44.6760469" lon="7.8282613"><ele>277.3333333333333</ele><time>2026-04-25T06:09:51.279Z</time></trkpt><trkpt lat="44.6758731" lon="7.8281715"><ele>277.6666666666667</ele><time>2026-04-25T06:09:52.28Z</time></trkpt><trkpt lat="44.6756967" lon="7.8280799"><ele>278.0</ele><time>2026-04-25T06:09:53.28Z</time></trkpt><trkpt lat="44.6755187" lon="7.8279905"><ele>278.0</ele><time>2026-04-25T06:09:54.277Z</time></trkpt><trkpt lat="44.675338" lon="7.8279009"><ele>278.0</ele><time>2026-04-25T06:09:55.279Z</time></trkpt><trkpt lat="44.6751545" lon="7.8278088"><ele>278.0</ele><time>2026-04-25T06:09:56.278Z</time></trkpt><trkpt lat="44.674967" lon="7.8277124"><ele>279.6666666666667</ele><time>2026-04-25T06:09:57.278Z</time></trkpt><trkpt lat="44.6747773" lon="7.8276169"><ele>281.3333333333333</ele><time>2026-04-25T06:09:58.279Z</time></trkpt><trkpt lat="44.6745829" lon="7.8275166"><ele>283.0</ele><time>2026-04-25T06:09:59.278Z</time></trkpt><trkpt lat="44.6743893" lon="7.8274145"><ele>283.3333333333333</ele><time>2026-04-25T06:10:00.278Z</time></trkpt><trkpt lat="44.6741961" lon="7.8273147"><ele>283.6666666666667</ele><time>2026-04-25T06:10:01.278Z</time></trkpt><trkpt lat="44.673999" lon="7.8272086"><ele>284.0</ele><time>2026-04-25T06:10:02.277Z</time></trkpt><trkpt lat="44.6738046" lon="7.8271097"><ele>284.0</ele><time>2026-04-25T06:10:03.279Z</time></trkpt><trkpt lat="44.6736094" lon="7.8270075"><ele>284.0</ele><time>2026-04-25T06:10:04.278Z</time></trkpt><trkpt lat="44.673414" lon="7.8269063"><ele>284.0</ele><time>2026-04-25T06:10:05.276Z</time></trkpt><trkpt lat="44.6732159" lon="7.8268031"><ele>284.33333333333337</ele><time>2026-04-25T06:10:06.277Z</time></trkpt><trkpt lat="44.673021" lon="7.8266989"><ele>284.6666666666667</ele><time>2026-04-25T06:10:07.276Z</time></trkpt><trkpt lat="44.6728234" lon="7.8265901"><ele>285.0</ele><time>2026-04-25T06:10:08.276Z</time></trkpt><trkpt lat="44.6726233" lon="7.8264941"><ele>284.3333333333333</ele><time>2026-04-25T06:10:09.276Z</time></trkpt><trkpt lat="44.6724204" lon="7.8264087"><ele>283.66666666666663</ele><time>2026-04-25T06:10:10.275Z</time></trkpt><trkpt lat="44.6722196" lon="7.8263188"><ele>283.0</ele><time>2026-04-25T06:10:11.278Z</time></trkpt><trkpt lat="44.6720247" lon="7.8262241"><ele>283.3333333333333</ele><time>2026-04-25T06:10:12.278Z</time></trkpt><trkpt lat="44.6718328" lon="7.8261258"><ele>283.6666666666667</ele><time>2026-04-25T06:10:13.275Z</time></trkpt><trkpt lat="44.6716407" lon="7.8260274"><ele>284.0</ele><time>2026-04-25T06:10:14.276Z</time></trkpt><trkpt lat="44.6714461" lon="7.8259223"><ele>284.0</ele><time>2026-04-25T06:10:15.276Z</time></trkpt><trkpt lat="44.6712528" lon="7.8258189"><ele>284.0</ele><time>2026-04-25T06:10:16.277Z</time></trkpt><trkpt lat="44.6710608" lon="7.8257183"><ele>284.0</ele><time>2026-04-25T06:10:17.276Z</time></trkpt><trkpt lat="44.6708703" lon="7.8256149"><ele>284.6666666666667</ele><time>2026-04-25T06:10:18.278Z</time></trkpt><trkpt lat="44.670679" lon="7.8255142"><ele>285.3333333333333</ele><time>2026-04-25T06:10:19.28Z</time></trkpt><trkpt lat="44.6704895" lon="7.8254174"><ele>286.0</ele><time>2026-04-25T06:10:20.278Z</time></trkpt><trkpt lat="44.6702966" lon="7.8253139"><ele>286.66666666666663</ele><time>2026-04-25T06:10:21.276Z</time></trkpt><trkpt lat="44.6701022" lon="7.825206"><ele>287.3333333333333</ele><time>2026-04-25T06:10:22.278Z</time></trkpt><trkpt lat="44.6699085" lon="7.8251027"><ele>288.0</ele><time>2026-04-25T06:10:23.275Z</time></trkpt><trkpt lat="44.6697144" lon="7.8249992"><ele>289.3333333333333</ele><time>2026-04-25T06:10:24.276Z</time></trkpt><trkpt lat="44.6695216" lon="7.8249024"><ele>290.66666666666663</ele><time>2026-04-25T06:10:25.275Z</time></trkpt><trkpt lat="44.6693271" lon="7.8248079"><ele>292.0</ele><time>2026-04-25T06:10:26.275Z</time></trkpt><trkpt lat="44.6691301" lon="7.8247073"><ele>292.0</ele><time>2026-04-25T06:10:27.278Z</time></trkpt><trkpt lat="44.668939" lon="7.8246131"><ele>292.0</ele><time>2026-04-25T06:10:28.275Z</time></trkpt><trkpt lat="44.6687519" lon="7.8245159"><ele>292.0</ele><time>2026-04-25T06:10:29.276Z</time></trkpt><trkpt lat="44.6685649" lon="7.8244193"><ele>292.0</ele><time>2026-04-25T06:10:30.276Z</time></trkpt><trkpt lat="44.6683843" lon="7.824325"><ele>292.0</ele><time>2026-04-25T06:10:31.277Z</time></trkpt><trkpt lat="44.6682119" lon="7.8242345"><ele>292.0</ele><time>2026-04-25T06:10:32.275Z</time></trkpt><trkpt lat="44.6680447" lon="7.8241479"><ele>292.0</ele><time>2026-04-25T06:10:33.279Z</time></trkpt><trkpt lat="44.6678796" lon="7.8240597"><ele>292.0</ele><time>2026-04-25T06:10:34.276Z</time></trkpt><trkpt lat="44.6677195" lon="7.8239722"><ele>292.0</ele><time>2026-04-25T06:10:35.276Z</time></trkpt><trkpt lat="44.667562" lon="7.8238887"><ele>292.3333333333333</ele><time>2026-04-25T06:10:36.278Z</time></trkpt><trkpt lat="44.6674085" lon="7.8238054"><ele>292.6666666666667</ele><time>2026-04-25T06:10:37.277Z</time></trkpt><trkpt lat="44.6672561" lon="7.8237256"><ele>293.0</ele><time>2026-04-25T06:10:38.275Z</time></trkpt><trkpt lat="44.6671135" lon="7.8236512"><ele>293.0</ele><time>2026-04-25T06:10:39.276Z</time></trkpt><trkpt lat="44.6669699" lon="7.8235716"><ele>293.0</ele><time>2026-04-25T06:10:40.276Z</time></trkpt><trkpt lat="44.666829" lon="7.8234947"><ele>293.0</ele><time>2026-04-25T06:10:41.278Z</time></trkpt><trkpt lat="44.6666838" lon="7.8234201"><ele>293.0</ele><time>2026-04-25T06:10:42.277Z</time></trkpt><trkpt lat="44.6665433" lon="7.8233434"><ele>293.0</ele><time>2026-04-25T06:10:43.28Z</time></trkpt><trkpt lat="44.6664027" lon="7.8232704"><ele>293.0</ele><time>2026-04-25T06:10:44.279Z</time></trkpt><trkpt lat="44.6662611" lon="7.8231987"><ele>293.0</ele><time>2026-04-25T06:10:45.28Z</time></trkpt><trkpt lat="44.6661164" lon="7.8231152"><ele>293.0</ele><time>2026-04-25T06:10:46.274Z</time></trkpt><trkpt lat="44.6659701" lon="7.8230354"><ele>293.0</ele><time>2026-04-25T06:10:47.277Z</time></trkpt><trkpt lat="44.6658229" lon="7.8229568"><ele>293.33333333333337</ele><time>2026-04-25T06:10:48.275Z</time></trkpt><trkpt lat="44.6656795" lon="7.8228748"><ele>293.6666666666667</ele><time>2026-04-25T06:10:49.275Z</time></trkpt><trkpt lat="44.6655362" lon="7.8227916"><ele>294.0</ele><time>2026-04-25T06:10:50.278Z</time></trkpt><trkpt lat="44.6653942" lon="7.822707"><ele>293.6666666666667</ele><time>2026-04-25T06:10:51.275Z</time></trkpt><trkpt lat="44.6652505" lon="7.8226129"><ele>293.33333333333337</ele><time>2026-04-25T06:10:52.275Z</time></trkpt><trkpt lat="44.6651062" lon="7.8225131"><ele>293.0</ele><time>2026-04-25T06:10:53.274Z</time></trkpt><trkpt lat="44.6649623" lon="7.8224074"><ele>293.0</ele><time>2026-04-25T06:10:54.274Z</time></trkpt><trkpt lat="44.6648204" lon="7.8222957"><ele>293.0</ele><time>2026-04-25T06:10:55.278Z</time></trkpt><trkpt lat="44.6646817" lon="7.8221743"><ele>293.0</ele><time>2026-04-25T06:10:56.278Z</time></trkpt><trkpt lat="44.6645451" lon="7.8220501"><ele>292.0</ele><time>2026-04-25T06:10:57.276Z</time></trkpt><trkpt lat="44.6644087" lon="7.8219106"><ele>291.0</ele><time>2026-04-25T06:10:58.277Z</time></trkpt><trkpt lat="44.6642829" lon="7.8217739"><ele>290.0</ele><time>2026-04-25T06:10:59.278Z</time></trkpt><trkpt lat="44.6641638" lon="7.8216288"><ele>289.75</ele><time>2026-04-25T06:11:00.279Z</time></trkpt><trkpt lat="44.6640548" lon="7.8214801"><ele>289.5</ele><time>2026-04-25T06:11:01.278Z</time></trkpt><trkpt lat="44.663953" lon="7.821337"><ele>289.25</ele><time>2026-04-25T06:11:02.277Z</time></trkpt><trkpt lat="44.663853" lon="7.821181"><ele>289.0</ele><time>2026-04-25T06:11:03.277Z</time></trkpt><trkpt lat="44.6637599" lon="7.8210182"><ele>289.3333333333333</ele><time>2026-04-25T06:11:04.278Z</time></trkpt><trkpt lat="44.66367" lon="7.8208483"><ele>289.6666666666667</ele><time>2026-04-25T06:11:05.277Z</time></trkpt><trkpt lat="44.6635824" lon="7.8206737"><ele>290.0</ele><time>2026-04-25T06:11:06.277Z</time></trkpt><trkpt lat="44.6634957" lon="7.8204878"><ele>290.33333333333337</ele><time>2026-04-25T06:11:07.277Z</time></trkpt><trkpt lat="44.6634108" lon="7.8202938"><ele>290.6666666666667</ele><time>2026-04-25T06:11:08.281Z</time></trkpt><trkpt lat="44.6633312" lon="7.8200956"><ele>291.0</ele><time>2026-04-25T06:11:09.28Z</time></trkpt><trkpt lat="44.6632606" lon="7.8198889"><ele>291.6666666666667</ele><time>2026-04-25T06:11:10.278Z</time></trkpt><trkpt lat="44.6631938" lon="7.8196778"><ele>292.33333333333337</ele><time>2026-04-25T06:11:11.28Z</time></trkpt><trkpt lat="44.6631333" lon="7.8194572"><ele>293.0</ele><time>2026-04-25T06:11:12.277Z</time></trkpt><trkpt lat="44.6630735" lon="7.8192326"><ele>293.0</ele><time>2026-04-25T06:11:13.281Z</time></trkpt><trkpt lat="44.6630194" lon="7.8190073"><ele>293.0</ele><time>2026-04-25T06:11:14.278Z</time></trkpt><trkpt lat="44.6629652" lon="7.8187825"><ele>293.0</ele><time>2026-04-25T06:11:15.279Z</time></trkpt><trkpt lat="44.6629112" lon="7.8185554"><ele>293.0</ele><time>2026-04-25T06:11:16.277Z</time></trkpt><trkpt lat="44.6628586" lon="7.8183398"><ele>293.0</ele><time>2026-04-25T06:11:17.277Z</time></trkpt><trkpt lat="44.6628081" lon="7.8181365"><ele>293.0</ele><time>2026-04-25T06:11:18.276Z</time></trkpt><trkpt lat="44.6627581" lon="7.8179366"><ele>293.33333333333337</ele><time>2026-04-25T06:11:19.276Z</time></trkpt><trkpt lat="44.6627031" lon="7.8177379"><ele>293.6666666666667</ele><time>2026-04-25T06:11:20.276Z</time></trkpt><trkpt lat="44.6626452" lon="7.8175383"><ele>294.0</ele><time>2026-04-25T06:11:21.277Z</time></trkpt><trkpt lat="44.662582" lon="7.8173338"><ele>294.6666666666667</ele><time>2026-04-25T06:11:22.276Z</time></trkpt><trkpt lat="44.6625143" lon="7.8171401"><ele>295.33333333333337</ele><time>2026-04-25T06:11:23.279Z</time></trkpt><trkpt lat="44.6624405" lon="7.8169513"><ele>296.0</ele><time>2026-04-25T06:11:24.276Z</time></trkpt><trkpt lat="44.6623613" lon="7.8167681"><ele>296.25</ele><time>2026-04-25T06:11:25.277Z</time></trkpt><trkpt lat="44.6622811" lon="7.8165932"><ele>296.5</ele><time>2026-04-25T06:11:26.275Z</time></trkpt><trkpt lat="44.6622041" lon="7.816433"><ele>296.75</ele><time>2026-04-25T06:11:27.279Z</time></trkpt><trkpt lat="44.6621339" lon="7.8162829"><ele>297.0</ele><time>2026-04-25T06:11:28.277Z</time></trkpt><trkpt lat="44.6620807" lon="7.8161356"><ele>296.6</ele><time>2026-04-25T06:11:29.279Z</time></trkpt><trkpt lat="44.6620513" lon="7.8159718"><ele>296.2</ele><time>2026-04-25T06:11:30.278Z</time></trkpt><trkpt lat="44.6620392" lon="7.8158186"><ele>295.8</ele><time>2026-04-25T06:11:31.276Z</time></trkpt><trkpt lat="44.6620135" lon="7.8156897"><ele>295.4</ele><time>2026-04-25T06:11:32.281Z</time></trkpt><trkpt lat="44.6619585" lon="7.8155763"><ele>295.0</ele><time>2026-04-25T06:11:33.28Z</time></trkpt><trkpt lat="44.6618788" lon="7.8154945"><ele>295.0</ele><time>2026-04-25T06:11:34.279Z</time></trkpt><trkpt lat="44.661776" lon="7.815439"><ele>295.0</ele><time>2026-04-25T06:11:35.279Z</time></trkpt><trkpt lat="44.6616641" lon="7.8154035"><ele>295.0</ele><time>2026-04-25T06:11:36.279Z</time></trkpt><trkpt lat="44.6615502" lon="7.8153588"><ele>295.0</ele><time>2026-04-25T06:11:37.279Z</time></trkpt><trkpt lat="44.6614414" lon="7.8152853"><ele>295.0</ele><time>2026-04-25T06:11:38.277Z</time></trkpt><trkpt lat="44.6613453" lon="7.8151731"><ele>295.0</ele><time>2026-04-25T06:11:39.278Z</time></trkpt><trkpt lat="44.6612567" lon="7.8150386"><ele>295.0</ele><time>2026-04-25T06:11:40.279Z</time></trkpt><trkpt lat="44.6611721" lon="7.8148947"><ele>295.0</ele><time>2026-04-25T06:11:41.276Z</time></trkpt><trkpt lat="44.6610893" lon="7.8147415"><ele>295.5</ele><time>2026-04-25T06:11:42.28Z</time></trkpt><trkpt lat="44.6610082" lon="7.8145895"><ele>296.0</ele><time>2026-04-25T06:11:43.279Z</time></trkpt><trkpt lat="44.6609293" lon="7.814433"><ele>296.5</ele><time>2026-04-25T06:11:44.278Z</time></trkpt><trkpt lat="44.6608523" lon="7.8142762"><ele>297.0</ele><time>2026-04-25T06:11:45.278Z</time></trkpt><trkpt lat="44.6607777" lon="7.8141147"><ele>297.0</ele><time>2026-04-25T06:11:46.277Z</time></trkpt><trkpt lat="44.6607039" lon="7.8139516"><ele>297.0</ele><time>2026-04-25T06:11:47.276Z</time></trkpt><trkpt lat="44.66063" lon="7.8137876"><ele>297.0</ele><time>2026-04-25T06:11:48.277Z</time></trkpt><trkpt lat="44.6605525" lon="7.8136255"><ele>297.0</ele><time>2026-04-25T06:11:49.279Z</time></trkpt><trkpt lat="44.6604713" lon="7.8134581"><ele>296.75</ele><time>2026-04-25T06:11:50.279Z</time></trkpt><trkpt lat="44.6603884" lon="7.8132903"><ele>296.5</ele><time>2026-04-25T06:11:51.278Z</time></trkpt><trkpt lat="44.660302" lon="7.8131187"><ele>296.25</ele><time>2026-04-25T06:11:52.278Z</time></trkpt><trkpt lat="44.6602111" lon="7.8129515"><ele>296.0</ele><time>2026-04-25T06:11:53.279Z</time></trkpt><trkpt lat="44.6601121" lon="7.8127875"><ele>296.6666666666667</ele><time>2026-04-25T06:11:54.277Z</time></trkpt><trkpt lat="44.6600077" lon="7.812627"><ele>297.3333333333333</ele><time>2026-04-25T06:11:55.276Z</time></trkpt><trkpt lat="44.659901" lon="7.8124679"><ele>298.0</ele><time>2026-04-25T06:11:56.275Z</time></trkpt><trkpt lat="44.6597918" lon="7.8123111"><ele>298.0</ele><time>2026-04-25T06:11:57.277Z</time></trkpt><trkpt lat="44.6596791" lon="7.812157"><ele>298.0</ele><time>2026-04-25T06:11:58.278Z</time></trkpt><trkpt lat="44.6595639" lon="7.8120008"><ele>298.0</ele><time>2026-04-25T06:11:59.277Z</time></trkpt><trkpt lat="44.6594452" lon="7.8118507"><ele>298.3333333333333</ele><time>2026-04-25T06:12:00.278Z</time></trkpt><trkpt lat="44.6593257" lon="7.8117103"><ele>298.6666666666667</ele><time>2026-04-25T06:12:01.278Z</time></trkpt><trkpt lat="44.6592053" lon="7.8115684"><ele>299.0</ele><time>2026-04-25T06:12:02.277Z</time></trkpt><trkpt lat="44.6590842" lon="7.8114267"><ele>299.0</ele><time>2026-04-25T06:12:03.278Z</time></trkpt><trkpt lat="44.6589617" lon="7.8112882"><ele>299.0</ele><time>2026-04-25T06:12:04.279Z</time></trkpt><trkpt lat="44.6588455" lon="7.8111669"><ele>299.0</ele><time>2026-04-25T06:12:05.278Z</time></trkpt><trkpt lat="44.6587341" lon="7.8110588"><ele>299.0</ele><time>2026-04-25T06:12:06.278Z</time></trkpt><trkpt lat="44.6586265" lon="7.8109568"><ele>299.0</ele><time>2026-04-25T06:12:07.278Z</time></trkpt><trkpt lat="44.6585267" lon="7.8108584"><ele>299.0</ele><time>2026-04-25T06:12:08.278Z</time></trkpt><trkpt lat="44.6584439" lon="7.8107765"><ele>299.0</ele><time>2026-04-25T06:12:09.276Z</time></trkpt><trkpt lat="44.6583759" lon="7.8106958"><ele>299.0</ele><time>2026-04-25T06:12:10.278Z</time></trkpt><trkpt lat="44.6583216" lon="7.8105943"><ele>299.0</ele><time>2026-04-25T06:12:11.277Z</time></trkpt><trkpt lat="44.6582859" lon="7.8104825"><ele>299.0</ele><time>2026-04-25T06:12:12.276Z</time></trkpt><trkpt lat="44.6582485" lon="7.8103589"><ele>299.0</ele><time>2026-04-25T06:12:13.278Z</time></trkpt><trkpt lat="44.6581941" lon="7.8102562"><ele>299.0</ele><time>2026-04-25T06:12:14.276Z</time></trkpt><trkpt lat="44.6581187" lon="7.8101898"><ele>299.0</ele><time>2026-04-25T06:12:15.277Z</time></trkpt><trkpt lat="44.6580227" lon="7.8101501"><ele>299.0</ele><time>2026-04-25T06:12:16.277Z</time></trkpt><trkpt lat="44.6579168" lon="7.8101272"><ele>299.0</ele><time>2026-04-25T06:12:17.277Z</time></trkpt><trkpt lat="44.6578051" lon="7.8100928"><ele>299.0</ele><time>2026-04-25T06:12:18.278Z</time></trkpt><trkpt lat="44.6576938" lon="7.8100337"><ele>299.0</ele><time>2026-04-25T06:12:19.28Z</time></trkpt><trkpt lat="44.6575812" lon="7.8099406"><ele>299.0</ele><time>2026-04-25T06:12:20.28Z</time></trkpt><trkpt lat="44.6574685" lon="7.8098258"><ele>299.0</ele><time>2026-04-25T06:12:21.279Z</time></trkpt><trkpt lat="44.6573591" lon="7.8097044"><ele>299.0</ele><time>2026-04-25T06:12:22.277Z</time></trkpt><trkpt lat="44.6572475" lon="7.8095789"><ele>299.0</ele><time>2026-04-25T06:12:23.277Z</time></trkpt><trkpt lat="44.6571348" lon="7.8094558"><ele>299.0</ele><time>2026-04-25T06:12:24.277Z</time></trkpt><trkpt lat="44.657016" lon="7.8093238"><ele>299.33333333333337</ele><time>2026-04-25T06:12:25.28Z</time></trkpt><trkpt lat="44.6568946" lon="7.8091941"><ele>299.6666666666667</ele><time>2026-04-25T06:12:26.276Z</time></trkpt><trkpt lat="44.6567699" lon="7.8090663"><ele>300.0</ele><time>2026-04-25T06:12:27.278Z</time></trkpt><trkpt lat="44.656642" lon="7.8089412"><ele>300.0</ele><time>2026-04-25T06:12:28.279Z</time></trkpt><trkpt lat="44.6565134" lon="7.808814"><ele>300.0</ele><time>2026-04-25T06:12:29.28Z</time></trkpt><trkpt lat="44.6563822" lon="7.8086805"><ele>300.0</ele><time>2026-04-25T06:12:30.277Z</time></trkpt><trkpt lat="44.6562491" lon="7.8085426"><ele>300.0</ele><time>2026-04-25T06:12:31.28Z</time></trkpt><trkpt lat="44.6561151" lon="7.8084059"><ele>300.0</ele><time>2026-04-25T06:12:32.28Z</time></trkpt><trkpt lat="44.6559818" lon="7.8082688"><ele>300.0</ele><time>2026-04-25T06:12:33.28Z</time></trkpt><trkpt lat="44.6558492" lon="7.8081327"><ele>300.0</ele><time>2026-04-25T06:12:34.28Z</time></trkpt><trkpt lat="44.6557174" lon="7.8080005"><ele>300.0</ele><time>2026-04-25T06:12:35.279Z</time></trkpt><trkpt lat="44.6555823" lon="7.8078637"><ele>300.0</ele><time>2026-04-25T06:12:36.278Z</time></trkpt><trkpt lat="44.6554507" lon="7.8077336"><ele>300.0</ele><time>2026-04-25T06:12:37.279Z</time></trkpt><trkpt lat="44.6553215" lon="7.8076037"><ele>300.0</ele><time>2026-04-25T06:12:38.278Z</time></trkpt><trkpt lat="44.65519" lon="7.8074661"><ele>300.0</ele><time>2026-04-25T06:12:39.28Z</time></trkpt><trkpt lat="44.6550605" lon="7.807328"><ele>300.3333333333333</ele><time>2026-04-25T06:12:40.278Z</time></trkpt><trkpt lat="44.6549309" lon="7.8071913"><ele>300.66666666666663</ele><time>2026-04-25T06:12:41.281Z</time></trkpt><trkpt lat="44.6548013" lon="7.8070557"><ele>301.0</ele><time>2026-04-25T06:12:42.279Z</time></trkpt><trkpt lat="44.6546743" lon="7.8069246"><ele>301.0</ele><time>2026-04-25T06:12:43.278Z</time></trkpt><trkpt lat="44.6545482" lon="7.8067915"><ele>301.0</ele><time>2026-04-25T06:12:44.281Z</time></trkpt><trkpt lat="44.6544229" lon="7.806656"><ele>301.0</ele><time>2026-04-25T06:12:45.28Z</time></trkpt><trkpt lat="44.6542971" lon="7.8065216"><ele>301.0</ele><time>2026-04-25T06:12:46.281Z</time></trkpt><trkpt lat="44.6541697" lon="7.8063892"><ele>301.0</ele><time>2026-04-25T06:12:47.276Z</time></trkpt><trkpt lat="44.6540424" lon="7.8062575"><ele>301.0</ele><time>2026-04-25T06:12:48.278Z</time></trkpt><trkpt lat="44.6539162" lon="7.8061299"><ele>301.0</ele><time>2026-04-25T06:12:49.28Z</time></trkpt><trkpt lat="44.6537907" lon="7.8060025"><ele>301.0</ele><time>2026-04-25T06:12:50.278Z</time></trkpt><trkpt lat="44.6536625" lon="7.8058657"><ele>301.0</ele><time>2026-04-25T06:12:51.278Z</time></trkpt><trkpt lat="44.6535341" lon="7.8057292"><ele>301.5</ele><time>2026-04-25T06:12:52.278Z</time></trkpt><trkpt lat="44.6534106" lon="7.8055988"><ele>302.0</ele><time>2026-04-25T06:12:53.28Z</time></trkpt><trkpt lat="44.6532936" lon="7.8054733"><ele>302.5</ele><time>2026-04-25T06:12:54.279Z</time></trkpt><trkpt lat="44.6531858" lon="7.8053598"><ele>303.0</ele><time>2026-04-25T06:12:55.278Z</time></trkpt><trkpt lat="44.6530846" lon="7.8052537"><ele>302.75</ele><time>2026-04-25T06:12:56.281Z</time></trkpt><trkpt lat="44.6529936" lon="7.8051447"><ele>302.5</ele><time>2026-04-25T06:12:57.279Z</time></trkpt><trkpt lat="44.6529154" lon="7.8050228"><ele>302.25</ele><time>2026-04-25T06:12:58.277Z</time></trkpt><trkpt lat="44.652849" lon="7.8048939"><ele>302.0</ele><time>2026-04-25T06:12:59.277Z</time></trkpt><trkpt lat="44.6527753" lon="7.8047865"><ele>301.75</ele><time>2026-04-25T06:13:00.278Z</time></trkpt><trkpt lat="44.6526836" lon="7.8047179"><ele>301.5</ele><time>2026-04-25T06:13:01.278Z</time></trkpt><trkpt lat="44.6525808" lon="7.8046683"><ele>301.25</ele><time>2026-04-25T06:13:02.279Z</time></trkpt><trkpt lat="44.6524731" lon="7.8045952"><ele>301.0</ele><time>2026-04-25T06:13:03.281Z</time></trkpt><trkpt lat="44.6523607" lon="7.8044999"><ele>301.0</ele><time>2026-04-25T06:13:04.28Z</time></trkpt><trkpt lat="44.6522397" lon="7.8043766"><ele>301.0</ele><time>2026-04-25T06:13:05.281Z</time></trkpt><trkpt lat="44.6521148" lon="7.8042488"><ele>301.0</ele><time>2026-04-25T06:13:06.281Z</time></trkpt><trkpt lat="44.6519894" lon="7.8041212"><ele>301.3333333333333</ele><time>2026-04-25T06:13:07.281Z</time></trkpt><trkpt lat="44.6518591" lon="7.8039943"><ele>301.6666666666667</ele><time>2026-04-25T06:13:08.283Z</time></trkpt><trkpt lat="44.6517221" lon="7.803862"><ele>302.0</ele><time>2026-04-25T06:13:09.28Z</time></trkpt><trkpt lat="44.6515796" lon="7.8037203"><ele>302.0</ele><time>2026-04-25T06:13:10.278Z</time></trkpt><trkpt lat="44.6514315" lon="7.8035701"><ele>302.0</ele><time>2026-04-25T06:13:11.28Z</time></trkpt><trkpt lat="44.6512833" lon="7.8034194"><ele>302.0</ele><time>2026-04-25T06:13:12.278Z</time></trkpt><trkpt lat="44.6511346" lon="7.8032672"><ele>302.33333333333337</ele><time>2026-04-25T06:13:13.277Z</time></trkpt><trkpt lat="44.6509896" lon="7.8031236"><ele>302.6666666666667</ele><time>2026-04-25T06:13:14.28Z</time></trkpt><trkpt lat="44.6508443" lon="7.8029731"><ele>303.0</ele><time>2026-04-25T06:13:15.281Z</time></trkpt><trkpt lat="44.650698" lon="7.8028218"><ele>303.0</ele><time>2026-04-25T06:13:16.279Z</time></trkpt><trkpt lat="44.6505503" lon="7.8026703"><ele>303.0</ele><time>2026-04-25T06:13:17.278Z</time></trkpt><trkpt lat="44.6503971" lon="7.8025147"><ele>303.0</ele><time>2026-04-25T06:13:18.277Z</time></trkpt><trkpt lat="44.6502469" lon="7.8023632"><ele>302.6666666666667</ele><time>2026-04-25T06:13:19.28Z</time></trkpt><trkpt lat="44.6500955" lon="7.8022062"><ele>302.33333333333337</ele><time>2026-04-25T06:13:20.282Z</time></trkpt><trkpt lat="44.649946" lon="7.8020529"><ele>302.0</ele><time>2026-04-25T06:13:21.278Z</time></trkpt><trkpt lat="44.6497959" lon="7.8018973"><ele>302.0</ele><time>2026-04-25T06:13:22.28Z</time></trkpt><trkpt lat="44.6496456" lon="7.8017404"><ele>302.0</ele><time>2026-04-25T06:13:23.281Z</time></trkpt><trkpt lat="44.6494959" lon="7.8015836"><ele>302.0</ele><time>2026-04-25T06:13:24.28Z</time></trkpt><trkpt lat="44.6493424" lon="7.8014233"><ele>302.0</ele><time>2026-04-25T06:13:25.28Z</time></trkpt><trkpt lat="44.64919" lon="7.8012661"><ele>302.0</ele><time>2026-04-25T06:13:26.281Z</time></trkpt><trkpt lat="44.6490382" lon="7.8011125"><ele>302.0</ele><time>2026-04-25T06:13:27.279Z</time></trkpt><trkpt lat="44.6488842" lon="7.8009602"><ele>302.6666666666667</ele><time>2026-04-25T06:13:28.281Z</time></trkpt><trkpt lat="44.6487295" lon="7.8008119"><ele>303.3333333333333</ele><time>2026-04-25T06:13:29.28Z</time></trkpt><trkpt lat="44.6485739" lon="7.8006686"><ele>304.0</ele><time>2026-04-25T06:13:30.277Z</time></trkpt><trkpt lat="44.6484176" lon="7.8005261"><ele>304.0</ele><time>2026-04-25T06:13:31.278Z</time></trkpt><trkpt lat="44.6482614" lon="7.8003851"><ele>304.0</ele><time>2026-04-25T06:13:32.279Z</time></trkpt><trkpt lat="44.6481037" lon="7.8002457"><ele>304.0</ele><time>2026-04-25T06:13:33.278Z</time></trkpt><trkpt lat="44.6479473" lon="7.8001113"><ele>304.0</ele><time>2026-04-25T06:13:34.279Z</time></trkpt><trkpt lat="44.64779" lon="7.7999732"><ele>304.0</ele><time>2026-04-25T06:13:35.278Z</time></trkpt><trkpt lat="44.6476351" lon="7.799838"><ele>304.0</ele><time>2026-04-25T06:13:36.279Z</time></trkpt><trkpt lat="44.6474797" lon="7.7997003"><ele>304.0</ele><time>2026-04-25T06:13:37.278Z</time></trkpt><trkpt lat="44.6473242" lon="7.7995603"><ele>304.0</ele><time>2026-04-25T06:13:38.277Z</time></trkpt><trkpt lat="44.647169" lon="7.7994223"><ele>304.0</ele><time>2026-04-25T06:13:39.281Z</time></trkpt><trkpt lat="44.6470128" lon="7.7992849"><ele>304.0</ele><time>2026-04-25T06:13:40.277Z</time></trkpt><trkpt lat="44.6468551" lon="7.799144"><ele>304.0</ele><time>2026-04-25T06:13:41.281Z</time></trkpt><trkpt lat="44.6466961" lon="7.7989974"><ele>304.0</ele><time>2026-04-25T06:13:42.278Z</time></trkpt><trkpt lat="44.6465342" lon="7.7988408"><ele>304.0</ele><time>2026-04-25T06:13:43.279Z</time></trkpt><trkpt lat="44.6463824" lon="7.7986988"><ele>304.0</ele><time>2026-04-25T06:13:44.28Z</time></trkpt><trkpt lat="44.6462292" lon="7.7985576"><ele>304.0</ele><time>2026-04-25T06:13:45.278Z</time></trkpt><trkpt lat="44.6460736" lon="7.798414"><ele>305.0</ele><time>2026-04-25T06:13:46.278Z</time></trkpt><trkpt lat="44.6459176" lon="7.7982699"><ele>306.0</ele><time>2026-04-25T06:13:47.28Z</time></trkpt><trkpt lat="44.6457625" lon="7.7981277"><ele>307.0</ele><time>2026-04-25T06:13:48.277Z</time></trkpt><trkpt lat="44.645607" lon="7.7979871"><ele>307.0</ele><time>2026-04-25T06:13:49.28Z</time></trkpt><trkpt lat="44.6454492" lon="7.7978457"><ele>307.0</ele><time>2026-04-25T06:13:50.28Z</time></trkpt><trkpt lat="44.6452935" lon="7.7977052"><ele>307.0</ele><time>2026-04-25T06:13:51.279Z</time></trkpt><trkpt lat="44.6451397" lon="7.7975687"><ele>307.0</ele><time>2026-04-25T06:13:52.28Z</time></trkpt><trkpt lat="44.6449866" lon="7.7974309"><ele>307.0</ele><time>2026-04-25T06:13:53.281Z</time></trkpt><trkpt lat="44.6448344" lon="7.7972928"><ele>307.0</ele><time>2026-04-25T06:13:54.278Z</time></trkpt><trkpt lat="44.6446832" lon="7.7971583"><ele>307.0</ele><time>2026-04-25T06:13:55.278Z</time></trkpt><trkpt lat="44.644533" lon="7.7970255"><ele>307.0</ele><time>2026-04-25T06:13:56.276Z</time></trkpt><trkpt lat="44.6443835" lon="7.7968973"><ele>307.0</ele><time>2026-04-25T06:13:57.278Z</time></trkpt><trkpt lat="44.6442363" lon="7.7967645"><ele>306.3333333333333</ele><time>2026-04-25T06:13:58.278Z</time></trkpt><trkpt lat="44.6440892" lon="7.7966289"><ele>305.6666666666667</ele><time>2026-04-25T06:13:59.28Z</time></trkpt><trkpt lat="44.6439384" lon="7.7964865"><ele>305.0</ele><time>2026-04-25T06:14:00.277Z</time></trkpt><trkpt lat="44.6437915" lon="7.7963509"><ele>305.0</ele><time>2026-04-25T06:14:01.278Z</time></trkpt><trkpt lat="44.6436477" lon="7.7962199"><ele>305.0</ele><time>2026-04-25T06:14:02.277Z</time></trkpt><trkpt lat="44.6435018" lon="7.7960909"><ele>305.0</ele><time>2026-04-25T06:14:03.278Z</time></trkpt><trkpt lat="44.6433552" lon="7.7959646"><ele>304.6666666666667</ele><time>2026-04-25T06:14:04.278Z</time></trkpt><trkpt lat="44.6432051" lon="7.7958316"><ele>304.3333333333333</ele><time>2026-04-25T06:14:05.28Z</time></trkpt><trkpt lat="44.6430491" lon="7.7956931"><ele>304.0</ele><time>2026-04-25T06:14:06.28Z</time></trkpt><trkpt lat="44.6428872" lon="7.7955518"><ele>304.0</ele><time>2026-04-25T06:14:07.277Z</time></trkpt><trkpt lat="44.6427243" lon="7.7954095"><ele>304.0</ele><time>2026-04-25T06:14:08.279Z</time></trkpt><trkpt lat="44.6425629" lon="7.7952653"><ele>304.0</ele><time>2026-04-25T06:14:09.281Z</time></trkpt><trkpt lat="44.6424045" lon="7.7951218"><ele>304.3333333333333</ele><time>2026-04-25T06:14:10.279Z</time></trkpt><trkpt lat="44.642247" lon="7.7949816"><ele>304.6666666666667</ele><time>2026-04-25T06:14:11.28Z</time></trkpt><trkpt lat="44.6420926" lon="7.7948451"><ele>305.0</ele><time>2026-04-25T06:14:12.279Z</time></trkpt><trkpt lat="44.6419478" lon="7.794715"><ele>305.0</ele><time>2026-04-25T06:14:13.28Z</time></trkpt><trkpt lat="44.6418109" lon="7.7945916"><ele>305.0</ele><time>2026-04-25T06:14:14.279Z</time></trkpt><trkpt lat="44.6416794" lon="7.7944734"><ele>305.0</ele><time>2026-04-25T06:14:15.28Z</time></trkpt><trkpt lat="44.6415513" lon="7.794359"><ele>304.75</ele><time>2026-04-25T06:14:16.277Z</time></trkpt><trkpt lat="44.6414279" lon="7.7942482"><ele>304.5</ele><time>2026-04-25T06:14:17.281Z</time></trkpt><trkpt lat="44.6413094" lon="7.7941436"><ele>304.25</ele><time>2026-04-25T06:14:18.281Z</time></trkpt><trkpt lat="44.641195" lon="7.7940423"><ele>304.0</ele><time>2026-04-25T06:14:19.281Z</time></trkpt><trkpt lat="44.6410818" lon="7.7939438"><ele>304.0</ele><time>2026-04-25T06:14:20.281Z</time></trkpt><trkpt lat="44.6409699" lon="7.7938434"><ele>304.0</ele><time>2026-04-25T06:14:21.281Z</time></trkpt><trkpt lat="44.6408562" lon="7.7937399"><ele>304.0</ele><time>2026-04-25T06:14:22.28Z</time></trkpt><trkpt lat="44.6407434" lon="7.7936413"><ele>304.0</ele><time>2026-04-25T06:14:23.28Z</time></trkpt><trkpt lat="44.6406294" lon="7.7935329"><ele>304.5</ele><time>2026-04-25T06:14:24.28Z</time></trkpt><trkpt lat="44.6405154" lon="7.7934315"><ele>305.0</ele><time>2026-04-25T06:14:25.281Z</time></trkpt><trkpt lat="44.6404035" lon="7.7933315"><ele>305.5</ele><time>2026-04-25T06:14:26.281Z</time></trkpt><trkpt lat="44.6402925" lon="7.7932266"><ele>306.0</ele><time>2026-04-25T06:14:27.282Z</time></trkpt><trkpt lat="44.6401829" lon="7.7931281"><ele>306.5</ele><time>2026-04-25T06:14:28.28Z</time></trkpt><trkpt lat="44.6400745" lon="7.7930297"><ele>307.0</ele><time>2026-04-25T06:14:29.278Z</time></trkpt><trkpt lat="44.6399681" lon="7.7929298"><ele>307.5</ele><time>2026-04-25T06:14:30.279Z</time></trkpt><trkpt lat="44.63986" lon="7.7928286"><ele>308.0</ele><time>2026-04-25T06:14:31.278Z</time></trkpt><trkpt lat="44.6397461" lon="7.7927166"><ele>308.0</ele><time>2026-04-25T06:14:32.278Z</time></trkpt><trkpt lat="44.6396281" lon="7.7925951"><ele>308.0</ele><time>2026-04-25T06:14:33.281Z</time></trkpt><trkpt lat="44.6395228" lon="7.7925051"><ele>308.0</ele><time>2026-04-25T06:14:34.281Z</time></trkpt><trkpt lat="44.6394205" lon="7.7924151"><ele>308.0</ele><time>2026-04-25T06:14:35.28Z</time></trkpt><trkpt lat="44.6393214" lon="7.7923262"><ele>308.5</ele><time>2026-04-25T06:14:36.279Z</time></trkpt><trkpt lat="44.63922" lon="7.792237"><ele>309.0</ele><time>2026-04-25T06:14:37.278Z</time></trkpt><trkpt lat="44.6391194" lon="7.7921462"><ele>309.5</ele><time>2026-04-25T06:14:38.278Z</time></trkpt><trkpt lat="44.6390159" lon="7.792055"><ele>310.0</ele><time>2026-04-25T06:14:39.278Z</time></trkpt><trkpt lat="44.6389103" lon="7.7919648"><ele>310.0</ele><time>2026-04-25T06:14:40.28Z</time></trkpt><trkpt lat="44.6388035" lon="7.7918722"><ele>310.0</ele><time>2026-04-25T06:14:41.277Z</time></trkpt><trkpt lat="44.6386976" lon="7.7917784"><ele>310.0</ele><time>2026-04-25T06:14:42.283Z</time></trkpt><trkpt lat="44.6385897" lon="7.7916887"><ele>310.0</ele><time>2026-04-25T06:14:43.281Z</time></trkpt><trkpt lat="44.6384811" lon="7.7915918"><ele>309.5</ele><time>2026-04-25T06:14:44.277Z</time></trkpt><trkpt lat="44.6383708" lon="7.791497"><ele>309.0</ele><time>2026-04-25T06:14:45.277Z</time></trkpt><trkpt lat="44.6382619" lon="7.791407"><ele>308.5</ele><time>2026-04-25T06:14:46.277Z</time></trkpt><trkpt lat="44.6381567" lon="7.7913165"><ele>308.0</ele><time>2026-04-25T06:14:47.276Z</time></trkpt><trkpt lat="44.6380525" lon="7.7912282"><ele>308.0</ele><time>2026-04-25T06:14:48.281Z</time></trkpt><trkpt lat="44.6379494" lon="7.7911423"><ele>308.0</ele><time>2026-04-25T06:14:49.28Z</time></trkpt><trkpt lat="44.6378464" lon="7.791045"><ele>308.0</ele><time>2026-04-25T06:14:50.28Z</time></trkpt><trkpt lat="44.6377444" lon="7.7909473"><ele>308.0</ele><time>2026-04-25T06:14:51.281Z</time></trkpt><trkpt lat="44.6376456" lon="7.7908496"><ele>308.25</ele><time>2026-04-25T06:14:52.279Z</time></trkpt><trkpt lat="44.6375469" lon="7.7907551"><ele>308.5</ele><time>2026-04-25T06:14:53.281Z</time></trkpt><trkpt lat="44.6374472" lon="7.7906505"><ele>308.75</ele><time>2026-04-25T06:14:54.281Z</time></trkpt><trkpt lat="44.637346" lon="7.7905573"><ele>309.0</ele><time>2026-04-25T06:14:55.277Z</time></trkpt><trkpt lat="44.6372548" lon="7.7904772"><ele>309.0</ele><time>2026-04-25T06:14:56.28Z</time></trkpt><trkpt lat="44.6371764" lon="7.7904059"><ele>309.0</ele><time>2026-04-25T06:14:57.281Z</time></trkpt><trkpt lat="44.6371039" lon="7.7903413"><ele>309.0</ele><time>2026-04-25T06:14:58.28Z</time></trkpt><trkpt lat="44.6370337" lon="7.7902774"><ele>309.0</ele><time>2026-04-25T06:14:59.281Z</time></trkpt><trkpt lat="44.6369664" lon="7.7902192"><ele>309.0</ele><time>2026-04-25T06:15:00.28Z</time></trkpt><trkpt lat="44.6369019" lon="7.7901627"><ele>309.0</ele><time>2026-04-25T06:15:01.281Z</time></trkpt><trkpt lat="44.6368457" lon="7.7901128"><ele>309.0</ele><time>2026-04-25T06:15:02.28Z</time></trkpt><trkpt lat="44.6367601" lon="7.7900164"><ele>309.0</ele><time>2026-04-25T06:15:04.278Z</time></trkpt><trkpt lat="44.6366905" lon="7.7899509"><ele>309.0</ele><time>2026-04-25T06:15:05.276Z</time></trkpt><trkpt lat="44.6366191" lon="7.7898786"><ele>309.0</ele><time>2026-04-25T06:15:06.28Z</time></trkpt><trkpt lat="44.6365367" lon="7.7898041"><ele>309.0</ele><time>2026-04-25T06:15:07.28Z</time></trkpt><trkpt lat="44.6364421" lon="7.7897197"><ele>309.0</ele><time>2026-04-25T06:15:08.277Z</time></trkpt><trkpt lat="44.6363385" lon="7.7896282"><ele>309.0</ele><time>2026-04-25T06:15:09.279Z</time></trkpt><trkpt lat="44.6362248" lon="7.7895296"><ele>309.0</ele><time>2026-04-25T06:15:10.278Z</time></trkpt><trkpt lat="44.6361035" lon="7.7894223"><ele>309.0</ele><time>2026-04-25T06:15:11.28Z</time></trkpt><trkpt lat="44.6359823" lon="7.7893154"><ele>309.0</ele><time>2026-04-25T06:15:12.279Z</time></trkpt><trkpt lat="44.6358605" lon="7.7892136"><ele>309.0</ele><time>2026-04-25T06:15:13.277Z</time></trkpt><trkpt lat="44.635736" lon="7.7891071"><ele>309.0</ele><time>2026-04-25T06:15:14.28Z</time></trkpt><trkpt lat="44.6356119" lon="7.7890018"><ele>309.0</ele><time>2026-04-25T06:15:15.279Z</time></trkpt><trkpt lat="44.6354881" lon="7.7888951"><ele>309.0</ele><time>2026-04-25T06:15:16.279Z</time></trkpt><trkpt lat="44.6353697" lon="7.7887951"><ele>309.0</ele><time>2026-04-25T06:15:17.277Z</time></trkpt><trkpt lat="44.6352545" lon="7.7886977"><ele>309.0</ele><time>2026-04-25T06:15:18.278Z</time></trkpt><trkpt lat="44.6351446" lon="7.7885993"><ele>309.0</ele><time>2026-04-25T06:15:19.282Z</time></trkpt><trkpt lat="44.6350351" lon="7.7885029"><ele>309.5</ele><time>2026-04-25T06:15:20.283Z</time></trkpt><trkpt lat="44.6349255" lon="7.7884038"><ele>310.0</ele><time>2026-04-25T06:15:21.28Z</time></trkpt><trkpt lat="44.6348159" lon="7.7883188"><ele>310.5</ele><time>2026-04-25T06:15:22.278Z</time></trkpt><trkpt lat="44.6347137" lon="7.7882274"><ele>311.0</ele><time>2026-04-25T06:15:23.276Z</time></trkpt><trkpt lat="44.6346164" lon="7.7881372"><ele>311.0</ele><time>2026-04-25T06:15:24.28Z</time></trkpt><trkpt lat="44.6345223" lon="7.788049"><ele>311.0</ele><time>2026-04-25T06:15:25.277Z</time></trkpt><trkpt lat="44.6344284" lon="7.7879669"><ele>311.0</ele><time>2026-04-25T06:15:26.28Z</time></trkpt><trkpt lat="44.6343357" lon="7.7878958"><ele>311.0</ele><time>2026-04-25T06:15:27.281Z</time></trkpt><trkpt lat="44.6342535" lon="7.7878199"><ele>311.0</ele><time>2026-04-25T06:15:28.277Z</time></trkpt><trkpt lat="44.6341718" lon="7.7877558"><ele>311.0</ele><time>2026-04-25T06:15:29.281Z</time></trkpt><trkpt lat="44.6340811" lon="7.787689"><ele>311.0</ele><time>2026-04-25T06:15:30.278Z</time></trkpt><trkpt lat="44.6339937" lon="7.7876141"><ele>311.0</ele><time>2026-04-25T06:15:31.28Z</time></trkpt><trkpt lat="44.6339012" lon="7.7875319"><ele>311.0</ele><time>2026-04-25T06:15:32.281Z</time></trkpt><trkpt lat="44.6338025" lon="7.7874421"><ele>311.0</ele><time>2026-04-25T06:15:33.28Z</time></trkpt><trkpt lat="44.6336974" lon="7.7873454"><ele>310.75</ele><time>2026-04-25T06:15:34.281Z</time></trkpt><trkpt lat="44.6335867" lon="7.7872463"><ele>310.5</ele><time>2026-04-25T06:15:35.281Z</time></trkpt><trkpt lat="44.633474" lon="7.7871461"><ele>310.25</ele><time>2026-04-25T06:15:36.28Z</time></trkpt><trkpt lat="44.633358" lon="7.7870389"><ele>310.0</ele><time>2026-04-25T06:15:37.28Z</time></trkpt><trkpt lat="44.6332396" lon="7.7869295"><ele>310.0</ele><time>2026-04-25T06:15:38.277Z</time></trkpt><trkpt lat="44.6331171" lon="7.7868186"><ele>310.0</ele><time>2026-04-25T06:15:39.279Z</time></trkpt><trkpt lat="44.6329913" lon="7.7867031"><ele>310.0</ele><time>2026-04-25T06:15:40.278Z</time></trkpt><trkpt lat="44.6328626" lon="7.7865844"><ele>310.3333333333333</ele><time>2026-04-25T06:15:41.281Z</time></trkpt><trkpt lat="44.6327289" lon="7.7864603"><ele>310.6666666666667</ele><time>2026-04-25T06:15:42.277Z</time></trkpt><trkpt lat="44.6325907" lon="7.7863254"><ele>311.0</ele><time>2026-04-25T06:15:43.278Z</time></trkpt><trkpt lat="44.632447" lon="7.7861864"><ele>311.0</ele><time>2026-04-25T06:15:44.278Z</time></trkpt><trkpt lat="44.632299" lon="7.7860457"><ele>311.0</ele><time>2026-04-25T06:15:45.28Z</time></trkpt><trkpt lat="44.6321634" lon="7.7859249"><ele>311.0</ele><time>2026-04-25T06:15:46.278Z</time></trkpt><trkpt lat="44.632039" lon="7.7858227"><ele>312.0</ele><time>2026-04-25T06:15:47.28Z</time></trkpt><trkpt lat="44.6319049" lon="7.7857048"><ele>313.0</ele><time>2026-04-25T06:15:48.277Z</time></trkpt><trkpt lat="44.6317704" lon="7.78559"><ele>314.0</ele><time>2026-04-25T06:15:49.28Z</time></trkpt><trkpt lat="44.631641" lon="7.785468"><ele>314.0</ele><time>2026-04-25T06:15:50.281Z</time></trkpt><trkpt lat="44.6315126" lon="7.7853462"><ele>314.0</ele><time>2026-04-25T06:15:51.279Z</time></trkpt><trkpt lat="44.6313826" lon="7.78523"><ele>314.0</ele><time>2026-04-25T06:15:52.278Z</time></trkpt><trkpt lat="44.6312544" lon="7.7851145"><ele>313.6666666666667</ele><time>2026-04-25T06:15:53.277Z</time></trkpt><trkpt lat="44.6311258" lon="7.784998"><ele>313.3333333333333</ele><time>2026-04-25T06:15:54.279Z</time></trkpt><trkpt lat="44.6309953" lon="7.7848768"><ele>313.0</ele><time>2026-04-25T06:15:55.277Z</time></trkpt><trkpt lat="44.6308694" lon="7.7847665"><ele>313.0</ele><time>2026-04-25T06:15:56.28Z</time></trkpt><trkpt lat="44.6307451" lon="7.7846601"><ele>313.0</ele><time>2026-04-25T06:15:57.28Z</time></trkpt><trkpt lat="44.6306288" lon="7.7845607"><ele>313.0</ele><time>2026-04-25T06:15:58.281Z</time></trkpt><trkpt lat="44.6305171" lon="7.7844636"><ele>313.0</ele><time>2026-04-25T06:15:59.275Z</time></trkpt><trkpt lat="44.6304105" lon="7.7843664"><ele>313.0</ele><time>2026-04-25T06:16:00.275Z</time></trkpt><trkpt lat="44.6303043" lon="7.7842712"><ele>313.0</ele><time>2026-04-25T06:16:01.281Z</time></trkpt><trkpt lat="44.6301937" lon="7.7841642"><ele>313.0</ele><time>2026-04-25T06:16:02.278Z</time></trkpt><trkpt lat="44.6300831" lon="7.7840604"><ele>313.0</ele><time>2026-04-25T06:16:03.281Z</time></trkpt><trkpt lat="44.6299714" lon="7.7839572"><ele>313.0</ele><time>2026-04-25T06:16:04.277Z</time></trkpt><trkpt lat="44.6298592" lon="7.7838628"><ele>313.0</ele><time>2026-04-25T06:16:05.277Z</time></trkpt><trkpt lat="44.6297369" lon="7.7837582"><ele>313.0</ele><time>2026-04-25T06:16:06.28Z</time></trkpt><trkpt lat="44.6296164" lon="7.7836531"><ele>313.0</ele><time>2026-04-25T06:16:07.277Z</time></trkpt><trkpt lat="44.629497" lon="7.7835486"><ele>312.75</ele><time>2026-04-25T06:16:08.28Z</time></trkpt><trkpt lat="44.6293715" lon="7.7834367"><ele>312.5</ele><time>2026-04-25T06:16:09.28Z</time></trkpt><trkpt lat="44.6292494" lon="7.783333"><ele>312.25</ele><time>2026-04-25T06:16:10.281Z</time></trkpt><trkpt lat="44.6291207" lon="7.7832197"><ele>312.0</ele><time>2026-04-25T06:16:11.281Z</time></trkpt><trkpt lat="44.6289928" lon="7.7831206"><ele>312.0</ele><time>2026-04-25T06:16:12.281Z</time></trkpt><trkpt lat="44.6288602" lon="7.7830371"><ele>312.0</ele><time>2026-04-25T06:16:13.277Z</time></trkpt><trkpt lat="44.6287195" lon="7.7829556"><ele>312.0</ele><time>2026-04-25T06:16:14.278Z</time></trkpt><trkpt lat="44.628565" lon="7.7828816"><ele>312.0</ele><time>2026-04-25T06:16:15.277Z</time></trkpt><trkpt lat="44.628406" lon="7.7828363"><ele>312.0</ele><time>2026-04-25T06:16:16.28Z</time></trkpt><trkpt lat="44.6282427" lon="7.7828173"><ele>312.0</ele><time>2026-04-25T06:16:17.275Z</time></trkpt><trkpt lat="44.6280805" lon="7.7828264"><ele>312.0</ele><time>2026-04-25T06:16:18.278Z</time></trkpt><trkpt lat="44.6279179" lon="7.7828604"><ele>312.0</ele><time>2026-04-25T06:16:19.279Z</time></trkpt><trkpt lat="44.6277525" lon="7.7829052"><ele>312.0</ele><time>2026-04-25T06:16:20.279Z</time></trkpt><trkpt lat="44.6275873" lon="7.7829575"><ele>312.0</ele><time>2026-04-25T06:16:21.278Z</time></trkpt><trkpt lat="44.6274231" lon="7.7830142"><ele>312.0</ele><time>2026-04-25T06:16:22.277Z</time></trkpt><trkpt lat="44.6272633" lon="7.783079"><ele>312.0</ele><time>2026-04-25T06:16:23.28Z</time></trkpt><trkpt lat="44.6271043" lon="7.783143"><ele>312.0</ele><time>2026-04-25T06:16:24.279Z</time></trkpt><trkpt lat="44.6269451" lon="7.7832088"><ele>312.0</ele><time>2026-04-25T06:16:25.279Z</time></trkpt><trkpt lat="44.6267869" lon="7.7832749"><ele>312.0</ele><time>2026-04-25T06:16:26.276Z</time></trkpt><trkpt lat="44.6266277" lon="7.7833344"><ele>312.0</ele><time>2026-04-25T06:16:27.279Z</time></trkpt><trkpt lat="44.6264664" lon="7.7833816"><ele>312.0</ele><time>2026-04-25T06:16:28.28Z</time></trkpt><trkpt lat="44.6263052" lon="7.7834145"><ele>312.0</ele><time>2026-04-25T06:16:29.279Z</time></trkpt><trkpt lat="44.6261438" lon="7.7834311"><ele>312.0</ele><time>2026-04-25T06:16:30.279Z</time></trkpt><trkpt lat="44.6259803" lon="7.7834334"><ele>312.0</ele><time>2026-04-25T06:16:31.278Z</time></trkpt><trkpt lat="44.6258184" lon="7.7834222"><ele>312.0</ele><time>2026-04-25T06:16:32.279Z</time></trkpt><trkpt lat="44.6256576" lon="7.7833944"><ele>312.0</ele><time>2026-04-25T06:16:33.282Z</time></trkpt><trkpt lat="44.6254989" lon="7.7833437"><ele>312.0</ele><time>2026-04-25T06:16:34.28Z</time></trkpt><trkpt lat="44.6253428" lon="7.7832711"><ele>312.0</ele><time>2026-04-25T06:16:35.279Z</time></trkpt><trkpt lat="44.6251885" lon="7.7831824"><ele>312.0</ele><time>2026-04-25T06:16:36.28Z</time></trkpt><trkpt lat="44.6250378" lon="7.7830778"><ele>312.0</ele><time>2026-04-25T06:16:37.28Z</time></trkpt><trkpt lat="44.6248929" lon="7.7829688"><ele>312.0</ele><time>2026-04-25T06:16:38.28Z</time></trkpt><trkpt lat="44.6247469" lon="7.7828552"><ele>312.0</ele><time>2026-04-25T06:16:39.281Z</time></trkpt><trkpt lat="44.6245979" lon="7.7827282"><ele>312.0</ele><time>2026-04-25T06:16:40.28Z</time></trkpt><trkpt lat="44.6244512" lon="7.7826113"><ele>312.0</ele><time>2026-04-25T06:16:41.281Z</time></trkpt><trkpt lat="44.624298" lon="7.7824865"><ele>311.6666666666667</ele><time>2026-04-25T06:16:42.278Z</time></trkpt><trkpt lat="44.6241477" lon="7.7823653"><ele>311.33333333333337</ele><time>2026-04-25T06:16:43.283Z</time></trkpt><trkpt lat="44.6239955" lon="7.7822396"><ele>311.0</ele><time>2026-04-25T06:16:44.28Z</time></trkpt><trkpt lat="44.6238425" lon="7.7821127"><ele>311.0</ele><time>2026-04-25T06:16:45.28Z</time></trkpt><trkpt lat="44.6236886" lon="7.7819865"><ele>311.0</ele><time>2026-04-25T06:16:46.28Z</time></trkpt><trkpt lat="44.623532" lon="7.7818621"><ele>311.0</ele><time>2026-04-25T06:16:47.277Z</time></trkpt><trkpt lat="44.6233746" lon="7.7817382"><ele>311.0</ele><time>2026-04-25T06:16:48.279Z</time></trkpt><trkpt lat="44.6232149" lon="7.7816122"><ele>311.0</ele><time>2026-04-25T06:16:49.281Z</time></trkpt><trkpt lat="44.6230559" lon="7.7814876"><ele>311.0</ele><time>2026-04-25T06:16:50.277Z</time></trkpt><trkpt lat="44.6228973" lon="7.7813588"><ele>312.0</ele><time>2026-04-25T06:16:51.28Z</time></trkpt><trkpt lat="44.6227358" lon="7.7812269"><ele>313.0</ele><time>2026-04-25T06:16:52.277Z</time></trkpt><trkpt lat="44.6225732" lon="7.7810946"><ele>314.0</ele><time>2026-04-25T06:16:53.279Z</time></trkpt><trkpt lat="44.6224106" lon="7.7809643"><ele>314.0</ele><time>2026-04-25T06:16:54.278Z</time></trkpt><trkpt lat="44.6222451" lon="7.7808335"><ele>314.0</ele><time>2026-04-25T06:16:55.277Z</time></trkpt><trkpt lat="44.6220777" lon="7.7806998"><ele>314.0</ele><time>2026-04-25T06:16:56.28Z</time></trkpt><trkpt lat="44.621906" lon="7.7805641"><ele>314.0</ele><time>2026-04-25T06:16:57.28Z</time></trkpt><trkpt lat="44.6217303" lon="7.7804245"><ele>314.0</ele><time>2026-04-25T06:16:58.276Z</time></trkpt><trkpt lat="44.6215528" lon="7.7802853"><ele>314.0</ele><time>2026-04-25T06:16:59.277Z</time></trkpt><trkpt lat="44.6213724" lon="7.7801416"><ele>314.0</ele><time>2026-04-25T06:17:00.279Z</time></trkpt><trkpt lat="44.6211876" lon="7.7799979"><ele>314.0</ele><time>2026-04-25T06:17:01.277Z</time></trkpt><trkpt lat="44.6209982" lon="7.7798505"><ele>314.0</ele><time>2026-04-25T06:17:02.277Z</time></trkpt><trkpt lat="44.6208066" lon="7.7797025"><ele>314.0</ele><time>2026-04-25T06:17:03.277Z</time></trkpt><trkpt lat="44.6206146" lon="7.7795544"><ele>314.0</ele><time>2026-04-25T06:17:04.28Z</time></trkpt><trkpt lat="44.6204205" lon="7.7794031"><ele>314.0</ele><time>2026-04-25T06:17:05.275Z</time></trkpt><trkpt lat="44.6202256" lon="7.7792519"><ele>313.6666666666667</ele><time>2026-04-25T06:17:06.276Z</time></trkpt><trkpt lat="44.6200323" lon="7.779108"><ele>313.3333333333333</ele><time>2026-04-25T06:17:07.278Z</time></trkpt><trkpt lat="44.6198383" lon="7.7789622"><ele>313.0</ele><time>2026-04-25T06:17:08.277Z</time></trkpt><trkpt lat="44.6196415" lon="7.7788055"><ele>314.0</ele><time>2026-04-25T06:17:09.279Z</time></trkpt><trkpt lat="44.619446" lon="7.7786506"><ele>315.0</ele><time>2026-04-25T06:17:10.275Z</time></trkpt><trkpt lat="44.6192511" lon="7.7784905"><ele>315.6666666666667</ele><time>2026-04-25T06:17:11.278Z</time></trkpt><trkpt lat="44.6190574" lon="7.778332"><ele>316.33333333333337</ele><time>2026-04-25T06:17:12.281Z</time></trkpt><trkpt lat="44.6188646" lon="7.7781737"><ele>317.0</ele><time>2026-04-25T06:17:13.278Z</time></trkpt><trkpt lat="44.6186721" lon="7.7780152"><ele>316.6666666666667</ele><time>2026-04-25T06:17:14.277Z</time></trkpt><trkpt lat="44.6184823" lon="7.7778624"><ele>316.3333333333333</ele><time>2026-04-25T06:17:15.281Z</time></trkpt><trkpt lat="44.6182921" lon="7.7777112"><ele>316.0</ele><time>2026-04-25T06:17:16.277Z</time></trkpt><trkpt lat="44.6180983" lon="7.7775517"><ele>316.0</ele><time>2026-04-25T06:17:17.281Z</time></trkpt><trkpt lat="44.6179077" lon="7.7774002"><ele>316.0</ele><time>2026-04-25T06:17:18.282Z</time></trkpt><trkpt lat="44.6177159" lon="7.7772487"><ele>316.0</ele><time>2026-04-25T06:17:19.277Z</time></trkpt><trkpt lat="44.617522" lon="7.7770936"><ele>315.66666666666663</ele><time>2026-04-25T06:17:20.28Z</time></trkpt><trkpt lat="44.6173308" lon="7.7769437"><ele>315.3333333333333</ele><time>2026-04-25T06:17:21.28Z</time></trkpt><trkpt lat="44.617135" lon="7.7767791"><ele>315.0</ele><time>2026-04-25T06:17:22.279Z</time></trkpt><trkpt lat="44.6169453" lon="7.7766222"><ele>315.6666666666667</ele><time>2026-04-25T06:17:23.276Z</time></trkpt><trkpt lat="44.6167575" lon="7.7764576"><ele>316.33333333333337</ele><time>2026-04-25T06:17:24.282Z</time></trkpt><trkpt lat="44.6165722" lon="7.7762888"><ele>317.0</ele><time>2026-04-25T06:17:25.281Z</time></trkpt><trkpt lat="44.616385" lon="7.7761054"><ele>317.0</ele><time>2026-04-25T06:17:26.28Z</time></trkpt><trkpt lat="44.6161993" lon="7.775923"><ele>317.0</ele><time>2026-04-25T06:17:27.281Z</time></trkpt><trkpt lat="44.6160147" lon="7.7757454"><ele>317.0</ele><time>2026-04-25T06:17:28.281Z</time></trkpt><trkpt lat="44.6158309" lon="7.7755713"><ele>317.0</ele><time>2026-04-25T06:17:29.277Z</time></trkpt><trkpt lat="44.6156462" lon="7.7753973"><ele>317.0</ele><time>2026-04-25T06:17:30.28Z</time></trkpt><trkpt lat="44.615461" lon="7.775225"><ele>318.5</ele><time>2026-04-25T06:17:31.276Z</time></trkpt><trkpt lat="44.6152726" lon="7.7750564"><ele>320.0</ele><time>2026-04-25T06:17:32.28Z</time></trkpt><trkpt lat="44.6150786" lon="7.7748844"><ele>320.0</ele><time>2026-04-25T06:17:33.281Z</time></trkpt><trkpt lat="44.6148822" lon="7.7747303"><ele>320.0</ele><time>2026-04-25T06:17:34.278Z</time></trkpt><trkpt lat="44.6146875" lon="7.7745813"><ele>320.0</ele><time>2026-04-25T06:17:35.28Z</time></trkpt><trkpt lat="44.6144925" lon="7.7744319"><ele>319.33333333333337</ele><time>2026-04-25T06:17:36.28Z</time></trkpt><trkpt lat="44.6142974" lon="7.7742811"><ele>318.6666666666667</ele><time>2026-04-25T06:17:37.279Z</time></trkpt><trkpt lat="44.6141025" lon="7.7741327"><ele>318.0</ele><time>2026-04-25T06:17:38.277Z</time></trkpt><trkpt lat="44.6139063" lon="7.773984"><ele>318.0</ele><time>2026-04-25T06:17:39.28Z</time></trkpt><trkpt lat="44.6137128" lon="7.773836"><ele>318.0</ele><time>2026-04-25T06:17:40.281Z</time></trkpt><trkpt lat="44.6135209" lon="7.7736864"><ele>318.0</ele><time>2026-04-25T06:17:41.281Z</time></trkpt><trkpt lat="44.6133313" lon="7.7735386"><ele>318.0</ele><time>2026-04-25T06:17:42.279Z</time></trkpt><trkpt lat="44.6131415" lon="7.7733871"><ele>318.0</ele><time>2026-04-25T06:17:43.278Z</time></trkpt><trkpt lat="44.6129522" lon="7.7732314"><ele>318.0</ele><time>2026-04-25T06:17:44.278Z</time></trkpt><trkpt lat="44.6127638" lon="7.773071"><ele>318.3333333333333</ele><time>2026-04-25T06:17:45.278Z</time></trkpt><trkpt lat="44.612579" lon="7.7729122"><ele>318.66666666666663</ele><time>2026-04-25T06:17:46.28Z</time></trkpt><trkpt lat="44.6123954" lon="7.7727502"><ele>319.0</ele><time>2026-04-25T06:17:47.276Z</time></trkpt><trkpt lat="44.6122118" lon="7.7725861"><ele>319.0</ele><time>2026-04-25T06:17:48.278Z</time></trkpt><trkpt lat="44.6120279" lon="7.7724063"><ele>319.0</ele><time>2026-04-25T06:17:49.277Z</time></trkpt><trkpt lat="44.6118412" lon="7.7722358"><ele>319.0</ele><time>2026-04-25T06:17:50.277Z</time></trkpt><trkpt lat="44.6116558" lon="7.7720621"><ele>319.0</ele><time>2026-04-25T06:17:51.278Z</time></trkpt><trkpt lat="44.6114726" lon="7.7718899"><ele>319.0</ele><time>2026-04-25T06:17:52.277Z</time></trkpt><trkpt lat="44.6112855" lon="7.7717167"><ele>319.0</ele><time>2026-04-25T06:17:53.276Z</time></trkpt><trkpt lat="44.6111009" lon="7.7715451"><ele>319.66666666666663</ele><time>2026-04-25T06:17:54.28Z</time></trkpt><trkpt lat="44.6109191" lon="7.7713866"><ele>320.3333333333333</ele><time>2026-04-25T06:17:55.281Z</time></trkpt><trkpt lat="44.6107351" lon="7.7712235"><ele>321.0</ele><time>2026-04-25T06:17:56.276Z</time></trkpt><trkpt lat="44.6105508" lon="7.7710574"><ele>321.0</ele><time>2026-04-25T06:17:57.28Z</time></trkpt><trkpt lat="44.6103657" lon="7.7708872"><ele>321.0</ele><time>2026-04-25T06:17:58.28Z</time></trkpt><trkpt lat="44.6101806" lon="7.7707188"><ele>321.0</ele><time>2026-04-25T06:17:59.278Z</time></trkpt><trkpt lat="44.6099965" lon="7.7705531"><ele>321.3333333333333</ele><time>2026-04-25T06:18:00.28Z</time></trkpt><trkpt lat="44.6098168" lon="7.770387"><ele>321.66666666666663</ele><time>2026-04-25T06:18:01.279Z</time></trkpt><trkpt lat="44.6096468" lon="7.7702323"><ele>322.0</ele><time>2026-04-25T06:18:02.278Z</time></trkpt><trkpt lat="44.6094801" lon="7.7700813"><ele>322.0</ele><time>2026-04-25T06:18:03.28Z</time></trkpt><trkpt lat="44.6093167" lon="7.7699304"><ele>322.0</ele><time>2026-04-25T06:18:04.28Z</time></trkpt><trkpt lat="44.6091527" lon="7.7697756"><ele>322.0</ele><time>2026-04-25T06:18:05.279Z</time></trkpt><trkpt lat="44.6089879" lon="7.7696241"><ele>322.0</ele><time>2026-04-25T06:18:06.28Z</time></trkpt><trkpt lat="44.6088246" lon="7.7694809"><ele>322.0</ele><time>2026-04-25T06:18:07.279Z</time></trkpt><trkpt lat="44.6086591" lon="7.7693376"><ele>322.0</ele><time>2026-04-25T06:18:08.278Z</time></trkpt><trkpt lat="44.608495" lon="7.7691919"><ele>322.0</ele><time>2026-04-25T06:18:09.28Z</time></trkpt><trkpt lat="44.6083337" lon="7.7690488"><ele>322.0</ele><time>2026-04-25T06:18:10.277Z</time></trkpt><trkpt lat="44.6081737" lon="7.7689068"><ele>322.0</ele><time>2026-04-25T06:18:11.277Z</time></trkpt><trkpt lat="44.6080129" lon="7.7687645"><ele>322.0</ele><time>2026-04-25T06:18:12.281Z</time></trkpt><trkpt lat="44.6078518" lon="7.7686214"><ele>322.0</ele><time>2026-04-25T06:18:13.28Z</time></trkpt><trkpt lat="44.6076906" lon="7.7684775"><ele>322.0</ele><time>2026-04-25T06:18:14.281Z</time></trkpt><trkpt lat="44.607527" lon="7.7683278"><ele>322.66666666666663</ele><time>2026-04-25T06:18:15.279Z</time></trkpt><trkpt lat="44.607367" lon="7.7681828"><ele>323.3333333333333</ele><time>2026-04-25T06:18:16.279Z</time></trkpt><trkpt lat="44.6072113" lon="7.7680422"><ele>324.0</ele><time>2026-04-25T06:18:17.278Z</time></trkpt><trkpt lat="44.6070585" lon="7.7679046"><ele>324.0</ele><time>2026-04-25T06:18:18.28Z</time></trkpt><trkpt lat="44.6069044" lon="7.767768"><ele>324.0</ele><time>2026-04-25T06:18:19.277Z</time></trkpt><trkpt lat="44.6067539" lon="7.7676288"><ele>324.0</ele><time>2026-04-25T06:18:20.279Z</time></trkpt><trkpt lat="44.6066038" lon="7.7674931"><ele>324.0</ele><time>2026-04-25T06:18:21.278Z</time></trkpt><trkpt lat="44.6064487" lon="7.7673303"><ele>324.0</ele><time>2026-04-25T06:18:22.28Z</time></trkpt><trkpt lat="44.6063192" lon="7.7672139"><ele>324.0</ele><time>2026-04-25T06:18:23.277Z</time></trkpt><trkpt lat="44.6061974" lon="7.7670772"><ele>324.0</ele><time>2026-04-25T06:18:24.281Z</time></trkpt><trkpt lat="44.6060916" lon="7.7669792"><ele>324.0</ele><time>2026-04-25T06:18:25.28Z</time></trkpt><trkpt lat="44.6059961" lon="7.7668792"><ele>324.0</ele><time>2026-04-25T06:18:26.278Z</time></trkpt><trkpt lat="44.6059016" lon="7.7667888"><ele>324.0</ele><time>2026-04-25T06:18:27.283Z</time></trkpt><trkpt lat="44.6058013" lon="7.7666943"><ele>324.25</ele><time>2026-04-25T06:18:28.28Z</time></trkpt><trkpt lat="44.6056857" lon="7.7665642"><ele>324.5</ele><time>2026-04-25T06:18:29.277Z</time></trkpt><trkpt lat="44.6055671" lon="7.7664318"><ele>324.75</ele><time>2026-04-25T06:18:30.281Z</time></trkpt><trkpt lat="44.6054539" lon="7.7663066"><ele>325.0</ele><time>2026-04-25T06:18:31.28Z</time></trkpt><trkpt lat="44.605337" lon="7.7661848"><ele>325.0</ele><time>2026-04-25T06:18:32.278Z</time></trkpt><trkpt lat="44.6052182" lon="7.7660685"><ele>325.0</ele><time>2026-04-25T06:18:33.281Z</time></trkpt><trkpt lat="44.6050994" lon="7.7659521"><ele>325.0</ele><time>2026-04-25T06:18:34.276Z</time></trkpt><trkpt lat="44.6049747" lon="7.7658225"><ele>325.0</ele><time>2026-04-25T06:18:35.275Z</time></trkpt><trkpt lat="44.6048466" lon="7.7656872"><ele>325.0</ele><time>2026-04-25T06:18:36.279Z</time></trkpt><trkpt lat="44.6047187" lon="7.7655547"><ele>325.0</ele><time>2026-04-25T06:18:37.281Z</time></trkpt><trkpt lat="44.6045952" lon="7.765429"><ele>325.0</ele><time>2026-04-25T06:18:38.28Z</time></trkpt><trkpt lat="44.6044713" lon="7.7653002"><ele>325.3333333333333</ele><time>2026-04-25T06:18:39.281Z</time></trkpt><trkpt lat="44.6043492" lon="7.7651633"><ele>325.6666666666667</ele><time>2026-04-25T06:18:40.277Z</time></trkpt><trkpt lat="44.6042297" lon="7.7650257"><ele>326.0</ele><time>2026-04-25T06:18:41.277Z</time></trkpt><trkpt lat="44.6041082" lon="7.764893"><ele>326.0</ele><time>2026-04-25T06:18:42.278Z</time></trkpt><trkpt lat="44.6039831" lon="7.7647627"><ele>326.0</ele><time>2026-04-25T06:18:43.277Z</time></trkpt><trkpt lat="44.6038559" lon="7.764631"><ele>326.0</ele><time>2026-04-25T06:18:44.281Z</time></trkpt><trkpt lat="44.6037315" lon="7.7645057"><ele>325.6666666666667</ele><time>2026-04-25T06:18:45.279Z</time></trkpt><trkpt lat="44.6036059" lon="7.7643835"><ele>325.3333333333333</ele><time>2026-04-25T06:18:46.277Z</time></trkpt><trkpt lat="44.6034788" lon="7.7642616"><ele>325.0</ele><time>2026-04-25T06:18:47.277Z</time></trkpt><trkpt lat="44.6033503" lon="7.7641438"><ele>325.0</ele><time>2026-04-25T06:18:48.28Z</time></trkpt><trkpt lat="44.6032179" lon="7.7640319"><ele>325.0</ele><time>2026-04-25T06:18:49.28Z</time></trkpt><trkpt lat="44.6030804" lon="7.7639152"><ele>325.0</ele><time>2026-04-25T06:18:50.283Z</time></trkpt><trkpt lat="44.6029448" lon="7.763806"><ele>324.66666666666663</ele><time>2026-04-25T06:18:51.28Z</time></trkpt><trkpt lat="44.6028065" lon="7.7636936"><ele>324.3333333333333</ele><time>2026-04-25T06:18:52.277Z</time></trkpt><trkpt lat="44.6026647" lon="7.7635832"><ele>324.0</ele><time>2026-04-25T06:18:53.278Z</time></trkpt><trkpt lat="44.6025213" lon="7.7634771"><ele>324.6666666666667</ele><time>2026-04-25T06:18:54.276Z</time></trkpt><trkpt lat="44.6023771" lon="7.7633728"><ele>325.33333333333337</ele><time>2026-04-25T06:18:55.281Z</time></trkpt><trkpt lat="44.6022351" lon="7.7632699"><ele>326.0</ele><time>2026-04-25T06:18:56.277Z</time></trkpt><trkpt lat="44.6020921" lon="7.7631585"><ele>325.6666666666667</ele><time>2026-04-25T06:18:57.278Z</time></trkpt><trkpt lat="44.6019491" lon="7.76305"><ele>325.3333333333333</ele><time>2026-04-25T06:18:58.279Z</time></trkpt><trkpt lat="44.6018092" lon="7.7629587"><ele>325.0</ele><time>2026-04-25T06:18:59.276Z</time></trkpt><trkpt lat="44.6016682" lon="7.762863"><ele>325.0</ele><time>2026-04-25T06:19:00.28Z</time></trkpt><trkpt lat="44.6015249" lon="7.7627663"><ele>325.0</ele><time>2026-04-25T06:19:01.277Z</time></trkpt><trkpt lat="44.6013772" lon="7.7626678"><ele>325.0</ele><time>2026-04-25T06:19:02.279Z</time></trkpt><trkpt lat="44.6012277" lon="7.7625696"><ele>325.3333333333333</ele><time>2026-04-25T06:19:03.28Z</time></trkpt><trkpt lat="44.601075" lon="7.76247"><ele>325.6666666666667</ele><time>2026-04-25T06:19:04.28Z</time></trkpt><trkpt lat="44.6009181" lon="7.7623645"><ele>326.0</ele><time>2026-04-25T06:19:05.279Z</time></trkpt><trkpt lat="44.6007611" lon="7.7622631"><ele>326.0</ele><time>2026-04-25T06:19:06.277Z</time></trkpt><trkpt lat="44.6005943" lon="7.7621451"><ele>326.0</ele><time>2026-04-25T06:19:07.28Z</time></trkpt><trkpt lat="44.6004284" lon="7.7620298"><ele>326.0</ele><time>2026-04-25T06:19:08.28Z</time></trkpt><trkpt lat="44.6002698" lon="7.7619256"><ele>326.33333333333337</ele><time>2026-04-25T06:19:09.28Z</time></trkpt><trkpt lat="44.6001095" lon="7.7618138"><ele>326.6666666666667</ele><time>2026-04-25T06:19:10.28Z</time></trkpt><trkpt lat="44.5999494" lon="7.7617018"><ele>327.0</ele><time>2026-04-25T06:19:11.276Z</time></trkpt><trkpt lat="44.5997952" lon="7.761595"><ele>327.0</ele><time>2026-04-25T06:19:12.277Z</time></trkpt><trkpt lat="44.5996417" lon="7.7614899"><ele>327.0</ele><time>2026-04-25T06:19:13.278Z</time></trkpt><trkpt lat="44.599489" lon="7.7613889"><ele>327.0</ele><time>2026-04-25T06:19:14.277Z</time></trkpt><trkpt lat="44.5993377" lon="7.7612918"><ele>327.6666666666667</ele><time>2026-04-25T06:19:15.276Z</time></trkpt><trkpt lat="44.599186" lon="7.7611911"><ele>328.33333333333337</ele><time>2026-04-25T06:19:16.279Z</time></trkpt><trkpt lat="44.5990359" lon="7.7610899"><ele>329.0</ele><time>2026-04-25T06:19:17.28Z</time></trkpt><trkpt lat="44.5988854" lon="7.7609876"><ele>329.0</ele><time>2026-04-25T06:19:18.278Z</time></trkpt><trkpt lat="44.5987372" lon="7.7608872"><ele>329.0</ele><time>2026-04-25T06:19:19.279Z</time></trkpt><trkpt lat="44.5985889" lon="7.7607859"><ele>329.0</ele><time>2026-04-25T06:19:20.279Z</time></trkpt><trkpt lat="44.5984402" lon="7.7606831"><ele>329.33333333333337</ele><time>2026-04-25T06:19:21.28Z</time></trkpt><trkpt lat="44.5982905" lon="7.7605836"><ele>329.6666666666667</ele><time>2026-04-25T06:19:22.281Z</time></trkpt><trkpt lat="44.5981394" lon="7.760482"><ele>330.0</ele><time>2026-04-25T06:19:23.277Z</time></trkpt><trkpt lat="44.5979879" lon="7.76038"><ele>330.0</ele><time>2026-04-25T06:19:24.28Z</time></trkpt><trkpt lat="44.5978374" lon="7.7602776"><ele>330.0</ele><time>2026-04-25T06:19:25.28Z</time></trkpt><trkpt lat="44.5976907" lon="7.760176"><ele>330.0</ele><time>2026-04-25T06:19:26.28Z</time></trkpt><trkpt lat="44.5975472" lon="7.7600745"><ele>329.75</ele><time>2026-04-25T06:19:27.278Z</time></trkpt><trkpt lat="44.5974092" lon="7.7599768"><ele>329.5</ele><time>2026-04-25T06:19:28.278Z</time></trkpt><trkpt lat="44.5972787" lon="7.7598863"><ele>329.25</ele><time>2026-04-25T06:19:29.278Z</time></trkpt><trkpt lat="44.5971496" lon="7.7597942"><ele>329.0</ele><time>2026-04-25T06:19:30.275Z</time></trkpt><trkpt lat="44.5970243" lon="7.7597042"><ele>328.25</ele><time>2026-04-25T06:19:31.28Z</time></trkpt><trkpt lat="44.5968985" lon="7.7596114"><ele>327.5</ele><time>2026-04-25T06:19:32.277Z</time></trkpt><trkpt lat="44.5967728" lon="7.7595193"><ele>326.75</ele><time>2026-04-25T06:19:33.279Z</time></trkpt><trkpt lat="44.5966476" lon="7.7594312"><ele>326.0</ele><time>2026-04-25T06:19:34.28Z</time></trkpt><trkpt lat="44.5965228" lon="7.7593421"><ele>326.0</ele><time>2026-04-25T06:19:35.279Z</time></trkpt><trkpt lat="44.5963984" lon="7.7592488"><ele>326.0</ele><time>2026-04-25T06:19:36.279Z</time></trkpt><trkpt lat="44.5962748" lon="7.7591553"><ele>326.0</ele><time>2026-04-25T06:19:37.278Z</time></trkpt><trkpt lat="44.5961514" lon="7.7590628"><ele>326.0</ele><time>2026-04-25T06:19:38.279Z</time></trkpt><trkpt lat="44.5960288" lon="7.75897"><ele>326.0</ele><time>2026-04-25T06:19:39.278Z</time></trkpt><trkpt lat="44.5959077" lon="7.7588766"><ele>326.0</ele><time>2026-04-25T06:19:40.28Z</time></trkpt><trkpt lat="44.5957846" lon="7.7587829"><ele>326.0</ele><time>2026-04-25T06:19:41.275Z</time></trkpt><trkpt lat="44.5956616" lon="7.7586892"><ele>326.0</ele><time>2026-04-25T06:19:42.277Z</time></trkpt><trkpt lat="44.5955379" lon="7.758595"><ele>326.25</ele><time>2026-04-25T06:19:43.278Z</time></trkpt><trkpt lat="44.5954133" lon="7.758503"><ele>326.5</ele><time>2026-04-25T06:19:44.276Z</time></trkpt><trkpt lat="44.5952896" lon="7.7584083"><ele>326.75</ele><time>2026-04-25T06:19:45.279Z</time></trkpt><trkpt lat="44.5951625" lon="7.758306"><ele>327.0</ele><time>2026-04-25T06:19:46.279Z</time></trkpt><trkpt lat="44.5950394" lon="7.758208"><ele>327.0</ele><time>2026-04-25T06:19:47.279Z</time></trkpt><trkpt lat="44.594914" lon="7.7581143"><ele>327.0</ele><time>2026-04-25T06:19:48.279Z</time></trkpt><trkpt lat="44.594787" lon="7.7580138"><ele>327.0</ele><time>2026-04-25T06:19:49.279Z</time></trkpt><trkpt lat="44.5946642" lon="7.7579187"><ele>327.0</ele><time>2026-04-25T06:19:50.279Z</time></trkpt><trkpt lat="44.5945405" lon="7.7578261"><ele>327.0</ele><time>2026-04-25T06:19:51.279Z</time></trkpt><trkpt lat="44.5944156" lon="7.7577244"><ele>327.0</ele><time>2026-04-25T06:19:52.276Z</time></trkpt><trkpt lat="44.5942901" lon="7.7576266"><ele>327.0</ele><time>2026-04-25T06:19:53.277Z</time></trkpt><trkpt lat="44.5941642" lon="7.7575291"><ele>327.0</ele><time>2026-04-25T06:19:54.28Z</time></trkpt><trkpt lat="44.5940367" lon="7.7574326"><ele>327.0</ele><time>2026-04-25T06:19:55.277Z</time></trkpt><trkpt lat="44.5939076" lon="7.7573264"><ele>327.0</ele><time>2026-04-25T06:19:56.28Z</time></trkpt><trkpt lat="44.5937802" lon="7.7572242"><ele>327.0</ele><time>2026-04-25T06:19:57.281Z</time></trkpt><trkpt lat="44.5936522" lon="7.7571173"><ele>327.0</ele><time>2026-04-25T06:19:58.279Z</time></trkpt><trkpt lat="44.5935218" lon="7.7570068"><ele>327.25</ele><time>2026-04-25T06:19:59.277Z</time></trkpt><trkpt lat="44.5933955" lon="7.7569087"><ele>327.5</ele><time>2026-04-25T06:20:00.279Z</time></trkpt><trkpt lat="44.5932689" lon="7.7568126"><ele>327.75</ele><time>2026-04-25T06:20:01.28Z</time></trkpt><trkpt lat="44.5931466" lon="7.7567266"><ele>328.0</ele><time>2026-04-25T06:20:02.279Z</time></trkpt><trkpt lat="44.5930165" lon="7.7566385"><ele>328.0</ele><time>2026-04-25T06:20:03.28Z</time></trkpt><trkpt lat="44.5928845" lon="7.7565534"><ele>328.0</ele><time>2026-04-25T06:20:04.279Z</time></trkpt><trkpt lat="44.592752" lon="7.7564726"><ele>328.0</ele><time>2026-04-25T06:20:05.278Z</time></trkpt><trkpt lat="44.592616" lon="7.756397"><ele>328.0</ele><time>2026-04-25T06:20:06.276Z</time></trkpt><trkpt lat="44.5924851" lon="7.7563258"><ele>327.66666666666663</ele><time>2026-04-25T06:20:07.279Z</time></trkpt><trkpt lat="44.5923537" lon="7.7562557"><ele>327.3333333333333</ele><time>2026-04-25T06:20:08.279Z</time></trkpt><trkpt lat="44.5922119" lon="7.7561827"><ele>327.0</ele><time>2026-04-25T06:20:09.279Z</time></trkpt><trkpt lat="44.5920597" lon="7.7561081"><ele>328.6666666666667</ele><time>2026-04-25T06:20:10.276Z</time></trkpt><trkpt lat="44.5918977" lon="7.7560337"><ele>330.33333333333337</ele><time>2026-04-25T06:20:11.276Z</time></trkpt><trkpt lat="44.5917258" lon="7.7559606"><ele>332.0</ele><time>2026-04-25T06:20:12.279Z</time></trkpt><trkpt lat="44.5915457" lon="7.7558844"><ele>332.0</ele><time>2026-04-25T06:20:13.277Z</time></trkpt><trkpt lat="44.5913592" lon="7.7558054"><ele>332.0</ele><time>2026-04-25T06:20:14.279Z</time></trkpt><trkpt lat="44.5911704" lon="7.7557245"><ele>332.0</ele><time>2026-04-25T06:20:15.279Z</time></trkpt><trkpt lat="44.5909806" lon="7.7556434"><ele>331.6666666666667</ele><time>2026-04-25T06:20:16.275Z</time></trkpt><trkpt lat="44.5907859" lon="7.7555609"><ele>331.3333333333333</ele><time>2026-04-25T06:20:17.279Z</time></trkpt><trkpt lat="44.5905893" lon="7.7554786"><ele>331.0</ele><time>2026-04-25T06:20:18.279Z</time></trkpt><trkpt lat="44.5903948" lon="7.7553982"><ele>331.3333333333333</ele><time>2026-04-25T06:20:19.277Z</time></trkpt><trkpt lat="44.5901996" lon="7.7553136"><ele>331.6666666666667</ele><time>2026-04-25T06:20:20.277Z</time></trkpt><trkpt lat="44.5900174" lon="7.755233"><ele>332.0</ele><time>2026-04-25T06:20:21.276Z</time></trkpt><trkpt lat="44.5898511" lon="7.7551588"><ele>332.33333333333337</ele><time>2026-04-25T06:20:22.279Z</time></trkpt><trkpt lat="44.5896968" lon="7.7550928"><ele>332.6666666666667</ele><time>2026-04-25T06:20:23.28Z</time></trkpt><trkpt lat="44.5895537" lon="7.7550336"><ele>333.0</ele><time>2026-04-25T06:20:24.278Z</time></trkpt><trkpt lat="44.5894202" lon="7.7549789"><ele>333.25</ele><time>2026-04-25T06:20:25.278Z</time></trkpt><trkpt lat="44.5892941" lon="7.7549241"><ele>333.5</ele><time>2026-04-25T06:20:26.279Z</time></trkpt><trkpt lat="44.5891675" lon="7.7548556"><ele>333.75</ele><time>2026-04-25T06:20:27.278Z</time></trkpt><trkpt lat="44.5890433" lon="7.7547761"><ele>334.0</ele><time>2026-04-25T06:20:28.278Z</time></trkpt><trkpt lat="44.5889183" lon="7.7546737"><ele>334.0</ele><time>2026-04-25T06:20:29.278Z</time></trkpt><trkpt lat="44.5887941" lon="7.7545657"><ele>334.0</ele><time>2026-04-25T06:20:30.277Z</time></trkpt><trkpt lat="44.5886701" lon="7.7544517"><ele>334.0</ele><time>2026-04-25T06:20:31.28Z</time></trkpt><trkpt lat="44.5885581" lon="7.7543476"><ele>334.0</ele><time>2026-04-25T06:20:32.278Z</time></trkpt><trkpt lat="44.5884532" lon="7.7542407"><ele>334.0</ele><time>2026-04-25T06:20:33.279Z</time></trkpt><trkpt lat="44.5883567" lon="7.7541398"><ele>334.0</ele><time>2026-04-25T06:20:34.277Z</time></trkpt><trkpt lat="44.5882532" lon="7.7540311"><ele>334.0</ele><time>2026-04-25T06:20:35.276Z</time></trkpt><trkpt lat="44.5881432" lon="7.7539282"><ele>334.0</ele><time>2026-04-25T06:20:36.278Z</time></trkpt><trkpt lat="44.5880362" lon="7.7538204"><ele>334.0</ele><time>2026-04-25T06:20:37.278Z</time></trkpt><trkpt lat="44.5879285" lon="7.7536994"><ele>334.0</ele><time>2026-04-25T06:20:38.279Z</time></trkpt><trkpt lat="44.5878286" lon="7.7535726"><ele>334.0</ele><time>2026-04-25T06:20:39.277Z</time></trkpt><trkpt lat="44.5877235" lon="7.7534443"><ele>334.0</ele><time>2026-04-25T06:20:40.277Z</time></trkpt><trkpt lat="44.5876123" lon="7.753317"><ele>334.75</ele><time>2026-04-25T06:20:41.277Z</time></trkpt><trkpt lat="44.5875117" lon="7.753187"><ele>335.5</ele><time>2026-04-25T06:20:42.276Z</time></trkpt><trkpt lat="44.5874147" lon="7.7530484"><ele>336.25</ele><time>2026-04-25T06:20:43.279Z</time></trkpt><trkpt lat="44.5873028" lon="7.7529238"><ele>337.0</ele><time>2026-04-25T06:20:44.278Z</time></trkpt><trkpt lat="44.5871872" lon="7.7527904"><ele>337.0</ele><time>2026-04-25T06:20:45.28Z</time></trkpt><trkpt lat="44.5870669" lon="7.7526666"><ele>337.0</ele><time>2026-04-25T06:20:46.277Z</time></trkpt><trkpt lat="44.5869399" lon="7.752549"><ele>337.0</ele><time>2026-04-25T06:20:47.276Z</time></trkpt><trkpt lat="44.5868088" lon="7.7524347"><ele>336.66666666666663</ele><time>2026-04-25T06:20:48.277Z</time></trkpt><trkpt lat="44.5866652" lon="7.7523181"><ele>336.3333333333333</ele><time>2026-04-25T06:20:49.279Z</time></trkpt><trkpt lat="44.5865117" lon="7.7522117"><ele>336.0</ele><time>2026-04-25T06:20:50.277Z</time></trkpt><trkpt lat="44.5863515" lon="7.7521315"><ele>335.6666666666667</ele><time>2026-04-25T06:20:51.277Z</time></trkpt><trkpt lat="44.5861772" lon="7.752057"><ele>335.33333333333337</ele><time>2026-04-25T06:20:52.279Z</time></trkpt><trkpt lat="44.5859938" lon="7.751998"><ele>335.0</ele><time>2026-04-25T06:20:53.279Z</time></trkpt><trkpt lat="44.5858049" lon="7.7519436"><ele>335.0</ele><time>2026-04-25T06:20:54.276Z</time></trkpt><trkpt lat="44.5856122" lon="7.7518876"><ele>335.0</ele><time>2026-04-25T06:20:55.28Z</time></trkpt><trkpt lat="44.5854228" lon="7.751827"><ele>335.0</ele><time>2026-04-25T06:20:56.277Z</time></trkpt><trkpt lat="44.5852356" lon="7.7517703"><ele>335.0</ele><time>2026-04-25T06:20:57.28Z</time></trkpt><trkpt lat="44.585038" lon="7.7517109"><ele>335.0</ele><time>2026-04-25T06:20:58.276Z</time></trkpt><trkpt lat="44.5848397" lon="7.7516588"><ele>335.0</ele><time>2026-04-25T06:20:59.276Z</time></trkpt><trkpt lat="44.5846304" lon="7.7516029"><ele>334.33333333333337</ele><time>2026-04-25T06:21:00.277Z</time></trkpt><trkpt lat="44.584426" lon="7.7515444"><ele>333.6666666666667</ele><time>2026-04-25T06:21:01.277Z</time></trkpt><trkpt lat="44.5842223" lon="7.7514875"><ele>333.0</ele><time>2026-04-25T06:21:02.28Z</time></trkpt><trkpt lat="44.5840176" lon="7.7514284"><ele>333.0</ele><time>2026-04-25T06:21:03.279Z</time></trkpt><trkpt lat="44.5838154" lon="7.7513663"><ele>333.0</ele><time>2026-04-25T06:21:04.277Z</time></trkpt><trkpt lat="44.5836126" lon="7.7513078"><ele>333.0</ele><time>2026-04-25T06:21:05.276Z</time></trkpt><trkpt lat="44.5834037" lon="7.7512496"><ele>334.0</ele><time>2026-04-25T06:21:06.28Z</time></trkpt><trkpt lat="44.5831961" lon="7.7511889"><ele>335.0</ele><time>2026-04-25T06:21:07.28Z</time></trkpt><trkpt lat="44.5829865" lon="7.7511279"><ele>336.0</ele><time>2026-04-25T06:21:08.278Z</time></trkpt><trkpt lat="44.5827746" lon="7.7510642"><ele>336.0</ele><time>2026-04-25T06:21:09.277Z</time></trkpt><trkpt lat="44.5825626" lon="7.7510034"><ele>336.0</ele><time>2026-04-25T06:21:10.279Z</time></trkpt><trkpt lat="44.5823509" lon="7.7509401"><ele>336.0</ele><time>2026-04-25T06:21:11.278Z</time></trkpt><trkpt lat="44.5821343" lon="7.7508717"><ele>336.0</ele><time>2026-04-25T06:21:12.276Z</time></trkpt><trkpt lat="44.5819243" lon="7.7508071"><ele>336.0</ele><time>2026-04-25T06:21:13.278Z</time></trkpt><trkpt lat="44.5817186" lon="7.7507471"><ele>336.0</ele><time>2026-04-25T06:21:14.276Z</time></trkpt><trkpt lat="44.5815168" lon="7.7506905"><ele>336.0</ele><time>2026-04-25T06:21:15.277Z</time></trkpt><trkpt lat="44.5813224" lon="7.7506375"><ele>336.0</ele><time>2026-04-25T06:21:16.277Z</time></trkpt><trkpt lat="44.581128" lon="7.7505835"><ele>336.0</ele><time>2026-04-25T06:21:17.276Z</time></trkpt><trkpt lat="44.5809384" lon="7.7505262"><ele>336.6666666666667</ele><time>2026-04-25T06:21:18.277Z</time></trkpt><trkpt lat="44.5807546" lon="7.7504737"><ele>337.33333333333337</ele><time>2026-04-25T06:21:19.276Z</time></trkpt><trkpt lat="44.5805688" lon="7.7504203"><ele>338.0</ele><time>2026-04-25T06:21:20.278Z</time></trkpt><trkpt lat="44.5803827" lon="7.7503652"><ele>337.33333333333337</ele><time>2026-04-25T06:21:21.277Z</time></trkpt><trkpt lat="44.5802002" lon="7.7503124"><ele>336.6666666666667</ele><time>2026-04-25T06:21:22.28Z</time></trkpt><trkpt lat="44.5800186" lon="7.7502577"><ele>336.0</ele><time>2026-04-25T06:21:23.278Z</time></trkpt><trkpt lat="44.5798375" lon="7.7501999"><ele>336.0</ele><time>2026-04-25T06:21:24.279Z</time></trkpt><trkpt lat="44.5796575" lon="7.7501473"><ele>336.0</ele><time>2026-04-25T06:21:25.278Z</time></trkpt><trkpt lat="44.5794791" lon="7.7500939"><ele>336.0</ele><time>2026-04-25T06:21:26.279Z</time></trkpt><trkpt lat="44.5793008" lon="7.7500415"><ele>336.3333333333333</ele><time>2026-04-25T06:21:27.28Z</time></trkpt><trkpt lat="44.5791223" lon="7.7499847"><ele>336.66666666666663</ele><time>2026-04-25T06:21:28.277Z</time></trkpt><trkpt lat="44.5789443" lon="7.749931"><ele>337.0</ele><time>2026-04-25T06:21:29.28Z</time></trkpt><trkpt lat="44.5787695" lon="7.7498783"><ele>337.66666666666663</ele><time>2026-04-25T06:21:30.275Z</time></trkpt><trkpt lat="44.5785948" lon="7.7498229"><ele>338.3333333333333</ele><time>2026-04-25T06:21:31.276Z</time></trkpt><trkpt lat="44.5784201" lon="7.7497715"><ele>339.0</ele><time>2026-04-25T06:21:32.276Z</time></trkpt><trkpt lat="44.5782456" lon="7.7497203"><ele>339.0</ele><time>2026-04-25T06:21:33.279Z</time></trkpt><trkpt lat="44.5780726" lon="7.749668"><ele>339.0</ele><time>2026-04-25T06:21:34.279Z</time></trkpt><trkpt lat="44.5778986" lon="7.7496165"><ele>339.0</ele><time>2026-04-25T06:21:35.276Z</time></trkpt><trkpt lat="44.5777245" lon="7.7495667"><ele>339.3333333333333</ele><time>2026-04-25T06:21:36.278Z</time></trkpt><trkpt lat="44.577552" lon="7.7495122"><ele>339.66666666666663</ele><time>2026-04-25T06:21:37.279Z</time></trkpt><trkpt lat="44.5773823" lon="7.7494623"><ele>340.0</ele><time>2026-04-25T06:21:38.278Z</time></trkpt><trkpt lat="44.5772142" lon="7.749412"><ele>340.3333333333333</ele><time>2026-04-25T06:21:39.278Z</time></trkpt><trkpt lat="44.5770461" lon="7.7493626"><ele>340.6666666666667</ele><time>2026-04-25T06:21:40.279Z</time></trkpt><trkpt lat="44.57688" lon="7.7493121"><ele>341.0</ele><time>2026-04-25T06:21:41.279Z</time></trkpt><trkpt lat="44.5767129" lon="7.7492587"><ele>340.33333333333337</ele><time>2026-04-25T06:21:42.278Z</time></trkpt><trkpt lat="44.576546" lon="7.7492072"><ele>339.6666666666667</ele><time>2026-04-25T06:21:43.277Z</time></trkpt><trkpt lat="44.5763806" lon="7.7491565"><ele>339.0</ele><time>2026-04-25T06:21:44.278Z</time></trkpt><trkpt lat="44.5762155" lon="7.7491024"><ele>339.3333333333333</ele><time>2026-04-25T06:21:45.28Z</time></trkpt><trkpt lat="44.5760504" lon="7.7490491"><ele>339.66666666666663</ele><time>2026-04-25T06:21:46.279Z</time></trkpt><trkpt lat="44.5758853" lon="7.7489981"><ele>340.0</ele><time>2026-04-25T06:21:47.277Z</time></trkpt><trkpt lat="44.5757195" lon="7.7489491"><ele>340.0</ele><time>2026-04-25T06:21:48.277Z</time></trkpt><trkpt lat="44.5755553" lon="7.7489012"><ele>340.0</ele><time>2026-04-25T06:21:49.282Z</time></trkpt><trkpt lat="44.575388" lon="7.7488474"><ele>340.0</ele><time>2026-04-25T06:21:50.281Z</time></trkpt><trkpt lat="44.5752244" lon="7.7487989"><ele>340.0</ele><time>2026-04-25T06:21:51.28Z</time></trkpt><trkpt lat="44.5750619" lon="7.748747"><ele>340.0</ele><time>2026-04-25T06:21:52.281Z</time></trkpt><trkpt lat="44.5748961" lon="7.7487007"><ele>340.0</ele><time>2026-04-25T06:21:53.277Z</time></trkpt><trkpt lat="44.5747226" lon="7.7486502"><ele>340.0</ele><time>2026-04-25T06:21:54.28Z</time></trkpt><trkpt lat="44.5745453" lon="7.7485988"><ele>340.0</ele><time>2026-04-25T06:21:55.281Z</time></trkpt><trkpt lat="44.5743678" lon="7.7485463"><ele>340.0</ele><time>2026-04-25T06:21:56.28Z</time></trkpt><trkpt lat="44.574191" lon="7.7484954"><ele>340.66666666666663</ele><time>2026-04-25T06:21:57.281Z</time></trkpt><trkpt lat="44.5740162" lon="7.7484436"><ele>341.3333333333333</ele><time>2026-04-25T06:21:58.28Z</time></trkpt><trkpt lat="44.5738427" lon="7.7483949"><ele>342.0</ele><time>2026-04-25T06:21:59.276Z</time></trkpt><trkpt lat="44.5736698" lon="7.7483449"><ele>342.0</ele><time>2026-04-25T06:22:00.281Z</time></trkpt><trkpt lat="44.5734971" lon="7.7482914"><ele>342.0</ele><time>2026-04-25T06:22:01.281Z</time></trkpt><trkpt lat="44.5733254" lon="7.7482372"><ele>342.0</ele><time>2026-04-25T06:22:02.281Z</time></trkpt><trkpt lat="44.5731548" lon="7.7481808"><ele>342.0</ele><time>2026-04-25T06:22:03.281Z</time></trkpt><trkpt lat="44.5729866" lon="7.7481223"><ele>342.0</ele><time>2026-04-25T06:22:04.277Z</time></trkpt><trkpt lat="44.572823" lon="7.7480602"><ele>342.0</ele><time>2026-04-25T06:22:05.28Z</time></trkpt><trkpt lat="44.5726621" lon="7.7479949"><ele>342.0</ele><time>2026-04-25T06:22:06.279Z</time></trkpt><trkpt lat="44.572503" lon="7.7479255"><ele>342.0</ele><time>2026-04-25T06:22:07.277Z</time></trkpt><trkpt lat="44.5723486" lon="7.7478497"><ele>342.0</ele><time>2026-04-25T06:22:08.281Z</time></trkpt><trkpt lat="44.5721964" lon="7.7477597"><ele>341.6666666666667</ele><time>2026-04-25T06:22:09.281Z</time></trkpt><trkpt lat="44.5720446" lon="7.7476714"><ele>341.33333333333337</ele><time>2026-04-25T06:22:10.282Z</time></trkpt><trkpt lat="44.5718897" lon="7.7476037"><ele>341.0</ele><time>2026-04-25T06:22:11.278Z</time></trkpt><trkpt lat="44.5717301" lon="7.7475454"><ele>341.6666666666667</ele><time>2026-04-25T06:22:12.28Z</time></trkpt><trkpt lat="44.5715725" lon="7.7474848"><ele>342.3333333333333</ele><time>2026-04-25T06:22:13.281Z</time></trkpt><trkpt lat="44.5714159" lon="7.7474153"><ele>343.0</ele><time>2026-04-25T06:22:14.281Z</time></trkpt><trkpt lat="44.5712584" lon="7.7473433"><ele>343.0</ele><time>2026-04-25T06:22:15.281Z</time></trkpt><trkpt lat="44.5711003" lon="7.747268"><ele>343.0</ele><time>2026-04-25T06:22:16.28Z</time></trkpt><trkpt lat="44.5709465" lon="7.7471963"><ele>343.0</ele><time>2026-04-25T06:22:17.277Z</time></trkpt><trkpt lat="44.5707924" lon="7.7471289"><ele>343.0</ele><time>2026-04-25T06:22:18.277Z</time></trkpt><trkpt lat="44.5706078" lon="7.7470177"><ele>343.0</ele><time>2026-04-25T06:22:19.278Z</time></trkpt><trkpt lat="44.5704277" lon="7.7469196"><ele>343.0</ele><time>2026-04-25T06:22:20.276Z</time></trkpt><trkpt lat="44.5702467" lon="7.7468292"><ele>345.0</ele><time>2026-04-25T06:22:21.282Z</time></trkpt><trkpt lat="44.5700588" lon="7.7467313"><ele>347.0</ele><time>2026-04-25T06:22:22.278Z</time></trkpt><trkpt lat="44.5698763" lon="7.7466405"><ele>349.0</ele><time>2026-04-25T06:22:23.28Z</time></trkpt><trkpt lat="44.5697105" lon="7.7465423"><ele>349.0</ele><time>2026-04-25T06:22:24.278Z</time></trkpt><trkpt lat="44.5695579" lon="7.7464187"><ele>349.0</ele><time>2026-04-25T06:22:25.281Z</time></trkpt><trkpt lat="44.5693692" lon="7.7463379"><ele>349.0</ele><time>2026-04-25T06:22:26.28Z</time></trkpt><trkpt lat="44.5691775" lon="7.746266"><ele>348.0</ele><time>2026-04-25T06:22:27.282Z</time></trkpt><trkpt lat="44.5689926" lon="7.7461801"><ele>347.0</ele><time>2026-04-25T06:22:28.281Z</time></trkpt><trkpt lat="44.5688047" lon="7.7460991"><ele>346.0</ele><time>2026-04-25T06:22:29.28Z</time></trkpt><trkpt lat="44.5686191" lon="7.7460182"><ele>346.0</ele><time>2026-04-25T06:22:30.28Z</time></trkpt><trkpt lat="44.5684419" lon="7.7459367"><ele>346.0</ele><time>2026-04-25T06:22:31.28Z</time></trkpt><trkpt lat="44.5682547" lon="7.7458422"><ele>346.0</ele><time>2026-04-25T06:22:32.281Z</time></trkpt><trkpt lat="44.5680697" lon="7.7457503"><ele>346.0</ele><time>2026-04-25T06:22:33.279Z</time></trkpt><trkpt lat="44.5678888" lon="7.7456595"><ele>346.0</ele><time>2026-04-25T06:22:34.28Z</time></trkpt><trkpt lat="44.567712" lon="7.7455711"><ele>346.0</ele><time>2026-04-25T06:22:35.277Z</time></trkpt><trkpt lat="44.567539" lon="7.7454872"><ele>346.3333333333333</ele><time>2026-04-25T06:22:36.28Z</time></trkpt><trkpt lat="44.5673601" lon="7.7453955"><ele>346.6666666666667</ele><time>2026-04-25T06:22:37.278Z</time></trkpt><trkpt lat="44.5671869" lon="7.7453105"><ele>347.0</ele><time>2026-04-25T06:22:38.281Z</time></trkpt><trkpt lat="44.5670117" lon="7.7452249"><ele>348.33333333333337</ele><time>2026-04-25T06:22:39.281Z</time></trkpt><trkpt lat="44.5668384" lon="7.7451423"><ele>349.6666666666667</ele><time>2026-04-25T06:22:40.28Z</time></trkpt><trkpt lat="44.5666645" lon="7.7450595"><ele>351.0</ele><time>2026-04-25T06:22:41.281Z</time></trkpt><trkpt lat="44.566487" lon="7.7449733"><ele>351.0</ele><time>2026-04-25T06:22:42.281Z</time></trkpt><trkpt lat="44.5663127" lon="7.7448869"><ele>351.0</ele><time>2026-04-25T06:22:43.276Z</time></trkpt><trkpt lat="44.5661414" lon="7.7447997"><ele>351.0</ele><time>2026-04-25T06:22:44.281Z</time></trkpt><trkpt lat="44.5659729" lon="7.7447127"><ele>352.0</ele><time>2026-04-25T06:22:45.279Z</time></trkpt><trkpt lat="44.5658064" lon="7.7446249"><ele>353.0</ele><time>2026-04-25T06:22:46.277Z</time></trkpt><trkpt lat="44.5656417" lon="7.7445383"><ele>354.0</ele><time>2026-04-25T06:22:47.278Z</time></trkpt><trkpt lat="44.5654812" lon="7.7444526"><ele>355.3333333333333</ele><time>2026-04-25T06:22:48.277Z</time></trkpt><trkpt lat="44.5653194" lon="7.7443618"><ele>356.66666666666663</ele><time>2026-04-25T06:22:49.28Z</time></trkpt><trkpt lat="44.5651589" lon="7.7442704"><ele>358.0</ele><time>2026-04-25T06:22:50.277Z</time></trkpt><trkpt lat="44.5650003" lon="7.7441792"><ele>358.0</ele><time>2026-04-25T06:22:51.28Z</time></trkpt><trkpt lat="44.5648542" lon="7.7440849"><ele>358.0</ele><time>2026-04-25T06:22:52.28Z</time></trkpt><trkpt lat="44.5647129" lon="7.7439875"><ele>358.0</ele><time>2026-04-25T06:22:53.281Z</time></trkpt><trkpt lat="44.56458" lon="7.7438789"><ele>356.66666666666663</ele><time>2026-04-25T06:22:54.277Z</time></trkpt><trkpt lat="44.5644484" lon="7.7437681"><ele>355.3333333333333</ele><time>2026-04-25T06:22:55.278Z</time></trkpt><trkpt lat="44.564325" lon="7.7436441"><ele>354.0</ele><time>2026-04-25T06:22:56.277Z</time></trkpt><trkpt lat="44.5642016" lon="7.7435125"><ele>356.6666666666667</ele><time>2026-04-25T06:22:57.282Z</time></trkpt><trkpt lat="44.5640808" lon="7.7433764"><ele>359.33333333333337</ele><time>2026-04-25T06:22:58.28Z</time></trkpt><trkpt lat="44.5639659" lon="7.7432311"><ele>362.0</ele><time>2026-04-25T06:22:59.277Z</time></trkpt><trkpt lat="44.5638549" lon="7.7430782"><ele>362.0</ele><time>2026-04-25T06:23:00.28Z</time></trkpt><trkpt lat="44.5637447" lon="7.7429204"><ele>362.0</ele><time>2026-04-25T06:23:01.277Z</time></trkpt><trkpt lat="44.5636371" lon="7.7427627"><ele>362.0</ele><time>2026-04-25T06:23:02.281Z</time></trkpt><trkpt lat="44.563528" lon="7.7425946"><ele>364.0</ele><time>2026-04-25T06:23:03.277Z</time></trkpt><trkpt lat="44.5634192" lon="7.7424281"><ele>366.0</ele><time>2026-04-25T06:23:04.281Z</time></trkpt><trkpt lat="44.5633191" lon="7.7422662"><ele>368.0</ele><time>2026-04-25T06:23:05.277Z</time></trkpt><trkpt lat="44.5632196" lon="7.7421091"><ele>368.0</ele><time>2026-04-25T06:23:06.281Z</time></trkpt><trkpt lat="44.5631167" lon="7.7419423"><ele>368.0</ele><time>2026-04-25T06:23:07.28Z</time></trkpt><trkpt lat="44.5630115" lon="7.7417714"><ele>368.0</ele><time>2026-04-25T06:23:08.279Z</time></trkpt><trkpt lat="44.5629124" lon="7.7416127"><ele>369.25</ele><time>2026-04-25T06:23:09.281Z</time></trkpt><trkpt lat="44.5628152" lon="7.741466"><ele>370.5</ele><time>2026-04-25T06:23:10.28Z</time></trkpt><trkpt lat="44.5627202" lon="7.7413208"><ele>371.75</ele><time>2026-04-25T06:23:11.28Z</time></trkpt><trkpt lat="44.5626202" lon="7.7411794"><ele>373.0</ele><time>2026-04-25T06:23:12.281Z</time></trkpt><trkpt lat="44.562525" lon="7.7410313"><ele>373.0</ele><time>2026-04-25T06:23:13.28Z</time></trkpt><trkpt lat="44.56244" lon="7.740899"><ele>373.0</ele><time>2026-04-25T06:23:14.279Z</time></trkpt><trkpt lat="44.5623637" lon="7.7407789"><ele>373.0</ele><time>2026-04-25T06:23:15.278Z</time></trkpt><trkpt lat="44.5622924" lon="7.7406676"><ele>373.0</ele><time>2026-04-25T06:23:16.277Z</time></trkpt><trkpt lat="44.5622242" lon="7.7405596"><ele>373.0</ele><time>2026-04-25T06:23:17.28Z</time></trkpt><trkpt lat="44.5621544" lon="7.7404469"><ele>373.0</ele><time>2026-04-25T06:23:18.278Z</time></trkpt><trkpt lat="44.5620831" lon="7.7403445"><ele>373.0</ele><time>2026-04-25T06:23:19.278Z</time></trkpt><trkpt lat="44.5620085" lon="7.7402375"><ele>373.0</ele><time>2026-04-25T06:23:20.279Z</time></trkpt><trkpt lat="44.5619317" lon="7.7401263"><ele>373.0</ele><time>2026-04-25T06:23:21.278Z</time></trkpt><trkpt lat="44.5618565" lon="7.7400152"><ele>372.79999999999995</ele><time>2026-04-25T06:23:22.28Z</time></trkpt><trkpt lat="44.5617851" lon="7.7399132"><ele>372.6</ele><time>2026-04-25T06:23:23.28Z</time></trkpt><trkpt lat="44.5617191" lon="7.7398041"><ele>372.4</ele><time>2026-04-25T06:23:24.279Z</time></trkpt><trkpt lat="44.5616681" lon="7.7397174"><ele>372.20000000000005</ele><time>2026-04-25T06:23:25.278Z</time></trkpt><trkpt lat="44.561624" lon="7.739636"><ele>372.0</ele><time>2026-04-25T06:23:26.279Z</time></trkpt><trkpt lat="44.5615738" lon="7.739511"><ele>372.0</ele><time>2026-04-25T06:23:28.28Z</time></trkpt><trkpt lat="44.5615821" lon="7.7396269"><ele>372.0</ele><time>2026-04-25T06:23:39.276Z</time></trkpt><trkpt lat="44.5616103" lon="7.7397732"><ele>372.0</ele><time>2026-04-25T06:23:41.279Z</time></trkpt><trkpt lat="44.5616212" lon="7.7399184"><ele>372.0</ele><time>2026-04-25T06:23:43.279Z</time></trkpt><trkpt lat="44.5616355" lon="7.740025"><ele>372.0</ele><time>2026-04-25T06:23:45.28Z</time></trkpt><trkpt lat="44.5616221" lon="7.740115"><ele>372.0</ele><time>2026-04-25T06:23:57.279Z</time></trkpt><trkpt lat="44.5616688" lon="7.7401851"><ele>372.0</ele><time>2026-04-25T06:24:11.28Z</time></trkpt><trkpt lat="44.5616856" lon="7.7400971"><ele>372.0</ele><time>2026-04-25T06:26:20.277Z</time></trkpt><trkpt lat="44.5616009" lon="7.7400551"><ele>372.0</ele><time>2026-04-25T06:27:34.279Z</time></trkpt><trkpt lat="44.5616596" lon="7.7401965"><ele>372.0</ele><time>2026-04-25T06:29:51.278Z</time></trkpt><trkpt lat="44.5616091" lon="7.7401144"><ele>372.0</ele><time>2026-04-25T06:31:01.277Z</time></trkpt><trkpt lat="44.5616717" lon="7.7401743"><ele>372.0</ele><time>2026-04-25T06:38:36.277Z</time></trkpt><trkpt lat="44.5617218" lon="7.740255"><ele>372.0</ele><time>2026-04-25T06:43:39.277Z</time></trkpt><trkpt lat="44.5617931" lon="7.740247"><ele>372.0</ele><time>2026-04-25T06:43:41.276Z</time></trkpt><trkpt lat="44.5618594" lon="7.7402277"><ele>372.0</ele><time>2026-04-25T06:43:44.28Z</time></trkpt><trkpt lat="44.5618953" lon="7.740134"><ele>372.0</ele><time>2026-04-25T06:43:47.28Z</time></trkpt><trkpt lat="44.5618154" lon="7.739972"><ele>372.0</ele><time>2026-04-25T06:43:49.278Z</time></trkpt><trkpt lat="44.5617604" lon="7.7398769"><ele>372.0</ele><time>2026-04-25T06:43:50.281Z</time></trkpt><trkpt lat="44.561694" lon="7.739772"><ele>372.0</ele><time>2026-04-25T06:43:51.281Z</time></trkpt><trkpt lat="44.5616193" lon="7.7396541"><ele>372.0</ele><time>2026-04-25T06:43:52.279Z</time></trkpt><trkpt lat="44.5615398" lon="7.739532"><ele>372.0</ele><time>2026-04-25T06:43:53.28Z</time></trkpt><trkpt lat="44.5614595" lon="7.7394054"><ele>372.0</ele><time>2026-04-25T06:43:54.278Z</time></trkpt><trkpt lat="44.5613785" lon="7.7392837"><ele>372.0</ele><time>2026-04-25T06:43:55.28Z</time></trkpt><trkpt lat="44.5612949" lon="7.7391535"><ele>372.0</ele><time>2026-04-25T06:43:56.279Z</time></trkpt><trkpt lat="44.5612085" lon="7.7390132"><ele>372.0</ele><time>2026-04-25T06:43:57.28Z</time></trkpt><trkpt lat="44.5611188" lon="7.7388621"><ele>372.0</ele><time>2026-04-25T06:43:58.278Z</time></trkpt><trkpt lat="44.5610245" lon="7.7387123"><ele>372.0</ele><time>2026-04-25T06:43:59.279Z</time></trkpt><trkpt lat="44.560929" lon="7.738566"><ele>372.0</ele><time>2026-04-25T06:44:00.28Z</time></trkpt><trkpt lat="44.5608359" lon="7.7384189"><ele>372.0</ele><time>2026-04-25T06:44:01.28Z</time></trkpt><trkpt lat="44.5607457" lon="7.7382844"><ele>372.0</ele><time>2026-04-25T06:44:02.28Z</time></trkpt><trkpt lat="44.5606575" lon="7.7381488"><ele>371.75</ele><time>2026-04-25T06:44:03.28Z</time></trkpt><trkpt lat="44.5605746" lon="7.7380109"><ele>371.5</ele><time>2026-04-25T06:44:04.28Z</time></trkpt><trkpt lat="44.5604959" lon="7.737888"><ele>371.25</ele><time>2026-04-25T06:44:05.28Z</time></trkpt><trkpt lat="44.5604177" lon="7.7377727"><ele>371.0</ele><time>2026-04-25T06:44:06.28Z</time></trkpt><trkpt lat="44.5603439" lon="7.7376561"><ele>371.0</ele><time>2026-04-25T06:44:07.278Z</time></trkpt><trkpt lat="44.560266" lon="7.7375335"><ele>371.0</ele><time>2026-04-25T06:44:08.28Z</time></trkpt><trkpt lat="44.5601844" lon="7.7374106"><ele>371.0</ele><time>2026-04-25T06:44:09.28Z</time></trkpt><trkpt lat="44.5600976" lon="7.7372824"><ele>371.0</ele><time>2026-04-25T06:44:10.28Z</time></trkpt><trkpt lat="44.5600141" lon="7.7371608"><ele>371.0</ele><time>2026-04-25T06:44:11.278Z</time></trkpt><trkpt lat="44.559934" lon="7.7370346"><ele>371.0</ele><time>2026-04-25T06:44:12.28Z</time></trkpt><trkpt lat="44.559856" lon="7.7369079"><ele>371.0</ele><time>2026-04-25T06:44:13.279Z</time></trkpt><trkpt lat="44.5597776" lon="7.7367855"><ele>371.0</ele><time>2026-04-25T06:44:14.281Z</time></trkpt><trkpt lat="44.5596999" lon="7.7366581"><ele>370.8</ele><time>2026-04-25T06:44:15.282Z</time></trkpt><trkpt lat="44.5596256" lon="7.7365419"><ele>370.6</ele><time>2026-04-25T06:44:16.279Z</time></trkpt><trkpt lat="44.5595511" lon="7.7364323"><ele>370.4</ele><time>2026-04-25T06:44:17.28Z</time></trkpt><trkpt lat="44.5594814" lon="7.7363256"><ele>370.2</ele><time>2026-04-25T06:44:18.282Z</time></trkpt><trkpt lat="44.5594127" lon="7.7362119"><ele>370.0</ele><time>2026-04-25T06:44:19.279Z</time></trkpt><trkpt lat="44.5593455" lon="7.7361017"><ele>370.2</ele><time>2026-04-25T06:44:20.279Z</time></trkpt><trkpt lat="44.5592788" lon="7.7359958"><ele>370.4</ele><time>2026-04-25T06:44:21.281Z</time></trkpt><trkpt lat="44.5592146" lon="7.7358892"><ele>370.6</ele><time>2026-04-25T06:44:22.279Z</time></trkpt><trkpt lat="44.5591473" lon="7.735787"><ele>370.8</ele><time>2026-04-25T06:44:23.277Z</time></trkpt><trkpt lat="44.5590836" lon="7.7356828"><ele>371.0</ele><time>2026-04-25T06:44:24.281Z</time></trkpt><trkpt lat="44.5590185" lon="7.7355771"><ele>371.0</ele><time>2026-04-25T06:44:25.278Z</time></trkpt><trkpt lat="44.5589556" lon="7.7354717"><ele>371.0</ele><time>2026-04-25T06:44:26.279Z</time></trkpt><trkpt lat="44.5588963" lon="7.7353742"><ele>371.0</ele><time>2026-04-25T06:44:27.277Z</time></trkpt><trkpt lat="44.5588425" lon="7.7352793"><ele>371.0</ele><time>2026-04-25T06:44:28.278Z</time></trkpt><trkpt lat="44.5587951" lon="7.7351989"><ele>371.0</ele><time>2026-04-25T06:44:29.281Z</time></trkpt><trkpt lat="44.5587469" lon="7.7351319"><ele>371.0</ele><time>2026-04-25T06:44:30.278Z</time></trkpt><trkpt lat="44.5587009" lon="7.7350689"><ele>371.1666666666667</ele><time>2026-04-25T06:44:31.279Z</time></trkpt><trkpt lat="44.5586078" lon="7.7349452"><ele>371.33333333333337</ele><time>2026-04-25T06:44:33.28Z</time></trkpt><trkpt lat="44.5585586" lon="7.7348759"><ele>371.5</ele><time>2026-04-25T06:44:34.279Z</time></trkpt><trkpt lat="44.5585095" lon="7.7348081"><ele>371.6666666666667</ele><time>2026-04-25T06:44:35.281Z</time></trkpt><trkpt lat="44.5584597" lon="7.7347345"><ele>371.8333333333333</ele><time>2026-04-25T06:44:36.281Z</time></trkpt><trkpt lat="44.5584044" lon="7.7346592"><ele>372.0</ele><time>2026-04-25T06:44:37.281Z</time></trkpt><trkpt lat="44.5583481" lon="7.7345782"><ele>372.0</ele><time>2026-04-25T06:44:38.28Z</time></trkpt><trkpt lat="44.5582891" lon="7.7344951"><ele>372.0</ele><time>2026-04-25T06:44:39.281Z</time></trkpt><trkpt lat="44.5582311" lon="7.7344066"><ele>372.0</ele><time>2026-04-25T06:44:40.278Z</time></trkpt><trkpt lat="44.5581701" lon="7.7343167"><ele>372.0</ele><time>2026-04-25T06:44:41.279Z</time></trkpt><trkpt lat="44.5581066" lon="7.7342266"><ele>372.0</ele><time>2026-04-25T06:44:42.279Z</time></trkpt><trkpt lat="44.5580438" lon="7.734137"><ele>372.0</ele><time>2026-04-25T06:44:43.281Z</time></trkpt><trkpt lat="44.5579832" lon="7.7340507"><ele>372.0</ele><time>2026-04-25T06:44:44.276Z</time></trkpt><trkpt lat="44.5579255" lon="7.7339671"><ele>372.0</ele><time>2026-04-25T06:44:45.277Z</time></trkpt><trkpt lat="44.557871" lon="7.733882"><ele>372.0</ele><time>2026-04-25T06:44:46.277Z</time></trkpt><trkpt lat="44.5578156" lon="7.7337956"><ele>372.0</ele><time>2026-04-25T06:44:47.276Z</time></trkpt><trkpt lat="44.5577607" lon="7.7337065"><ele>372.0</ele><time>2026-04-25T06:44:48.279Z</time></trkpt><trkpt lat="44.5577075" lon="7.7336182"><ele>372.0</ele><time>2026-04-25T06:44:49.278Z</time></trkpt><trkpt lat="44.5576519" lon="7.7335329"><ele>372.1666666666667</ele><time>2026-04-25T06:44:50.277Z</time></trkpt><trkpt lat="44.5575972" lon="7.7334461"><ele>372.3333333333333</ele><time>2026-04-25T06:44:51.277Z</time></trkpt><trkpt lat="44.5575524" lon="7.7333701"><ele>372.5</ele><time>2026-04-25T06:44:52.278Z</time></trkpt><trkpt lat="44.5575132" lon="7.7332994"><ele>372.66666666666663</ele><time>2026-04-25T06:44:53.279Z</time></trkpt><trkpt lat="44.5574387" lon="7.7331646"><ele>372.8333333333333</ele><time>2026-04-25T06:44:55.277Z</time></trkpt><trkpt lat="44.5573991" lon="7.7330913"><ele>373.0</ele><time>2026-04-25T06:44:56.279Z</time></trkpt><trkpt lat="44.5573532" lon="7.7330133"><ele>373.0</ele><time>2026-04-25T06:44:57.278Z</time></trkpt><trkpt lat="44.5572997" lon="7.732924"><ele>373.0</ele><time>2026-04-25T06:44:58.28Z</time></trkpt><trkpt lat="44.5572375" lon="7.7328293"><ele>373.0</ele><time>2026-04-25T06:44:59.278Z</time></trkpt><trkpt lat="44.5571656" lon="7.7327212"><ele>373.0</ele><time>2026-04-25T06:45:00.277Z</time></trkpt><trkpt lat="44.557092" lon="7.7326102"><ele>373.0</ele><time>2026-04-25T06:45:01.278Z</time></trkpt><trkpt lat="44.5570312" lon="7.7325141"><ele>373.3333333333333</ele><time>2026-04-25T06:45:02.281Z</time></trkpt><trkpt lat="44.5569774" lon="7.7324316"><ele>373.66666666666663</ele><time>2026-04-25T06:45:03.281Z</time></trkpt><trkpt lat="44.5569252" lon="7.7323534"><ele>374.0</ele><time>2026-04-25T06:45:04.279Z</time></trkpt><trkpt lat="44.5568696" lon="7.732273"><ele>374.3333333333333</ele><time>2026-04-25T06:45:05.28Z</time></trkpt><trkpt lat="44.556816" lon="7.732187"><ele>374.6666666666667</ele><time>2026-04-25T06:45:06.28Z</time></trkpt><trkpt lat="44.556761" lon="7.7320991"><ele>375.0</ele><time>2026-04-25T06:45:07.279Z</time></trkpt><trkpt lat="44.5567068" lon="7.732012"><ele>375.0</ele><time>2026-04-25T06:45:08.278Z</time></trkpt><trkpt lat="44.5566548" lon="7.7319301"><ele>375.0</ele><time>2026-04-25T06:45:09.279Z</time></trkpt><trkpt lat="44.5566029" lon="7.7318497"><ele>375.0</ele><time>2026-04-25T06:45:10.279Z</time></trkpt><trkpt lat="44.5565512" lon="7.7317671"><ele>375.0</ele><time>2026-04-25T06:45:11.278Z</time></trkpt><trkpt lat="44.556495" lon="7.7316843"><ele>375.0</ele><time>2026-04-25T06:45:12.278Z</time></trkpt><trkpt lat="44.5564381" lon="7.7316029"><ele>375.0</ele><time>2026-04-25T06:45:13.279Z</time></trkpt><trkpt lat="44.556384" lon="7.731522"><ele>375.0</ele><time>2026-04-25T06:45:14.279Z</time></trkpt><trkpt lat="44.556331" lon="7.7314396"><ele>375.0</ele><time>2026-04-25T06:45:15.28Z</time></trkpt><trkpt lat="44.5562784" lon="7.731358"><ele>375.0</ele><time>2026-04-25T06:45:16.279Z</time></trkpt><trkpt lat="44.5562259" lon="7.7312774"><ele>375.0</ele><time>2026-04-25T06:45:17.276Z</time></trkpt><trkpt lat="44.5561745" lon="7.7311965"><ele>375.0</ele><time>2026-04-25T06:45:18.279Z</time></trkpt><trkpt lat="44.5561217" lon="7.731115"><ele>375.0</ele><time>2026-04-25T06:45:19.28Z</time></trkpt><trkpt lat="44.5560675" lon="7.7310364"><ele>374.6666666666667</ele><time>2026-04-25T06:45:20.281Z</time></trkpt><trkpt lat="44.5560151" lon="7.7309542"><ele>374.3333333333333</ele><time>2026-04-25T06:45:21.28Z</time></trkpt><trkpt lat="44.5559595" lon="7.7308738"><ele>374.0</ele><time>2026-04-25T06:45:22.279Z</time></trkpt><trkpt lat="44.5559073" lon="7.7307911"><ele>373.66666666666663</ele><time>2026-04-25T06:45:23.278Z</time></trkpt><trkpt lat="44.5558556" lon="7.7307144"><ele>373.3333333333333</ele><time>2026-04-25T06:45:24.28Z</time></trkpt><trkpt lat="44.5558026" lon="7.7306379"><ele>373.0</ele><time>2026-04-25T06:45:25.281Z</time></trkpt><trkpt lat="44.5557461" lon="7.7305579"><ele>373.0</ele><time>2026-04-25T06:45:26.28Z</time></trkpt><trkpt lat="44.5556891" lon="7.7304733"><ele>373.0</ele><time>2026-04-25T06:45:27.278Z</time></trkpt><trkpt lat="44.5556325" lon="7.7303874"><ele>373.0</ele><time>2026-04-25T06:45:28.279Z</time></trkpt><trkpt lat="44.5555743" lon="7.7303013"><ele>373.0</ele><time>2026-04-25T06:45:29.279Z</time></trkpt><trkpt lat="44.5555167" lon="7.7302129"><ele>373.0</ele><time>2026-04-25T06:45:30.279Z</time></trkpt><trkpt lat="44.5554587" lon="7.7301229"><ele>373.0</ele><time>2026-04-25T06:45:31.28Z</time></trkpt><trkpt lat="44.5554043" lon="7.7300346"><ele>373.16666666666663</ele><time>2026-04-25T06:45:32.279Z</time></trkpt><trkpt lat="44.5553491" lon="7.72995"><ele>373.3333333333333</ele><time>2026-04-25T06:45:33.28Z</time></trkpt><trkpt lat="44.5552945" lon="7.7298694"><ele>373.5</ele><time>2026-04-25T06:45:34.28Z</time></trkpt><trkpt lat="44.5552405" lon="7.729789"><ele>373.6666666666667</ele><time>2026-04-25T06:45:35.277Z</time></trkpt><trkpt lat="44.5551856" lon="7.7297083"><ele>373.83333333333337</ele><time>2026-04-25T06:45:36.281Z</time></trkpt><trkpt lat="44.5551311" lon="7.7296287"><ele>374.0</ele><time>2026-04-25T06:45:37.28Z</time></trkpt><trkpt lat="44.5550768" lon="7.7295505"><ele>374.0</ele><time>2026-04-25T06:45:38.281Z</time></trkpt><trkpt lat="44.5550214" lon="7.7294702"><ele>374.0</ele><time>2026-04-25T06:45:39.281Z</time></trkpt><trkpt lat="44.5549656" lon="7.7293886"><ele>374.0</ele><time>2026-04-25T06:45:40.279Z</time></trkpt><trkpt lat="44.5549117" lon="7.7293106"><ele>374.0</ele><time>2026-04-25T06:45:41.279Z</time></trkpt><trkpt lat="44.5548582" lon="7.7292334"><ele>374.0</ele><time>2026-04-25T06:45:42.28Z</time></trkpt><trkpt lat="44.5548033" lon="7.7291474"><ele>374.0</ele><time>2026-04-25T06:45:43.279Z</time></trkpt><trkpt lat="44.5547436" lon="7.7290507"><ele>374.1666666666667</ele><time>2026-04-25T06:45:44.279Z</time></trkpt><trkpt lat="44.5546824" lon="7.728956"><ele>374.33333333333337</ele><time>2026-04-25T06:45:45.28Z</time></trkpt><trkpt lat="44.5546249" lon="7.7288631"><ele>374.5</ele><time>2026-04-25T06:45:46.28Z</time></trkpt><trkpt lat="44.5545677" lon="7.7287714"><ele>374.6666666666667</ele><time>2026-04-25T06:45:47.277Z</time></trkpt><trkpt lat="44.5545159" lon="7.7286836"><ele>374.8333333333333</ele><time>2026-04-25T06:45:48.281Z</time></trkpt><trkpt lat="44.5544675" lon="7.7286042"><ele>375.0</ele><time>2026-04-25T06:45:49.28Z</time></trkpt><trkpt lat="44.5544178" lon="7.7285262"><ele>374.6666666666667</ele><time>2026-04-25T06:45:50.281Z</time></trkpt><trkpt lat="44.5543616" lon="7.7284469"><ele>374.3333333333333</ele><time>2026-04-25T06:45:51.28Z</time></trkpt><trkpt lat="44.5543016" lon="7.7283574"><ele>374.0</ele><time>2026-04-25T06:45:52.278Z</time></trkpt><trkpt lat="44.5542376" lon="7.728262"><ele>373.66666666666663</ele><time>2026-04-25T06:45:53.279Z</time></trkpt><trkpt lat="44.5541737" lon="7.7281636"><ele>373.3333333333333</ele><time>2026-04-25T06:45:54.277Z</time></trkpt><trkpt lat="44.5541106" lon="7.7280705"><ele>373.0</ele><time>2026-04-25T06:45:55.28Z</time></trkpt><trkpt lat="44.5540514" lon="7.7279775"><ele>373.0</ele><time>2026-04-25T06:45:56.282Z</time></trkpt><trkpt lat="44.5539943" lon="7.7278913"><ele>373.0</ele><time>2026-04-25T06:45:57.281Z</time></trkpt><trkpt lat="44.5539397" lon="7.7278105"><ele>373.0</ele><time>2026-04-25T06:45:58.28Z</time></trkpt><trkpt lat="44.5538883" lon="7.7277312"><ele>373.0</ele><time>2026-04-25T06:45:59.279Z</time></trkpt><trkpt lat="44.5538392" lon="7.727656"><ele>373.0</ele><time>2026-04-25T06:46:00.278Z</time></trkpt><trkpt lat="44.5537901" lon="7.7275792"><ele>373.0</ele><time>2026-04-25T06:46:01.281Z</time></trkpt><trkpt lat="44.5537405" lon="7.7275016"><ele>373.16666666666663</ele><time>2026-04-25T06:46:02.28Z</time></trkpt><trkpt lat="44.5536875" lon="7.7274213"><ele>373.3333333333333</ele><time>2026-04-25T06:46:03.281Z</time></trkpt><trkpt lat="44.5536353" lon="7.7273392"><ele>373.5</ele><time>2026-04-25T06:46:04.279Z</time></trkpt><trkpt lat="44.5535839" lon="7.7272558"><ele>373.6666666666667</ele><time>2026-04-25T06:46:05.28Z</time></trkpt><trkpt lat="44.5535326" lon="7.7271712"><ele>373.83333333333337</ele><time>2026-04-25T06:46:06.281Z</time></trkpt><trkpt lat="44.5534828" lon="7.727091"><ele>374.0</ele><time>2026-04-25T06:46:07.277Z</time></trkpt><trkpt lat="44.5534358" lon="7.7270159"><ele>374.0</ele><time>2026-04-25T06:46:08.279Z</time></trkpt><trkpt lat="44.5533909" lon="7.7269437"><ele>374.0</ele><time>2026-04-25T06:46:09.279Z</time></trkpt><trkpt lat="44.5533481" lon="7.7268786"><ele>374.0</ele><time>2026-04-25T06:46:10.28Z</time></trkpt><trkpt lat="44.5532721" lon="7.7267702"><ele>374.0</ele><time>2026-04-25T06:46:12.279Z</time></trkpt><trkpt lat="44.5532009" lon="7.7266635"><ele>374.0</ele><time>2026-04-25T06:46:14.278Z</time></trkpt><trkpt lat="44.5531359" lon="7.7265604"><ele>374.0</ele><time>2026-04-25T06:46:16.278Z</time></trkpt><trkpt lat="44.5530784" lon="7.7264536"><ele>374.2</ele><time>2026-04-25T06:46:18.277Z</time></trkpt><trkpt lat="44.5530325" lon="7.7263267"><ele>374.4</ele><time>2026-04-25T06:46:20.277Z</time></trkpt><trkpt lat="44.5529659" lon="7.7262009"><ele>374.6</ele><time>2026-04-25T06:46:22.277Z</time></trkpt><trkpt lat="44.5528741" lon="7.7260863"><ele>374.8</ele><time>2026-04-25T06:46:24.277Z</time></trkpt><trkpt lat="44.5528307" lon="7.7260197"><ele>375.0</ele><time>2026-04-25T06:46:25.281Z</time></trkpt><trkpt lat="44.5527936" lon="7.7259392"><ele>375.0</ele><time>2026-04-25T06:46:26.276Z</time></trkpt><trkpt lat="44.5527582" lon="7.7258528"><ele>375.0</ele><time>2026-04-25T06:46:27.28Z</time></trkpt><trkpt lat="44.5527261" lon="7.7257547"><ele>375.0</ele><time>2026-04-25T06:46:28.278Z</time></trkpt><trkpt lat="44.5526972" lon="7.7256468"><ele>375.0</ele><time>2026-04-25T06:46:29.277Z</time></trkpt><trkpt lat="44.5526759" lon="7.7255279"><ele>375.0</ele><time>2026-04-25T06:46:30.277Z</time></trkpt><trkpt lat="44.5526623" lon="7.7254012"><ele>375.0</ele><time>2026-04-25T06:46:31.28Z</time></trkpt><trkpt lat="44.5526499" lon="7.7252654"><ele>374.6</ele><time>2026-04-25T06:46:32.28Z</time></trkpt><trkpt lat="44.5526358" lon="7.7251245"><ele>374.2</ele><time>2026-04-25T06:46:33.28Z</time></trkpt><trkpt lat="44.552621" lon="7.7249853"><ele>373.79999999999995</ele><time>2026-04-25T06:46:34.279Z</time></trkpt><trkpt lat="44.5526097" lon="7.7248526"><ele>373.4</ele><time>2026-04-25T06:46:35.278Z</time></trkpt><trkpt lat="44.5526002" lon="7.7247266"><ele>373.0</ele><time>2026-04-25T06:46:36.279Z</time></trkpt><trkpt lat="44.5525876" lon="7.7246078"><ele>373.0</ele><time>2026-04-25T06:46:37.278Z</time></trkpt><trkpt lat="44.5525754" lon="7.7244988"><ele>373.0</ele><time>2026-04-25T06:46:38.276Z</time></trkpt><trkpt lat="44.5525657" lon="7.724391"><ele>373.0</ele><time>2026-04-25T06:46:39.281Z</time></trkpt><trkpt lat="44.5525566" lon="7.7242813"><ele>373.0</ele><time>2026-04-25T06:46:40.277Z</time></trkpt><trkpt lat="44.5525464" lon="7.7241742"><ele>373.0</ele><time>2026-04-25T06:46:41.277Z</time></trkpt><trkpt lat="44.5525377" lon="7.724067"><ele>373.0</ele><time>2026-04-25T06:46:42.277Z</time></trkpt><trkpt lat="44.5525294" lon="7.7239586"><ele>372.5</ele><time>2026-04-25T06:46:43.279Z</time></trkpt><trkpt lat="44.5525208" lon="7.7238507"><ele>372.0</ele><time>2026-04-25T06:46:44.277Z</time></trkpt><trkpt lat="44.5525115" lon="7.7237425"><ele>371.5</ele><time>2026-04-25T06:46:45.279Z</time></trkpt><trkpt lat="44.5525032" lon="7.7236344"><ele>371.0</ele><time>2026-04-25T06:46:46.279Z</time></trkpt><trkpt lat="44.5524945" lon="7.7235281"><ele>370.5</ele><time>2026-04-25T06:46:47.28Z</time></trkpt><trkpt lat="44.5524884" lon="7.7234222"><ele>370.0</ele><time>2026-04-25T06:46:48.277Z</time></trkpt><trkpt lat="44.5524803" lon="7.7233152"><ele>369.3333333333333</ele><time>2026-04-25T06:46:49.277Z</time></trkpt><trkpt lat="44.5524721" lon="7.7232051"><ele>368.66666666666663</ele><time>2026-04-25T06:46:50.279Z</time></trkpt><trkpt lat="44.5524632" lon="7.7230865"><ele>368.0</ele><time>2026-04-25T06:46:51.277Z</time></trkpt><trkpt lat="44.5524543" lon="7.722959"><ele>367.3333333333333</ele><time>2026-04-25T06:46:52.279Z</time></trkpt><trkpt lat="44.552445" lon="7.7228294"><ele>366.6666666666667</ele><time>2026-04-25T06:46:53.279Z</time></trkpt><trkpt lat="44.5524354" lon="7.7227013"><ele>366.0</ele><time>2026-04-25T06:46:54.278Z</time></trkpt><trkpt lat="44.5524252" lon="7.7225787"><ele>364.8333333333333</ele><time>2026-04-25T06:46:55.279Z</time></trkpt><trkpt lat="44.5524151" lon="7.7224632"><ele>363.6666666666667</ele><time>2026-04-25T06:46:56.279Z</time></trkpt><trkpt lat="44.5524052" lon="7.7223545"><ele>362.5</ele><time>2026-04-25T06:46:57.278Z</time></trkpt><trkpt lat="44.5523964" lon="7.7222511"><ele>361.33333333333337</ele><time>2026-04-25T06:46:58.277Z</time></trkpt><trkpt lat="44.5523909" lon="7.7221548"><ele>360.1666666666667</ele><time>2026-04-25T06:46:59.277Z</time></trkpt><trkpt lat="44.5523843" lon="7.7220613"><ele>359.0</ele><time>2026-04-25T06:47:00.279Z</time></trkpt><trkpt lat="44.5523731" lon="7.7219014"><ele>358.79999999999995</ele><time>2026-04-25T06:47:02.279Z</time></trkpt><trkpt lat="44.5523667" lon="7.7217496"><ele>358.59999999999997</ele><time>2026-04-25T06:47:04.278Z</time></trkpt><trkpt lat="44.5523543" lon="7.721597"><ele>358.4</ele><time>2026-04-25T06:47:06.277Z</time></trkpt><trkpt lat="44.5523473" lon="7.7214225"><ele>358.2</ele><time>2026-04-25T06:47:08.28Z</time></trkpt><trkpt lat="44.5523472" lon="7.721325"><ele>358.0</ele><time>2026-04-25T06:47:09.28Z</time></trkpt><trkpt lat="44.5523614" lon="7.7212119"><ele>358.0</ele><time>2026-04-25T06:47:10.279Z</time></trkpt><trkpt lat="44.5523722" lon="7.7210829"><ele>358.0</ele><time>2026-04-25T06:47:11.281Z</time></trkpt><trkpt lat="44.5523847" lon="7.7209366"><ele>358.0</ele><time>2026-04-25T06:47:12.278Z</time></trkpt><trkpt lat="44.5524025" lon="7.7207944"><ele>358.0</ele><time>2026-04-25T06:47:13.279Z</time></trkpt><trkpt lat="44.5524136" lon="7.720658"><ele>358.0</ele><time>2026-04-25T06:47:14.277Z</time></trkpt><trkpt lat="44.5524295" lon="7.7205214"><ele>358.0</ele><time>2026-04-25T06:47:15.277Z</time></trkpt><trkpt lat="44.5524499" lon="7.7203841"><ele>358.0</ele><time>2026-04-25T06:47:16.278Z</time></trkpt><trkpt lat="44.5524755" lon="7.7202459"><ele>358.0</ele><time>2026-04-25T06:47:17.278Z</time></trkpt><trkpt lat="44.5525079" lon="7.7201019"><ele>358.0</ele><time>2026-04-25T06:47:18.279Z</time></trkpt><trkpt lat="44.5525519" lon="7.7199552"><ele>358.0</ele><time>2026-04-25T06:47:19.279Z</time></trkpt><trkpt lat="44.5526028" lon="7.7198129"><ele>358.0</ele><time>2026-04-25T06:47:20.28Z</time></trkpt><trkpt lat="44.5526537" lon="7.719684"><ele>358.0</ele><time>2026-04-25T06:47:21.279Z</time></trkpt><trkpt lat="44.5527114" lon="7.7195613"><ele>358.0</ele><time>2026-04-25T06:47:22.279Z</time></trkpt><trkpt lat="44.5527584" lon="7.7194494"><ele>358.0</ele><time>2026-04-25T06:47:23.28Z</time></trkpt><trkpt lat="44.5527868" lon="7.7193483"><ele>358.0</ele><time>2026-04-25T06:47:24.277Z</time></trkpt><trkpt lat="44.5528001" lon="7.7192529"><ele>358.0</ele><time>2026-04-25T06:47:25.279Z</time></trkpt><trkpt lat="44.5527391" lon="7.7191257"><ele>357.59999999999997</ele><time>2026-04-25T06:47:27.277Z</time></trkpt><trkpt lat="44.5526366" lon="7.719132"><ele>357.2</ele><time>2026-04-25T06:47:28.278Z</time></trkpt><trkpt lat="44.5525421" lon="7.7191443"><ele>356.8</ele><time>2026-04-25T06:47:29.278Z</time></trkpt><trkpt lat="44.5524406" lon="7.719177"><ele>356.4</ele><time>2026-04-25T06:47:30.279Z</time></trkpt><trkpt lat="44.5523203" lon="7.7192283"><ele>356.0</ele><time>2026-04-25T06:47:31.278Z</time></trkpt><trkpt lat="44.5521988" lon="7.7192625"><ele>356.0</ele><time>2026-04-25T06:47:32.281Z</time></trkpt><trkpt lat="44.5520813" lon="7.7192796"><ele>356.0</ele><time>2026-04-25T06:47:33.28Z</time></trkpt><trkpt lat="44.5519694" lon="7.7192878"><ele>356.0</ele><time>2026-04-25T06:47:34.28Z</time></trkpt><trkpt lat="44.5518682" lon="7.7192755"><ele>356.0</ele><time>2026-04-25T06:47:35.28Z</time></trkpt><trkpt lat="44.55177" lon="7.7192447"><ele>356.0</ele><time>2026-04-25T06:47:36.279Z</time></trkpt><trkpt lat="44.5516902" lon="7.7191841"><ele>356.0</ele><time>2026-04-25T06:47:37.279Z</time></trkpt><trkpt lat="44.5516189" lon="7.719105"><ele>356.0</ele><time>2026-04-25T06:47:38.28Z</time></trkpt><trkpt lat="44.5515522" lon="7.7189997"><ele>356.0</ele><time>2026-04-25T06:47:39.279Z</time></trkpt><trkpt lat="44.5514771" lon="7.7188984"><ele>356.0</ele><time>2026-04-25T06:47:40.278Z</time></trkpt><trkpt lat="44.551397" lon="7.7188216"><ele>356.0</ele><time>2026-04-25T06:47:41.279Z</time></trkpt><trkpt lat="44.5513139" lon="7.7187639"><ele>356.0</ele><time>2026-04-25T06:47:42.279Z</time></trkpt><trkpt lat="44.551226" lon="7.7187168"><ele>356.0</ele><time>2026-04-25T06:47:43.278Z</time></trkpt><trkpt lat="44.5511357" lon="7.7186861"><ele>356.0</ele><time>2026-04-25T06:47:44.279Z</time></trkpt><trkpt lat="44.5510406" lon="7.7186617"><ele>356.0</ele><time>2026-04-25T06:47:45.279Z</time></trkpt><trkpt lat="44.5509457" lon="7.718637"><ele>356.0</ele><time>2026-04-25T06:47:46.28Z</time></trkpt><trkpt lat="44.5508541" lon="7.7186102"><ele>356.1666666666667</ele><time>2026-04-25T06:47:47.281Z</time></trkpt><trkpt lat="44.5507674" lon="7.7185797"><ele>356.33333333333337</ele><time>2026-04-25T06:47:48.28Z</time></trkpt><trkpt lat="44.5506821" lon="7.7185464"><ele>356.5</ele><time>2026-04-25T06:47:49.28Z</time></trkpt><trkpt lat="44.5506021" lon="7.7185031"><ele>356.6666666666667</ele><time>2026-04-25T06:47:50.279Z</time></trkpt><trkpt lat="44.5505408" lon="7.7184709"><ele>356.8333333333333</ele><time>2026-04-25T06:47:51.279Z</time></trkpt><trkpt lat="44.5504479" lon="7.7184188"><ele>357.0</ele><time>2026-04-25T06:47:53.278Z</time></trkpt><trkpt lat="44.5503879" lon="7.7183894"><ele>357.14285714285717</ele><time>2026-04-25T06:47:54.279Z</time></trkpt><trkpt lat="44.5503243" lon="7.7183595"><ele>357.2857142857143</ele><time>2026-04-25T06:47:55.277Z</time></trkpt><trkpt lat="44.550258" lon="7.7183401"><ele>357.42857142857144</ele><time>2026-04-25T06:47:56.281Z</time></trkpt><trkpt lat="44.5501883" lon="7.7183204"><ele>357.57142857142856</ele><time>2026-04-25T06:47:57.279Z</time></trkpt><trkpt lat="44.5501152" lon="7.7182998"><ele>357.7142857142857</ele><time>2026-04-25T06:47:58.28Z</time></trkpt><trkpt lat="44.5500418" lon="7.7182809"><ele>357.8571428571429</ele><time>2026-04-25T06:47:59.278Z</time></trkpt><trkpt lat="44.5499594" lon="7.7182667"><ele>358.0</ele><time>2026-04-25T06:48:00.28Z</time></trkpt><trkpt lat="44.5498716" lon="7.7182529"><ele>358.0</ele><time>2026-04-25T06:48:01.28Z</time></trkpt><trkpt lat="44.549776" lon="7.7182325"><ele>358.0</ele><time>2026-04-25T06:48:02.279Z</time></trkpt><trkpt lat="44.5496708" lon="7.718207"><ele>358.0</ele><time>2026-04-25T06:48:03.279Z</time></trkpt><trkpt lat="44.549565" lon="7.7181851"><ele>358.0</ele><time>2026-04-25T06:48:04.276Z</time></trkpt><trkpt lat="44.5494607" lon="7.7181542"><ele>358.0</ele><time>2026-04-25T06:48:05.28Z</time></trkpt><trkpt lat="44.5493588" lon="7.7181281"><ele>358.2</ele><time>2026-04-25T06:48:06.279Z</time></trkpt><trkpt lat="44.5492758" lon="7.718107"><ele>358.4</ele><time>2026-04-25T06:48:07.278Z</time></trkpt><trkpt lat="44.5491881" lon="7.7180803"><ele>358.59999999999997</ele><time>2026-04-25T06:48:08.279Z</time></trkpt><trkpt lat="44.5490949" lon="7.7180557"><ele>358.79999999999995</ele><time>2026-04-25T06:48:09.281Z</time></trkpt><trkpt lat="44.5489955" lon="7.7180346"><ele>359.0</ele><time>2026-04-25T06:48:10.279Z</time></trkpt><trkpt lat="44.548886" lon="7.7180128"><ele>359.0</ele><time>2026-04-25T06:48:11.28Z</time></trkpt><trkpt lat="44.5487731" lon="7.7179921"><ele>359.0</ele><time>2026-04-25T06:48:12.28Z</time></trkpt><trkpt lat="44.5486646" lon="7.7179665"><ele>359.0</ele><time>2026-04-25T06:48:13.28Z</time></trkpt><trkpt lat="44.5485631" lon="7.7179432"><ele>359.0</ele><time>2026-04-25T06:48:14.279Z</time></trkpt><trkpt lat="44.5484625" lon="7.7179166"><ele>359.0</ele><time>2026-04-25T06:48:15.279Z</time></trkpt><trkpt lat="44.5483599" lon="7.7178893"><ele>359.0</ele><time>2026-04-25T06:48:16.28Z</time></trkpt><trkpt lat="44.5482522" lon="7.717862"><ele>359.0</ele><time>2026-04-25T06:48:17.279Z</time></trkpt><trkpt lat="44.5481478" lon="7.7178374"><ele>359.0</ele><time>2026-04-25T06:48:18.279Z</time></trkpt><trkpt lat="44.5480472" lon="7.7178167"><ele>359.0</ele><time>2026-04-25T06:48:19.28Z</time></trkpt><trkpt lat="44.5479498" lon="7.7178061"><ele>359.0</ele><time>2026-04-25T06:48:20.28Z</time></trkpt><trkpt lat="44.5478514" lon="7.7177906"><ele>359.0</ele><time>2026-04-25T06:48:21.28Z</time></trkpt><trkpt lat="44.547755" lon="7.7177818"><ele>359.0</ele><time>2026-04-25T06:48:22.279Z</time></trkpt><trkpt lat="44.5476563" lon="7.7177682"><ele>359.0</ele><time>2026-04-25T06:48:23.279Z</time></trkpt><trkpt lat="44.5475581" lon="7.7177605"><ele>359.0</ele><time>2026-04-25T06:48:24.278Z</time></trkpt><trkpt lat="44.5474609" lon="7.717751"><ele>359.0</ele><time>2026-04-25T06:48:25.28Z</time></trkpt><trkpt lat="44.5473717" lon="7.7177511"><ele>359.0</ele><time>2026-04-25T06:48:26.277Z</time></trkpt><trkpt lat="44.547287" lon="7.7177475"><ele>359.0</ele><time>2026-04-25T06:48:27.279Z</time></trkpt><trkpt lat="44.5472036" lon="7.7177468"><ele>359.0</ele><time>2026-04-25T06:48:28.277Z</time></trkpt><trkpt lat="44.5471196" lon="7.7177497"><ele>359.0</ele><time>2026-04-25T06:48:29.276Z</time></trkpt><trkpt lat="44.5470272" lon="7.7177495"><ele>359.0</ele><time>2026-04-25T06:48:30.277Z</time></trkpt><trkpt lat="44.5469323" lon="7.7177507"><ele>359.0</ele><time>2026-04-25T06:48:31.279Z</time></trkpt><trkpt lat="44.5468374" lon="7.7177463"><ele>359.0</ele><time>2026-04-25T06:48:32.279Z</time></trkpt><trkpt lat="44.5467478" lon="7.7177429"><ele>359.0</ele><time>2026-04-25T06:48:33.281Z</time></trkpt><trkpt lat="44.5466564" lon="7.7177418"><ele>359.0</ele><time>2026-04-25T06:48:34.279Z</time></trkpt><trkpt lat="44.5465663" lon="7.7177401"><ele>359.0</ele><time>2026-04-25T06:48:35.277Z</time></trkpt><trkpt lat="44.5464712" lon="7.7177398"><ele>359.0</ele><time>2026-04-25T06:48:36.279Z</time></trkpt><trkpt lat="44.5463759" lon="7.7177396"><ele>358.79999999999995</ele><time>2026-04-25T06:48:37.278Z</time></trkpt><trkpt lat="44.5462823" lon="7.7177332"><ele>358.59999999999997</ele><time>2026-04-25T06:48:38.277Z</time></trkpt><trkpt lat="44.5461839" lon="7.7177296"><ele>358.4</ele><time>2026-04-25T06:48:39.277Z</time></trkpt><trkpt lat="44.5460816" lon="7.7177272"><ele>358.2</ele><time>2026-04-25T06:48:40.279Z</time></trkpt><trkpt lat="44.545974" lon="7.7177229"><ele>358.0</ele><time>2026-04-25T06:48:41.277Z</time></trkpt><trkpt lat="44.5458715" lon="7.7177233"><ele>358.4</ele><time>2026-04-25T06:48:42.28Z</time></trkpt><trkpt lat="44.5457762" lon="7.7177218"><ele>358.79999999999995</ele><time>2026-04-25T06:48:43.28Z</time></trkpt><trkpt lat="44.5456851" lon="7.7177191"><ele>359.2</ele><time>2026-04-25T06:48:44.277Z</time></trkpt><trkpt lat="44.5455909" lon="7.7177255"><ele>359.6</ele><time>2026-04-25T06:48:45.28Z</time></trkpt><trkpt lat="44.5454972" lon="7.7177399"><ele>360.0</ele><time>2026-04-25T06:48:46.279Z</time></trkpt><trkpt lat="44.5454113" lon="7.7177487"><ele>359.8333333333333</ele><time>2026-04-25T06:48:47.277Z</time></trkpt><trkpt lat="44.5453324" lon="7.7177549"><ele>359.6666666666667</ele><time>2026-04-25T06:48:48.279Z</time></trkpt><trkpt lat="44.5452668" lon="7.7177564"><ele>359.5</ele><time>2026-04-25T06:48:49.278Z</time></trkpt><trkpt lat="44.5451677" lon="7.7177481"><ele>359.33333333333337</ele><time>2026-04-25T06:48:51.281Z</time></trkpt><trkpt lat="44.5450961" lon="7.7177343"><ele>359.1666666666667</ele><time>2026-04-25T06:48:54.279Z</time></trkpt><trkpt lat="44.5450452" lon="7.7175958"><ele>359.0</ele><time>2026-04-25T06:48:57.277Z</time></trkpt><trkpt lat="44.5450328" lon="7.7175"><ele>359.0</ele><time>2026-04-25T06:48:58.277Z</time></trkpt><trkpt lat="44.5450153" lon="7.717378"><ele>359.0</ele><time>2026-04-25T06:48:59.279Z</time></trkpt><trkpt lat="44.5449937" lon="7.7172358"><ele>359.0</ele><time>2026-04-25T06:49:00.278Z</time></trkpt><trkpt lat="44.5449726" lon="7.717088"><ele>359.0</ele><time>2026-04-25T06:49:01.279Z</time></trkpt><trkpt lat="44.5449568" lon="7.7169403"><ele>359.0</ele><time>2026-04-25T06:49:02.277Z</time></trkpt><trkpt lat="44.5449523" lon="7.716802"><ele>358.83333333333337</ele><time>2026-04-25T06:49:03.278Z</time></trkpt><trkpt lat="44.5449537" lon="7.7166774"><ele>358.6666666666667</ele><time>2026-04-25T06:49:04.275Z</time></trkpt><trkpt lat="44.5449541" lon="7.716562"><ele>358.5</ele><time>2026-04-25T06:49:05.278Z</time></trkpt><trkpt lat="44.5449451" lon="7.7164626"><ele>358.3333333333333</ele><time>2026-04-25T06:49:06.278Z</time></trkpt><trkpt lat="44.5449222" lon="7.7163748"><ele>358.16666666666663</ele><time>2026-04-25T06:49:07.278Z</time></trkpt><trkpt lat="44.5448535" lon="7.7163329"><ele>358.0</ele><time>2026-04-25T06:49:08.278Z</time></trkpt><trkpt lat="44.5447683" lon="7.7163043"><ele>358.0</ele><time>2026-04-25T06:49:09.281Z</time></trkpt><trkpt lat="44.5446814" lon="7.7163027"><ele>358.0</ele><time>2026-04-25T06:49:10.278Z</time></trkpt><trkpt lat="44.5445876" lon="7.7163118"><ele>358.0</ele><time>2026-04-25T06:49:11.277Z</time></trkpt><trkpt lat="44.5444772" lon="7.7163317"><ele>358.0</ele><time>2026-04-25T06:49:12.277Z</time></trkpt><trkpt lat="44.544354" lon="7.7163482"><ele>358.0</ele><time>2026-04-25T06:49:13.28Z</time></trkpt><trkpt lat="44.5442117" lon="7.7163621"><ele>358.0</ele><time>2026-04-25T06:49:14.278Z</time></trkpt><trkpt lat="44.5440588" lon="7.7163705"><ele>358.0</ele><time>2026-04-25T06:49:15.28Z</time></trkpt><trkpt lat="44.5439207" lon="7.7163765"><ele>358.0</ele><time>2026-04-25T06:49:16.277Z</time></trkpt><trkpt lat="44.5438117" lon="7.7163673"><ele>358.0</ele><time>2026-04-25T06:49:17.277Z</time></trkpt><trkpt lat="44.5437244" lon="7.7163438"><ele>357.8333333333333</ele><time>2026-04-25T06:49:18.277Z</time></trkpt><trkpt lat="44.5436434" lon="7.7163171"><ele>357.66666666666663</ele><time>2026-04-25T06:49:19.277Z</time></trkpt><trkpt lat="44.5435653" lon="7.7162739"><ele>357.5</ele><time>2026-04-25T06:49:20.279Z</time></trkpt><trkpt lat="44.5434915" lon="7.7162232"><ele>357.3333333333333</ele><time>2026-04-25T06:49:21.279Z</time></trkpt><trkpt lat="44.5434282" lon="7.7161411"><ele>357.1666666666667</ele><time>2026-04-25T06:49:22.278Z</time></trkpt><trkpt lat="44.5433714" lon="7.7160522"><ele>357.0</ele><time>2026-04-25T06:49:23.278Z</time></trkpt><trkpt lat="44.5433077" lon="7.7159465"><ele>357.5</ele><time>2026-04-25T06:49:24.279Z</time></trkpt><trkpt lat="44.5432288" lon="7.715818"><ele>358.0</ele><time>2026-04-25T06:49:25.279Z</time></trkpt><trkpt lat="44.5431452" lon="7.7156734"><ele>358.5</ele><time>2026-04-25T06:49:26.28Z</time></trkpt><trkpt lat="44.5430659" lon="7.7155281"><ele>359.0</ele><time>2026-04-25T06:49:27.278Z</time></trkpt><trkpt lat="44.5429938" lon="7.7153917"><ele>359.0</ele><time>2026-04-25T06:49:28.277Z</time></trkpt><trkpt lat="44.5429319" lon="7.7152752"><ele>359.0</ele><time>2026-04-25T06:49:29.279Z</time></trkpt><trkpt lat="44.5428854" lon="7.7151843"><ele>359.0</ele><time>2026-04-25T06:49:30.277Z</time></trkpt><trkpt lat="44.5428267" lon="7.7150646"><ele>359.0</ele><time>2026-04-25T06:49:32.28Z</time></trkpt><trkpt lat="44.5427349" lon="7.7150221"><ele>359.0</ele><time>2026-04-25T06:49:59.279Z</time></trkpt><trkpt lat="44.5426184" lon="7.7150488"><ele>359.0</ele><time>2026-04-25T06:50:01.278Z</time></trkpt><trkpt lat="44.5425509" lon="7.715094"><ele>359.0</ele><time>2026-04-25T06:50:02.279Z</time></trkpt><trkpt lat="44.542478" lon="7.7151523"><ele>359.0</ele><time>2026-04-25T06:50:03.281Z</time></trkpt><trkpt lat="44.5423983" lon="7.7152252"><ele>359.0</ele><time>2026-04-25T06:50:04.28Z</time></trkpt><trkpt lat="44.5423074" lon="7.7153185"><ele>359.0</ele><time>2026-04-25T06:50:05.277Z</time></trkpt><trkpt lat="44.542212" lon="7.7154209"><ele>358.75</ele><time>2026-04-25T06:50:06.28Z</time></trkpt><trkpt lat="44.5421099" lon="7.7155351"><ele>358.5</ele><time>2026-04-25T06:50:07.279Z</time></trkpt><trkpt lat="44.5419977" lon="7.7156568"><ele>358.25</ele><time>2026-04-25T06:50:08.278Z</time></trkpt><trkpt lat="44.5418828" lon="7.7157822"><ele>358.0</ele><time>2026-04-25T06:50:09.28Z</time></trkpt><trkpt lat="44.5417652" lon="7.7159083"><ele>357.66666666666663</ele><time>2026-04-25T06:50:10.277Z</time></trkpt><trkpt lat="44.5416478" lon="7.7160383"><ele>357.3333333333333</ele><time>2026-04-25T06:50:11.278Z</time></trkpt><trkpt lat="44.5415239" lon="7.7161706"><ele>357.0</ele><time>2026-04-25T06:50:12.279Z</time></trkpt><trkpt lat="44.5414035" lon="7.716303"><ele>356.75</ele><time>2026-04-25T06:50:13.281Z</time></trkpt><trkpt lat="44.5412896" lon="7.7164263"><ele>356.5</ele><time>2026-04-25T06:50:14.276Z</time></trkpt><trkpt lat="44.5411922" lon="7.7165289"><ele>356.25</ele><time>2026-04-25T06:50:15.28Z</time></trkpt><trkpt lat="44.541102" lon="7.7166173"><ele>356.0</ele><time>2026-04-25T06:50:16.276Z</time></trkpt><trkpt lat="44.5410229" lon="7.716697"><ele>355.6666666666667</ele><time>2026-04-25T06:50:17.277Z</time></trkpt><trkpt lat="44.5409468" lon="7.7167688"><ele>355.33333333333337</ele><time>2026-04-25T06:50:18.28Z</time></trkpt><trkpt lat="44.5408754" lon="7.7168316"><ele>355.0</ele><time>2026-04-25T06:50:19.28Z</time></trkpt><trkpt lat="44.5408035" lon="7.7168855"><ele>354.6666666666667</ele><time>2026-04-25T06:50:20.279Z</time></trkpt><trkpt lat="44.5407294" lon="7.7169424"><ele>354.3333333333333</ele><time>2026-04-25T06:50:21.279Z</time></trkpt><trkpt lat="44.5406545" lon="7.7170193"><ele>354.0</ele><time>2026-04-25T06:50:22.276Z</time></trkpt><trkpt lat="44.5405779" lon="7.717121"><ele>354.0</ele><time>2026-04-25T06:50:23.279Z</time></trkpt><trkpt lat="44.5405002" lon="7.7172315"><ele>354.0</ele><time>2026-04-25T06:50:24.278Z</time></trkpt><trkpt lat="44.5404171" lon="7.717332"><ele>354.0</ele><time>2026-04-25T06:50:25.278Z</time></trkpt><trkpt lat="44.5403285" lon="7.7174287"><ele>354.0</ele><time>2026-04-25T06:50:26.28Z</time></trkpt><trkpt lat="44.5402377" lon="7.7175287"><ele>354.0</ele><time>2026-04-25T06:50:27.279Z</time></trkpt><trkpt lat="44.5401441" lon="7.7176334"><ele>354.25</ele><time>2026-04-25T06:50:28.279Z</time></trkpt><trkpt lat="44.5400443" lon="7.7177422"><ele>354.5</ele><time>2026-04-25T06:50:29.278Z</time></trkpt><trkpt lat="44.5399439" lon="7.7178575"><ele>354.75</ele><time>2026-04-25T06:50:30.28Z</time></trkpt><trkpt lat="44.5398367" lon="7.7179741"><ele>355.0</ele><time>2026-04-25T06:50:31.28Z</time></trkpt><trkpt lat="44.5397274" lon="7.7180935"><ele>355.0</ele><time>2026-04-25T06:50:32.278Z</time></trkpt><trkpt lat="44.5396129" lon="7.7182119"><ele>355.0</ele><time>2026-04-25T06:50:33.279Z</time></trkpt><trkpt lat="44.539495" lon="7.7183432"><ele>355.0</ele><time>2026-04-25T06:50:34.276Z</time></trkpt><trkpt lat="44.5393698" lon="7.7184727"><ele>355.0</ele><time>2026-04-25T06:50:35.278Z</time></trkpt><trkpt lat="44.5392341" lon="7.7186118"><ele>353.66666666666663</ele><time>2026-04-25T06:50:36.278Z</time></trkpt><trkpt lat="44.5391024" lon="7.718748"><ele>352.3333333333333</ele><time>2026-04-25T06:50:37.281Z</time></trkpt><trkpt lat="44.53898" lon="7.7188845"><ele>351.0</ele><time>2026-04-25T06:50:38.278Z</time></trkpt><trkpt lat="44.5388578" lon="7.7190179"><ele>351.0</ele><time>2026-04-25T06:50:39.276Z</time></trkpt><trkpt lat="44.5387362" lon="7.7191461"><ele>351.0</ele><time>2026-04-25T06:50:40.275Z</time></trkpt><trkpt lat="44.5386166" lon="7.7192676"><ele>351.0</ele><time>2026-04-25T06:50:41.28Z</time></trkpt><trkpt lat="44.5384988" lon="7.7193799"><ele>351.0</ele><time>2026-04-25T06:50:42.28Z</time></trkpt><trkpt lat="44.5383765" lon="7.7194874"><ele>347.6666666666667</ele><time>2026-04-25T06:50:43.28Z</time></trkpt><trkpt lat="44.5382486" lon="7.7195907"><ele>344.33333333333337</ele><time>2026-04-25T06:50:44.28Z</time></trkpt><trkpt lat="44.5381143" lon="7.7196865"><ele>341.0</ele><time>2026-04-25T06:50:45.278Z</time></trkpt><trkpt lat="44.5379737" lon="7.7197772"><ele>341.33333333333337</ele><time>2026-04-25T06:50:46.277Z</time></trkpt><trkpt lat="44.5378262" lon="7.7198576"><ele>341.6666666666667</ele><time>2026-04-25T06:50:47.279Z</time></trkpt><trkpt lat="44.5376761" lon="7.7199287"><ele>342.0</ele><time>2026-04-25T06:50:48.277Z</time></trkpt><trkpt lat="44.537524" lon="7.7199937"><ele>342.0</ele><time>2026-04-25T06:50:49.281Z</time></trkpt><trkpt lat="44.5373702" lon="7.7200539"><ele>342.0</ele><time>2026-04-25T06:50:50.279Z</time></trkpt><trkpt lat="44.5372174" lon="7.7201103"><ele>342.0</ele><time>2026-04-25T06:50:51.278Z</time></trkpt><trkpt lat="44.5370604" lon="7.7201643"><ele>342.0</ele><time>2026-04-25T06:50:52.278Z</time></trkpt><trkpt lat="44.5369006" lon="7.7202212"><ele>342.0</ele><time>2026-04-25T06:50:53.277Z</time></trkpt><trkpt lat="44.536738" lon="7.720277"><ele>342.0</ele><time>2026-04-25T06:50:54.278Z</time></trkpt><trkpt lat="44.5365676" lon="7.7203494"><ele>341.6666666666667</ele><time>2026-04-25T06:50:55.276Z</time></trkpt><trkpt lat="44.5363875" lon="7.7204411"><ele>341.33333333333337</ele><time>2026-04-25T06:50:56.28Z</time></trkpt><trkpt lat="44.5362051" lon="7.7205308"><ele>341.0</ele><time>2026-04-25T06:50:57.279Z</time></trkpt><trkpt lat="44.5360136" lon="7.720612"><ele>340.6666666666667</ele><time>2026-04-25T06:50:58.279Z</time></trkpt><trkpt lat="44.5358141" lon="7.7206952"><ele>340.3333333333333</ele><time>2026-04-25T06:50:59.278Z</time></trkpt><trkpt lat="44.5356106" lon="7.7207777"><ele>340.0</ele><time>2026-04-25T06:51:00.279Z</time></trkpt><trkpt lat="44.5354088" lon="7.7208545"><ele>339.3333333333333</ele><time>2026-04-25T06:51:01.281Z</time></trkpt><trkpt lat="44.535217" lon="7.7209243"><ele>338.6666666666667</ele><time>2026-04-25T06:51:02.276Z</time></trkpt><trkpt lat="44.5350369" lon="7.7209924"><ele>338.0</ele><time>2026-04-25T06:51:03.277Z</time></trkpt><trkpt lat="44.5348591" lon="7.7210596"><ele>338.6666666666667</ele><time>2026-04-25T06:51:04.278Z</time></trkpt><trkpt lat="44.5346838" lon="7.7211222"><ele>339.3333333333333</ele><time>2026-04-25T06:51:05.28Z</time></trkpt><trkpt lat="44.5345083" lon="7.7211844"><ele>340.0</ele><time>2026-04-25T06:51:06.277Z</time></trkpt><trkpt lat="44.5343303" lon="7.7212395"><ele>340.3333333333333</ele><time>2026-04-25T06:51:07.277Z</time></trkpt><trkpt lat="44.5341481" lon="7.7212882"><ele>340.6666666666667</ele><time>2026-04-25T06:51:08.28Z</time></trkpt><trkpt lat="44.5339662" lon="7.7213356"><ele>341.0</ele><time>2026-04-25T06:51:09.28Z</time></trkpt><trkpt lat="44.5337945" lon="7.7213829"><ele>340.6666666666667</ele><time>2026-04-25T06:51:10.281Z</time></trkpt><trkpt lat="44.5336275" lon="7.721433"><ele>340.3333333333333</ele><time>2026-04-25T06:51:11.277Z</time></trkpt><trkpt lat="44.5334617" lon="7.721484"><ele>340.0</ele><time>2026-04-25T06:51:12.277Z</time></trkpt><trkpt lat="44.5332984" lon="7.7215356"><ele>340.0</ele><time>2026-04-25T06:51:13.278Z</time></trkpt><trkpt lat="44.5331439" lon="7.7215869"><ele>340.0</ele><time>2026-04-25T06:51:14.28Z</time></trkpt><trkpt lat="44.5329953" lon="7.7216332"><ele>340.0</ele><time>2026-04-25T06:51:15.279Z</time></trkpt><trkpt lat="44.5328526" lon="7.7216825"><ele>340.25</ele><time>2026-04-25T06:51:16.277Z</time></trkpt><trkpt lat="44.5327126" lon="7.7217309"><ele>340.5</ele><time>2026-04-25T06:51:17.277Z</time></trkpt><trkpt lat="44.5325748" lon="7.7217756"><ele>340.75</ele><time>2026-04-25T06:51:18.277Z</time></trkpt><trkpt lat="44.5324413" lon="7.7218208"><ele>341.0</ele><time>2026-04-25T06:51:19.277Z</time></trkpt><trkpt lat="44.5323133" lon="7.721863"><ele>340.5</ele><time>2026-04-25T06:51:20.28Z</time></trkpt><trkpt lat="44.5321903" lon="7.7219001"><ele>340.0</ele><time>2026-04-25T06:51:21.278Z</time></trkpt><trkpt lat="44.5320764" lon="7.721937"><ele>339.5</ele><time>2026-04-25T06:51:22.28Z</time></trkpt><trkpt lat="44.531971" lon="7.7219667"><ele>339.0</ele><time>2026-04-25T06:51:23.279Z</time></trkpt><trkpt lat="44.5318684" lon="7.7219786"><ele>339.0</ele><time>2026-04-25T06:51:24.28Z</time></trkpt><trkpt lat="44.5317548" lon="7.7219927"><ele>339.0</ele><time>2026-04-25T06:51:25.279Z</time></trkpt><trkpt lat="44.5316284" lon="7.7220353"><ele>339.0</ele><time>2026-04-25T06:51:26.28Z</time></trkpt><trkpt lat="44.5314924" lon="7.7221012"><ele>339.0</ele><time>2026-04-25T06:51:27.278Z</time></trkpt><trkpt lat="44.5313595" lon="7.7221709"><ele>339.0</ele><time>2026-04-25T06:51:28.281Z</time></trkpt><trkpt lat="44.5312286" lon="7.7222271"><ele>339.0</ele><time>2026-04-25T06:51:29.277Z</time></trkpt><trkpt lat="44.5311029" lon="7.7222699"><ele>339.0</ele><time>2026-04-25T06:51:30.276Z</time></trkpt><trkpt lat="44.5309814" lon="7.72231"><ele>339.0</ele><time>2026-04-25T06:51:31.28Z</time></trkpt><trkpt lat="44.5308595" lon="7.7223502"><ele>339.0</ele><time>2026-04-25T06:51:32.281Z</time></trkpt><trkpt lat="44.5307359" lon="7.7223931"><ele>339.0</ele><time>2026-04-25T06:51:33.28Z</time></trkpt><trkpt lat="44.5306091" lon="7.7224331"><ele>339.0</ele><time>2026-04-25T06:51:34.278Z</time></trkpt><trkpt lat="44.5304786" lon="7.7224757"><ele>339.0</ele><time>2026-04-25T06:51:35.276Z</time></trkpt><trkpt lat="44.5303424" lon="7.7225223"><ele>339.0</ele><time>2026-04-25T06:51:36.28Z</time></trkpt><trkpt lat="44.5301992" lon="7.722573"><ele>339.0</ele><time>2026-04-25T06:51:37.28Z</time></trkpt><trkpt lat="44.5300513" lon="7.7226252"><ele>339.0</ele><time>2026-04-25T06:51:38.278Z</time></trkpt><trkpt lat="44.5299035" lon="7.7226775"><ele>339.0</ele><time>2026-04-25T06:51:39.281Z</time></trkpt><trkpt lat="44.5297594" lon="7.7227231"><ele>339.0</ele><time>2026-04-25T06:51:40.28Z</time></trkpt><trkpt lat="44.5296164" lon="7.7227587"><ele>339.0</ele><time>2026-04-25T06:51:41.277Z</time></trkpt><trkpt lat="44.5294725" lon="7.7227851"><ele>339.0</ele><time>2026-04-25T06:51:42.279Z</time></trkpt><trkpt lat="44.5293283" lon="7.7227995"><ele>339.0</ele><time>2026-04-25T06:51:43.281Z</time></trkpt><trkpt lat="44.5291782" lon="7.7227958"><ele>339.0</ele><time>2026-04-25T06:51:44.279Z</time></trkpt><trkpt lat="44.5290224" lon="7.7227742"><ele>339.0</ele><time>2026-04-25T06:51:45.281Z</time></trkpt><trkpt lat="44.5288666" lon="7.7227211"><ele>337.3333333333333</ele><time>2026-04-25T06:51:46.277Z</time></trkpt><trkpt lat="44.5287061" lon="7.7226361"><ele>335.66666666666663</ele><time>2026-04-25T06:51:47.277Z</time></trkpt><trkpt lat="44.5285425" lon="7.7225359"><ele>334.0</ele><time>2026-04-25T06:51:48.278Z</time></trkpt><trkpt lat="44.5283759" lon="7.722426"><ele>334.0</ele><time>2026-04-25T06:51:49.28Z</time></trkpt><trkpt lat="44.5282028" lon="7.7223029"><ele>334.0</ele><time>2026-04-25T06:51:50.279Z</time></trkpt><trkpt lat="44.5280281" lon="7.7221687"><ele>334.0</ele><time>2026-04-25T06:51:51.277Z</time></trkpt><trkpt lat="44.5278477" lon="7.7220313"><ele>333.66666666666663</ele><time>2026-04-25T06:51:52.278Z</time></trkpt><trkpt lat="44.5276723" lon="7.7218926"><ele>333.3333333333333</ele><time>2026-04-25T06:51:53.28Z</time></trkpt><trkpt lat="44.5274976" lon="7.7217627"><ele>333.0</ele><time>2026-04-25T06:51:54.28Z</time></trkpt><trkpt lat="44.5273351" lon="7.7216353"><ele>333.0</ele><time>2026-04-25T06:51:55.278Z</time></trkpt><trkpt lat="44.52718" lon="7.7215125"><ele>333.0</ele><time>2026-04-25T06:51:56.277Z</time></trkpt><trkpt lat="44.5270331" lon="7.7213949"><ele>333.0</ele><time>2026-04-25T06:51:57.279Z</time></trkpt><trkpt lat="44.5268949" lon="7.7212827"><ele>333.25</ele><time>2026-04-25T06:51:58.279Z</time></trkpt><trkpt lat="44.5267645" lon="7.7211815"><ele>333.5</ele><time>2026-04-25T06:51:59.279Z</time></trkpt><trkpt lat="44.5266367" lon="7.7210918"><ele>333.75</ele><time>2026-04-25T06:52:00.279Z</time></trkpt><trkpt lat="44.5265095" lon="7.7210241"><ele>334.0</ele><time>2026-04-25T06:52:01.279Z</time></trkpt><trkpt lat="44.5263862" lon="7.7209776"><ele>334.0</ele><time>2026-04-25T06:52:02.277Z</time></trkpt><trkpt lat="44.5262597" lon="7.720953"><ele>334.0</ele><time>2026-04-25T06:52:03.279Z</time></trkpt><trkpt lat="44.5261312" lon="7.7209555"><ele>334.0</ele><time>2026-04-25T06:52:04.28Z</time></trkpt><trkpt lat="44.5259892" lon="7.720985"><ele>334.0</ele><time>2026-04-25T06:52:05.28Z</time></trkpt><trkpt lat="44.5258496" lon="7.721044"><ele>331.5</ele><time>2026-04-25T06:52:06.279Z</time></trkpt><trkpt lat="44.5257112" lon="7.7211254"><ele>329.0</ele><time>2026-04-25T06:52:07.279Z</time></trkpt><trkpt lat="44.5255773" lon="7.7212131"><ele>326.5</ele><time>2026-04-25T06:52:08.28Z</time></trkpt><trkpt lat="44.5254462" lon="7.7212999"><ele>324.0</ele><time>2026-04-25T06:52:09.278Z</time></trkpt><trkpt lat="44.5253068" lon="7.7213895"><ele>322.6666666666667</ele><time>2026-04-25T06:52:10.278Z</time></trkpt><trkpt lat="44.5251638" lon="7.7214856"><ele>321.33333333333337</ele><time>2026-04-25T06:52:11.28Z</time></trkpt><trkpt lat="44.5250165" lon="7.7215814"><ele>320.0</ele><time>2026-04-25T06:52:12.28Z</time></trkpt><trkpt lat="44.5248649" lon="7.7216772"><ele>320.0</ele><time>2026-04-25T06:52:13.279Z</time></trkpt><trkpt lat="44.5247128" lon="7.7217805"><ele>320.0</ele><time>2026-04-25T06:52:14.28Z</time></trkpt><trkpt lat="44.52457" lon="7.7219019"><ele>320.0</ele><time>2026-04-25T06:52:15.279Z</time></trkpt><trkpt lat="44.5244384" lon="7.7220411"><ele>319.6666666666667</ele><time>2026-04-25T06:52:16.276Z</time></trkpt><trkpt lat="44.5243215" lon="7.7222013"><ele>319.3333333333333</ele><time>2026-04-25T06:52:17.279Z</time></trkpt><trkpt lat="44.524224" lon="7.7223801"><ele>319.0</ele><time>2026-04-25T06:52:18.278Z</time></trkpt><trkpt lat="44.5241451" lon="7.7225722"><ele>318.3333333333333</ele><time>2026-04-25T06:52:19.279Z</time></trkpt><trkpt lat="44.5240836" lon="7.7227877"><ele>317.6666666666667</ele><time>2026-04-25T06:52:20.277Z</time></trkpt><trkpt lat="44.5240344" lon="7.7230131"><ele>317.0</ele><time>2026-04-25T06:52:21.279Z</time></trkpt><trkpt lat="44.5239956" lon="7.7232299"><ele>317.0</ele><time>2026-04-25T06:52:22.28Z</time></trkpt><trkpt lat="44.5239623" lon="7.7234325"><ele>317.0</ele><time>2026-04-25T06:52:23.278Z</time></trkpt><trkpt lat="44.5239314" lon="7.7236157"><ele>317.0</ele><time>2026-04-25T06:52:24.279Z</time></trkpt><trkpt lat="44.5239022" lon="7.7237879"><ele>317.0</ele><time>2026-04-25T06:52:25.277Z</time></trkpt><trkpt lat="44.5238654" lon="7.7239706"><ele>317.25</ele><time>2026-04-25T06:52:26.276Z</time></trkpt><trkpt lat="44.5238264" lon="7.7241603"><ele>317.5</ele><time>2026-04-25T06:52:27.28Z</time></trkpt><trkpt lat="44.5237888" lon="7.7243551"><ele>317.75</ele><time>2026-04-25T06:52:28.276Z</time></trkpt><trkpt lat="44.5237526" lon="7.7245443"><ele>318.0</ele><time>2026-04-25T06:52:29.277Z</time></trkpt><trkpt lat="44.5237189" lon="7.7247239"><ele>318.0</ele><time>2026-04-25T06:52:30.279Z</time></trkpt><trkpt lat="44.5236886" lon="7.7248951"><ele>318.0</ele><time>2026-04-25T06:52:31.279Z</time></trkpt><trkpt lat="44.5236601" lon="7.7250538"><ele>318.0</ele><time>2026-04-25T06:52:32.279Z</time></trkpt><trkpt lat="44.5236056" lon="7.7252063"><ele>318.0</ele><time>2026-04-25T06:52:33.28Z</time></trkpt><trkpt lat="44.5235171" lon="7.7253436"><ele>323.3333333333333</ele><time>2026-04-25T06:52:34.279Z</time></trkpt><trkpt lat="44.5233976" lon="7.7254641"><ele>328.66666666666663</ele><time>2026-04-25T06:52:35.279Z</time></trkpt><trkpt lat="44.5232556" lon="7.7255647"><ele>334.0</ele><time>2026-04-25T06:52:36.279Z</time></trkpt><trkpt lat="44.5230922" lon="7.7256319"><ele>334.0</ele><time>2026-04-25T06:52:37.28Z</time></trkpt><trkpt lat="44.5229149" lon="7.7256728"><ele>334.0</ele><time>2026-04-25T06:52:38.279Z</time></trkpt><trkpt lat="44.5227342" lon="7.7256993"><ele>334.0</ele><time>2026-04-25T06:52:39.277Z</time></trkpt><trkpt lat="44.5225645" lon="7.7257234"><ele>334.0</ele><time>2026-04-25T06:52:40.28Z</time></trkpt><trkpt lat="44.5224083" lon="7.7257418"><ele>334.0</ele><time>2026-04-25T06:52:41.277Z</time></trkpt><trkpt lat="44.5222639" lon="7.7257599"><ele>334.0</ele><time>2026-04-25T06:52:42.279Z</time></trkpt><trkpt lat="44.5221339" lon="7.7257795"><ele>334.0</ele><time>2026-04-25T06:52:43.278Z</time></trkpt><trkpt lat="44.5220121" lon="7.7257953"><ele>334.0</ele><time>2026-04-25T06:52:44.277Z</time></trkpt><trkpt lat="44.521892" lon="7.725808"><ele>334.0</ele><time>2026-04-25T06:52:45.279Z</time></trkpt><trkpt lat="44.5217743" lon="7.7258086"><ele>334.0</ele><time>2026-04-25T06:52:46.277Z</time></trkpt><trkpt lat="44.5216479" lon="7.7257929"><ele>334.0</ele><time>2026-04-25T06:52:47.28Z</time></trkpt><trkpt lat="44.5215099" lon="7.7257651"><ele>334.0</ele><time>2026-04-25T06:52:48.277Z</time></trkpt><trkpt lat="44.5213632" lon="7.7257277"><ele>334.0</ele><time>2026-04-25T06:52:49.28Z</time></trkpt><trkpt lat="44.521213" lon="7.7256839"><ele>334.0</ele><time>2026-04-25T06:52:50.278Z</time></trkpt><trkpt lat="44.5210545" lon="7.7256391"><ele>335.66666666666663</ele><time>2026-04-25T06:52:51.278Z</time></trkpt><trkpt lat="44.5208881" lon="7.7255908"><ele>337.3333333333333</ele><time>2026-04-25T06:52:52.28Z</time></trkpt><trkpt lat="44.5207174" lon="7.7255462"><ele>339.0</ele><time>2026-04-25T06:52:53.279Z</time></trkpt><trkpt lat="44.5205437" lon="7.7255037"><ele>342.3333333333333</ele><time>2026-04-25T06:52:54.28Z</time></trkpt><trkpt lat="44.5203876" lon="7.7254651"><ele>345.66666666666663</ele><time>2026-04-25T06:52:55.279Z</time></trkpt><trkpt lat="44.5202361" lon="7.7254306"><ele>349.0</ele><time>2026-04-25T06:52:56.278Z</time></trkpt><trkpt lat="44.5200885" lon="7.7253901"><ele>349.0</ele><time>2026-04-25T06:52:57.278Z</time></trkpt><trkpt lat="44.5199472" lon="7.7253465"><ele>349.0</ele><time>2026-04-25T06:52:58.279Z</time></trkpt><trkpt lat="44.5198197" lon="7.7252855"><ele>349.0</ele><time>2026-04-25T06:52:59.277Z</time></trkpt><trkpt lat="44.5197012" lon="7.7252044"><ele>349.0</ele><time>2026-04-25T06:53:00.279Z</time></trkpt><trkpt lat="44.5196028" lon="7.7251262"><ele>348.8333333333333</ele><time>2026-04-25T06:53:01.279Z</time></trkpt><trkpt lat="44.5195155" lon="7.7250689"><ele>348.66666666666663</ele><time>2026-04-25T06:53:02.279Z</time></trkpt><trkpt lat="44.5194348" lon="7.7250316"><ele>348.5</ele><time>2026-04-25T06:53:03.281Z</time></trkpt><trkpt lat="44.5193651" lon="7.7250222"><ele>348.3333333333333</ele><time>2026-04-25T06:53:04.28Z</time></trkpt><trkpt lat="44.5193039" lon="7.7250443"><ele>348.1666666666667</ele><time>2026-04-25T06:53:05.279Z</time></trkpt><trkpt lat="44.5192456" lon="7.7250937"><ele>348.0</ele><time>2026-04-25T06:53:06.278Z</time></trkpt><trkpt lat="44.5192594" lon="7.7251871"><ele>348.25</ele><time>2026-04-25T06:53:07.277Z</time></trkpt><trkpt lat="44.5193137" lon="7.7253094"><ele>348.5</ele><time>2026-04-25T06:53:08.279Z</time></trkpt><trkpt lat="44.5193807" lon="7.7254287"><ele>348.75</ele><time>2026-04-25T06:53:09.28Z</time></trkpt><trkpt lat="44.519479" lon="7.7255367"><ele>349.0</ele><time>2026-04-25T06:53:10.279Z</time></trkpt><trkpt lat="44.5196042" lon="7.7256453"><ele>349.0</ele><time>2026-04-25T06:53:11.28Z</time></trkpt><trkpt lat="44.519743" lon="7.7257556"><ele>349.0</ele><time>2026-04-25T06:53:12.278Z</time></trkpt><trkpt lat="44.5198912" lon="7.7258698"><ele>349.0</ele><time>2026-04-25T06:53:13.277Z</time></trkpt><trkpt lat="44.520046" lon="7.7259906"><ele>350.66666666666663</ele><time>2026-04-25T06:53:14.277Z</time></trkpt><trkpt lat="44.5202026" lon="7.7261179"><ele>352.3333333333333</ele><time>2026-04-25T06:53:15.281Z</time></trkpt><trkpt lat="44.5203632" lon="7.7262537"><ele>354.0</ele><time>2026-04-25T06:53:16.278Z</time></trkpt><trkpt lat="44.5205296" lon="7.7263917"><ele>354.0</ele><time>2026-04-25T06:53:17.28Z</time></trkpt><trkpt lat="44.5206967" lon="7.7265379"><ele>354.0</ele><time>2026-04-25T06:53:18.278Z</time></trkpt><trkpt lat="44.5208646" lon="7.7266871"><ele>354.0</ele><time>2026-04-25T06:53:19.278Z</time></trkpt><trkpt lat="44.5210311" lon="7.7268512"><ele>353.6666666666667</ele><time>2026-04-25T06:53:20.281Z</time></trkpt><trkpt lat="44.521197" lon="7.7270277"><ele>353.33333333333337</ele><time>2026-04-25T06:53:21.278Z</time></trkpt><trkpt lat="44.5213615" lon="7.727216"><ele>353.0</ele><time>2026-04-25T06:53:22.279Z</time></trkpt><trkpt lat="44.521519" lon="7.727416"><ele>353.0</ele><time>2026-04-25T06:53:23.277Z</time></trkpt><trkpt lat="44.5216749" lon="7.7276321"><ele>353.0</ele><time>2026-04-25T06:53:24.28Z</time></trkpt><trkpt lat="44.5218307" lon="7.727831"><ele>353.0</ele><time>2026-04-25T06:53:25.28Z</time></trkpt><trkpt lat="44.5219877" lon="7.7280028"><ele>355.6666666666667</ele><time>2026-04-25T06:53:26.28Z</time></trkpt><trkpt lat="44.5221559" lon="7.7281481"><ele>358.3333333333333</ele><time>2026-04-25T06:53:27.277Z</time></trkpt><trkpt lat="44.5223432" lon="7.7282635"><ele>361.0</ele><time>2026-04-25T06:53:28.276Z</time></trkpt><trkpt lat="44.5225367" lon="7.7283538"><ele>361.0</ele><time>2026-04-25T06:53:29.277Z</time></trkpt><trkpt lat="44.5227431" lon="7.7284222"><ele>361.0</ele><time>2026-04-25T06:53:30.277Z</time></trkpt><trkpt lat="44.5229521" lon="7.7284695"><ele>361.0</ele><time>2026-04-25T06:53:31.279Z</time></trkpt><trkpt lat="44.5231578" lon="7.7284955"><ele>362.66666666666663</ele><time>2026-04-25T06:53:32.277Z</time></trkpt><trkpt lat="44.5233366" lon="7.7285195"><ele>364.3333333333333</ele><time>2026-04-25T06:53:33.281Z</time></trkpt><trkpt lat="44.5234927" lon="7.7285634"><ele>366.0</ele><time>2026-04-25T06:53:34.277Z</time></trkpt><trkpt lat="44.523627" lon="7.7286488"><ele>363.6666666666667</ele><time>2026-04-25T06:53:35.279Z</time></trkpt><trkpt lat="44.5237513" lon="7.7287708"><ele>361.33333333333337</ele><time>2026-04-25T06:53:36.277Z</time></trkpt><trkpt lat="44.5238646" lon="7.7289223"><ele>359.0</ele><time>2026-04-25T06:53:37.278Z</time></trkpt><trkpt lat="44.5239785" lon="7.7290975"><ele>359.0</ele><time>2026-04-25T06:53:38.278Z</time></trkpt><trkpt lat="44.5240925" lon="7.7292798"><ele>359.0</ele><time>2026-04-25T06:53:39.277Z</time></trkpt><trkpt lat="44.5242227" lon="7.7294591"><ele>359.0</ele><time>2026-04-25T06:53:40.28Z</time></trkpt><trkpt lat="44.5243754" lon="7.7296118"><ele>361.0</ele><time>2026-04-25T06:53:41.279Z</time></trkpt><trkpt lat="44.5245435" lon="7.7297162"><ele>363.0</ele><time>2026-04-25T06:53:42.278Z</time></trkpt><trkpt lat="44.5247158" lon="7.7297773"><ele>365.0</ele><time>2026-04-25T06:53:43.281Z</time></trkpt><trkpt lat="44.5248749" lon="7.7298221"><ele>365.0</ele><time>2026-04-25T06:53:44.28Z</time></trkpt><trkpt lat="44.5250131" lon="7.7298834"><ele>365.0</ele><time>2026-04-25T06:53:45.281Z</time></trkpt><trkpt lat="44.525135" lon="7.7299802"><ele>365.0</ele><time>2026-04-25T06:53:46.277Z</time></trkpt><trkpt lat="44.5252323" lon="7.7301142"><ele>365.0</ele><time>2026-04-25T06:53:47.277Z</time></trkpt><trkpt lat="44.525295" lon="7.7302921"><ele>365.33333333333337</ele><time>2026-04-25T06:53:48.278Z</time></trkpt><trkpt lat="44.5253141" lon="7.7305004"><ele>365.6666666666667</ele><time>2026-04-25T06:53:49.279Z</time></trkpt><trkpt lat="44.5252973" lon="7.7307211"><ele>366.0</ele><time>2026-04-25T06:53:50.278Z</time></trkpt><trkpt lat="44.5252557" lon="7.7309466"><ele>365.0</ele><time>2026-04-25T06:53:51.279Z</time></trkpt><trkpt lat="44.5251849" lon="7.7311664"><ele>364.0</ele><time>2026-04-25T06:53:52.276Z</time></trkpt><trkpt lat="44.5250878" lon="7.731382"><ele>363.0</ele><time>2026-04-25T06:53:53.278Z</time></trkpt><trkpt lat="44.5249715" lon="7.7315929"><ele>363.0</ele><time>2026-04-25T06:53:54.28Z</time></trkpt><trkpt lat="44.5248417" lon="7.7318051"><ele>363.0</ele><time>2026-04-25T06:53:55.277Z</time></trkpt><trkpt lat="44.5247083" lon="7.732015"><ele>363.0</ele><time>2026-04-25T06:53:56.278Z</time></trkpt><trkpt lat="44.5245732" lon="7.7322253"><ele>364.0</ele><time>2026-04-25T06:53:57.281Z</time></trkpt><trkpt lat="44.5244369" lon="7.7324388"><ele>365.0</ele><time>2026-04-25T06:53:58.279Z</time></trkpt><trkpt lat="44.5242923" lon="7.7326623"><ele>366.0</ele><time>2026-04-25T06:53:59.28Z</time></trkpt><trkpt lat="44.5241458" lon="7.7328899"><ele>366.0</ele><time>2026-04-25T06:54:00.28Z</time></trkpt><trkpt lat="44.5239935" lon="7.7331245"><ele>366.0</ele><time>2026-04-25T06:54:01.277Z</time></trkpt><trkpt lat="44.5238437" lon="7.7333632"><ele>366.5</ele><time>2026-04-25T06:54:02.278Z</time></trkpt><trkpt lat="44.5236897" lon="7.7336046"><ele>367.0</ele><time>2026-04-25T06:54:03.28Z</time></trkpt><trkpt lat="44.5235338" lon="7.7338492"><ele>367.0</ele><time>2026-04-25T06:54:04.279Z</time></trkpt><trkpt lat="44.5233752" lon="7.7340996"><ele>367.0</ele><time>2026-04-25T06:54:05.28Z</time></trkpt><trkpt lat="44.5232174" lon="7.734352"><ele>366.5</ele><time>2026-04-25T06:54:06.277Z</time></trkpt><trkpt lat="44.5230513" lon="7.7346119"><ele>366.0</ele><time>2026-04-25T06:54:07.278Z</time></trkpt><trkpt lat="44.5228806" lon="7.7348823"><ele>366.0</ele><time>2026-04-25T06:54:08.279Z</time></trkpt><trkpt lat="44.5227074" lon="7.7351499"><ele>366.0</ele><time>2026-04-25T06:54:09.281Z</time></trkpt><trkpt lat="44.5225374" lon="7.7354145"><ele>365.0</ele><time>2026-04-25T06:54:10.278Z</time></trkpt><trkpt lat="44.5223694" lon="7.7356789"><ele>364.0</ele><time>2026-04-25T06:54:11.276Z</time></trkpt><trkpt lat="44.5222036" lon="7.7359416"><ele>364.0</ele><time>2026-04-25T06:54:12.278Z</time></trkpt><trkpt lat="44.5220326" lon="7.7362116"><ele>364.0</ele><time>2026-04-25T06:54:13.28Z</time></trkpt><trkpt lat="44.5218637" lon="7.736477"><ele>364.0</ele><time>2026-04-25T06:54:14.277Z</time></trkpt><trkpt lat="44.521695" lon="7.7367408"><ele>364.0</ele><time>2026-04-25T06:54:15.28Z</time></trkpt><trkpt lat="44.5215231" lon="7.7370072"><ele>363.5</ele><time>2026-04-25T06:54:16.276Z</time></trkpt><trkpt lat="44.5213515" lon="7.7372675"><ele>363.0</ele><time>2026-04-25T06:54:17.279Z</time></trkpt><trkpt lat="44.5211767" lon="7.7375186"><ele>362.6666666666667</ele><time>2026-04-25T06:54:18.277Z</time></trkpt><trkpt lat="44.5210185" lon="7.7377365"><ele>362.33333333333337</ele><time>2026-04-25T06:54:19.279Z</time></trkpt><trkpt lat="44.5208729" lon="7.7379509"><ele>362.0</ele><time>2026-04-25T06:54:20.279Z</time></trkpt><trkpt lat="44.5207403" lon="7.7381566"><ele>362.0</ele><time>2026-04-25T06:54:21.28Z</time></trkpt><trkpt lat="44.5206134" lon="7.7383431"><ele>362.0</ele><time>2026-04-25T06:54:22.278Z</time></trkpt><trkpt lat="44.5204913" lon="7.7385146"><ele>362.0</ele><time>2026-04-25T06:54:23.277Z</time></trkpt><trkpt lat="44.5203804" lon="7.7386807"><ele>362.75</ele><time>2026-04-25T06:54:24.279Z</time></trkpt><trkpt lat="44.5202857" lon="7.738844"><ele>363.5</ele><time>2026-04-25T06:54:25.276Z</time></trkpt><trkpt lat="44.5202006" lon="7.7390029"><ele>364.25</ele><time>2026-04-25T06:54:26.28Z</time></trkpt><trkpt lat="44.5201222" lon="7.7391686"><ele>365.0</ele><time>2026-04-25T06:54:27.28Z</time></trkpt><trkpt lat="44.5200475" lon="7.7393416"><ele>365.0</ele><time>2026-04-25T06:54:28.278Z</time></trkpt><trkpt lat="44.5199776" lon="7.7395201"><ele>365.0</ele><time>2026-04-25T06:54:29.28Z</time></trkpt><trkpt lat="44.5199065" lon="7.739701"><ele>365.0</ele><time>2026-04-25T06:54:30.28Z</time></trkpt><trkpt lat="44.5198346" lon="7.7398836"><ele>365.0</ele><time>2026-04-25T06:54:31.279Z</time></trkpt><trkpt lat="44.5197593" lon="7.7400717"><ele>365.33333333333337</ele><time>2026-04-25T06:54:32.28Z</time></trkpt><trkpt lat="44.5196777" lon="7.7402702"><ele>365.6666666666667</ele><time>2026-04-25T06:54:33.28Z</time></trkpt><trkpt lat="44.5195867" lon="7.7404774"><ele>366.0</ele><time>2026-04-25T06:54:34.279Z</time></trkpt><trkpt lat="44.5194786" lon="7.740685"><ele>366.3333333333333</ele><time>2026-04-25T06:54:35.279Z</time></trkpt><trkpt lat="44.5193596" lon="7.7408751"><ele>366.66666666666663</ele><time>2026-04-25T06:54:36.277Z</time></trkpt><trkpt lat="44.5192371" lon="7.7410343"><ele>367.0</ele><time>2026-04-25T06:54:37.279Z</time></trkpt><trkpt lat="44.5191087" lon="7.7411921"><ele>366.3333333333333</ele><time>2026-04-25T06:54:38.277Z</time></trkpt><trkpt lat="44.5189794" lon="7.741349"><ele>365.6666666666667</ele><time>2026-04-25T06:54:39.277Z</time></trkpt><trkpt lat="44.5188583" lon="7.7414927"><ele>365.0</ele><time>2026-04-25T06:54:40.279Z</time></trkpt><trkpt lat="44.5187412" lon="7.7416324"><ele>365.33333333333337</ele><time>2026-04-25T06:54:41.28Z</time></trkpt><trkpt lat="44.5186201" lon="7.7417764"><ele>365.6666666666667</ele><time>2026-04-25T06:54:42.28Z</time></trkpt><trkpt lat="44.5184959" lon="7.7419277"><ele>366.0</ele><time>2026-04-25T06:54:43.276Z</time></trkpt><trkpt lat="44.5183699" lon="7.7420766"><ele>365.3333333333333</ele><time>2026-04-25T06:54:44.279Z</time></trkpt><trkpt lat="44.5182468" lon="7.7422194"><ele>364.66666666666663</ele><time>2026-04-25T06:54:45.278Z</time></trkpt><trkpt lat="44.518125" lon="7.7423638"><ele>364.0</ele><time>2026-04-25T06:54:46.279Z</time></trkpt><trkpt lat="44.5179975" lon="7.7425147"><ele>364.0</ele><time>2026-04-25T06:54:47.278Z</time></trkpt><trkpt lat="44.5178747" lon="7.7426714"><ele>364.0</ele><time>2026-04-25T06:54:48.28Z</time></trkpt><trkpt lat="44.5177554" lon="7.7428368"><ele>364.0</ele><time>2026-04-25T06:54:49.278Z</time></trkpt><trkpt lat="44.5176377" lon="7.7430118"><ele>364.3333333333333</ele><time>2026-04-25T06:54:50.278Z</time></trkpt><trkpt lat="44.5175153" lon="7.7431963"><ele>364.6666666666667</ele><time>2026-04-25T06:54:51.28Z</time></trkpt><trkpt lat="44.517392" lon="7.7433806"><ele>365.0</ele><time>2026-04-25T06:54:52.28Z</time></trkpt><trkpt lat="44.5172671" lon="7.7435709"><ele>365.33333333333337</ele><time>2026-04-25T06:54:53.278Z</time></trkpt><trkpt lat="44.5171414" lon="7.7437657"><ele>365.6666666666667</ele><time>2026-04-25T06:54:54.277Z</time></trkpt><trkpt lat="44.5170117" lon="7.7439625"><ele>366.0</ele><time>2026-04-25T06:54:55.277Z</time></trkpt><trkpt lat="44.5168774" lon="7.7441612"><ele>366.0</ele><time>2026-04-25T06:54:56.276Z</time></trkpt><trkpt lat="44.5167388" lon="7.7443572"><ele>366.0</ele><time>2026-04-25T06:54:57.278Z</time></trkpt><trkpt lat="44.5165934" lon="7.7445445"><ele>366.0</ele><time>2026-04-25T06:54:58.277Z</time></trkpt><trkpt lat="44.5164449" lon="7.7447276"><ele>366.0</ele><time>2026-04-25T06:54:59.28Z</time></trkpt><trkpt lat="44.5162941" lon="7.7449074"><ele>366.0</ele><time>2026-04-25T06:55:00.278Z</time></trkpt><trkpt lat="44.5161414" lon="7.7450846"><ele>366.0</ele><time>2026-04-25T06:55:01.279Z</time></trkpt><trkpt lat="44.5159864" lon="7.7452536"><ele>366.0</ele><time>2026-04-25T06:55:02.279Z</time></trkpt><trkpt lat="44.5158263" lon="7.7454163"><ele>366.0</ele><time>2026-04-25T06:55:03.277Z</time></trkpt><trkpt lat="44.5156651" lon="7.7455776"><ele>366.0</ele><time>2026-04-25T06:55:04.278Z</time></trkpt><trkpt lat="44.5155005" lon="7.7457404"><ele>365.6666666666667</ele><time>2026-04-25T06:55:05.277Z</time></trkpt><trkpt lat="44.515337" lon="7.7459011"><ele>365.33333333333337</ele><time>2026-04-25T06:55:06.277Z</time></trkpt><trkpt lat="44.5151766" lon="7.7460617"><ele>365.0</ele><time>2026-04-25T06:55:07.277Z</time></trkpt><trkpt lat="44.5150157" lon="7.7462248"><ele>365.0</ele><time>2026-04-25T06:55:08.278Z</time></trkpt><trkpt lat="44.5148567" lon="7.7463887"><ele>365.0</ele><time>2026-04-25T06:55:09.28Z</time></trkpt><trkpt lat="44.5147003" lon="7.7465577"><ele>365.0</ele><time>2026-04-25T06:55:10.28Z</time></trkpt><trkpt lat="44.5145505" lon="7.7467445"><ele>365.0</ele><time>2026-04-25T06:55:11.276Z</time></trkpt><trkpt lat="44.5144068" lon="7.7469468"><ele>365.0</ele><time>2026-04-25T06:55:12.277Z</time></trkpt><trkpt lat="44.51427" lon="7.7471643"><ele>365.0</ele><time>2026-04-25T06:55:13.279Z</time></trkpt><trkpt lat="44.514137" lon="7.74739"><ele>365.0</ele><time>2026-04-25T06:55:14.28Z</time></trkpt><trkpt lat="44.5140097" lon="7.7476169"><ele>365.0</ele><time>2026-04-25T06:55:15.277Z</time></trkpt><trkpt lat="44.5138823" lon="7.7478438"><ele>365.0</ele><time>2026-04-25T06:55:16.279Z</time></trkpt><trkpt lat="44.5137553" lon="7.7480636"><ele>365.6666666666667</ele><time>2026-04-25T06:55:17.278Z</time></trkpt><trkpt lat="44.5136367" lon="7.7482635"><ele>366.3333333333333</ele><time>2026-04-25T06:55:18.278Z</time></trkpt><trkpt lat="44.5135161" lon="7.748452"><ele>367.0</ele><time>2026-04-25T06:55:19.277Z</time></trkpt><trkpt lat="44.5133925" lon="7.7486334"><ele>367.0</ele><time>2026-04-25T06:55:20.278Z</time></trkpt><trkpt lat="44.5132651" lon="7.7488035"><ele>367.0</ele><time>2026-04-25T06:55:21.28Z</time></trkpt><trkpt lat="44.5131336" lon="7.7489684"><ele>367.0</ele><time>2026-04-25T06:55:22.279Z</time></trkpt><trkpt lat="44.5130042" lon="7.7491312"><ele>367.0</ele><time>2026-04-25T06:55:23.277Z</time></trkpt><trkpt lat="44.5128713" lon="7.7492928"><ele>367.0</ele><time>2026-04-25T06:55:24.279Z</time></trkpt><trkpt lat="44.512738" lon="7.749455"><ele>367.0</ele><time>2026-04-25T06:55:25.277Z</time></trkpt><trkpt lat="44.5126084" lon="7.749619"><ele>367.0</ele><time>2026-04-25T06:55:26.277Z</time></trkpt><trkpt lat="44.5124808" lon="7.7497844"><ele>367.0</ele><time>2026-04-25T06:55:27.277Z</time></trkpt><trkpt lat="44.5123525" lon="7.7499495"><ele>367.0</ele><time>2026-04-25T06:55:28.28Z</time></trkpt><trkpt lat="44.5122264" lon="7.7501153"><ele>367.0</ele><time>2026-04-25T06:55:29.278Z</time></trkpt><trkpt lat="44.5121025" lon="7.7502816"><ele>367.0</ele><time>2026-04-25T06:55:30.275Z</time></trkpt><trkpt lat="44.5119786" lon="7.7504464"><ele>367.0</ele><time>2026-04-25T06:55:31.279Z</time></trkpt><trkpt lat="44.5118484" lon="7.7506115"><ele>367.66666666666663</ele><time>2026-04-25T06:55:32.28Z</time></trkpt><trkpt lat="44.5117146" lon="7.7507787"><ele>368.3333333333333</ele><time>2026-04-25T06:55:33.277Z</time></trkpt><trkpt lat="44.5115823" lon="7.7509475"><ele>369.0</ele><time>2026-04-25T06:55:34.275Z</time></trkpt><trkpt lat="44.5114492" lon="7.7511191"><ele>369.3333333333333</ele><time>2026-04-25T06:55:35.277Z</time></trkpt><trkpt lat="44.5113192" lon="7.751291"><ele>369.66666666666663</ele><time>2026-04-25T06:55:36.276Z</time></trkpt><trkpt lat="44.5112042" lon="7.7514442"><ele>370.0</ele><time>2026-04-25T06:55:37.276Z</time></trkpt><trkpt lat="44.5110976" lon="7.751578"><ele>370.0</ele><time>2026-04-25T06:55:38.278Z</time></trkpt><trkpt lat="44.5109951" lon="7.7517082"><ele>370.0</ele><time>2026-04-25T06:55:39.276Z</time></trkpt><trkpt lat="44.5108865" lon="7.7518379"><ele>370.0</ele><time>2026-04-25T06:55:40.275Z</time></trkpt><trkpt lat="44.5107688" lon="7.75196"><ele>370.0</ele><time>2026-04-25T06:55:41.276Z</time></trkpt><trkpt lat="44.5106453" lon="7.752073"><ele>370.0</ele><time>2026-04-25T06:55:42.275Z</time></trkpt><trkpt lat="44.510509" lon="7.7521712"><ele>370.0</ele><time>2026-04-25T06:55:43.276Z</time></trkpt><trkpt lat="44.5103579" lon="7.7522567"><ele>370.0</ele><time>2026-04-25T06:55:44.275Z</time></trkpt><trkpt lat="44.5102022" lon="7.752333"><ele>370.0</ele><time>2026-04-25T06:55:45.277Z</time></trkpt><trkpt lat="44.5100363" lon="7.7524058"><ele>370.0</ele><time>2026-04-25T06:55:46.276Z</time></trkpt><trkpt lat="44.5098601" lon="7.7524752"><ele>370.0</ele><time>2026-04-25T06:55:47.276Z</time></trkpt><trkpt lat="44.5096818" lon="7.7525478"><ele>370.0</ele><time>2026-04-25T06:55:48.275Z</time></trkpt><trkpt lat="44.5095034" lon="7.7526233"><ele>370.0</ele><time>2026-04-25T06:55:49.277Z</time></trkpt><trkpt lat="44.5093372" lon="7.7526897"><ele>370.0</ele><time>2026-04-25T06:55:50.275Z</time></trkpt><trkpt lat="44.5091913" lon="7.7527455"><ele>370.0</ele><time>2026-04-25T06:55:51.276Z</time></trkpt><trkpt lat="44.5090704" lon="7.7527882"><ele>370.0</ele><time>2026-04-25T06:55:52.275Z</time></trkpt><trkpt lat="44.5089763" lon="7.7527995"><ele>370.0</ele><time>2026-04-25T06:55:53.276Z</time></trkpt><trkpt lat="44.5088941" lon="7.7527959"><ele>370.0</ele><time>2026-04-25T06:55:54.275Z</time></trkpt><trkpt lat="44.5088199" lon="7.7527741"><ele>370.0</ele><time>2026-04-25T06:55:55.276Z</time></trkpt><trkpt lat="44.5087517" lon="7.7527445"><ele>370.0</ele><time>2026-04-25T06:55:56.28Z</time></trkpt><trkpt lat="44.5086649" lon="7.7527877"><ele>370.0</ele><time>2026-04-25T06:55:58.275Z</time></trkpt><trkpt lat="44.5086227" lon="7.7529136"><ele>370.0</ele><time>2026-04-25T06:56:00.276Z</time></trkpt><trkpt lat="44.5086349" lon="7.7530077"><ele>370.0</ele><time>2026-04-25T06:56:01.278Z</time></trkpt><trkpt lat="44.5086628" lon="7.7531142"><ele>370.0</ele><time>2026-04-25T06:56:02.277Z</time></trkpt><trkpt lat="44.5086888" lon="7.753238"><ele>370.0</ele><time>2026-04-25T06:56:03.278Z</time></trkpt><trkpt lat="44.5086918" lon="7.753387"><ele>370.0</ele><time>2026-04-25T06:56:04.277Z</time></trkpt><trkpt lat="44.5086831" lon="7.7535458"><ele>370.0</ele><time>2026-04-25T06:56:05.276Z</time></trkpt><trkpt lat="44.5086684" lon="7.7537157"><ele>370.0</ele><time>2026-04-25T06:56:06.276Z</time></trkpt><trkpt lat="44.5086484" lon="7.7538933"><ele>370.0</ele><time>2026-04-25T06:56:07.277Z</time></trkpt><trkpt lat="44.5086303" lon="7.7540851"><ele>370.0</ele><time>2026-04-25T06:56:08.277Z</time></trkpt><trkpt lat="44.5086089" lon="7.7542765"><ele>369.5</ele><time>2026-04-25T06:56:09.278Z</time></trkpt><trkpt lat="44.5085863" lon="7.7544629"><ele>369.0</ele><time>2026-04-25T06:56:10.275Z</time></trkpt><trkpt lat="44.5085639" lon="7.7546415"><ele>368.5</ele><time>2026-04-25T06:56:11.275Z</time></trkpt><trkpt lat="44.5085446" lon="7.754807"><ele>368.0</ele><time>2026-04-25T06:56:12.277Z</time></trkpt><trkpt lat="44.5085246" lon="7.7549642"><ele>368.0</ele><time>2026-04-25T06:56:13.278Z</time></trkpt><trkpt lat="44.5085115" lon="7.7551127"><ele>368.0</ele><time>2026-04-25T06:56:14.279Z</time></trkpt><trkpt lat="44.5085047" lon="7.7552543"><ele>368.0</ele><time>2026-04-25T06:56:15.279Z</time></trkpt><trkpt lat="44.508498" lon="7.7553923"><ele>368.0</ele><time>2026-04-25T06:56:16.276Z</time></trkpt><trkpt lat="44.508486" lon="7.7555359"><ele>368.0</ele><time>2026-04-25T06:56:17.279Z</time></trkpt><trkpt lat="44.5084781" lon="7.7556812"><ele>367.79999999999995</ele><time>2026-04-25T06:56:18.276Z</time></trkpt><trkpt lat="44.5084722" lon="7.7558214"><ele>367.6</ele><time>2026-04-25T06:56:19.278Z</time></trkpt><trkpt lat="44.5084624" lon="7.7559515"><ele>367.4</ele><time>2026-04-25T06:56:20.278Z</time></trkpt><trkpt lat="44.5084504" lon="7.7560809"><ele>367.20000000000005</ele><time>2026-04-25T06:56:21.279Z</time></trkpt><trkpt lat="44.508439" lon="7.7562022"><ele>367.0</ele><time>2026-04-25T06:56:22.277Z</time></trkpt><trkpt lat="44.5084195" lon="7.7563197"><ele>367.57142857142856</ele><time>2026-04-25T06:56:23.276Z</time></trkpt><trkpt lat="44.5083947" lon="7.7564216"><ele>368.14285714285717</ele><time>2026-04-25T06:56:24.278Z</time></trkpt><trkpt lat="44.508363" lon="7.7565096"><ele>368.7142857142857</ele><time>2026-04-25T06:56:25.276Z</time></trkpt><trkpt lat="44.5083276" lon="7.7565983"><ele>369.2857142857143</ele><time>2026-04-25T06:56:26.278Z</time></trkpt><trkpt lat="44.5082917" lon="7.7566892"><ele>369.8571428571429</ele><time>2026-04-25T06:56:27.278Z</time></trkpt><trkpt lat="44.5082524" lon="7.7567787"><ele>370.42857142857144</ele><time>2026-04-25T06:56:28.279Z</time></trkpt><trkpt lat="44.5082101" lon="7.7568728"><ele>371.0</ele><time>2026-04-25T06:56:29.278Z</time></trkpt><trkpt lat="44.5081671" lon="7.7569732"><ele>372.83333333333337</ele><time>2026-04-25T06:56:30.278Z</time></trkpt><trkpt lat="44.5081235" lon="7.7570741"><ele>374.6666666666667</ele><time>2026-04-25T06:56:31.278Z</time></trkpt><trkpt lat="44.5080767" lon="7.7571688"><ele>376.5</ele><time>2026-04-25T06:56:32.279Z</time></trkpt><trkpt lat="44.5080341" lon="7.7572648"><ele>378.3333333333333</ele><time>2026-04-25T06:56:33.279Z</time></trkpt><trkpt lat="44.5079931" lon="7.7573551"><ele>380.16666666666663</ele><time>2026-04-25T06:56:34.277Z</time></trkpt><trkpt lat="44.5079624" lon="7.7574339"><ele>382.0</ele><time>2026-04-25T06:56:35.276Z</time></trkpt><trkpt lat="44.5079245" lon="7.7575609"><ele>382.0</ele><time>2026-04-25T06:56:37.278Z</time></trkpt><trkpt lat="44.5078966" lon="7.7576788"><ele>375.0</ele><time>2026-04-25T06:56:39.277Z</time></trkpt><trkpt lat="44.5078994" lon="7.7577881"><ele>377.0</ele><time>2026-04-25T06:56:41.279Z</time></trkpt><trkpt lat="44.5079288" lon="7.7578914"><ele>380.0</ele><time>2026-04-25T06:56:44.279Z</time></trkpt><trkpt lat="44.5079908" lon="7.7579254"><ele>380.0</ele><time>2026-04-25T06:56:48.279Z</time></trkpt></trkseg></trk></gpx>